<?xml version="1.0" encoding="UTF-8" standalone="no" ?>
<gpx xmlns="http://www.topografix.com/GPX/1/1" xmlns:xsi="http://www.w3.org/2001/XMLSchema-instance" xsi:schemaLocation="http://www.topografix.com/GPX/1/1 http://www.topografix.com/GPX/1/1/gpx.xsd" version="1.1" creator="VisuGPX - https://www.visugpx.com">
  <metadata>
    <name>11000585-Etape 5 PN</name>
    <desc><![CDATA[11000348-Etape 1 PN
]]></desc>
  </metadata>
  <trk>
    <name><![CDATA[11000585-Etape 5 PN]]></name>
    <trkseg>
      <trkpt lat="46.10182" lon="3.19715">
        <ele>344</ele>
        <time>2020-02-12T11:02:13Z</time>
      </trkpt>
      <trkpt lat="46.10162" lon="3.19726">
        <ele>344</ele>
        <time>2020-02-12T11:02:17Z</time>
      </trkpt>
      <trkpt lat="46.10093" lon="3.1974">
        <ele>347</ele>
        <time>2020-02-12T11:02:29Z</time>
      </trkpt>
      <trkpt lat="46.10045" lon="3.19733">
        <ele>347</ele>
        <time>2020-02-12T11:02:38Z</time>
      </trkpt>
      <trkpt lat="46.09937" lon="3.19797">
        <ele>342</ele>
        <time>2020-02-12T11:02:59Z</time>
      </trkpt>
      <trkpt lat="46.09904" lon="3.19812">
        <ele>341</ele>
        <time>2020-02-12T11:03:05Z</time>
      </trkpt>
      <trkpt lat="46.09846" lon="3.19817">
        <ele>342</ele>
        <time>2020-02-12T11:03:15Z</time>
      </trkpt>
      <trkpt lat="46.09821" lon="3.19816">
        <ele>342</ele>
        <time>2020-02-12T11:03:20Z</time>
      </trkpt>
      <trkpt lat="46.09812" lon="3.19812">
        <ele>342</ele>
        <time>2020-02-12T11:03:21Z</time>
      </trkpt>
      <trkpt lat="46.09806" lon="3.19816">
        <ele>342</ele>
        <time>2020-02-12T11:03:22Z</time>
      </trkpt>
      <trkpt lat="46.09781" lon="3.19818">
        <ele>343</ele>
        <time>2020-02-12T11:03:27Z</time>
      </trkpt>
      <trkpt lat="46.09799" lon="3.19955">
        <ele>342</ele>
        <time>2020-02-12T11:03:44Z</time>
      </trkpt>
      <trkpt lat="46.09807" lon="3.19999">
        <ele>342</ele>
        <time>2020-02-12T11:03:50Z</time>
      </trkpt>
      <trkpt lat="46.09824" lon="3.20065">
        <ele>340</ele>
        <time>2020-02-12T11:03:58Z</time>
      </trkpt>
      <trkpt lat="46.09831" lon="3.20082">
        <ele>340</ele>
        <time>2020-02-12T11:04:01Z</time>
      </trkpt>
      <trkpt lat="46.09878" lon="3.20167">
        <ele>339</ele>
        <time>2020-02-12T11:04:14Z</time>
      </trkpt>
      <trkpt lat="46.09886" lon="3.20187">
        <ele>339</ele>
        <time>2020-02-12T11:04:17Z</time>
      </trkpt>
      <trkpt lat="46.09904" lon="3.20245">
        <ele>339</ele>
        <time>2020-02-12T11:04:25Z</time>
      </trkpt>
      <trkpt lat="46.09899" lon="3.20255">
        <ele>339</ele>
        <time>2020-02-12T11:04:26Z</time>
      </trkpt>
      <trkpt lat="46.09901" lon="3.20266">
        <ele>339</ele>
        <time>2020-02-12T11:04:28Z</time>
      </trkpt>
      <trkpt lat="46.09904" lon="3.2027">
        <ele>339</ele>
        <time>2020-02-12T11:04:29Z</time>
      </trkpt>
      <trkpt lat="46.09911" lon="3.20271">
        <ele>339</ele>
        <time>2020-02-12T11:04:30Z</time>
      </trkpt>
      <trkpt lat="46.09917" lon="3.20265">
        <ele>339</ele>
        <time>2020-02-12T11:04:31Z</time>
      </trkpt>
      <trkpt lat="46.09968" lon="3.20384">
        <ele>338</ele>
        <time>2020-02-12T11:04:48Z</time>
      </trkpt>
      <trkpt lat="46.09981" lon="3.20428">
        <ele>338</ele>
        <time>2020-02-12T11:04:54Z</time>
      </trkpt>
      <trkpt lat="46.09983" lon="3.2047">
        <ele>337</ele>
        <time>2020-02-12T11:04:59Z</time>
      </trkpt>
      <trkpt lat="46.09978" lon="3.20523">
        <ele>337</ele>
        <time>2020-02-12T11:05:06Z</time>
      </trkpt>
      <trkpt lat="46.09953" lon="3.20585">
        <ele>338</ele>
        <time>2020-02-12T11:05:15Z</time>
      </trkpt>
      <trkpt lat="46.09882" lon="3.20602">
        <ele>338</ele>
        <time>2020-02-12T11:05:28Z</time>
      </trkpt>
      <trkpt lat="46.09819" lon="3.20624">
        <ele>338</ele>
        <time>2020-02-12T11:05:39Z</time>
      </trkpt>
      <trkpt lat="46.09788" lon="3.20631">
        <ele>338</ele>
        <time>2020-02-12T11:05:45Z</time>
      </trkpt>
      <trkpt lat="46.09597" lon="3.20649">
        <ele>338</ele>
        <time>2020-02-12T11:06:19Z</time>
      </trkpt>
      <trkpt lat="46.0953" lon="3.20817">
        <ele>336</ele>
        <time>2020-02-12T11:06:43Z</time>
      </trkpt>
      <trkpt lat="46.09502" lon="3.20879">
        <ele>334</ele>
        <time>2020-02-12T11:06:52Z</time>
      </trkpt>
      <trkpt lat="46.09471" lon="3.20938">
        <ele>333</ele>
        <time>2020-02-12T11:07:01Z</time>
      </trkpt>
      <trkpt lat="46.09377" lon="3.21104">
        <ele>330</ele>
        <time>2020-02-12T11:07:27Z</time>
      </trkpt>
      <trkpt lat="46.09342" lon="3.21178">
        <ele>331</ele>
        <time>2020-02-12T11:07:39Z</time>
      </trkpt>
      <trkpt lat="46.09152" lon="3.21705">
        <ele>328</ele>
        <time>2020-02-12T11:08:52Z</time>
      </trkpt>
      <trkpt lat="46.09109" lon="3.21814">
        <ele>326</ele>
        <time>2020-02-12T11:09:07Z</time>
      </trkpt>
      <trkpt lat="46.08851" lon="3.22261">
        <ele>326</ele>
        <time>2020-02-12T11:10:19Z</time>
      </trkpt>
      <trkpt lat="46.08829" lon="3.22306">
        <ele>326</ele>
        <time>2020-02-12T11:10:26Z</time>
      </trkpt>
      <trkpt lat="46.08814" lon="3.22344">
        <ele>325</ele>
        <time>2020-02-12T11:10:31Z</time>
      </trkpt>
      <trkpt lat="46.08802" lon="3.22386">
        <ele>326</ele>
        <time>2020-02-12T11:10:37Z</time>
      </trkpt>
      <trkpt lat="46.08755" lon="3.22615">
        <ele>328</ele>
        <time>2020-02-12T11:11:06Z</time>
      </trkpt>
      <trkpt lat="46.08745" lon="3.22654">
        <ele>329</ele>
        <time>2020-02-12T11:11:11Z</time>
      </trkpt>
      <trkpt lat="46.0874" lon="3.22671">
        <ele>330</ele>
        <time>2020-02-12T11:11:14Z</time>
      </trkpt>
      <trkpt lat="46.08717" lon="3.22726">
        <ele>331</ele>
        <time>2020-02-12T11:11:22Z</time>
      </trkpt>
      <trkpt lat="46.08686" lon="3.22782">
        <ele>331</ele>
        <time>2020-02-12T11:11:30Z</time>
      </trkpt>
      <trkpt lat="46.08588" lon="3.2292">
        <ele>331</ele>
        <time>2020-02-12T11:11:55Z</time>
      </trkpt>
      <trkpt lat="46.08516" lon="3.23049">
        <ele>331</ele>
        <time>2020-02-12T11:12:15Z</time>
      </trkpt>
      <trkpt lat="46.08438" lon="3.23208">
        <ele>328</ele>
        <time>2020-02-12T11:12:39Z</time>
      </trkpt>
      <trkpt lat="46.08365" lon="3.23417">
        <ele>334</ele>
        <time>2020-02-12T11:13:08Z</time>
      </trkpt>
      <trkpt lat="46.08344" lon="3.23452">
        <ele>335</ele>
        <time>2020-02-12T11:13:14Z</time>
      </trkpt>
      <trkpt lat="46.08292" lon="3.23514">
        <ele>335</ele>
        <time>2020-02-12T11:13:26Z</time>
      </trkpt>
      <trkpt lat="46.08252" lon="3.23574">
        <ele>335</ele>
        <time>2020-02-12T11:13:36Z</time>
      </trkpt>
      <trkpt lat="46.07837" lon="3.24475">
        <ele>340</ele>
        <time>2020-02-12T11:15:50Z</time>
      </trkpt>
      <trkpt lat="46.07602" lon="3.24902">
        <ele>354</ele>
        <time>2020-02-12T11:16:57Z</time>
      </trkpt>
      <trkpt lat="46.07587" lon="3.24936">
        <ele>356</ele>
        <time>2020-02-12T11:17:02Z</time>
      </trkpt>
      <trkpt lat="46.07584" lon="3.24964">
        <ele>357</ele>
        <time>2020-02-12T11:17:05Z</time>
      </trkpt>
      <trkpt lat="46.07587" lon="3.24981">
        <ele>357</ele>
        <time>2020-02-12T11:17:08Z</time>
      </trkpt>
      <trkpt lat="46.07601" lon="3.25026">
        <ele>357</ele>
        <time>2020-02-12T11:17:14Z</time>
      </trkpt>
      <trkpt lat="46.07632" lon="3.25098">
        <ele>357</ele>
        <time>2020-02-12T11:17:24Z</time>
      </trkpt>
      <trkpt lat="46.07679" lon="3.25182">
        <ele>358</ele>
        <time>2020-02-12T11:17:37Z</time>
      </trkpt>
      <trkpt lat="46.07685" lon="3.25208">
        <ele>359</ele>
        <time>2020-02-12T11:17:41Z</time>
      </trkpt>
      <trkpt lat="46.07677" lon="3.25243">
        <ele>360</ele>
        <time>2020-02-12T11:17:45Z</time>
      </trkpt>
      <trkpt lat="46.07643" lon="3.25339">
        <ele>363</ele>
        <time>2020-02-12T11:17:59Z</time>
      </trkpt>
      <trkpt lat="46.07636" lon="3.25356">
        <ele>364</ele>
        <time>2020-02-12T11:18:01Z</time>
      </trkpt>
      <trkpt lat="46.07612" lon="3.25398">
        <ele>365</ele>
        <time>2020-02-12T11:18:08Z</time>
      </trkpt>
      <trkpt lat="46.07603" lon="3.25421">
        <ele>366</ele>
        <time>2020-02-12T11:18:11Z</time>
      </trkpt>
      <trkpt lat="46.0759" lon="3.25484">
        <ele>368</ele>
        <time>2020-02-12T11:18:19Z</time>
      </trkpt>
      <trkpt lat="46.07559" lon="3.25581">
        <ele>370</ele>
        <time>2020-02-12T11:18:32Z</time>
      </trkpt>
      <trkpt lat="46.07553" lon="3.25613">
        <ele>371</ele>
        <time>2020-02-12T11:18:36Z</time>
      </trkpt>
      <trkpt lat="46.07556" lon="3.25642">
        <ele>372</ele>
        <time>2020-02-12T11:18:40Z</time>
      </trkpt>
      <trkpt lat="46.07591" lon="3.25754">
        <ele>374</ele>
        <time>2020-02-12T11:18:55Z</time>
      </trkpt>
      <trkpt lat="46.07614" lon="3.25848">
        <ele>374</ele>
        <time>2020-02-12T11:19:08Z</time>
      </trkpt>
      <trkpt lat="46.07624" lon="3.25905">
        <ele>374</ele>
        <time>2020-02-12T11:19:15Z</time>
      </trkpt>
      <trkpt lat="46.07633" lon="3.25978">
        <ele>375</ele>
        <time>2020-02-12T11:19:24Z</time>
      </trkpt>
      <trkpt lat="46.07643" lon="3.263">
        <ele>371</ele>
        <time>2020-02-12T11:20:04Z</time>
      </trkpt>
      <trkpt lat="46.07629" lon="3.26598">
        <ele>368</ele>
        <time>2020-02-12T11:20:41Z</time>
      </trkpt>
      <trkpt lat="46.07628" lon="3.26666">
        <ele>367</ele>
        <time>2020-02-12T11:20:49Z</time>
      </trkpt>
      <trkpt lat="46.07632" lon="3.26728">
        <ele>367</ele>
        <time>2020-02-12T11:20:57Z</time>
      </trkpt>
      <trkpt lat="46.07644" lon="3.26824">
        <ele>366</ele>
        <time>2020-02-12T11:21:09Z</time>
      </trkpt>
      <trkpt lat="46.07645" lon="3.26872">
        <ele>365</ele>
        <time>2020-02-12T11:21:15Z</time>
      </trkpt>
      <trkpt lat="46.07643" lon="3.2691">
        <ele>365</ele>
        <time>2020-02-12T11:21:19Z</time>
      </trkpt>
      <trkpt lat="46.07619" lon="3.2707">
        <ele>364</ele>
        <time>2020-02-12T11:21:40Z</time>
      </trkpt>
      <trkpt lat="46.07616" lon="3.27104">
        <ele>364</ele>
        <time>2020-02-12T11:21:44Z</time>
      </trkpt>
      <trkpt lat="46.07617" lon="3.27117">
        <ele>364</ele>
        <time>2020-02-12T11:21:45Z</time>
      </trkpt>
      <trkpt lat="46.07628" lon="3.27153">
        <ele>363</ele>
        <time>2020-02-12T11:21:50Z</time>
      </trkpt>
      <trkpt lat="46.07671" lon="3.2724">
        <ele>360</ele>
        <time>2020-02-12T11:22:03Z</time>
      </trkpt>
      <trkpt lat="46.07685" lon="3.27276">
        <ele>359</ele>
        <time>2020-02-12T11:22:09Z</time>
      </trkpt>
      <trkpt lat="46.07629" lon="3.27345">
        <ele>360</ele>
        <time>2020-02-12T11:22:22Z</time>
      </trkpt>
      <trkpt lat="46.07577" lon="3.27424">
        <ele>358</ele>
        <time>2020-02-12T11:22:35Z</time>
      </trkpt>
      <trkpt lat="46.07554" lon="3.2747">
        <ele>359</ele>
        <time>2020-02-12T11:22:42Z</time>
      </trkpt>
      <trkpt lat="46.0752" lon="3.27551">
        <ele>359</ele>
        <time>2020-02-12T11:22:54Z</time>
      </trkpt>
      <trkpt lat="46.07508" lon="3.27565">
        <ele>358</ele>
        <time>2020-02-12T11:22:57Z</time>
      </trkpt>
      <trkpt lat="46.07476" lon="3.27585">
        <ele>358</ele>
        <time>2020-02-12T11:23:03Z</time>
      </trkpt>
      <trkpt lat="46.07461" lon="3.276">
        <ele>358</ele>
        <time>2020-02-12T11:23:06Z</time>
      </trkpt>
      <trkpt lat="46.07446" lon="3.27626">
        <ele>357</ele>
        <time>2020-02-12T11:23:10Z</time>
      </trkpt>
      <trkpt lat="46.07407" lon="3.27709">
        <ele>357</ele>
        <time>2020-02-12T11:23:23Z</time>
      </trkpt>
      <trkpt lat="46.07393" lon="3.27736">
        <ele>356</ele>
        <time>2020-02-12T11:23:27Z</time>
      </trkpt>
      <trkpt lat="46.07386" lon="3.27745">
        <ele>356</ele>
        <time>2020-02-12T11:23:28Z</time>
      </trkpt>
      <trkpt lat="46.0737" lon="3.27759">
        <ele>356</ele>
        <time>2020-02-12T11:23:32Z</time>
      </trkpt>
      <trkpt lat="46.07349" lon="3.27767">
        <ele>357</ele>
        <time>2020-02-12T11:23:36Z</time>
      </trkpt>
      <trkpt lat="46.0722" lon="3.27791">
        <ele>360</ele>
        <time>2020-02-12T11:23:59Z</time>
      </trkpt>
      <trkpt lat="46.07183" lon="3.278">
        <ele>362</ele>
        <time>2020-02-12T11:24:05Z</time>
      </trkpt>
      <trkpt lat="46.07166" lon="3.27809">
        <ele>363</ele>
        <time>2020-02-12T11:24:09Z</time>
      </trkpt>
      <trkpt lat="46.07147" lon="3.27828">
        <ele>363</ele>
        <time>2020-02-12T11:24:13Z</time>
      </trkpt>
      <trkpt lat="46.06786" lon="3.28501">
        <ele>388</ele>
        <time>2020-02-12T11:25:58Z</time>
      </trkpt>
      <trkpt lat="46.06484" lon="3.28988">
        <ele>383</ele>
        <time>2020-02-12T11:27:18Z</time>
      </trkpt>
      <trkpt lat="46.06445" lon="3.29055">
        <ele>387</ele>
        <time>2020-02-12T11:27:29Z</time>
      </trkpt>
      <trkpt lat="46.06393" lon="3.29173">
        <ele>389</ele>
        <time>2020-02-12T11:27:46Z</time>
      </trkpt>
      <trkpt lat="46.06353" lon="3.29239">
        <ele>388</ele>
        <time>2020-02-12T11:27:57Z</time>
      </trkpt>
      <trkpt lat="46.06341" lon="3.29266">
        <ele>387</ele>
        <time>2020-02-12T11:28:01Z</time>
      </trkpt>
      <trkpt lat="46.06289" lon="3.2944">
        <ele>387</ele>
        <time>2020-02-12T11:28:25Z</time>
      </trkpt>
      <trkpt lat="46.06267" lon="3.29491">
        <ele>389</ele>
        <time>2020-02-12T11:28:32Z</time>
      </trkpt>
      <trkpt lat="46.06231" lon="3.29557">
        <ele>393</ele>
        <time>2020-02-12T11:28:42Z</time>
      </trkpt>
      <trkpt lat="46.0622" lon="3.29582">
        <ele>394</ele>
        <time>2020-02-12T11:28:46Z</time>
      </trkpt>
      <trkpt lat="46.06217" lon="3.29606">
        <ele>395</ele>
        <time>2020-02-12T11:28:49Z</time>
      </trkpt>
      <trkpt lat="46.06219" lon="3.29653">
        <ele>395</ele>
        <time>2020-02-12T11:28:55Z</time>
      </trkpt>
      <trkpt lat="46.0623" lon="3.29741">
        <ele>395</ele>
        <time>2020-02-12T11:29:06Z</time>
      </trkpt>
      <trkpt lat="46.06241" lon="3.29799">
        <ele>395</ele>
        <time>2020-02-12T11:29:13Z</time>
      </trkpt>
      <trkpt lat="46.06272" lon="3.29933">
        <ele>394</ele>
        <time>2020-02-12T11:29:31Z</time>
      </trkpt>
      <trkpt lat="46.06287" lon="3.30012">
        <ele>395</ele>
        <time>2020-02-12T11:29:41Z</time>
      </trkpt>
      <trkpt lat="46.06291" lon="3.30045">
        <ele>394</ele>
        <time>2020-02-12T11:29:45Z</time>
      </trkpt>
      <trkpt lat="46.06294" lon="3.30118">
        <ele>393</ele>
        <time>2020-02-12T11:29:54Z</time>
      </trkpt>
      <trkpt lat="46.06292" lon="3.30217">
        <ele>389</ele>
        <time>2020-02-12T11:30:06Z</time>
      </trkpt>
      <trkpt lat="46.06281" lon="3.3034">
        <ele>383</ele>
        <time>2020-02-12T11:30:22Z</time>
      </trkpt>
      <trkpt lat="46.06264" lon="3.30425">
        <ele>382</ele>
        <time>2020-02-12T11:30:33Z</time>
      </trkpt>
      <trkpt lat="46.0624" lon="3.30504">
        <ele>381</ele>
        <time>2020-02-12T11:30:43Z</time>
      </trkpt>
      <trkpt lat="46.06164" lon="3.30709">
        <ele>389</ele>
        <time>2020-02-12T11:31:12Z</time>
      </trkpt>
      <trkpt lat="46.06151" lon="3.30752">
        <ele>390</ele>
        <time>2020-02-12T11:31:18Z</time>
      </trkpt>
      <trkpt lat="46.06141" lon="3.30814">
        <ele>390</ele>
        <time>2020-02-12T11:31:25Z</time>
      </trkpt>
      <trkpt lat="46.06137" lon="3.30888">
        <ele>390</ele>
        <time>2020-02-12T11:31:35Z</time>
      </trkpt>
      <trkpt lat="46.06138" lon="3.30992">
        <ele>390</ele>
        <time>2020-02-12T11:31:47Z</time>
      </trkpt>
      <trkpt lat="46.06199" lon="3.31546">
        <ele>389</ele>
        <time>2020-02-12T11:32:57Z</time>
      </trkpt>
      <trkpt lat="46.06204" lon="3.31606">
        <ele>389</ele>
        <time>2020-02-12T11:33:04Z</time>
      </trkpt>
      <trkpt lat="46.06205" lon="3.31655">
        <ele>387</ele>
        <time>2020-02-12T11:33:10Z</time>
      </trkpt>
      <trkpt lat="46.06202" lon="3.31698">
        <ele>387</ele>
        <time>2020-02-12T11:33:16Z</time>
      </trkpt>
      <trkpt lat="46.06194" lon="3.31748">
        <ele>386</ele>
        <time>2020-02-12T11:33:22Z</time>
      </trkpt>
      <trkpt lat="46.06171" lon="3.31843">
        <ele>388</ele>
        <time>2020-02-12T11:33:34Z</time>
      </trkpt>
      <trkpt lat="46.06155" lon="3.31891">
        <ele>388</ele>
        <time>2020-02-12T11:33:41Z</time>
      </trkpt>
      <trkpt lat="46.06117" lon="3.31981">
        <ele>386</ele>
        <time>2020-02-12T11:33:54Z</time>
      </trkpt>
      <trkpt lat="46.06066" lon="3.32073">
        <ele>383</ele>
        <time>2020-02-12T11:34:08Z</time>
      </trkpt>
      <trkpt lat="46.06012" lon="3.32145">
        <ele>386</ele>
        <time>2020-02-12T11:34:22Z</time>
      </trkpt>
      <trkpt lat="46.0597" lon="3.32185">
        <ele>387</ele>
        <time>2020-02-12T11:34:31Z</time>
      </trkpt>
      <trkpt lat="46.05911" lon="3.32232">
        <ele>387</ele>
        <time>2020-02-12T11:34:43Z</time>
      </trkpt>
      <trkpt lat="46.0588" lon="3.32253">
        <ele>388</ele>
        <time>2020-02-12T11:34:49Z</time>
      </trkpt>
      <trkpt lat="46.05825" lon="3.3228">
        <ele>389</ele>
        <time>2020-02-12T11:34:59Z</time>
      </trkpt>
      <trkpt lat="46.05633" lon="3.32361">
        <ele>385</ele>
        <time>2020-02-12T11:35:35Z</time>
      </trkpt>
      <trkpt lat="46.05301" lon="3.32493">
        <ele>372</ele>
        <time>2020-02-12T11:36:36Z</time>
      </trkpt>
      <trkpt lat="46.05214" lon="3.32524">
        <ele>368</ele>
        <time>2020-02-12T11:36:52Z</time>
      </trkpt>
      <trkpt lat="46.05121" lon="3.32547">
        <ele>366</ele>
        <time>2020-02-12T11:37:09Z</time>
      </trkpt>
      <trkpt lat="46.05099" lon="3.3255">
        <ele>366</ele>
        <time>2020-02-12T11:37:12Z</time>
      </trkpt>
      <trkpt lat="46.0506" lon="3.32551">
        <ele>366</ele>
        <time>2020-02-12T11:37:19Z</time>
      </trkpt>
      <trkpt lat="46.05021" lon="3.32545">
        <ele>366</ele>
        <time>2020-02-12T11:37:26Z</time>
      </trkpt>
      <trkpt lat="46.0439" lon="3.32357">
        <ele>380</ele>
        <time>2020-02-12T11:39:21Z</time>
      </trkpt>
      <trkpt lat="46.04366" lon="3.32353">
        <ele>380</ele>
        <time>2020-02-12T11:39:25Z</time>
      </trkpt>
      <trkpt lat="46.04325" lon="3.32351">
        <ele>381</ele>
        <time>2020-02-12T11:39:33Z</time>
      </trkpt>
      <trkpt lat="46.04281" lon="3.32355">
        <ele>382</ele>
        <time>2020-02-12T11:39:41Z</time>
      </trkpt>
      <trkpt lat="46.0424" lon="3.32365">
        <ele>383</ele>
        <time>2020-02-12T11:39:48Z</time>
      </trkpt>
      <trkpt lat="46.04205" lon="3.32377">
        <ele>384</ele>
        <time>2020-02-12T11:39:54Z</time>
      </trkpt>
      <trkpt lat="46.04192" lon="3.32384">
        <ele>385</ele>
        <time>2020-02-12T11:39:57Z</time>
      </trkpt>
      <trkpt lat="46.04194" lon="3.32502">
        <ele>384</ele>
        <time>2020-02-12T11:40:11Z</time>
      </trkpt>
      <trkpt lat="46.04209" lon="3.32658">
        <ele>383</ele>
        <time>2020-02-12T11:40:31Z</time>
      </trkpt>
      <trkpt lat="46.04223" lon="3.32737">
        <ele>382</ele>
        <time>2020-02-12T11:40:41Z</time>
      </trkpt>
      <trkpt lat="46.04258" lon="3.32862">
        <ele>379</ele>
        <time>2020-02-12T11:40:58Z</time>
      </trkpt>
      <trkpt lat="46.04332" lon="3.33055">
        <ele>370</ele>
        <time>2020-02-12T11:41:25Z</time>
      </trkpt>
      <trkpt lat="46.04389" lon="3.33153">
        <ele>366</ele>
        <time>2020-02-12T11:41:41Z</time>
      </trkpt>
      <trkpt lat="46.04631" lon="3.33616">
        <ele>353</ele>
        <time>2020-02-12T11:42:52Z</time>
      </trkpt>
      <trkpt lat="46.04611" lon="3.3369">
        <ele>351</ele>
        <time>2020-02-12T11:43:02Z</time>
      </trkpt>
      <trkpt lat="46.04593" lon="3.33783">
        <ele>347</ele>
        <time>2020-02-12T11:43:14Z</time>
      </trkpt>
      <trkpt lat="46.04577" lon="3.33837">
        <ele>345</ele>
        <time>2020-02-12T11:43:21Z</time>
      </trkpt>
      <trkpt lat="46.0456" lon="3.33881">
        <ele>344</ele>
        <time>2020-02-12T11:43:27Z</time>
      </trkpt>
      <trkpt lat="46.04543" lon="3.33917">
        <ele>343</ele>
        <time>2020-02-12T11:43:33Z</time>
      </trkpt>
      <trkpt lat="46.04527" lon="3.33938">
        <ele>344</ele>
        <time>2020-02-12T11:43:37Z</time>
      </trkpt>
      <trkpt lat="46.04505" lon="3.33961">
        <ele>343</ele>
        <time>2020-02-12T11:43:41Z</time>
      </trkpt>
      <trkpt lat="46.04495" lon="3.33978">
        <ele>343</ele>
        <time>2020-02-12T11:43:44Z</time>
      </trkpt>
      <trkpt lat="46.04485" lon="3.34004">
        <ele>344</ele>
        <time>2020-02-12T11:43:48Z</time>
      </trkpt>
      <trkpt lat="46.04474" lon="3.34048">
        <ele>345</ele>
        <time>2020-02-12T11:43:54Z</time>
      </trkpt>
      <trkpt lat="46.04459" lon="3.34138">
        <ele>350</ele>
        <time>2020-02-12T11:44:05Z</time>
      </trkpt>
      <trkpt lat="46.04458" lon="3.34186">
        <ele>352</ele>
        <time>2020-02-12T11:44:11Z</time>
      </trkpt>
      <trkpt lat="46.04467" lon="3.34304">
        <ele>354</ele>
        <time>2020-02-12T11:44:26Z</time>
      </trkpt>
      <trkpt lat="46.04452" lon="3.34462">
        <ele>354</ele>
        <time>2020-02-12T11:44:45Z</time>
      </trkpt>
      <trkpt lat="46.04447" lon="3.34491">
        <ele>354</ele>
        <time>2020-02-12T11:44:49Z</time>
      </trkpt>
      <trkpt lat="46.04436" lon="3.34524">
        <ele>354</ele>
        <time>2020-02-12T11:44:54Z</time>
      </trkpt>
      <trkpt lat="46.04401" lon="3.34597">
        <ele>355</ele>
        <time>2020-02-12T11:45:04Z</time>
      </trkpt>
      <trkpt lat="46.04394" lon="3.34624">
        <ele>354</ele>
        <time>2020-02-12T11:45:08Z</time>
      </trkpt>
      <trkpt lat="46.04393" lon="3.34638">
        <ele>353</ele>
        <time>2020-02-12T11:45:10Z</time>
      </trkpt>
      <trkpt lat="46.04398" lon="3.34718">
        <ele>350</ele>
        <time>2020-02-12T11:45:20Z</time>
      </trkpt>
      <trkpt lat="46.04403" lon="3.34743">
        <ele>349</ele>
        <time>2020-02-12T11:45:23Z</time>
      </trkpt>
      <trkpt lat="46.04417" lon="3.3479">
        <ele>349</ele>
        <time>2020-02-12T11:45:29Z</time>
      </trkpt>
      <trkpt lat="46.04423" lon="3.34833">
        <ele>351</ele>
        <time>2020-02-12T11:45:35Z</time>
      </trkpt>
      <trkpt lat="46.04414" lon="3.34992">
        <ele>360</ele>
        <time>2020-02-12T11:45:54Z</time>
      </trkpt>
      <trkpt lat="46.04419" lon="3.35137">
        <ele>361</ele>
        <time>2020-02-12T11:46:12Z</time>
      </trkpt>
      <trkpt lat="46.04419" lon="3.35349">
        <ele>363</ele>
        <time>2020-02-12T11:46:38Z</time>
      </trkpt>
      <trkpt lat="46.04423" lon="3.35401">
        <ele>364</ele>
        <time>2020-02-12T11:46:45Z</time>
      </trkpt>
      <trkpt lat="46.04443" lon="3.3548">
        <ele>365</ele>
        <time>2020-02-12T11:46:55Z</time>
      </trkpt>
      <trkpt lat="46.04447" lon="3.35518">
        <ele>365</ele>
        <time>2020-02-12T11:47:00Z</time>
      </trkpt>
      <trkpt lat="46.04438" lon="3.35673">
        <ele>369</ele>
        <time>2020-02-12T11:47:19Z</time>
      </trkpt>
      <trkpt lat="46.04438" lon="3.35714">
        <ele>371</ele>
        <time>2020-02-12T11:47:24Z</time>
      </trkpt>
      <trkpt lat="46.04443" lon="3.35741">
        <ele>371</ele>
        <time>2020-02-12T11:47:28Z</time>
      </trkpt>
      <trkpt lat="46.0446" lon="3.35801">
        <ele>374</ele>
        <time>2020-02-12T11:47:36Z</time>
      </trkpt>
      <trkpt lat="46.04496" lon="3.35877">
        <ele>377</ele>
        <time>2020-02-12T11:47:47Z</time>
      </trkpt>
      <trkpt lat="46.04509" lon="3.35921">
        <ele>378</ele>
        <time>2020-02-12T11:47:53Z</time>
      </trkpt>
      <trkpt lat="46.0451" lon="3.35993">
        <ele>380</ele>
        <time>2020-02-12T11:48:02Z</time>
      </trkpt>
      <trkpt lat="46.0452" lon="3.36092">
        <ele>379</ele>
        <time>2020-02-12T11:48:14Z</time>
      </trkpt>
      <trkpt lat="46.04527" lon="3.36198">
        <ele>377</ele>
        <time>2020-02-12T11:48:27Z</time>
      </trkpt>
      <trkpt lat="46.04523" lon="3.36247">
        <ele>376</ele>
        <time>2020-02-12T11:48:34Z</time>
      </trkpt>
      <trkpt lat="46.04523" lon="3.36301">
        <ele>375</ele>
        <time>2020-02-12T11:48:40Z</time>
      </trkpt>
      <trkpt lat="46.04553" lon="3.36496">
        <ele>370</ele>
        <time>2020-02-12T11:49:05Z</time>
      </trkpt>
      <trkpt lat="46.04579" lon="3.36617">
        <ele>365</ele>
        <time>2020-02-12T11:49:21Z</time>
      </trkpt>
      <trkpt lat="46.04586" lon="3.36665">
        <ele>362</ele>
        <time>2020-02-12T11:49:27Z</time>
      </trkpt>
      <trkpt lat="46.04584" lon="3.36715">
        <ele>362</ele>
        <time>2020-02-12T11:49:33Z</time>
      </trkpt>
      <trkpt lat="46.04562" lon="3.36878">
        <ele>359</ele>
        <time>2020-02-12T11:49:53Z</time>
      </trkpt>
      <trkpt lat="46.04544" lon="3.37048">
        <ele>356</ele>
        <time>2020-02-12T11:50:14Z</time>
      </trkpt>
      <trkpt lat="46.04532" lon="3.37104">
        <ele>355</ele>
        <time>2020-02-12T11:50:22Z</time>
      </trkpt>
      <trkpt lat="46.045" lon="3.37218">
        <ele>352</ele>
        <time>2020-02-12T11:50:37Z</time>
      </trkpt>
      <trkpt lat="46.04492" lon="3.37263">
        <ele>351</ele>
        <time>2020-02-12T11:50:43Z</time>
      </trkpt>
      <trkpt lat="46.04492" lon="3.37328">
        <ele>350</ele>
        <time>2020-02-12T11:50:51Z</time>
      </trkpt>
      <trkpt lat="46.045" lon="3.37441">
        <ele>352</ele>
        <time>2020-02-12T11:51:05Z</time>
      </trkpt>
      <trkpt lat="46.04509" lon="3.37504">
        <ele>354</ele>
        <time>2020-02-12T11:51:13Z</time>
      </trkpt>
      <trkpt lat="46.04535" lon="3.37631">
        <ele>354</ele>
        <time>2020-02-12T11:51:29Z</time>
      </trkpt>
      <trkpt lat="46.04538" lon="3.37677">
        <ele>353</ele>
        <time>2020-02-12T11:51:35Z</time>
      </trkpt>
      <trkpt lat="46.04531" lon="3.37723">
        <ele>352</ele>
        <time>2020-02-12T11:51:41Z</time>
      </trkpt>
      <trkpt lat="46.04488" lon="3.37911">
        <ele>341</ele>
        <time>2020-02-12T11:52:05Z</time>
      </trkpt>
      <trkpt lat="46.04476" lon="3.37998">
        <ele>338</ele>
        <time>2020-02-12T11:52:16Z</time>
      </trkpt>
      <trkpt lat="46.04466" lon="3.38041">
        <ele>337</ele>
        <time>2020-02-12T11:52:22Z</time>
      </trkpt>
      <trkpt lat="46.04418" lon="3.38153">
        <ele>333</ele>
        <time>2020-02-12T11:52:38Z</time>
      </trkpt>
      <trkpt lat="46.04388" lon="3.38199">
        <ele>340</ele>
        <time>2020-02-12T11:52:46Z</time>
      </trkpt>
      <trkpt lat="46.04381" lon="3.38216">
        <ele>342</ele>
        <time>2020-02-12T11:52:48Z</time>
      </trkpt>
      <trkpt lat="46.0438" lon="3.38232">
        <ele>343</ele>
        <time>2020-02-12T11:52:50Z</time>
      </trkpt>
      <trkpt lat="46.04387" lon="3.38257">
        <ele>344</ele>
        <time>2020-02-12T11:52:53Z</time>
      </trkpt>
      <trkpt lat="46.04427" lon="3.38303">
        <ele>343</ele>
        <time>2020-02-12T11:53:02Z</time>
      </trkpt>
      <trkpt lat="46.04436" lon="3.38319">
        <ele>344</ele>
        <time>2020-02-12T11:53:05Z</time>
      </trkpt>
      <trkpt lat="46.04439" lon="3.38336">
        <ele>345</ele>
        <time>2020-02-12T11:53:07Z</time>
      </trkpt>
      <trkpt lat="46.04436" lon="3.38354">
        <ele>348</ele>
        <time>2020-02-12T11:53:09Z</time>
      </trkpt>
      <trkpt lat="46.04427" lon="3.38368">
        <ele>350</ele>
        <time>2020-02-12T11:53:12Z</time>
      </trkpt>
      <trkpt lat="46.04421" lon="3.38371">
        <ele>350</ele>
        <time>2020-02-12T11:53:13Z</time>
      </trkpt>
      <trkpt lat="46.04406" lon="3.38371">
        <ele>352</ele>
        <time>2020-02-12T11:53:16Z</time>
      </trkpt>
      <trkpt lat="46.0436" lon="3.38341">
        <ele>357</ele>
        <time>2020-02-12T11:53:25Z</time>
      </trkpt>
      <trkpt lat="46.04339" lon="3.38332">
        <ele>359</ele>
        <time>2020-02-12T11:53:28Z</time>
      </trkpt>
      <trkpt lat="46.04333" lon="3.38333">
        <ele>360</ele>
        <time>2020-02-12T11:53:30Z</time>
      </trkpt>
      <trkpt lat="46.04323" lon="3.38341">
        <ele>362</ele>
        <time>2020-02-12T11:53:32Z</time>
      </trkpt>
      <trkpt lat="46.04316" lon="3.38358">
        <ele>363</ele>
        <time>2020-02-12T11:53:34Z</time>
      </trkpt>
      <trkpt lat="46.04315" lon="3.38368">
        <ele>364</ele>
        <time>2020-02-12T11:53:35Z</time>
      </trkpt>
      <trkpt lat="46.04321" lon="3.38393">
        <ele>366</ele>
        <time>2020-02-12T11:53:39Z</time>
      </trkpt>
      <trkpt lat="46.04349" lon="3.38431">
        <ele>366</ele>
        <time>2020-02-12T11:53:45Z</time>
      </trkpt>
      <trkpt lat="46.04363" lon="3.38468">
        <ele>366</ele>
        <time>2020-02-12T11:53:51Z</time>
      </trkpt>
      <trkpt lat="46.04391" lon="3.38593">
        <ele>369</ele>
        <time>2020-02-12T11:54:07Z</time>
      </trkpt>
      <trkpt lat="46.04392" lon="3.38606">
        <ele>368</ele>
        <time>2020-02-12T11:54:08Z</time>
      </trkpt>
      <trkpt lat="46.04389" lon="3.38632">
        <ele>368</ele>
        <time>2020-02-12T11:54:12Z</time>
      </trkpt>
      <trkpt lat="46.04474" lon="3.38675">
        <ele>366</ele>
        <time>2020-02-12T11:54:28Z</time>
      </trkpt>
      <trkpt lat="46.04496" lon="3.38691">
        <ele>366</ele>
        <time>2020-02-12T11:54:32Z</time>
      </trkpt>
      <trkpt lat="46.04516" lon="3.38716">
        <ele>365</ele>
        <time>2020-02-12T11:54:37Z</time>
      </trkpt>
      <trkpt lat="46.04548" lon="3.38778">
        <ele>365</ele>
        <time>2020-02-12T11:54:46Z</time>
      </trkpt>
      <trkpt lat="46.04682" lon="3.39089">
        <ele>361</ele>
        <time>2020-02-12T11:55:32Z</time>
      </trkpt>
      <trkpt lat="46.0471" lon="3.3917">
        <ele>361</ele>
        <time>2020-02-12T11:55:43Z</time>
      </trkpt>
      <trkpt lat="46.04947" lon="3.39908">
        <ele>351</ele>
        <time>2020-02-12T11:57:23Z</time>
      </trkpt>
      <trkpt lat="46.04973" lon="3.39999">
        <ele>344</ele>
        <time>2020-02-12T11:57:35Z</time>
      </trkpt>
      <trkpt lat="46.04982" lon="3.40052">
        <ele>342</ele>
        <time>2020-02-12T11:57:42Z</time>
      </trkpt>
      <trkpt lat="46.04985" lon="3.40126">
        <ele>339</ele>
        <time>2020-02-12T11:57:51Z</time>
      </trkpt>
      <trkpt lat="46.04981" lon="3.40186">
        <ele>338</ele>
        <time>2020-02-12T11:57:59Z</time>
      </trkpt>
      <trkpt lat="46.04917" lon="3.40739">
        <ele>335</ele>
        <time>2020-02-12T11:59:08Z</time>
      </trkpt>
      <trkpt lat="46.04903" lon="3.40831">
        <ele>333</ele>
        <time>2020-02-12T11:59:20Z</time>
      </trkpt>
      <trkpt lat="46.04891" lon="3.40877">
        <ele>330</ele>
        <time>2020-02-12T11:59:26Z</time>
      </trkpt>
      <trkpt lat="46.04877" lon="3.40917">
        <ele>328</ele>
        <time>2020-02-12T11:59:31Z</time>
      </trkpt>
      <trkpt lat="46.04737" lon="3.41263">
        <ele>325</ele>
        <time>2020-02-12T12:00:21Z</time>
      </trkpt>
      <trkpt lat="46.04726" lon="3.41285">
        <ele>325</ele>
        <time>2020-02-12T12:00:24Z</time>
      </trkpt>
      <trkpt lat="46.04698" lon="3.41326">
        <ele>323</ele>
        <time>2020-02-12T12:00:31Z</time>
      </trkpt>
      <trkpt lat="46.04681" lon="3.41357">
        <ele>322</ele>
        <time>2020-02-12T12:00:36Z</time>
      </trkpt>
      <trkpt lat="46.04666" lon="3.41403">
        <ele>321</ele>
        <time>2020-02-12T12:00:42Z</time>
      </trkpt>
      <trkpt lat="46.04662" lon="3.41431">
        <ele>320</ele>
        <time>2020-02-12T12:00:46Z</time>
      </trkpt>
      <trkpt lat="46.04661" lon="3.41477">
        <ele>318</ele>
        <time>2020-02-12T12:00:51Z</time>
      </trkpt>
      <trkpt lat="46.04667" lon="3.41576">
        <ele>322</ele>
        <time>2020-02-12T12:01:04Z</time>
      </trkpt>
      <trkpt lat="46.04662" lon="3.41702">
        <ele>323</ele>
        <time>2020-02-12T12:01:19Z</time>
      </trkpt>
      <trkpt lat="46.04673" lon="3.41936">
        <ele>321</ele>
        <time>2020-02-12T12:01:48Z</time>
      </trkpt>
      <trkpt lat="46.04685" lon="3.42021">
        <ele>320</ele>
        <time>2020-02-12T12:01:59Z</time>
      </trkpt>
      <trkpt lat="46.04743" lon="3.42353">
        <ele>321</ele>
        <time>2020-02-12T12:02:41Z</time>
      </trkpt>
      <trkpt lat="46.04757" lon="3.42467">
        <ele>323</ele>
        <time>2020-02-12T12:02:55Z</time>
      </trkpt>
      <trkpt lat="46.04769" lon="3.42509">
        <ele>323</ele>
        <time>2020-02-12T12:03:01Z</time>
      </trkpt>
      <trkpt lat="46.04777" lon="3.42526">
        <ele>323</ele>
        <time>2020-02-12T12:03:04Z</time>
      </trkpt>
      <trkpt lat="46.04796" lon="3.42554">
        <ele>323</ele>
        <time>2020-02-12T12:03:08Z</time>
      </trkpt>
      <trkpt lat="46.04978" lon="3.42749">
        <ele>321</ele>
        <time>2020-02-12T12:03:49Z</time>
      </trkpt>
      <trkpt lat="46.05006" lon="3.42782">
        <ele>321</ele>
        <time>2020-02-12T12:03:55Z</time>
      </trkpt>
      <trkpt lat="46.05032" lon="3.42818">
        <ele>319</ele>
        <time>2020-02-12T12:04:02Z</time>
      </trkpt>
      <trkpt lat="46.0514" lon="3.43032">
        <ele>309</ele>
        <time>2020-02-12T12:04:34Z</time>
      </trkpt>
      <trkpt lat="46.05163" lon="3.43094">
        <ele>306</ele>
        <time>2020-02-12T12:04:43Z</time>
      </trkpt>
      <trkpt lat="46.05199" lon="3.43208">
        <ele>301</ele>
        <time>2020-02-12T12:04:59Z</time>
      </trkpt>
      <trkpt lat="46.05203" lon="3.43257">
        <ele>299</ele>
        <time>2020-02-12T12:05:05Z</time>
      </trkpt>
      <trkpt lat="46.052" lon="3.43287">
        <ele>298</ele>
        <time>2020-02-12T12:05:08Z</time>
      </trkpt>
      <trkpt lat="46.05191" lon="3.4332">
        <ele>297</ele>
        <time>2020-02-12T12:05:13Z</time>
      </trkpt>
      <trkpt lat="46.05184" lon="3.43332">
        <ele>296</ele>
        <time>2020-02-12T12:05:15Z</time>
      </trkpt>
      <trkpt lat="46.0517" lon="3.43348">
        <ele>295</ele>
        <time>2020-02-12T12:05:18Z</time>
      </trkpt>
      <trkpt lat="46.05154" lon="3.4336">
        <ele>294</ele>
        <time>2020-02-12T12:05:21Z</time>
      </trkpt>
      <trkpt lat="46.05123" lon="3.43378">
        <ele>293</ele>
        <time>2020-02-12T12:05:27Z</time>
      </trkpt>
      <trkpt lat="46.05109" lon="3.43391">
        <ele>291</ele>
        <time>2020-02-12T12:05:30Z</time>
      </trkpt>
      <trkpt lat="46.05094" lon="3.43418">
        <ele>289</ele>
        <time>2020-02-12T12:05:34Z</time>
      </trkpt>
      <trkpt lat="46.05091" lon="3.4343">
        <ele>288</ele>
        <time>2020-02-12T12:05:36Z</time>
      </trkpt>
      <trkpt lat="46.0509" lon="3.43452">
        <ele>287</ele>
        <time>2020-02-12T12:05:39Z</time>
      </trkpt>
      <trkpt lat="46.05098" lon="3.4349">
        <ele>285</ele>
        <time>2020-02-12T12:05:43Z</time>
      </trkpt>
      <trkpt lat="46.05103" lon="3.435">
        <ele>284</ele>
        <time>2020-02-12T12:05:45Z</time>
      </trkpt>
      <trkpt lat="46.05116" lon="3.43515">
        <ele>282</ele>
        <time>2020-02-12T12:05:48Z</time>
      </trkpt>
      <trkpt lat="46.05122" lon="3.4352">
        <ele>282</ele>
        <time>2020-02-12T12:05:49Z</time>
      </trkpt>
      <trkpt lat="46.05147" lon="3.43531">
        <ele>281</ele>
        <time>2020-02-12T12:05:54Z</time>
      </trkpt>
      <trkpt lat="46.05204" lon="3.43549">
        <ele>279</ele>
        <time>2020-02-12T12:06:04Z</time>
      </trkpt>
      <trkpt lat="46.05235" lon="3.43562">
        <ele>277</ele>
        <time>2020-02-12T12:06:10Z</time>
      </trkpt>
      <trkpt lat="46.05245" lon="3.43575">
        <ele>275</ele>
        <time>2020-02-12T12:06:12Z</time>
      </trkpt>
      <trkpt lat="46.05253" lon="3.43601">
        <ele>273</ele>
        <time>2020-02-12T12:06:16Z</time>
      </trkpt>
      <trkpt lat="46.05248" lon="3.43605">
        <ele>273</ele>
        <time>2020-02-12T12:06:17Z</time>
      </trkpt>
      <trkpt lat="46.05245" lon="3.43615">
        <ele>272</ele>
        <time>2020-02-12T12:06:18Z</time>
      </trkpt>
      <trkpt lat="46.05246" lon="3.43624">
        <ele>272</ele>
        <time>2020-02-12T12:06:19Z</time>
      </trkpt>
      <trkpt lat="46.05253" lon="3.43632">
        <ele>272</ele>
        <time>2020-02-12T12:06:21Z</time>
      </trkpt>
      <trkpt lat="46.05241" lon="3.43682">
        <ele>269</ele>
        <time>2020-02-12T12:06:27Z</time>
      </trkpt>
      <trkpt lat="46.05237" lon="3.43729">
        <ele>268</ele>
        <time>2020-02-12T12:06:33Z</time>
      </trkpt>
      <trkpt lat="46.05236" lon="3.43825">
        <ele>266</ele>
        <time>2020-02-12T12:06:45Z</time>
      </trkpt>
      <trkpt lat="46.05242" lon="3.43911">
        <ele>263</ele>
        <time>2020-02-12T12:06:56Z</time>
      </trkpt>
      <trkpt lat="46.05247" lon="3.43943">
        <ele>263</ele>
        <time>2020-02-12T12:07:00Z</time>
      </trkpt>
      <trkpt lat="46.05262" lon="3.44006">
        <ele>263</ele>
        <time>2020-02-12T12:07:08Z</time>
      </trkpt>
      <trkpt lat="46.05354" lon="3.44351">
        <ele>262</ele>
        <time>2020-02-12T12:07:54Z</time>
      </trkpt>
      <trkpt lat="46.05365" lon="3.44404">
        <ele>261</ele>
        <time>2020-02-12T12:08:01Z</time>
      </trkpt>
      <trkpt lat="46.0537" lon="3.44452">
        <ele>261</ele>
        <time>2020-02-12T12:08:07Z</time>
      </trkpt>
      <trkpt lat="46.05371" lon="3.44527">
        <ele>260</ele>
        <time>2020-02-12T12:08:16Z</time>
      </trkpt>
      <trkpt lat="46.0535" lon="3.44928">
        <ele>258</ele>
        <time>2020-02-12T12:09:05Z</time>
      </trkpt>
      <trkpt lat="46.05346" lon="3.44984">
        <ele>259</ele>
        <time>2020-02-12T12:09:12Z</time>
      </trkpt>
      <trkpt lat="46.05334" lon="3.45061">
        <ele>260</ele>
        <time>2020-02-12T12:09:22Z</time>
      </trkpt>
      <trkpt lat="46.05336" lon="3.45079">
        <ele>260</ele>
        <time>2020-02-12T12:09:24Z</time>
      </trkpt>
      <trkpt lat="46.05341" lon="3.4509">
        <ele>260</ele>
        <time>2020-02-12T12:09:26Z</time>
      </trkpt>
      <trkpt lat="46.05331" lon="3.45094">
        <ele>260</ele>
        <time>2020-02-12T12:09:28Z</time>
      </trkpt>
      <trkpt lat="46.05324" lon="3.45103">
        <ele>260</ele>
        <time>2020-02-12T12:09:30Z</time>
      </trkpt>
      <trkpt lat="46.05321" lon="3.45119">
        <ele>260</ele>
        <time>2020-02-12T12:09:32Z</time>
      </trkpt>
      <trkpt lat="46.05324" lon="3.45131">
        <ele>260</ele>
        <time>2020-02-12T12:09:33Z</time>
      </trkpt>
      <trkpt lat="46.05331" lon="3.4514">
        <ele>260</ele>
        <time>2020-02-12T12:09:35Z</time>
      </trkpt>
      <trkpt lat="46.05338" lon="3.45143">
        <ele>260</ele>
        <time>2020-02-12T12:09:36Z</time>
      </trkpt>
      <trkpt lat="46.05337" lon="3.45173">
        <ele>260</ele>
        <time>2020-02-12T12:09:40Z</time>
      </trkpt>
      <trkpt lat="46.0534" lon="3.45233">
        <ele>260</ele>
        <time>2020-02-12T12:09:47Z</time>
      </trkpt>
      <trkpt lat="46.0535" lon="3.45279">
        <ele>260</ele>
        <time>2020-02-12T12:09:53Z</time>
      </trkpt>
      <trkpt lat="46.05362" lon="3.45313">
        <ele>259</ele>
        <time>2020-02-12T12:09:58Z</time>
      </trkpt>
      <trkpt lat="46.0538" lon="3.45354">
        <ele>259</ele>
        <time>2020-02-12T12:10:04Z</time>
      </trkpt>
      <trkpt lat="46.05445" lon="3.45485">
        <ele>260</ele>
        <time>2020-02-12T12:10:24Z</time>
      </trkpt>
      <trkpt lat="46.05477" lon="3.4554">
        <ele>260</ele>
        <time>2020-02-12T12:10:33Z</time>
      </trkpt>
      <trkpt lat="46.05497" lon="3.45564">
        <ele>260</ele>
        <time>2020-02-12T12:10:37Z</time>
      </trkpt>
      <trkpt lat="46.05519" lon="3.45583">
        <ele>260</ele>
        <time>2020-02-12T12:10:42Z</time>
      </trkpt>
      <trkpt lat="46.05545" lon="3.45598">
        <ele>260</ele>
        <time>2020-02-12T12:10:47Z</time>
      </trkpt>
      <trkpt lat="46.05571" lon="3.45607">
        <ele>259</ele>
        <time>2020-02-12T12:10:52Z</time>
      </trkpt>
      <trkpt lat="46.05595" lon="3.4561">
        <ele>259</ele>
        <time>2020-02-12T12:10:56Z</time>
      </trkpt>
      <trkpt lat="46.05624" lon="3.45608">
        <ele>259</ele>
        <time>2020-02-12T12:11:01Z</time>
      </trkpt>
      <trkpt lat="46.05652" lon="3.45599">
        <ele>259</ele>
        <time>2020-02-12T12:11:06Z</time>
      </trkpt>
      <trkpt lat="46.05667" lon="3.45591">
        <ele>259</ele>
        <time>2020-02-12T12:11:09Z</time>
      </trkpt>
      <trkpt lat="46.05703" lon="3.45564">
        <ele>259</ele>
        <time>2020-02-12T12:11:16Z</time>
      </trkpt>
      <trkpt lat="46.05819" lon="3.45441">
        <ele>260</ele>
        <time>2020-02-12T12:11:42Z</time>
      </trkpt>
      <trkpt lat="46.05834" lon="3.45429">
        <ele>260</ele>
        <time>2020-02-12T12:11:45Z</time>
      </trkpt>
      <trkpt lat="46.05854" lon="3.45422">
        <ele>260</ele>
        <time>2020-02-12T12:11:49Z</time>
      </trkpt>
      <trkpt lat="46.05862" lon="3.45439">
        <ele>260</ele>
        <time>2020-02-12T12:11:51Z</time>
      </trkpt>
      <trkpt lat="46.061" lon="3.4576">
        <ele>261</ele>
        <time>2020-02-12T12:12:49Z</time>
      </trkpt>
      <trkpt lat="46.06145" lon="3.45812">
        <ele>258</ele>
        <time>2020-02-12T12:12:59Z</time>
      </trkpt>
      <trkpt lat="46.06238" lon="3.45905">
        <ele>261</ele>
        <time>2020-02-12T12:13:20Z</time>
      </trkpt>
      <trkpt lat="46.06254" lon="3.45959">
        <ele>263</ele>
        <time>2020-02-12T12:13:27Z</time>
      </trkpt>
      <trkpt lat="46.06283" lon="3.46027">
        <ele>266</ele>
        <time>2020-02-12T12:13:37Z</time>
      </trkpt>
      <trkpt lat="46.06284" lon="3.46044">
        <ele>266</ele>
        <time>2020-02-12T12:13:39Z</time>
      </trkpt>
      <trkpt lat="46.06266" lon="3.46067">
        <ele>266</ele>
        <time>2020-02-12T12:13:43Z</time>
      </trkpt>
      <trkpt lat="46.06191" lon="3.4614">
        <ele>266</ele>
        <time>2020-02-12T12:13:59Z</time>
      </trkpt>
      <trkpt lat="46.06182" lon="3.46161">
        <ele>266</ele>
        <time>2020-02-12T12:14:02Z</time>
      </trkpt>
      <trkpt lat="46.06173" lon="3.46217">
        <ele>267</ele>
        <time>2020-02-12T12:14:09Z</time>
      </trkpt>
      <trkpt lat="46.06169" lon="3.46229">
        <ele>267</ele>
        <time>2020-02-12T12:14:11Z</time>
      </trkpt>
      <trkpt lat="46.06177" lon="3.46231">
        <ele>267</ele>
        <time>2020-02-12T12:14:12Z</time>
      </trkpt>
      <trkpt lat="46.06188" lon="3.46229">
        <ele>267</ele>
        <time>2020-02-12T12:14:14Z</time>
      </trkpt>
      <trkpt lat="46.06249" lon="3.46201">
        <ele>268</ele>
        <time>2020-02-12T12:14:26Z</time>
      </trkpt>
      <trkpt lat="46.06354" lon="3.46448">
        <ele>276</ele>
        <time>2020-02-12T12:15:01Z</time>
      </trkpt>
      <trkpt lat="46.06361" lon="3.46477">
        <ele>277</ele>
        <time>2020-02-12T12:15:05Z</time>
      </trkpt>
      <trkpt lat="46.06374" lon="3.46557">
        <ele>280</ele>
        <time>2020-02-12T12:15:15Z</time>
      </trkpt>
      <trkpt lat="46.06405" lon="3.46549">
        <ele>280</ele>
        <time>2020-02-12T12:15:21Z</time>
      </trkpt>
      <trkpt lat="46.06456" lon="3.46541">
        <ele>279</ele>
        <time>2020-02-12T12:15:30Z</time>
      </trkpt>
      <trkpt lat="46.06565" lon="3.46519">
        <ele>279</ele>
        <time>2020-02-12T12:15:50Z</time>
      </trkpt>
      <trkpt lat="46.06573" lon="3.46579">
        <ele>279</ele>
        <time>2020-02-12T12:15:57Z</time>
      </trkpt>
      <trkpt lat="46.06584" lon="3.4662">
        <ele>279</ele>
        <time>2020-02-12T12:16:03Z</time>
      </trkpt>
      <trkpt lat="46.06657" lon="3.46808">
        <ele>286</ele>
        <time>2020-02-12T12:16:29Z</time>
      </trkpt>
      <trkpt lat="46.06662" lon="3.46835">
        <ele>286</ele>
        <time>2020-02-12T12:16:33Z</time>
      </trkpt>
      <trkpt lat="46.06699" lon="3.47206">
        <ele>294</ele>
        <time>2020-02-12T12:17:19Z</time>
      </trkpt>
      <trkpt lat="46.06714" lon="3.47267">
        <ele>296</ele>
        <time>2020-02-12T12:17:27Z</time>
      </trkpt>
      <trkpt lat="46.06743" lon="3.47353">
        <ele>298</ele>
        <time>2020-02-12T12:17:39Z</time>
      </trkpt>
      <trkpt lat="46.06752" lon="3.4739">
        <ele>300</ele>
        <time>2020-02-12T12:17:44Z</time>
      </trkpt>
      <trkpt lat="46.06751" lon="3.47438">
        <ele>304</ele>
        <time>2020-02-12T12:17:50Z</time>
      </trkpt>
      <trkpt lat="46.06739" lon="3.47475">
        <ele>309</ele>
        <time>2020-02-12T12:17:55Z</time>
      </trkpt>
      <trkpt lat="46.06693" lon="3.47559">
        <ele>318</ele>
        <time>2020-02-12T12:18:08Z</time>
      </trkpt>
      <trkpt lat="46.0664" lon="3.47624">
        <ele>322</ele>
        <time>2020-02-12T12:18:20Z</time>
      </trkpt>
      <trkpt lat="46.06621" lon="3.47655">
        <ele>322</ele>
        <time>2020-02-12T12:18:25Z</time>
      </trkpt>
      <trkpt lat="46.06603" lon="3.47696">
        <ele>322</ele>
        <time>2020-02-12T12:18:31Z</time>
      </trkpt>
      <trkpt lat="46.06568" lon="3.47789">
        <ele>325</ele>
        <time>2020-02-12T12:18:44Z</time>
      </trkpt>
      <trkpt lat="46.06547" lon="3.47858">
        <ele>330</ele>
        <time>2020-02-12T12:18:54Z</time>
      </trkpt>
      <trkpt lat="46.06541" lon="3.479">
        <ele>332</ele>
        <time>2020-02-12T12:18:59Z</time>
      </trkpt>
      <trkpt lat="46.0654" lon="3.47944">
        <ele>335</ele>
        <time>2020-02-12T12:19:04Z</time>
      </trkpt>
      <trkpt lat="46.06544" lon="3.47986">
        <ele>338</ele>
        <time>2020-02-12T12:19:10Z</time>
      </trkpt>
      <trkpt lat="46.06557" lon="3.48065">
        <ele>343</ele>
        <time>2020-02-12T12:19:20Z</time>
      </trkpt>
      <trkpt lat="46.06557" lon="3.48104">
        <ele>346</ele>
        <time>2020-02-12T12:19:24Z</time>
      </trkpt>
      <trkpt lat="46.0655" lon="3.48132">
        <ele>347</ele>
        <time>2020-02-12T12:19:28Z</time>
      </trkpt>
      <trkpt lat="46.06533" lon="3.48179">
        <ele>348</ele>
        <time>2020-02-12T12:19:35Z</time>
      </trkpt>
      <trkpt lat="46.06525" lon="3.4822">
        <ele>349</ele>
        <time>2020-02-12T12:19:40Z</time>
      </trkpt>
      <trkpt lat="46.06521" lon="3.48411">
        <ele>362</ele>
        <time>2020-02-12T12:20:04Z</time>
      </trkpt>
      <trkpt lat="46.06518" lon="3.4844">
        <ele>363</ele>
        <time>2020-02-12T12:20:07Z</time>
      </trkpt>
      <trkpt lat="46.06511" lon="3.48467">
        <ele>364</ele>
        <time>2020-02-12T12:20:11Z</time>
      </trkpt>
      <trkpt lat="46.06488" lon="3.4852">
        <ele>365</ele>
        <time>2020-02-12T12:20:18Z</time>
      </trkpt>
      <trkpt lat="46.06483" lon="3.48544">
        <ele>365</ele>
        <time>2020-02-12T12:20:22Z</time>
      </trkpt>
      <trkpt lat="46.06487" lon="3.48594">
        <ele>368</ele>
        <time>2020-02-12T12:20:28Z</time>
      </trkpt>
      <trkpt lat="46.0653" lon="3.48825">
        <ele>380</ele>
        <time>2020-02-12T12:20:57Z</time>
      </trkpt>
      <trkpt lat="46.06535" lon="3.48842">
        <ele>381</ele>
        <time>2020-02-12T12:21:00Z</time>
      </trkpt>
      <trkpt lat="46.06547" lon="3.48868">
        <ele>383</ele>
        <time>2020-02-12T12:21:03Z</time>
      </trkpt>
      <trkpt lat="46.0659" lon="3.48926">
        <ele>391</ele>
        <time>2020-02-12T12:21:14Z</time>
      </trkpt>
      <trkpt lat="46.066" lon="3.48951">
        <ele>394</ele>
        <time>2020-02-12T12:21:17Z</time>
      </trkpt>
      <trkpt lat="46.06605" lon="3.4898">
        <ele>396</ele>
        <time>2020-02-12T12:21:21Z</time>
      </trkpt>
      <trkpt lat="46.06601" lon="3.49014">
        <ele>397</ele>
        <time>2020-02-12T12:21:25Z</time>
      </trkpt>
      <trkpt lat="46.06566" lon="3.49114">
        <ele>400</ele>
        <time>2020-02-12T12:21:39Z</time>
      </trkpt>
      <trkpt lat="46.06557" lon="3.49163">
        <ele>403</ele>
        <time>2020-02-12T12:21:45Z</time>
      </trkpt>
      <trkpt lat="46.06558" lon="3.49192">
        <ele>405</ele>
        <time>2020-02-12T12:21:49Z</time>
      </trkpt>
      <trkpt lat="46.06561" lon="3.49208">
        <ele>406</ele>
        <time>2020-02-12T12:21:51Z</time>
      </trkpt>
      <trkpt lat="46.06584" lon="3.49277">
        <ele>410</ele>
        <time>2020-02-12T12:22:01Z</time>
      </trkpt>
      <trkpt lat="46.0659" lon="3.49311">
        <ele>414</ele>
        <time>2020-02-12T12:22:05Z</time>
      </trkpt>
      <trkpt lat="46.06591" lon="3.49343">
        <ele>416</ele>
        <time>2020-02-12T12:22:09Z</time>
      </trkpt>
      <trkpt lat="46.06583" lon="3.49519">
        <ele>428</ele>
        <time>2020-02-12T12:22:31Z</time>
      </trkpt>
      <trkpt lat="46.06576" lon="3.49544">
        <ele>430</ele>
        <time>2020-02-12T12:22:34Z</time>
      </trkpt>
      <trkpt lat="46.06564" lon="3.49568">
        <ele>432</ele>
        <time>2020-02-12T12:22:38Z</time>
      </trkpt>
      <trkpt lat="46.06461" lon="3.4972">
        <ele>441</ele>
        <time>2020-02-12T12:23:04Z</time>
      </trkpt>
      <trkpt lat="46.06439" lon="3.49745">
        <ele>443</ele>
        <time>2020-02-12T12:23:09Z</time>
      </trkpt>
      <trkpt lat="46.0639" lon="3.49778">
        <ele>444</ele>
        <time>2020-02-12T12:23:18Z</time>
      </trkpt>
      <trkpt lat="46.06376" lon="3.49795">
        <ele>445</ele>
        <time>2020-02-12T12:23:22Z</time>
      </trkpt>
      <trkpt lat="46.06361" lon="3.49834">
        <ele>449</ele>
        <time>2020-02-12T12:23:27Z</time>
      </trkpt>
      <trkpt lat="46.06317" lon="3.50042">
        <ele>461</ele>
        <time>2020-02-12T12:23:54Z</time>
      </trkpt>
      <trkpt lat="46.06312" lon="3.5008">
        <ele>463</ele>
        <time>2020-02-12T12:23:59Z</time>
      </trkpt>
      <trkpt lat="46.0631" lon="3.50132">
        <ele>468</ele>
        <time>2020-02-12T12:24:05Z</time>
      </trkpt>
      <trkpt lat="46.06301" lon="3.50174">
        <ele>471</ele>
        <time>2020-02-12T12:24:11Z</time>
      </trkpt>
      <trkpt lat="46.06291" lon="3.50194">
        <ele>472</ele>
        <time>2020-02-12T12:24:14Z</time>
      </trkpt>
      <trkpt lat="46.06277" lon="3.50211">
        <ele>472</ele>
        <time>2020-02-12T12:24:17Z</time>
      </trkpt>
      <trkpt lat="46.06223" lon="3.50256">
        <ele>471</ele>
        <time>2020-02-12T12:24:28Z</time>
      </trkpt>
      <trkpt lat="46.06215" lon="3.50266">
        <ele>471</ele>
        <time>2020-02-12T12:24:30Z</time>
      </trkpt>
      <trkpt lat="46.06202" lon="3.50294">
        <ele>472</ele>
        <time>2020-02-12T12:24:34Z</time>
      </trkpt>
      <trkpt lat="46.06182" lon="3.50393">
        <ele>476</ele>
        <time>2020-02-12T12:24:47Z</time>
      </trkpt>
      <trkpt lat="46.06179" lon="3.50415">
        <ele>476</ele>
        <time>2020-02-12T12:24:50Z</time>
      </trkpt>
      <trkpt lat="46.06181" lon="3.50446">
        <ele>476</ele>
        <time>2020-02-12T12:24:53Z</time>
      </trkpt>
      <trkpt lat="46.06185" lon="3.5046">
        <ele>477</ele>
        <time>2020-02-12T12:24:55Z</time>
      </trkpt>
      <trkpt lat="46.06198" lon="3.50485">
        <ele>478</ele>
        <time>2020-02-12T12:24:59Z</time>
      </trkpt>
      <trkpt lat="46.06237" lon="3.50529">
        <ele>484</ele>
        <time>2020-02-12T12:25:08Z</time>
      </trkpt>
      <trkpt lat="46.06254" lon="3.50558">
        <ele>486</ele>
        <time>2020-02-12T12:25:13Z</time>
      </trkpt>
      <trkpt lat="46.0626" lon="3.50584">
        <ele>487</ele>
        <time>2020-02-12T12:25:16Z</time>
      </trkpt>
      <trkpt lat="46.06261" lon="3.50609">
        <ele>489</ele>
        <time>2020-02-12T12:25:19Z</time>
      </trkpt>
      <trkpt lat="46.06259" lon="3.50623">
        <ele>490</ele>
        <time>2020-02-12T12:25:21Z</time>
      </trkpt>
      <trkpt lat="46.06247" lon="3.50657">
        <ele>491</ele>
        <time>2020-02-12T12:25:26Z</time>
      </trkpt>
      <trkpt lat="46.06241" lon="3.50667">
        <ele>491</ele>
        <time>2020-02-12T12:25:27Z</time>
      </trkpt>
      <trkpt lat="46.06225" lon="3.50683">
        <ele>492</ele>
        <time>2020-02-12T12:25:31Z</time>
      </trkpt>
      <trkpt lat="46.06215" lon="3.50688">
        <ele>491</ele>
        <time>2020-02-12T12:25:33Z</time>
      </trkpt>
      <trkpt lat="46.06149" lon="3.50707">
        <ele>489</ele>
        <time>2020-02-12T12:25:45Z</time>
      </trkpt>
      <trkpt lat="46.06135" lon="3.50716">
        <ele>490</ele>
        <time>2020-02-12T12:25:47Z</time>
      </trkpt>
      <trkpt lat="46.06119" lon="3.50733">
        <ele>490</ele>
        <time>2020-02-12T12:25:51Z</time>
      </trkpt>
      <trkpt lat="46.06104" lon="3.5076">
        <ele>491</ele>
        <time>2020-02-12T12:25:55Z</time>
      </trkpt>
      <trkpt lat="46.06094" lon="3.50797">
        <ele>491</ele>
        <time>2020-02-12T12:26:00Z</time>
      </trkpt>
      <trkpt lat="46.06092" lon="3.50818">
        <ele>491</ele>
        <time>2020-02-12T12:26:03Z</time>
      </trkpt>
      <trkpt lat="46.06092" lon="3.50839">
        <ele>491</ele>
        <time>2020-02-12T12:26:05Z</time>
      </trkpt>
      <trkpt lat="46.06122" lon="3.51028">
        <ele>496</ele>
        <time>2020-02-12T12:26:29Z</time>
      </trkpt>
      <trkpt lat="46.06138" lon="3.51162">
        <ele>498</ele>
        <time>2020-02-12T12:26:46Z</time>
      </trkpt>
      <trkpt lat="46.06179" lon="3.51261">
        <ele>501</ele>
        <time>2020-02-12T12:27:00Z</time>
      </trkpt>
      <trkpt lat="46.06119" lon="3.51359">
        <ele>501</ele>
        <time>2020-02-12T12:27:16Z</time>
      </trkpt>
      <trkpt lat="46.06055" lon="3.51444">
        <ele>498</ele>
        <time>2020-02-12T12:27:32Z</time>
      </trkpt>
      <trkpt lat="46.06042" lon="3.51457">
        <ele>497</ele>
        <time>2020-02-12T12:27:35Z</time>
      </trkpt>
      <trkpt lat="46.06055" lon="3.51502">
        <ele>495</ele>
        <time>2020-02-12T12:27:41Z</time>
      </trkpt>
      <trkpt lat="46.06067" lon="3.51511">
        <ele>493</ele>
        <time>2020-02-12T12:27:43Z</time>
      </trkpt>
      <trkpt lat="46.06099" lon="3.51509">
        <ele>494</ele>
        <time>2020-02-12T12:27:49Z</time>
      </trkpt>
      <trkpt lat="46.06112" lon="3.51516">
        <ele>494</ele>
        <time>2020-02-12T12:27:51Z</time>
      </trkpt>
      <trkpt lat="46.06119" lon="3.51527">
        <ele>493</ele>
        <time>2020-02-12T12:27:53Z</time>
      </trkpt>
      <trkpt lat="46.06139" lon="3.51572">
        <ele>489</ele>
        <time>2020-02-12T12:28:00Z</time>
      </trkpt>
      <trkpt lat="46.06172" lon="3.51617">
        <ele>486</ele>
        <time>2020-02-12T12:28:08Z</time>
      </trkpt>
      <trkpt lat="46.06177" lon="3.51628">
        <ele>486</ele>
        <time>2020-02-12T12:28:09Z</time>
      </trkpt>
      <trkpt lat="46.06184" lon="3.51657">
        <ele>484</ele>
        <time>2020-02-12T12:28:13Z</time>
      </trkpt>
      <trkpt lat="46.06191" lon="3.51719">
        <ele>481</ele>
        <time>2020-02-12T12:28:21Z</time>
      </trkpt>
      <trkpt lat="46.062" lon="3.5176">
        <ele>480</ele>
        <time>2020-02-12T12:28:26Z</time>
      </trkpt>
      <trkpt lat="46.06207" lon="3.51777">
        <ele>480</ele>
        <time>2020-02-12T12:28:29Z</time>
      </trkpt>
      <trkpt lat="46.06228" lon="3.5181">
        <ele>480</ele>
        <time>2020-02-12T12:28:34Z</time>
      </trkpt>
      <trkpt lat="46.06238" lon="3.51823">
        <ele>479</ele>
        <time>2020-02-12T12:28:37Z</time>
      </trkpt>
      <trkpt lat="46.06262" lon="3.51845">
        <ele>480</ele>
        <time>2020-02-12T12:28:42Z</time>
      </trkpt>
      <trkpt lat="46.06272" lon="3.51851">
        <ele>481</ele>
        <time>2020-02-12T12:28:44Z</time>
      </trkpt>
      <trkpt lat="46.06281" lon="3.51853">
        <ele>481</ele>
        <time>2020-02-12T12:28:45Z</time>
      </trkpt>
      <trkpt lat="46.063" lon="3.51852">
        <ele>483</ele>
        <time>2020-02-12T12:28:49Z</time>
      </trkpt>
      <trkpt lat="46.06331" lon="3.51846">
        <ele>484</ele>
        <time>2020-02-12T12:28:54Z</time>
      </trkpt>
      <trkpt lat="46.06345" lon="3.51833">
        <ele>483</ele>
        <time>2020-02-12T12:28:57Z</time>
      </trkpt>
      <trkpt lat="46.0637" lon="3.51791">
        <ele>480</ele>
        <time>2020-02-12T12:29:04Z</time>
      </trkpt>
      <trkpt lat="46.06377" lon="3.51786">
        <ele>479</ele>
        <time>2020-02-12T12:29:05Z</time>
      </trkpt>
      <trkpt lat="46.06385" lon="3.51784">
        <ele>479</ele>
        <time>2020-02-12T12:29:07Z</time>
      </trkpt>
      <trkpt lat="46.06394" lon="3.51785">
        <ele>478</ele>
        <time>2020-02-12T12:29:08Z</time>
      </trkpt>
      <trkpt lat="46.06405" lon="3.5179">
        <ele>479</ele>
        <time>2020-02-12T12:29:10Z</time>
      </trkpt>
      <trkpt lat="46.06438" lon="3.51811">
        <ele>478</ele>
        <time>2020-02-12T12:29:17Z</time>
      </trkpt>
      <trkpt lat="46.06503" lon="3.51854">
        <ele>475</ele>
        <time>2020-02-12T12:29:30Z</time>
      </trkpt>
      <trkpt lat="46.06525" lon="3.51874">
        <ele>473</ele>
        <time>2020-02-12T12:29:34Z</time>
      </trkpt>
      <trkpt lat="46.06531" lon="3.51885">
        <ele>474</ele>
        <time>2020-02-12T12:29:36Z</time>
      </trkpt>
      <trkpt lat="46.06535" lon="3.519">
        <ele>475</ele>
        <time>2020-02-12T12:29:38Z</time>
      </trkpt>
      <trkpt lat="46.06538" lon="3.52001">
        <ele>488</ele>
        <time>2020-02-12T12:29:50Z</time>
      </trkpt>
      <trkpt lat="46.06541" lon="3.52017">
        <ele>489</ele>
        <time>2020-02-12T12:29:52Z</time>
      </trkpt>
      <trkpt lat="46.06546" lon="3.52027">
        <ele>490</ele>
        <time>2020-02-12T12:29:54Z</time>
      </trkpt>
      <trkpt lat="46.06557" lon="3.52036">
        <ele>488</ele>
        <time>2020-02-12T12:29:56Z</time>
      </trkpt>
      <trkpt lat="46.06564" lon="3.52036">
        <ele>487</ele>
        <time>2020-02-12T12:29:57Z</time>
      </trkpt>
      <trkpt lat="46.0657" lon="3.52033">
        <ele>485</ele>
        <time>2020-02-12T12:29:59Z</time>
      </trkpt>
      <trkpt lat="46.06576" lon="3.52026">
        <ele>483</ele>
        <time>2020-02-12T12:30:00Z</time>
      </trkpt>
      <trkpt lat="46.06594" lon="3.51988">
        <ele>475</ele>
        <time>2020-02-12T12:30:06Z</time>
      </trkpt>
      <trkpt lat="46.06605" lon="3.51972">
        <ele>473</ele>
        <time>2020-02-12T12:30:08Z</time>
      </trkpt>
      <trkpt lat="46.06613" lon="3.51964">
        <ele>472</ele>
        <time>2020-02-12T12:30:10Z</time>
      </trkpt>
      <trkpt lat="46.06631" lon="3.51958">
        <ele>471</ele>
        <time>2020-02-12T12:30:13Z</time>
      </trkpt>
      <trkpt lat="46.06657" lon="3.5196">
        <ele>472</ele>
        <time>2020-02-12T12:30:18Z</time>
      </trkpt>
      <trkpt lat="46.06732" lon="3.5198">
        <ele>475</ele>
        <time>2020-02-12T12:30:32Z</time>
      </trkpt>
      <trkpt lat="46.06761" lon="3.5199">
        <ele>475</ele>
        <time>2020-02-12T12:30:37Z</time>
      </trkpt>
      <trkpt lat="46.06783" lon="3.52004">
        <ele>475</ele>
        <time>2020-02-12T12:30:41Z</time>
      </trkpt>
      <trkpt lat="46.06801" lon="3.52027">
        <ele>475</ele>
        <time>2020-02-12T12:30:46Z</time>
      </trkpt>
      <trkpt lat="46.06821" lon="3.52067">
        <ele>477</ele>
        <time>2020-02-12T12:30:52Z</time>
      </trkpt>
      <trkpt lat="46.06836" lon="3.52106">
        <ele>478</ele>
        <time>2020-02-12T12:30:57Z</time>
      </trkpt>
      <trkpt lat="46.0686" lon="3.52197">
        <ele>479</ele>
        <time>2020-02-12T12:31:09Z</time>
      </trkpt>
      <trkpt lat="46.06893" lon="3.52249">
        <ele>474</ele>
        <time>2020-02-12T12:31:18Z</time>
      </trkpt>
      <trkpt lat="46.06899" lon="3.52262">
        <ele>474</ele>
        <time>2020-02-12T12:31:20Z</time>
      </trkpt>
      <trkpt lat="46.06917" lon="3.52336">
        <ele>478</ele>
        <time>2020-02-12T12:31:29Z</time>
      </trkpt>
      <trkpt lat="46.06932" lon="3.52373">
        <ele>480</ele>
        <time>2020-02-12T12:31:35Z</time>
      </trkpt>
      <trkpt lat="46.06983" lon="3.5246">
        <ele>480</ele>
        <time>2020-02-12T12:31:49Z</time>
      </trkpt>
      <trkpt lat="46.07006" lon="3.52494">
        <ele>481</ele>
        <time>2020-02-12T12:31:55Z</time>
      </trkpt>
      <trkpt lat="46.07018" lon="3.52505">
        <ele>481</ele>
        <time>2020-02-12T12:31:57Z</time>
      </trkpt>
      <trkpt lat="46.07057" lon="3.52532">
        <ele>480</ele>
        <time>2020-02-12T12:32:05Z</time>
      </trkpt>
      <trkpt lat="46.07083" lon="3.52557">
        <ele>480</ele>
        <time>2020-02-12T12:32:10Z</time>
      </trkpt>
      <trkpt lat="46.07098" lon="3.52567">
        <ele>480</ele>
        <time>2020-02-12T12:32:13Z</time>
      </trkpt>
      <trkpt lat="46.07107" lon="3.52569">
        <ele>480</ele>
        <time>2020-02-12T12:32:15Z</time>
      </trkpt>
      <trkpt lat="46.07144" lon="3.52568">
        <ele>478</ele>
        <time>2020-02-12T12:32:22Z</time>
      </trkpt>
      <trkpt lat="46.07154" lon="3.52571">
        <ele>478</ele>
        <time>2020-02-12T12:32:23Z</time>
      </trkpt>
      <trkpt lat="46.0717" lon="3.52583">
        <ele>478</ele>
        <time>2020-02-12T12:32:27Z</time>
      </trkpt>
      <trkpt lat="46.07194" lon="3.52614">
        <ele>480</ele>
        <time>2020-02-12T12:32:32Z</time>
      </trkpt>
      <trkpt lat="46.07203" lon="3.52622">
        <ele>481</ele>
        <time>2020-02-12T12:32:34Z</time>
      </trkpt>
      <trkpt lat="46.07215" lon="3.52627">
        <ele>481</ele>
        <time>2020-02-12T12:32:36Z</time>
      </trkpt>
      <trkpt lat="46.0723" lon="3.52629">
        <ele>481</ele>
        <time>2020-02-12T12:32:39Z</time>
      </trkpt>
      <trkpt lat="46.07372" lon="3.52634">
        <ele>479</ele>
        <time>2020-02-12T12:33:04Z</time>
      </trkpt>
      <trkpt lat="46.07396" lon="3.52628">
        <ele>479</ele>
        <time>2020-02-12T12:33:09Z</time>
      </trkpt>
      <trkpt lat="46.07418" lon="3.52617">
        <ele>479</ele>
        <time>2020-02-12T12:33:13Z</time>
      </trkpt>
      <trkpt lat="46.07458" lon="3.52585">
        <ele>482</ele>
        <time>2020-02-12T12:33:21Z</time>
      </trkpt>
      <trkpt lat="46.07472" lon="3.52586">
        <ele>481</ele>
        <time>2020-02-12T12:33:24Z</time>
      </trkpt>
      <trkpt lat="46.07477" lon="3.52591">
        <ele>481</ele>
        <time>2020-02-12T12:33:25Z</time>
      </trkpt>
      <trkpt lat="46.07487" lon="3.5261">
        <ele>478</ele>
        <time>2020-02-12T12:33:28Z</time>
      </trkpt>
      <trkpt lat="46.07521" lon="3.52709">
        <ele>471</ele>
        <time>2020-02-12T12:33:41Z</time>
      </trkpt>
      <trkpt lat="46.07546" lon="3.52746">
        <ele>470</ele>
        <time>2020-02-12T12:33:48Z</time>
      </trkpt>
      <trkpt lat="46.07551" lon="3.52759">
        <ele>470</ele>
        <time>2020-02-12T12:33:49Z</time>
      </trkpt>
      <trkpt lat="46.07551" lon="3.52767">
        <ele>470</ele>
        <time>2020-02-12T12:33:50Z</time>
      </trkpt>
      <trkpt lat="46.07546" lon="3.5278">
        <ele>468</ele>
        <time>2020-02-12T12:33:52Z</time>
      </trkpt>
      <trkpt lat="46.07518" lon="3.52813">
        <ele>464</ele>
        <time>2020-02-12T12:33:59Z</time>
      </trkpt>
      <trkpt lat="46.07506" lon="3.52837">
        <ele>461</ele>
        <time>2020-02-12T12:34:02Z</time>
      </trkpt>
      <trkpt lat="46.07497" lon="3.5291">
        <ele>459</ele>
        <time>2020-02-12T12:34:11Z</time>
      </trkpt>
      <trkpt lat="46.075" lon="3.52947">
        <ele>456</ele>
        <time>2020-02-12T12:34:16Z</time>
      </trkpt>
      <trkpt lat="46.07508" lon="3.52964">
        <ele>455</ele>
        <time>2020-02-12T12:34:19Z</time>
      </trkpt>
      <trkpt lat="46.07523" lon="3.52978">
        <ele>455</ele>
        <time>2020-02-12T12:34:22Z</time>
      </trkpt>
      <trkpt lat="46.07555" lon="3.52989">
        <ele>457</ele>
        <time>2020-02-12T12:34:28Z</time>
      </trkpt>
      <trkpt lat="46.07563" lon="3.52994">
        <ele>457</ele>
        <time>2020-02-12T12:34:29Z</time>
      </trkpt>
      <trkpt lat="46.07568" lon="3.53">
        <ele>457</ele>
        <time>2020-02-12T12:34:30Z</time>
      </trkpt>
      <trkpt lat="46.0757" lon="3.53016">
        <ele>456</ele>
        <time>2020-02-12T12:34:32Z</time>
      </trkpt>
      <trkpt lat="46.07566" lon="3.53027">
        <ele>454</ele>
        <time>2020-02-12T12:34:34Z</time>
      </trkpt>
      <trkpt lat="46.07548" lon="3.5304">
        <ele>451</ele>
        <time>2020-02-12T12:34:37Z</time>
      </trkpt>
      <trkpt lat="46.07541" lon="3.53051">
        <ele>449</ele>
        <time>2020-02-12T12:34:39Z</time>
      </trkpt>
      <trkpt lat="46.07539" lon="3.53069">
        <ele>447</ele>
        <time>2020-02-12T12:34:42Z</time>
      </trkpt>
      <trkpt lat="46.07547" lon="3.53113">
        <ele>446</ele>
        <time>2020-02-12T12:34:47Z</time>
      </trkpt>
      <trkpt lat="46.07547" lon="3.53131">
        <ele>445</ele>
        <time>2020-02-12T12:34:49Z</time>
      </trkpt>
      <trkpt lat="46.07541" lon="3.53141">
        <ele>444</ele>
        <time>2020-02-12T12:34:51Z</time>
      </trkpt>
      <trkpt lat="46.07523" lon="3.53159">
        <ele>441</ele>
        <time>2020-02-12T12:34:55Z</time>
      </trkpt>
      <trkpt lat="46.07516" lon="3.53176">
        <ele>439</ele>
        <time>2020-02-12T12:34:57Z</time>
      </trkpt>
      <trkpt lat="46.07516" lon="3.53206">
        <ele>439</ele>
        <time>2020-02-12T12:35:01Z</time>
      </trkpt>
      <trkpt lat="46.07523" lon="3.53228">
        <ele>439</ele>
        <time>2020-02-12T12:35:04Z</time>
      </trkpt>
      <trkpt lat="46.07538" lon="3.5326">
        <ele>441</ele>
        <time>2020-02-12T12:35:09Z</time>
      </trkpt>
      <trkpt lat="46.0754" lon="3.53269">
        <ele>441</ele>
        <time>2020-02-12T12:35:10Z</time>
      </trkpt>
      <trkpt lat="46.07539" lon="3.53284">
        <ele>441</ele>
        <time>2020-02-12T12:35:12Z</time>
      </trkpt>
      <trkpt lat="46.07535" lon="3.53293">
        <ele>441</ele>
        <time>2020-02-12T12:35:13Z</time>
      </trkpt>
      <trkpt lat="46.07525" lon="3.53301">
        <ele>440</ele>
        <time>2020-02-12T12:35:15Z</time>
      </trkpt>
      <trkpt lat="46.07513" lon="3.53303">
        <ele>439</ele>
        <time>2020-02-12T12:35:17Z</time>
      </trkpt>
      <trkpt lat="46.07488" lon="3.533">
        <ele>435</ele>
        <time>2020-02-12T12:35:22Z</time>
      </trkpt>
      <trkpt lat="46.07474" lon="3.53303">
        <ele>433</ele>
        <time>2020-02-12T12:35:24Z</time>
      </trkpt>
      <trkpt lat="46.07468" lon="3.53307">
        <ele>432</ele>
        <time>2020-02-12T12:35:25Z</time>
      </trkpt>
      <trkpt lat="46.07457" lon="3.53321">
        <ele>430</ele>
        <time>2020-02-12T12:35:28Z</time>
      </trkpt>
      <trkpt lat="46.07422" lon="3.53379">
        <ele>422</ele>
        <time>2020-02-12T12:35:38Z</time>
      </trkpt>
      <trkpt lat="46.07417" lon="3.53397">
        <ele>420</ele>
        <time>2020-02-12T12:35:40Z</time>
      </trkpt>
      <trkpt lat="46.07417" lon="3.53406">
        <ele>420</ele>
        <time>2020-02-12T12:35:41Z</time>
      </trkpt>
      <trkpt lat="46.07425" lon="3.53435">
        <ele>419</ele>
        <time>2020-02-12T12:35:45Z</time>
      </trkpt>
      <trkpt lat="46.07438" lon="3.53469">
        <ele>417</ele>
        <time>2020-02-12T12:35:50Z</time>
      </trkpt>
      <trkpt lat="46.07448" lon="3.53488">
        <ele>416</ele>
        <time>2020-02-12T12:35:53Z</time>
      </trkpt>
      <trkpt lat="46.07496" lon="3.53539">
        <ele>413</ele>
        <time>2020-02-12T12:36:03Z</time>
      </trkpt>
      <trkpt lat="46.07537" lon="3.53599">
        <ele>405</ele>
        <time>2020-02-12T12:36:14Z</time>
      </trkpt>
      <trkpt lat="46.07556" lon="3.53622">
        <ele>405</ele>
        <time>2020-02-12T12:36:18Z</time>
      </trkpt>
      <trkpt lat="46.07566" lon="3.53625">
        <ele>405</ele>
        <time>2020-02-12T12:36:20Z</time>
      </trkpt>
      <trkpt lat="46.07578" lon="3.5362">
        <ele>406</ele>
        <time>2020-02-12T12:36:22Z</time>
      </trkpt>
      <trkpt lat="46.07585" lon="3.53608">
        <ele>406</ele>
        <time>2020-02-12T12:36:24Z</time>
      </trkpt>
      <trkpt lat="46.07592" lon="3.5357">
        <ele>409</ele>
        <time>2020-02-12T12:36:29Z</time>
      </trkpt>
      <trkpt lat="46.07597" lon="3.53559">
        <ele>411</ele>
        <time>2020-02-12T12:36:31Z</time>
      </trkpt>
      <trkpt lat="46.07603" lon="3.53551">
        <ele>412</ele>
        <time>2020-02-12T12:36:32Z</time>
      </trkpt>
      <trkpt lat="46.0761" lon="3.53547">
        <ele>413</ele>
        <time>2020-02-12T12:36:33Z</time>
      </trkpt>
      <trkpt lat="46.07618" lon="3.53545">
        <ele>414</ele>
        <time>2020-02-12T12:36:35Z</time>
      </trkpt>
      <trkpt lat="46.07624" lon="3.53547">
        <ele>414</ele>
        <time>2020-02-12T12:36:36Z</time>
      </trkpt>
      <trkpt lat="46.07637" lon="3.5356">
        <ele>412</ele>
        <time>2020-02-12T12:36:39Z</time>
      </trkpt>
      <trkpt lat="46.07674" lon="3.5364">
        <ele>402</ele>
        <time>2020-02-12T12:36:51Z</time>
      </trkpt>
      <trkpt lat="46.07689" lon="3.5366">
        <ele>399</ele>
        <time>2020-02-12T12:36:54Z</time>
      </trkpt>
      <trkpt lat="46.07714" lon="3.53683">
        <ele>396</ele>
        <time>2020-02-12T12:36:59Z</time>
      </trkpt>
      <trkpt lat="46.07726" lon="3.5369">
        <ele>395</ele>
        <time>2020-02-12T12:37:02Z</time>
      </trkpt>
      <trkpt lat="46.07739" lon="3.53688">
        <ele>395</ele>
        <time>2020-02-12T12:37:04Z</time>
      </trkpt>
      <trkpt lat="46.0776" lon="3.53672">
        <ele>396</ele>
        <time>2020-02-12T12:37:08Z</time>
      </trkpt>
      <trkpt lat="46.07773" lon="3.53672">
        <ele>398</ele>
        <time>2020-02-12T12:37:11Z</time>
      </trkpt>
      <trkpt lat="46.0778" lon="3.53677">
        <ele>398</ele>
        <time>2020-02-12T12:37:12Z</time>
      </trkpt>
      <trkpt lat="46.07858" lon="3.53793">
        <ele>389</ele>
        <time>2020-02-12T12:37:32Z</time>
      </trkpt>
      <trkpt lat="46.0787" lon="3.53809">
        <ele>387</ele>
        <time>2020-02-12T12:37:35Z</time>
      </trkpt>
      <trkpt lat="46.07891" lon="3.53826">
        <ele>385</ele>
        <time>2020-02-12T12:37:39Z</time>
      </trkpt>
      <trkpt lat="46.0799" lon="3.53866">
        <ele>367</ele>
        <time>2020-02-12T12:37:57Z</time>
      </trkpt>
      <trkpt lat="46.07997" lon="3.53866">
        <ele>366</ele>
        <time>2020-02-12T12:37:59Z</time>
      </trkpt>
      <trkpt lat="46.08004" lon="3.53865">
        <ele>365</ele>
        <time>2020-02-12T12:38:00Z</time>
      </trkpt>
      <trkpt lat="46.08013" lon="3.5386">
        <ele>365</ele>
        <time>2020-02-12T12:38:02Z</time>
      </trkpt>
      <trkpt lat="46.08033" lon="3.53839">
        <ele>367</ele>
        <time>2020-02-12T12:38:06Z</time>
      </trkpt>
      <trkpt lat="46.08048" lon="3.53829">
        <ele>367</ele>
        <time>2020-02-12T12:38:09Z</time>
      </trkpt>
      <trkpt lat="46.08083" lon="3.53837">
        <ele>360</ele>
        <time>2020-02-12T12:38:15Z</time>
      </trkpt>
      <trkpt lat="46.08095" lon="3.53837">
        <ele>360</ele>
        <time>2020-02-12T12:38:17Z</time>
      </trkpt>
      <trkpt lat="46.08124" lon="3.53826">
        <ele>362</ele>
        <time>2020-02-12T12:38:23Z</time>
      </trkpt>
      <trkpt lat="46.08142" lon="3.53812">
        <ele>363</ele>
        <time>2020-02-12T12:38:26Z</time>
      </trkpt>
      <trkpt lat="46.0815" lon="3.5381">
        <ele>363</ele>
        <time>2020-02-12T12:38:28Z</time>
      </trkpt>
      <trkpt lat="46.08156" lon="3.53812">
        <ele>363</ele>
        <time>2020-02-12T12:38:29Z</time>
      </trkpt>
      <trkpt lat="46.08165" lon="3.53824">
        <ele>361</ele>
        <time>2020-02-12T12:38:31Z</time>
      </trkpt>
      <trkpt lat="46.08173" lon="3.53865">
        <ele>357</ele>
        <time>2020-02-12T12:38:36Z</time>
      </trkpt>
      <trkpt lat="46.08185" lon="3.53892">
        <ele>354</ele>
        <time>2020-02-12T12:38:40Z</time>
      </trkpt>
      <trkpt lat="46.08202" lon="3.53911">
        <ele>353</ele>
        <time>2020-02-12T12:38:44Z</time>
      </trkpt>
      <trkpt lat="46.0822" lon="3.53922">
        <ele>352</ele>
        <time>2020-02-12T12:38:48Z</time>
      </trkpt>
      <trkpt lat="46.08233" lon="3.53923">
        <ele>353</ele>
        <time>2020-02-12T12:38:50Z</time>
      </trkpt>
      <trkpt lat="46.08303" lon="3.53908">
        <ele>352</ele>
        <time>2020-02-12T12:39:03Z</time>
      </trkpt>
      <trkpt lat="46.08328" lon="3.53892">
        <ele>353</ele>
        <time>2020-02-12T12:39:07Z</time>
      </trkpt>
      <trkpt lat="46.08373" lon="3.53855">
        <ele>350</ele>
        <time>2020-02-12T12:39:17Z</time>
      </trkpt>
      <trkpt lat="46.08388" lon="3.53848">
        <ele>347</ele>
        <time>2020-02-12T12:39:19Z</time>
      </trkpt>
      <trkpt lat="46.08677" lon="3.53737">
        <ele>336</ele>
        <time>2020-02-12T12:40:13Z</time>
      </trkpt>
      <trkpt lat="46.08686" lon="3.53736">
        <ele>337</ele>
        <time>2020-02-12T12:40:14Z</time>
      </trkpt>
      <trkpt lat="46.08703" lon="3.53742">
        <ele>337</ele>
        <time>2020-02-12T12:40:17Z</time>
      </trkpt>
      <trkpt lat="46.08742" lon="3.5379">
        <ele>342</ele>
        <time>2020-02-12T12:40:27Z</time>
      </trkpt>
      <trkpt lat="46.08708" lon="3.53843">
        <ele>345</ele>
        <time>2020-02-12T12:40:35Z</time>
      </trkpt>
      <trkpt lat="46.08654" lon="3.53909">
        <ele>352</ele>
        <time>2020-02-12T12:40:48Z</time>
      </trkpt>
      <trkpt lat="46.08632" lon="3.5394">
        <ele>354</ele>
        <time>2020-02-12T12:40:54Z</time>
      </trkpt>
      <trkpt lat="46.0857" lon="3.54008">
        <ele>355</ele>
        <time>2020-02-12T12:41:07Z</time>
      </trkpt>
      <trkpt lat="46.08514" lon="3.5406">
        <ele>353</ele>
        <time>2020-02-12T12:41:19Z</time>
      </trkpt>
      <trkpt lat="46.08468" lon="3.54094">
        <ele>351</ele>
        <time>2020-02-12T12:41:28Z</time>
      </trkpt>
      <trkpt lat="46.0844" lon="3.54112">
        <ele>348</ele>
        <time>2020-02-12T12:41:34Z</time>
      </trkpt>
      <trkpt lat="46.08416" lon="3.54124">
        <ele>346</ele>
        <time>2020-02-12T12:41:38Z</time>
      </trkpt>
      <trkpt lat="46.08399" lon="3.54129">
        <ele>346</ele>
        <time>2020-02-12T12:41:41Z</time>
      </trkpt>
      <trkpt lat="46.08383" lon="3.54128">
        <ele>346</ele>
        <time>2020-02-12T12:41:44Z</time>
      </trkpt>
      <trkpt lat="46.08363" lon="3.54122">
        <ele>346</ele>
        <time>2020-02-12T12:41:48Z</time>
      </trkpt>
      <trkpt lat="46.08302" lon="3.54097">
        <ele>343</ele>
        <time>2020-02-12T12:41:59Z</time>
      </trkpt>
      <trkpt lat="46.08277" lon="3.5409">
        <ele>343</ele>
        <time>2020-02-12T12:42:04Z</time>
      </trkpt>
      <trkpt lat="46.08257" lon="3.54088">
        <ele>343</ele>
        <time>2020-02-12T12:42:07Z</time>
      </trkpt>
      <trkpt lat="46.08032" lon="3.5409">
        <ele>348</ele>
        <time>2020-02-12T12:42:47Z</time>
      </trkpt>
      <trkpt lat="46.07996" lon="3.54093">
        <ele>350</ele>
        <time>2020-02-12T12:42:54Z</time>
      </trkpt>
      <trkpt lat="46.07976" lon="3.54099">
        <ele>351</ele>
        <time>2020-02-12T12:42:57Z</time>
      </trkpt>
      <trkpt lat="46.07921" lon="3.54134">
        <ele>352</ele>
        <time>2020-02-12T12:43:08Z</time>
      </trkpt>
      <trkpt lat="46.07898" lon="3.54143">
        <ele>351</ele>
        <time>2020-02-12T12:43:12Z</time>
      </trkpt>
      <trkpt lat="46.07866" lon="3.54151">
        <ele>350</ele>
        <time>2020-02-12T12:43:18Z</time>
      </trkpt>
      <trkpt lat="46.07734" lon="3.54167">
        <ele>349</ele>
        <time>2020-02-12T12:43:42Z</time>
      </trkpt>
      <trkpt lat="46.077" lon="3.54177">
        <ele>349</ele>
        <time>2020-02-12T12:43:48Z</time>
      </trkpt>
      <trkpt lat="46.07598" lon="3.54255">
        <ele>347</ele>
        <time>2020-02-12T12:44:08Z</time>
      </trkpt>
      <trkpt lat="46.07575" lon="3.54281">
        <ele>347</ele>
        <time>2020-02-12T12:44:14Z</time>
      </trkpt>
      <trkpt lat="46.07508" lon="3.54437">
        <ele>349</ele>
        <time>2020-02-12T12:44:36Z</time>
      </trkpt>
      <trkpt lat="46.07486" lon="3.54497">
        <ele>349</ele>
        <time>2020-02-12T12:44:45Z</time>
      </trkpt>
      <trkpt lat="46.07473" lon="3.5454">
        <ele>350</ele>
        <time>2020-02-12T12:44:50Z</time>
      </trkpt>
      <trkpt lat="46.07379" lon="3.54973">
        <ele>362</ele>
        <time>2020-02-12T12:45:46Z</time>
      </trkpt>
      <trkpt lat="46.07371" lon="3.55025">
        <ele>361</ele>
        <time>2020-02-12T12:45:53Z</time>
      </trkpt>
      <trkpt lat="46.07372" lon="3.55057">
        <ele>362</ele>
        <time>2020-02-12T12:45:57Z</time>
      </trkpt>
      <trkpt lat="46.07381" lon="3.55132">
        <ele>365</ele>
        <time>2020-02-12T12:46:06Z</time>
      </trkpt>
      <trkpt lat="46.07377" lon="3.55234">
        <ele>362</ele>
        <time>2020-02-12T12:46:19Z</time>
      </trkpt>
      <trkpt lat="46.07383" lon="3.55392">
        <ele>363</ele>
        <time>2020-02-12T12:46:39Z</time>
      </trkpt>
      <trkpt lat="46.07379" lon="3.55444">
        <ele>364</ele>
        <time>2020-02-12T12:46:45Z</time>
      </trkpt>
      <trkpt lat="46.07342" lon="3.55607">
        <ele>358</ele>
        <time>2020-02-12T12:47:06Z</time>
      </trkpt>
      <trkpt lat="46.0733" lon="3.55646">
        <ele>356</ele>
        <time>2020-02-12T12:47:11Z</time>
      </trkpt>
      <trkpt lat="46.07314" lon="3.55687">
        <ele>356</ele>
        <time>2020-02-12T12:47:17Z</time>
      </trkpt>
      <trkpt lat="46.07293" lon="3.55729">
        <ele>355</ele>
        <time>2020-02-12T12:47:24Z</time>
      </trkpt>
      <trkpt lat="46.0727" lon="3.55764">
        <ele>353</ele>
        <time>2020-02-12T12:47:30Z</time>
      </trkpt>
      <trkpt lat="46.07248" lon="3.55791">
        <ele>351</ele>
        <time>2020-02-12T12:47:35Z</time>
      </trkpt>
      <trkpt lat="46.06858" lon="3.56197">
        <ele>361</ele>
        <time>2020-02-12T12:49:00Z</time>
      </trkpt>
      <trkpt lat="46.06842" lon="3.56212">
        <ele>363</ele>
        <time>2020-02-12T12:49:04Z</time>
      </trkpt>
      <trkpt lat="46.06827" lon="3.56222">
        <ele>364</ele>
        <time>2020-02-12T12:49:07Z</time>
      </trkpt>
      <trkpt lat="46.06812" lon="3.56229">
        <ele>365</ele>
        <time>2020-02-12T12:49:09Z</time>
      </trkpt>
      <trkpt lat="46.0675" lon="3.56244">
        <ele>364</ele>
        <time>2020-02-12T12:49:21Z</time>
      </trkpt>
      <trkpt lat="46.06736" lon="3.56252">
        <ele>364</ele>
        <time>2020-02-12T12:49:23Z</time>
      </trkpt>
      <trkpt lat="46.06725" lon="3.56262">
        <ele>364</ele>
        <time>2020-02-12T12:49:26Z</time>
      </trkpt>
      <trkpt lat="46.06709" lon="3.56284">
        <ele>364</ele>
        <time>2020-02-12T12:49:30Z</time>
      </trkpt>
      <trkpt lat="46.06682" lon="3.56333">
        <ele>365</ele>
        <time>2020-02-12T12:49:37Z</time>
      </trkpt>
      <trkpt lat="46.06644" lon="3.56429">
        <ele>370</ele>
        <time>2020-02-12T12:49:51Z</time>
      </trkpt>
      <trkpt lat="46.06632" lon="3.56454">
        <ele>371</ele>
        <time>2020-02-12T12:49:55Z</time>
      </trkpt>
      <trkpt lat="46.06609" lon="3.56483">
        <ele>372</ele>
        <time>2020-02-12T12:50:00Z</time>
      </trkpt>
      <trkpt lat="46.06247" lon="3.56745">
        <ele>373</ele>
        <time>2020-02-12T12:51:12Z</time>
      </trkpt>
      <trkpt lat="46.06226" lon="3.56754">
        <ele>373</ele>
        <time>2020-02-12T12:51:16Z</time>
      </trkpt>
      <trkpt lat="46.06207" lon="3.56759">
        <ele>372</ele>
        <time>2020-02-12T12:51:20Z</time>
      </trkpt>
      <trkpt lat="46.06146" lon="3.5677">
        <ele>370</ele>
        <time>2020-02-12T12:51:30Z</time>
      </trkpt>
      <trkpt lat="46.06124" lon="3.56779">
        <ele>370</ele>
        <time>2020-02-12T12:51:35Z</time>
      </trkpt>
      <trkpt lat="46.06071" lon="3.56807">
        <ele>370</ele>
        <time>2020-02-12T12:51:45Z</time>
      </trkpt>
      <trkpt lat="46.06048" lon="3.5682">
        <ele>369</ele>
        <time>2020-02-12T12:51:49Z</time>
      </trkpt>
      <trkpt lat="46.06029" lon="3.56834">
        <ele>369</ele>
        <time>2020-02-12T12:51:53Z</time>
      </trkpt>
      <trkpt lat="46.05918" lon="3.5693">
        <ele>367</ele>
        <time>2020-02-12T12:52:16Z</time>
      </trkpt>
      <trkpt lat="46.05896" lon="3.56959">
        <ele>369</ele>
        <time>2020-02-12T12:52:21Z</time>
      </trkpt>
      <trkpt lat="46.05877" lon="3.56994">
        <ele>370</ele>
        <time>2020-02-12T12:52:27Z</time>
      </trkpt>
      <trkpt lat="46.05857" lon="3.5704">
        <ele>370</ele>
        <time>2020-02-12T12:52:33Z</time>
      </trkpt>
      <trkpt lat="46.05848" lon="3.57074">
        <ele>371</ele>
        <time>2020-02-12T12:52:38Z</time>
      </trkpt>
      <trkpt lat="46.0583" lon="3.57196">
        <ele>374</ele>
        <time>2020-02-12T12:52:53Z</time>
      </trkpt>
      <trkpt lat="46.05821" lon="3.57223">
        <ele>377</ele>
        <time>2020-02-12T12:52:57Z</time>
      </trkpt>
      <trkpt lat="46.05804" lon="3.57248">
        <ele>380</ele>
        <time>2020-02-12T12:53:01Z</time>
      </trkpt>
      <trkpt lat="46.05791" lon="3.57258">
        <ele>382</ele>
        <time>2020-02-12T12:53:04Z</time>
      </trkpt>
      <trkpt lat="46.05778" lon="3.57264">
        <ele>385</ele>
        <time>2020-02-12T12:53:06Z</time>
      </trkpt>
      <trkpt lat="46.05763" lon="3.57266">
        <ele>387</ele>
        <time>2020-02-12T12:53:09Z</time>
      </trkpt>
      <trkpt lat="46.05704" lon="3.57257">
        <ele>389</ele>
        <time>2020-02-12T12:53:19Z</time>
      </trkpt>
      <trkpt lat="46.05688" lon="3.57256">
        <ele>389</ele>
        <time>2020-02-12T12:53:22Z</time>
      </trkpt>
      <trkpt lat="46.05671" lon="3.57259">
        <ele>390</ele>
        <time>2020-02-12T12:53:25Z</time>
      </trkpt>
      <trkpt lat="46.05656" lon="3.57266">
        <ele>391</ele>
        <time>2020-02-12T12:53:28Z</time>
      </trkpt>
      <trkpt lat="46.0564" lon="3.57279">
        <ele>393</ele>
        <time>2020-02-12T12:53:31Z</time>
      </trkpt>
      <trkpt lat="46.05627" lon="3.57294">
        <ele>395</ele>
        <time>2020-02-12T12:53:34Z</time>
      </trkpt>
      <trkpt lat="46.05588" lon="3.57362">
        <ele>405</ele>
        <time>2020-02-12T12:53:45Z</time>
      </trkpt>
      <trkpt lat="46.05558" lon="3.57403">
        <ele>409</ele>
        <time>2020-02-12T12:53:53Z</time>
      </trkpt>
      <trkpt lat="46.05463" lon="3.57506">
        <ele>421</ele>
        <time>2020-02-12T12:54:14Z</time>
      </trkpt>
      <trkpt lat="46.05379" lon="3.57579">
        <ele>423</ele>
        <time>2020-02-12T12:54:31Z</time>
      </trkpt>
      <trkpt lat="46.05365" lon="3.57596">
        <ele>424</ele>
        <time>2020-02-12T12:54:35Z</time>
      </trkpt>
      <trkpt lat="46.05336" lon="3.57649">
        <ele>430</ele>
        <time>2020-02-12T12:54:43Z</time>
      </trkpt>
      <trkpt lat="46.05318" lon="3.57661">
        <ele>431</ele>
        <time>2020-02-12T12:54:46Z</time>
      </trkpt>
      <trkpt lat="46.05289" lon="3.57667">
        <ele>430</ele>
        <time>2020-02-12T12:54:52Z</time>
      </trkpt>
      <trkpt lat="46.05275" lon="3.57673">
        <ele>431</ele>
        <time>2020-02-12T12:54:54Z</time>
      </trkpt>
      <trkpt lat="46.05258" lon="3.57685">
        <ele>432</ele>
        <time>2020-02-12T12:54:58Z</time>
      </trkpt>
      <trkpt lat="46.05193" lon="3.57768">
        <ele>440</ele>
        <time>2020-02-12T12:55:13Z</time>
      </trkpt>
      <trkpt lat="46.05164" lon="3.57813">
        <ele>442</ele>
        <time>2020-02-12T12:55:21Z</time>
      </trkpt>
      <trkpt lat="46.05154" lon="3.5784">
        <ele>444</ele>
        <time>2020-02-12T12:55:24Z</time>
      </trkpt>
      <trkpt lat="46.05131" lon="3.57926">
        <ele>452</ele>
        <time>2020-02-12T12:55:36Z</time>
      </trkpt>
      <trkpt lat="46.05123" lon="3.57946">
        <ele>453</ele>
        <time>2020-02-12T12:55:39Z</time>
      </trkpt>
      <trkpt lat="46.05066" lon="3.58058">
        <ele>461</ele>
        <time>2020-02-12T12:55:56Z</time>
      </trkpt>
      <trkpt lat="46.0503" lon="3.58136">
        <ele>466</ele>
        <time>2020-02-12T12:56:07Z</time>
      </trkpt>
      <trkpt lat="46.05017" lon="3.58157">
        <ele>467</ele>
        <time>2020-02-12T12:56:11Z</time>
      </trkpt>
      <trkpt lat="46.04983" lon="3.58189">
        <ele>468</ele>
        <time>2020-02-12T12:56:18Z</time>
      </trkpt>
      <trkpt lat="46.04905" lon="3.58241">
        <ele>474</ele>
        <time>2020-02-12T12:56:33Z</time>
      </trkpt>
      <trkpt lat="46.04852" lon="3.58288">
        <ele>475</ele>
        <time>2020-02-12T12:56:44Z</time>
      </trkpt>
      <trkpt lat="46.04811" lon="3.58302">
        <ele>478</ele>
        <time>2020-02-12T12:56:52Z</time>
      </trkpt>
      <trkpt lat="46.04794" lon="3.58313">
        <ele>478</ele>
        <time>2020-02-12T12:56:55Z</time>
      </trkpt>
      <trkpt lat="46.04776" lon="3.58335">
        <ele>478</ele>
        <time>2020-02-12T12:56:59Z</time>
      </trkpt>
      <trkpt lat="46.04729" lon="3.58413">
        <ele>475</ele>
        <time>2020-02-12T12:57:12Z</time>
      </trkpt>
      <trkpt lat="46.04696" lon="3.58457">
        <ele>477</ele>
        <time>2020-02-12T12:57:20Z</time>
      </trkpt>
      <trkpt lat="46.04679" lon="3.58475">
        <ele>479</ele>
        <time>2020-02-12T12:57:24Z</time>
      </trkpt>
      <trkpt lat="46.04611" lon="3.58526">
        <ele>482</ele>
        <time>2020-02-12T12:57:38Z</time>
      </trkpt>
      <trkpt lat="46.04595" lon="3.58543">
        <ele>482</ele>
        <time>2020-02-12T12:57:41Z</time>
      </trkpt>
      <trkpt lat="46.04566" lon="3.58581">
        <ele>480</ele>
        <time>2020-02-12T12:57:48Z</time>
      </trkpt>
      <trkpt lat="46.04552" lon="3.58593">
        <ele>480</ele>
        <time>2020-02-12T12:57:51Z</time>
      </trkpt>
      <trkpt lat="46.04518" lon="3.58613">
        <ele>481</ele>
        <time>2020-02-12T12:57:58Z</time>
      </trkpt>
      <trkpt lat="46.04507" lon="3.58622">
        <ele>481</ele>
        <time>2020-02-12T12:58:00Z</time>
      </trkpt>
      <trkpt lat="46.04484" lon="3.58649">
        <ele>478</ele>
        <time>2020-02-12T12:58:05Z</time>
      </trkpt>
      <trkpt lat="46.04446" lon="3.58721">
        <ele>479</ele>
        <time>2020-02-12T12:58:16Z</time>
      </trkpt>
      <trkpt lat="46.04356" lon="3.58941">
        <ele>484</ele>
        <time>2020-02-12T12:58:48Z</time>
      </trkpt>
      <trkpt lat="46.04349" lon="3.58964">
        <ele>485</ele>
        <time>2020-02-12T12:58:51Z</time>
      </trkpt>
      <trkpt lat="46.04345" lon="3.58991">
        <ele>488</ele>
        <time>2020-02-12T12:58:54Z</time>
      </trkpt>
      <trkpt lat="46.0434" lon="3.59062">
        <ele>491</ele>
        <time>2020-02-12T12:59:03Z</time>
      </trkpt>
      <trkpt lat="46.04334" lon="3.59091">
        <ele>492</ele>
        <time>2020-02-12T12:59:07Z</time>
      </trkpt>
      <trkpt lat="46.04325" lon="3.59114">
        <ele>494</ele>
        <time>2020-02-12T12:59:10Z</time>
      </trkpt>
      <trkpt lat="46.04316" lon="3.59131">
        <ele>495</ele>
        <time>2020-02-12T12:59:13Z</time>
      </trkpt>
      <trkpt lat="46.04297" lon="3.59152">
        <ele>496</ele>
        <time>2020-02-12T12:59:17Z</time>
      </trkpt>
      <trkpt lat="46.04286" lon="3.59157">
        <ele>496</ele>
        <time>2020-02-12T12:59:19Z</time>
      </trkpt>
      <trkpt lat="46.04256" lon="3.59163">
        <ele>493</ele>
        <time>2020-02-12T12:59:24Z</time>
      </trkpt>
      <trkpt lat="46.04245" lon="3.59168">
        <ele>492</ele>
        <time>2020-02-12T12:59:26Z</time>
      </trkpt>
      <trkpt lat="46.04236" lon="3.59176">
        <ele>491</ele>
        <time>2020-02-12T12:59:28Z</time>
      </trkpt>
      <trkpt lat="46.04212" lon="3.59218">
        <ele>492</ele>
        <time>2020-02-12T12:59:35Z</time>
      </trkpt>
      <trkpt lat="46.04177" lon="3.593">
        <ele>496</ele>
        <time>2020-02-12T12:59:47Z</time>
      </trkpt>
      <trkpt lat="46.04162" lon="3.59338">
        <ele>498</ele>
        <time>2020-02-12T12:59:52Z</time>
      </trkpt>
      <trkpt lat="46.04157" lon="3.59357">
        <ele>496</ele>
        <time>2020-02-12T12:59:55Z</time>
      </trkpt>
      <trkpt lat="46.04155" lon="3.59375">
        <ele>496</ele>
        <time>2020-02-12T12:59:57Z</time>
      </trkpt>
      <trkpt lat="46.04157" lon="3.59393">
        <ele>496</ele>
        <time>2020-02-12T12:59:59Z</time>
      </trkpt>
      <trkpt lat="46.04163" lon="3.59413">
        <ele>496</ele>
        <time>2020-02-12T13:00:02Z</time>
      </trkpt>
      <trkpt lat="46.04174" lon="3.59436">
        <ele>497</ele>
        <time>2020-02-12T13:00:06Z</time>
      </trkpt>
      <trkpt lat="46.04188" lon="3.59458">
        <ele>498</ele>
        <time>2020-02-12T13:00:09Z</time>
      </trkpt>
      <trkpt lat="46.04203" lon="3.59477">
        <ele>499</ele>
        <time>2020-02-12T13:00:13Z</time>
      </trkpt>
      <trkpt lat="46.04218" lon="3.59491">
        <ele>500</ele>
        <time>2020-02-12T13:00:16Z</time>
      </trkpt>
      <trkpt lat="46.043" lon="3.59544">
        <ele>504</ele>
        <time>2020-02-12T13:00:32Z</time>
      </trkpt>
      <trkpt lat="46.04315" lon="3.59558">
        <ele>504</ele>
        <time>2020-02-12T13:00:35Z</time>
      </trkpt>
      <trkpt lat="46.04325" lon="3.59572">
        <ele>504</ele>
        <time>2020-02-12T13:00:38Z</time>
      </trkpt>
      <trkpt lat="46.04332" lon="3.59599">
        <ele>504</ele>
        <time>2020-02-12T13:00:41Z</time>
      </trkpt>
      <trkpt lat="46.04331" lon="3.59619">
        <ele>505</ele>
        <time>2020-02-12T13:00:44Z</time>
      </trkpt>
      <trkpt lat="46.04325" lon="3.5964">
        <ele>505</ele>
        <time>2020-02-12T13:00:46Z</time>
      </trkpt>
      <trkpt lat="46.04216" lon="3.59946">
        <ele>510</ele>
        <time>2020-02-12T13:01:29Z</time>
      </trkpt>
      <trkpt lat="46.04209" lon="3.59982">
        <ele>511</ele>
        <time>2020-02-12T13:01:34Z</time>
      </trkpt>
      <trkpt lat="46.04192" lon="3.60121">
        <ele>515</ele>
        <time>2020-02-12T13:01:51Z</time>
      </trkpt>
      <trkpt lat="46.04174" lon="3.60195">
        <ele>518</ele>
        <time>2020-02-12T13:02:01Z</time>
      </trkpt>
      <trkpt lat="46.04163" lon="3.60226">
        <ele>519</ele>
        <time>2020-02-12T13:02:05Z</time>
      </trkpt>
      <trkpt lat="46.04141" lon="3.60272">
        <ele>520</ele>
        <time>2020-02-12T13:02:12Z</time>
      </trkpt>
      <trkpt lat="46.04128" lon="3.60289">
        <ele>520</ele>
        <time>2020-02-12T13:02:15Z</time>
      </trkpt>
      <trkpt lat="46.04112" lon="3.60304">
        <ele>521</ele>
        <time>2020-02-12T13:02:18Z</time>
      </trkpt>
      <trkpt lat="46.04096" lon="3.60314">
        <ele>522</ele>
        <time>2020-02-12T13:02:21Z</time>
      </trkpt>
      <trkpt lat="46.04069" lon="3.60322">
        <ele>524</ele>
        <time>2020-02-12T13:02:26Z</time>
      </trkpt>
      <trkpt lat="46.04056" lon="3.60321">
        <ele>524</ele>
        <time>2020-02-12T13:02:29Z</time>
      </trkpt>
      <trkpt lat="46.04043" lon="3.60316">
        <ele>526</ele>
        <time>2020-02-12T13:02:31Z</time>
      </trkpt>
      <trkpt lat="46.04013" lon="3.60298">
        <ele>531</ele>
        <time>2020-02-12T13:02:37Z</time>
      </trkpt>
      <trkpt lat="46.03998" lon="3.60293">
        <ele>533</ele>
        <time>2020-02-12T13:02:40Z</time>
      </trkpt>
      <trkpt lat="46.03986" lon="3.60293">
        <ele>534</ele>
        <time>2020-02-12T13:02:42Z</time>
      </trkpt>
      <trkpt lat="46.03976" lon="3.60297">
        <ele>535</ele>
        <time>2020-02-12T13:02:44Z</time>
      </trkpt>
      <trkpt lat="46.03967" lon="3.60305">
        <ele>534</ele>
        <time>2020-02-12T13:02:45Z</time>
      </trkpt>
      <trkpt lat="46.03959" lon="3.60318">
        <ele>533</ele>
        <time>2020-02-12T13:02:48Z</time>
      </trkpt>
      <trkpt lat="46.03951" lon="3.6034">
        <ele>530</ele>
        <time>2020-02-12T13:02:51Z</time>
      </trkpt>
      <trkpt lat="46.03933" lon="3.60412">
        <ele>526</ele>
        <time>2020-02-12T13:03:00Z</time>
      </trkpt>
      <trkpt lat="46.03924" lon="3.60434">
        <ele>525</ele>
        <time>2020-02-12T13:03:03Z</time>
      </trkpt>
      <trkpt lat="46.03902" lon="3.60461">
        <ele>524</ele>
        <time>2020-02-12T13:03:08Z</time>
      </trkpt>
      <trkpt lat="46.03825" lon="3.60518">
        <ele>526</ele>
        <time>2020-02-12T13:03:24Z</time>
      </trkpt>
      <trkpt lat="46.03813" lon="3.6053">
        <ele>526</ele>
        <time>2020-02-12T13:03:26Z</time>
      </trkpt>
      <trkpt lat="46.03804" lon="3.60544">
        <ele>526</ele>
        <time>2020-02-12T13:03:29Z</time>
      </trkpt>
      <trkpt lat="46.03797" lon="3.60564">
        <ele>525</ele>
        <time>2020-02-12T13:03:32Z</time>
      </trkpt>
      <trkpt lat="46.03792" lon="3.6059">
        <ele>525</ele>
        <time>2020-02-12T13:03:35Z</time>
      </trkpt>
      <trkpt lat="46.03779" lon="3.60694">
        <ele>526</ele>
        <time>2020-02-12T13:03:48Z</time>
      </trkpt>
      <trkpt lat="46.03769" lon="3.60726">
        <ele>526</ele>
        <time>2020-02-12T13:03:52Z</time>
      </trkpt>
      <trkpt lat="46.03755" lon="3.60746">
        <ele>526</ele>
        <time>2020-02-12T13:03:56Z</time>
      </trkpt>
      <trkpt lat="46.03504" lon="3.60969">
        <ele>526</ele>
        <time>2020-02-12T13:04:48Z</time>
      </trkpt>
      <trkpt lat="46.03479" lon="3.60987">
        <ele>527</ele>
        <time>2020-02-12T13:04:53Z</time>
      </trkpt>
      <trkpt lat="46.03459" lon="3.60997">
        <ele>528</ele>
        <time>2020-02-12T13:04:57Z</time>
      </trkpt>
      <trkpt lat="46.03379" lon="3.61028">
        <ele>532</ele>
        <time>2020-02-12T13:05:12Z</time>
      </trkpt>
      <trkpt lat="46.03361" lon="3.61032">
        <ele>533</ele>
        <time>2020-02-12T13:05:15Z</time>
      </trkpt>
      <trkpt lat="46.0335" lon="3.61032">
        <ele>534</ele>
        <time>2020-02-12T13:05:17Z</time>
      </trkpt>
      <trkpt lat="46.0334" lon="3.61029">
        <ele>535</ele>
        <time>2020-02-12T13:05:19Z</time>
      </trkpt>
      <trkpt lat="46.03322" lon="3.61016">
        <ele>536</ele>
        <time>2020-02-12T13:05:22Z</time>
      </trkpt>
      <trkpt lat="46.03305" lon="3.60994">
        <ele>538</ele>
        <time>2020-02-12T13:05:26Z</time>
      </trkpt>
      <trkpt lat="46.03261" lon="3.60926">
        <ele>540</ele>
        <time>2020-02-12T13:05:38Z</time>
      </trkpt>
      <trkpt lat="46.03224" lon="3.6088">
        <ele>541</ele>
        <time>2020-02-12T13:05:47Z</time>
      </trkpt>
      <trkpt lat="46.03199" lon="3.60855">
        <ele>543</ele>
        <time>2020-02-12T13:05:52Z</time>
      </trkpt>
      <trkpt lat="46.03182" lon="3.60844">
        <ele>545</ele>
        <time>2020-02-12T13:05:55Z</time>
      </trkpt>
      <trkpt lat="46.03163" lon="3.60836">
        <ele>547</ele>
        <time>2020-02-12T13:05:59Z</time>
      </trkpt>
      <trkpt lat="46.031" lon="3.60824">
        <ele>551</ele>
        <time>2020-02-12T13:06:10Z</time>
      </trkpt>
      <trkpt lat="46.03069" lon="3.60822">
        <ele>553</ele>
        <time>2020-02-12T13:06:16Z</time>
      </trkpt>
      <trkpt lat="46.03032" lon="3.60825">
        <ele>555</ele>
        <time>2020-02-12T13:06:22Z</time>
      </trkpt>
      <trkpt lat="46.02989" lon="3.60833">
        <ele>560</ele>
        <time>2020-02-12T13:06:30Z</time>
      </trkpt>
      <trkpt lat="46.02876" lon="3.6086">
        <ele>569</ele>
        <time>2020-02-12T13:06:50Z</time>
      </trkpt>
      <trkpt lat="46.02847" lon="3.60869">
        <ele>571</ele>
        <time>2020-02-12T13:06:56Z</time>
      </trkpt>
      <trkpt lat="46.02835" lon="3.60876">
        <ele>572</ele>
        <time>2020-02-12T13:06:58Z</time>
      </trkpt>
      <trkpt lat="46.02822" lon="3.60893">
        <ele>572</ele>
        <time>2020-02-12T13:07:01Z</time>
      </trkpt>
      <trkpt lat="46.02815" lon="3.60922">
        <ele>573</ele>
        <time>2020-02-12T13:07:05Z</time>
      </trkpt>
      <trkpt lat="46.02814" lon="3.60951">
        <ele>575</ele>
        <time>2020-02-12T13:07:08Z</time>
      </trkpt>
      <trkpt lat="46.0282" lon="3.61098">
        <ele>580</ele>
        <time>2020-02-12T13:07:27Z</time>
      </trkpt>
      <trkpt lat="46.02823" lon="3.6125">
        <ele>583</ele>
        <time>2020-02-12T13:07:45Z</time>
      </trkpt>
      <trkpt lat="46.02802" lon="3.6151">
        <ele>591</ele>
        <time>2020-02-12T13:08:18Z</time>
      </trkpt>
      <trkpt lat="46.02798" lon="3.61539">
        <ele>591</ele>
        <time>2020-02-12T13:08:21Z</time>
      </trkpt>
      <trkpt lat="46.02791" lon="3.61566">
        <ele>591</ele>
        <time>2020-02-12T13:08:25Z</time>
      </trkpt>
      <trkpt lat="46.02777" lon="3.61591">
        <ele>591</ele>
        <time>2020-02-12T13:08:29Z</time>
      </trkpt>
      <trkpt lat="46.02744" lon="3.61633">
        <ele>591</ele>
        <time>2020-02-12T13:08:37Z</time>
      </trkpt>
      <trkpt lat="46.02574" lon="3.6184">
        <ele>587</ele>
        <time>2020-02-12T13:09:16Z</time>
      </trkpt>
      <trkpt lat="46.02534" lon="3.61879">
        <ele>588</ele>
        <time>2020-02-12T13:09:25Z</time>
      </trkpt>
      <trkpt lat="46.02407" lon="3.61983">
        <ele>585</ele>
        <time>2020-02-12T13:09:51Z</time>
      </trkpt>
      <trkpt lat="46.02393" lon="3.61999">
        <ele>584</ele>
        <time>2020-02-12T13:09:54Z</time>
      </trkpt>
      <trkpt lat="46.02387" lon="3.6201">
        <ele>584</ele>
        <time>2020-02-12T13:09:56Z</time>
      </trkpt>
      <trkpt lat="46.02381" lon="3.62032">
        <ele>583</ele>
        <time>2020-02-12T13:09:59Z</time>
      </trkpt>
      <trkpt lat="46.0238" lon="3.62046">
        <ele>583</ele>
        <time>2020-02-12T13:10:01Z</time>
      </trkpt>
      <trkpt lat="46.02392" lon="3.62277">
        <ele>581</ele>
        <time>2020-02-12T13:10:29Z</time>
      </trkpt>
      <trkpt lat="46.02386" lon="3.62459">
        <ele>581</ele>
        <time>2020-02-12T13:10:52Z</time>
      </trkpt>
      <trkpt lat="46.02391" lon="3.62616">
        <ele>582</ele>
        <time>2020-02-12T13:11:11Z</time>
      </trkpt>
      <trkpt lat="46.02399" lon="3.62671">
        <ele>582</ele>
        <time>2020-02-12T13:11:18Z</time>
      </trkpt>
      <trkpt lat="46.02412" lon="3.6273">
        <ele>582</ele>
        <time>2020-02-12T13:11:26Z</time>
      </trkpt>
      <trkpt lat="46.02517" lon="3.63025">
        <ele>583</ele>
        <time>2020-02-12T13:12:07Z</time>
      </trkpt>
      <trkpt lat="46.02531" lon="3.63075">
        <ele>581</ele>
        <time>2020-02-12T13:12:13Z</time>
      </trkpt>
      <trkpt lat="46.02531" lon="3.63094">
        <ele>579</ele>
        <time>2020-02-12T13:12:16Z</time>
      </trkpt>
      <trkpt lat="46.02517" lon="3.63154">
        <ele>572</ele>
        <time>2020-02-12T13:12:23Z</time>
      </trkpt>
      <trkpt lat="46.02513" lon="3.6319">
        <ele>569</ele>
        <time>2020-02-12T13:12:28Z</time>
      </trkpt>
      <trkpt lat="46.02531" lon="3.63374">
        <ele>571</ele>
        <time>2020-02-12T13:12:51Z</time>
      </trkpt>
      <trkpt lat="46.02528" lon="3.63605">
        <ele>566</ele>
        <time>2020-02-12T13:13:19Z</time>
      </trkpt>
      <trkpt lat="46.0253" lon="3.63628">
        <ele>564</ele>
        <time>2020-02-12T13:13:22Z</time>
      </trkpt>
      <trkpt lat="46.02535" lon="3.63657">
        <ele>562</ele>
        <time>2020-02-12T13:13:26Z</time>
      </trkpt>
      <trkpt lat="46.02548" lon="3.63696">
        <ele>560</ele>
        <time>2020-02-12T13:13:31Z</time>
      </trkpt>
      <trkpt lat="46.02604" lon="3.63834">
        <ele>557</ele>
        <time>2020-02-12T13:13:51Z</time>
      </trkpt>
      <trkpt lat="46.02609" lon="3.6387">
        <ele>557</ele>
        <time>2020-02-12T13:13:56Z</time>
      </trkpt>
      <trkpt lat="46.02593" lon="3.64047">
        <ele>553</ele>
        <time>2020-02-12T13:14:18Z</time>
      </trkpt>
      <trkpt lat="46.02583" lon="3.6408">
        <ele>552</ele>
        <time>2020-02-12T13:14:22Z</time>
      </trkpt>
      <trkpt lat="46.02559" lon="3.64123">
        <ele>552</ele>
        <time>2020-02-12T13:14:29Z</time>
      </trkpt>
      <trkpt lat="46.02552" lon="3.64141">
        <ele>552</ele>
        <time>2020-02-12T13:14:32Z</time>
      </trkpt>
      <trkpt lat="46.02546" lon="3.64163">
        <ele>552</ele>
        <time>2020-02-12T13:14:34Z</time>
      </trkpt>
      <trkpt lat="46.02544" lon="3.64185">
        <ele>552</ele>
        <time>2020-02-12T13:14:37Z</time>
      </trkpt>
      <trkpt lat="46.02542" lon="3.64597">
        <ele>554</ele>
        <time>2020-02-12T13:15:28Z</time>
      </trkpt>
      <trkpt lat="46.02544" lon="3.64816">
        <ele>552</ele>
        <time>2020-02-12T13:15:55Z</time>
      </trkpt>
      <trkpt lat="46.0254" lon="3.64879">
        <ele>554</ele>
        <time>2020-02-12T13:16:03Z</time>
      </trkpt>
      <trkpt lat="46.02533" lon="3.64912">
        <ele>554</ele>
        <time>2020-02-12T13:16:07Z</time>
      </trkpt>
      <trkpt lat="46.02479" lon="3.65094">
        <ele>561</ele>
        <time>2020-02-12T13:16:32Z</time>
      </trkpt>
      <trkpt lat="46.02467" lon="3.65118">
        <ele>562</ele>
        <time>2020-02-12T13:16:35Z</time>
      </trkpt>
      <trkpt lat="46.02432" lon="3.65171">
        <ele>563</ele>
        <time>2020-02-12T13:16:44Z</time>
      </trkpt>
      <trkpt lat="46.0242" lon="3.65194">
        <ele>563</ele>
        <time>2020-02-12T13:16:48Z</time>
      </trkpt>
      <trkpt lat="46.02363" lon="3.65334">
        <ele>569</ele>
        <time>2020-02-12T13:17:08Z</time>
      </trkpt>
      <trkpt lat="46.023" lon="3.65563">
        <ele>575</ele>
        <time>2020-02-12T13:17:38Z</time>
      </trkpt>
      <trkpt lat="46.02293" lon="3.65584">
        <ele>576</ele>
        <time>2020-02-12T13:17:41Z</time>
      </trkpt>
      <trkpt lat="46.02287" lon="3.65596">
        <ele>576</ele>
        <time>2020-02-12T13:17:43Z</time>
      </trkpt>
      <trkpt lat="46.02279" lon="3.65605">
        <ele>576</ele>
        <time>2020-02-12T13:17:45Z</time>
      </trkpt>
      <trkpt lat="46.02269" lon="3.65609">
        <ele>576</ele>
        <time>2020-02-12T13:17:47Z</time>
      </trkpt>
      <trkpt lat="46.02262" lon="3.65609">
        <ele>575</ele>
        <time>2020-02-12T13:17:48Z</time>
      </trkpt>
      <trkpt lat="46.02251" lon="3.65603">
        <ele>574</ele>
        <time>2020-02-12T13:17:50Z</time>
      </trkpt>
      <trkpt lat="46.02127" lon="3.65478">
        <ele>576</ele>
        <time>2020-02-12T13:18:17Z</time>
      </trkpt>
      <trkpt lat="46.02107" lon="3.65461">
        <ele>577</ele>
        <time>2020-02-12T13:18:21Z</time>
      </trkpt>
      <trkpt lat="46.02092" lon="3.65454">
        <ele>578</ele>
        <time>2020-02-12T13:18:24Z</time>
      </trkpt>
      <trkpt lat="46.02077" lon="3.65454">
        <ele>579</ele>
        <time>2020-02-12T13:18:27Z</time>
      </trkpt>
      <trkpt lat="46.0206" lon="3.65461">
        <ele>580</ele>
        <time>2020-02-12T13:18:30Z</time>
      </trkpt>
      <trkpt lat="46.02037" lon="3.65484">
        <ele>583</ele>
        <time>2020-02-12T13:18:35Z</time>
      </trkpt>
      <trkpt lat="46.02028" lon="3.65503">
        <ele>585</ele>
        <time>2020-02-12T13:18:38Z</time>
      </trkpt>
      <trkpt lat="46.02023" lon="3.65523">
        <ele>587</ele>
        <time>2020-02-12T13:18:40Z</time>
      </trkpt>
      <trkpt lat="46.02013" lon="3.65615">
        <ele>596</ele>
        <time>2020-02-12T13:18:52Z</time>
      </trkpt>
      <trkpt lat="46.02002" lon="3.65685">
        <ele>601</ele>
        <time>2020-02-12T13:19:01Z</time>
      </trkpt>
      <trkpt lat="46.01994" lon="3.65712">
        <ele>604</ele>
        <time>2020-02-12T13:19:04Z</time>
      </trkpt>
      <trkpt lat="46.01986" lon="3.65729">
        <ele>606</ele>
        <time>2020-02-12T13:19:07Z</time>
      </trkpt>
      <trkpt lat="46.01974" lon="3.65743">
        <ele>607</ele>
        <time>2020-02-12T13:19:09Z</time>
      </trkpt>
      <trkpt lat="46.0196" lon="3.65753">
        <ele>606</ele>
        <time>2020-02-12T13:19:12Z</time>
      </trkpt>
      <trkpt lat="46.01942" lon="3.65761">
        <ele>606</ele>
        <time>2020-02-12T13:19:16Z</time>
      </trkpt>
      <trkpt lat="46.01921" lon="3.65766">
        <ele>604</ele>
        <time>2020-02-12T13:19:19Z</time>
      </trkpt>
      <trkpt lat="46.01903" lon="3.65767">
        <ele>604</ele>
        <time>2020-02-12T13:19:23Z</time>
      </trkpt>
      <trkpt lat="46.01887" lon="3.65763">
        <ele>603</ele>
        <time>2020-02-12T13:19:26Z</time>
      </trkpt>
      <trkpt lat="46.0182" lon="3.65725">
        <ele>598</ele>
        <time>2020-02-12T13:19:38Z</time>
      </trkpt>
      <trkpt lat="46.01796" lon="3.65716">
        <ele>597</ele>
        <time>2020-02-12T13:19:43Z</time>
      </trkpt>
      <trkpt lat="46.01778" lon="3.65715">
        <ele>597</ele>
        <time>2020-02-12T13:19:46Z</time>
      </trkpt>
      <trkpt lat="46.01756" lon="3.6572">
        <ele>597</ele>
        <time>2020-02-12T13:19:50Z</time>
      </trkpt>
      <trkpt lat="46.01737" lon="3.65732">
        <ele>597</ele>
        <time>2020-02-12T13:19:54Z</time>
      </trkpt>
      <trkpt lat="46.01703" lon="3.65762">
        <ele>596</ele>
        <time>2020-02-12T13:20:01Z</time>
      </trkpt>
      <trkpt lat="46.01623" lon="3.65838">
        <ele>599</ele>
        <time>2020-02-12T13:20:18Z</time>
      </trkpt>
      <trkpt lat="46.01584" lon="3.65894">
        <ele>599</ele>
        <time>2020-02-12T13:20:28Z</time>
      </trkpt>
      <trkpt lat="46.01567" lon="3.65924">
        <ele>602</ele>
        <time>2020-02-12T13:20:32Z</time>
      </trkpt>
      <trkpt lat="46.01559" lon="3.65943">
        <ele>603</ele>
        <time>2020-02-12T13:20:35Z</time>
      </trkpt>
      <trkpt lat="46.01552" lon="3.65969">
        <ele>603</ele>
        <time>2020-02-12T13:20:39Z</time>
      </trkpt>
      <trkpt lat="46.01549" lon="3.65999">
        <ele>603</ele>
        <time>2020-02-12T13:20:42Z</time>
      </trkpt>
      <trkpt lat="46.01554" lon="3.66043">
        <ele>605</ele>
        <time>2020-02-12T13:20:48Z</time>
      </trkpt>
      <trkpt lat="46.0157" lon="3.66097">
        <ele>606</ele>
        <time>2020-02-12T13:20:55Z</time>
      </trkpt>
      <trkpt lat="46.01576" lon="3.6614">
        <ele>605</ele>
        <time>2020-02-12T13:21:00Z</time>
      </trkpt>
      <trkpt lat="46.0157" lon="3.66232">
        <ele>608</ele>
        <time>2020-02-12T13:21:12Z</time>
      </trkpt>
      <trkpt lat="46.01561" lon="3.66323">
        <ele>614</ele>
        <time>2020-02-12T13:21:23Z</time>
      </trkpt>
      <trkpt lat="46.01561" lon="3.66364">
        <ele>613</ele>
        <time>2020-02-12T13:21:28Z</time>
      </trkpt>
      <trkpt lat="46.01565" lon="3.66387">
        <ele>611</ele>
        <time>2020-02-12T13:21:31Z</time>
      </trkpt>
      <trkpt lat="46.01574" lon="3.66415">
        <ele>609</ele>
        <time>2020-02-12T13:21:35Z</time>
      </trkpt>
      <trkpt lat="46.01608" lon="3.66498">
        <ele>610</ele>
        <time>2020-02-12T13:21:47Z</time>
      </trkpt>
      <trkpt lat="46.01613" lon="3.66524">
        <ele>610</ele>
        <time>2020-02-12T13:21:50Z</time>
      </trkpt>
      <trkpt lat="46.01614" lon="3.66549">
        <ele>610</ele>
        <time>2020-02-12T13:21:53Z</time>
      </trkpt>
      <trkpt lat="46.01612" lon="3.66644">
        <ele>608</ele>
        <time>2020-02-12T13:22:05Z</time>
      </trkpt>
      <trkpt lat="46.01607" lon="3.66695">
        <ele>609</ele>
        <time>2020-02-12T13:22:11Z</time>
      </trkpt>
      <trkpt lat="46.01578" lon="3.66881">
        <ele>613</ele>
        <time>2020-02-12T13:22:35Z</time>
      </trkpt>
      <trkpt lat="46.01573" lon="3.66902">
        <ele>614</ele>
        <time>2020-02-12T13:22:38Z</time>
      </trkpt>
      <trkpt lat="46.01559" lon="3.66929">
        <ele>613</ele>
        <time>2020-02-12T13:22:42Z</time>
      </trkpt>
      <trkpt lat="46.0152" lon="3.66976">
        <ele>610</ele>
        <time>2020-02-12T13:22:51Z</time>
      </trkpt>
      <trkpt lat="46.01501" lon="3.67004">
        <ele>608</ele>
        <time>2020-02-12T13:22:56Z</time>
      </trkpt>
      <trkpt lat="46.01481" lon="3.67061">
        <ele>609</ele>
        <time>2020-02-12T13:23:04Z</time>
      </trkpt>
      <trkpt lat="46.01469" lon="3.67087">
        <ele>610</ele>
        <time>2020-02-12T13:23:08Z</time>
      </trkpt>
      <trkpt lat="46.01428" lon="3.67127">
        <ele>610</ele>
        <time>2020-02-12T13:23:16Z</time>
      </trkpt>
      <trkpt lat="46.01405" lon="3.67164">
        <ele>613</ele>
        <time>2020-02-12T13:23:23Z</time>
      </trkpt>
      <trkpt lat="46.01374" lon="3.67202">
        <ele>616</ele>
        <time>2020-02-12T13:23:30Z</time>
      </trkpt>
      <trkpt lat="46.01319" lon="3.67249">
        <ele>619</ele>
        <time>2020-02-12T13:23:41Z</time>
      </trkpt>
      <trkpt lat="46.01304" lon="3.67267">
        <ele>620</ele>
        <time>2020-02-12T13:23:45Z</time>
      </trkpt>
      <trkpt lat="46.0129" lon="3.67291">
        <ele>620</ele>
        <time>2020-02-12T13:23:48Z</time>
      </trkpt>
      <trkpt lat="46.01283" lon="3.67311">
        <ele>621</ele>
        <time>2020-02-12T13:23:51Z</time>
      </trkpt>
      <trkpt lat="46.01274" lon="3.67351">
        <ele>623</ele>
        <time>2020-02-12T13:23:56Z</time>
      </trkpt>
      <trkpt lat="46.01232" lon="3.67556">
        <ele>628</ele>
        <time>2020-02-12T13:24:23Z</time>
      </trkpt>
      <trkpt lat="46.01228" lon="3.67571">
        <ele>629</ele>
        <time>2020-02-12T13:24:25Z</time>
      </trkpt>
      <trkpt lat="46.01213" lon="3.67602">
        <ele>630</ele>
        <time>2020-02-12T13:24:30Z</time>
      </trkpt>
      <trkpt lat="46.012" lon="3.67619">
        <ele>630</ele>
        <time>2020-02-12T13:24:33Z</time>
      </trkpt>
      <trkpt lat="46.01159" lon="3.67651">
        <ele>627</ele>
        <time>2020-02-12T13:24:41Z</time>
      </trkpt>
      <trkpt lat="46.01102" lon="3.67686">
        <ele>624</ele>
        <time>2020-02-12T13:24:52Z</time>
      </trkpt>
      <trkpt lat="46.01086" lon="3.67692">
        <ele>623</ele>
        <time>2020-02-12T13:24:55Z</time>
      </trkpt>
      <trkpt lat="46.01067" lon="3.67696">
        <ele>623</ele>
        <time>2020-02-12T13:24:58Z</time>
      </trkpt>
      <trkpt lat="46.01047" lon="3.67696">
        <ele>624</ele>
        <time>2020-02-12T13:25:02Z</time>
      </trkpt>
      <trkpt lat="46.01026" lon="3.67692">
        <ele>625</ele>
        <time>2020-02-12T13:25:06Z</time>
      </trkpt>
      <trkpt lat="46.00938" lon="3.67667">
        <ele>629</ele>
        <time>2020-02-12T13:25:22Z</time>
      </trkpt>
      <trkpt lat="46.00915" lon="3.67666">
        <ele>631</ele>
        <time>2020-02-12T13:25:26Z</time>
      </trkpt>
      <trkpt lat="46.0086" lon="3.67673">
        <ele>635</ele>
        <time>2020-02-12T13:25:36Z</time>
      </trkpt>
      <trkpt lat="46.00778" lon="3.6769">
        <ele>640</ele>
        <time>2020-02-12T13:25:50Z</time>
      </trkpt>
      <trkpt lat="46.00717" lon="3.67711">
        <ele>644</ele>
        <time>2020-02-12T13:26:01Z</time>
      </trkpt>
      <trkpt lat="46.00639" lon="3.6774">
        <ele>648</ele>
        <time>2020-02-12T13:26:16Z</time>
      </trkpt>
      <trkpt lat="46.00608" lon="3.67754">
        <ele>649</ele>
        <time>2020-02-12T13:26:22Z</time>
      </trkpt>
      <trkpt lat="46.00582" lon="3.6777">
        <ele>650</ele>
        <time>2020-02-12T13:26:27Z</time>
      </trkpt>
      <trkpt lat="46.00544" lon="3.67812">
        <ele>652</ele>
        <time>2020-02-12T13:26:35Z</time>
      </trkpt>
      <trkpt lat="46.00405" lon="3.68024">
        <ele>666</ele>
        <time>2020-02-12T13:27:11Z</time>
      </trkpt>
      <trkpt lat="46.0038" lon="3.6807">
        <ele>670</ele>
        <time>2020-02-12T13:27:18Z</time>
      </trkpt>
      <trkpt lat="46.00322" lon="3.68192">
        <ele>677</ele>
        <time>2020-02-12T13:27:37Z</time>
      </trkpt>
      <trkpt lat="46.00305" lon="3.68221">
        <ele>680</ele>
        <time>2020-02-12T13:27:41Z</time>
      </trkpt>
      <trkpt lat="46.00286" lon="3.68244">
        <ele>681</ele>
        <time>2020-02-12T13:27:46Z</time>
      </trkpt>
      <trkpt lat="46.00194" lon="3.68315">
        <ele>687</ele>
        <time>2020-02-12T13:28:04Z</time>
      </trkpt>
      <trkpt lat="46.00163" lon="3.68345">
        <ele>690</ele>
        <time>2020-02-12T13:28:11Z</time>
      </trkpt>
      <trkpt lat="46.00122" lon="3.68399">
        <ele>694</ele>
        <time>2020-02-12T13:28:21Z</time>
      </trkpt>
      <trkpt lat="46.00097" lon="3.68437">
        <ele>697</ele>
        <time>2020-02-12T13:28:27Z</time>
      </trkpt>
      <trkpt lat="46.00063" lon="3.68508">
        <ele>709</ele>
        <time>2020-02-12T13:28:38Z</time>
      </trkpt>
      <trkpt lat="46.0004" lon="3.68531">
        <ele>710</ele>
        <time>2020-02-12T13:28:43Z</time>
      </trkpt>
      <trkpt lat="46.00024" lon="3.68539">
        <ele>709</ele>
        <time>2020-02-12T13:28:46Z</time>
      </trkpt>
      <trkpt lat="46.00009" lon="3.68542">
        <ele>708</ele>
        <time>2020-02-12T13:28:49Z</time>
      </trkpt>
      <trkpt lat="45.99985" lon="3.6854">
        <ele>707</ele>
        <time>2020-02-12T13:28:53Z</time>
      </trkpt>
      <trkpt lat="45.99798" lon="3.68472">
        <ele>715</ele>
        <time>2020-02-12T13:29:27Z</time>
      </trkpt>
      <trkpt lat="45.99654" lon="3.6839">
        <ele>726</ele>
        <time>2020-02-12T13:29:55Z</time>
      </trkpt>
      <trkpt lat="45.99627" lon="3.68379">
        <ele>727</ele>
        <time>2020-02-12T13:30:00Z</time>
      </trkpt>
      <trkpt lat="45.99593" lon="3.68374">
        <ele>729</ele>
        <time>2020-02-12T13:30:06Z</time>
      </trkpt>
      <trkpt lat="45.99562" lon="3.68377">
        <ele>731</ele>
        <time>2020-02-12T13:30:11Z</time>
      </trkpt>
      <trkpt lat="45.99543" lon="3.68382">
        <ele>732</ele>
        <time>2020-02-12T13:30:15Z</time>
      </trkpt>
      <trkpt lat="45.99517" lon="3.68396">
        <ele>735</ele>
        <time>2020-02-12T13:30:20Z</time>
      </trkpt>
      <trkpt lat="45.9948" lon="3.68421">
        <ele>739</ele>
        <time>2020-02-12T13:30:27Z</time>
      </trkpt>
      <trkpt lat="45.99421" lon="3.68468">
        <ele>743</ele>
        <time>2020-02-12T13:30:39Z</time>
      </trkpt>
      <trkpt lat="45.99392" lon="3.68501">
        <ele>746</ele>
        <time>2020-02-12T13:30:46Z</time>
      </trkpt>
      <trkpt lat="45.99299" lon="3.68627">
        <ele>754</ele>
        <time>2020-02-12T13:31:08Z</time>
      </trkpt>
      <trkpt lat="45.99183" lon="3.68803">
        <ele>761</ele>
        <time>2020-02-12T13:31:38Z</time>
      </trkpt>
      <trkpt lat="45.99" lon="3.6909">
        <ele>768</ele>
        <time>2020-02-12T13:32:26Z</time>
      </trkpt>
      <trkpt lat="45.98958" lon="3.69173">
        <ele>772</ele>
        <time>2020-02-12T13:32:39Z</time>
      </trkpt>
      <trkpt lat="45.98874" lon="3.6936">
        <ele>772</ele>
        <time>2020-02-12T13:33:07Z</time>
      </trkpt>
      <trkpt lat="45.98798" lon="3.69538">
        <ele>778</ele>
        <time>2020-02-12T13:33:33Z</time>
      </trkpt>
      <trkpt lat="45.98774" lon="3.69584">
        <ele>780</ele>
        <time>2020-02-12T13:33:40Z</time>
      </trkpt>
      <trkpt lat="45.98755" lon="3.69609">
        <ele>779</ele>
        <time>2020-02-12T13:33:44Z</time>
      </trkpt>
      <trkpt lat="45.98729" lon="3.69635">
        <ele>779</ele>
        <time>2020-02-12T13:33:50Z</time>
      </trkpt>
      <trkpt lat="45.98693" lon="3.69661">
        <ele>777</ele>
        <time>2020-02-12T13:33:57Z</time>
      </trkpt>
      <trkpt lat="45.98659" lon="3.69674">
        <ele>776</ele>
        <time>2020-02-12T13:34:03Z</time>
      </trkpt>
      <trkpt lat="45.98539" lon="3.697">
        <ele>777</ele>
        <time>2020-02-12T13:34:25Z</time>
      </trkpt>
      <trkpt lat="45.98503" lon="3.69711">
        <ele>777</ele>
        <time>2020-02-12T13:34:31Z</time>
      </trkpt>
      <trkpt lat="45.98486" lon="3.69721">
        <ele>776</ele>
        <time>2020-02-12T13:34:35Z</time>
      </trkpt>
      <trkpt lat="45.98469" lon="3.69738">
        <ele>775</ele>
        <time>2020-02-12T13:34:38Z</time>
      </trkpt>
      <trkpt lat="45.98453" lon="3.69764">
        <ele>775</ele>
        <time>2020-02-12T13:34:43Z</time>
      </trkpt>
      <trkpt lat="45.98436" lon="3.69806">
        <ele>776</ele>
        <time>2020-02-12T13:34:49Z</time>
      </trkpt>
      <trkpt lat="45.98396" lon="3.69926">
        <ele>776</ele>
        <time>2020-02-12T13:35:05Z</time>
      </trkpt>
      <trkpt lat="45.98388" lon="3.69965">
        <ele>776</ele>
        <time>2020-02-12T13:35:10Z</time>
      </trkpt>
      <trkpt lat="45.9838" lon="3.70041">
        <ele>780</ele>
        <time>2020-02-12T13:35:20Z</time>
      </trkpt>
      <trkpt lat="45.98369" lon="3.70081">
        <ele>782</ele>
        <time>2020-02-12T13:35:25Z</time>
      </trkpt>
      <trkpt lat="45.98357" lon="3.70106">
        <ele>782</ele>
        <time>2020-02-12T13:35:29Z</time>
      </trkpt>
      <trkpt lat="45.98346" lon="3.70121">
        <ele>782</ele>
        <time>2020-02-12T13:35:31Z</time>
      </trkpt>
      <trkpt lat="45.98291" lon="3.70168">
        <ele>782</ele>
        <time>2020-02-12T13:35:43Z</time>
      </trkpt>
      <trkpt lat="45.98277" lon="3.70187">
        <ele>783</ele>
        <time>2020-02-12T13:35:46Z</time>
      </trkpt>
      <trkpt lat="45.98266" lon="3.70208">
        <ele>784</ele>
        <time>2020-02-12T13:35:50Z</time>
      </trkpt>
      <trkpt lat="45.98254" lon="3.70241">
        <ele>786</ele>
        <time>2020-02-12T13:35:54Z</time>
      </trkpt>
      <trkpt lat="45.98133" lon="3.70633">
        <ele>793</ele>
        <time>2020-02-12T13:36:47Z</time>
      </trkpt>
      <trkpt lat="45.98122" lon="3.70665">
        <ele>792</ele>
        <time>2020-02-12T13:36:52Z</time>
      </trkpt>
      <trkpt lat="45.98108" lon="3.70687">
        <ele>791</ele>
        <time>2020-02-12T13:36:55Z</time>
      </trkpt>
      <trkpt lat="45.9809" lon="3.70698">
        <ele>788</ele>
        <time>2020-02-12T13:36:59Z</time>
      </trkpt>
      <trkpt lat="45.98075" lon="3.70701">
        <ele>788</ele>
        <time>2020-02-12T13:37:01Z</time>
      </trkpt>
      <trkpt lat="45.98043" lon="3.70702">
        <ele>789</ele>
        <time>2020-02-12T13:37:07Z</time>
      </trkpt>
      <trkpt lat="45.9802" lon="3.70706">
        <ele>791</ele>
        <time>2020-02-12T13:37:11Z</time>
      </trkpt>
      <trkpt lat="45.97932" lon="3.70714">
        <ele>798</ele>
        <time>2020-02-12T13:37:27Z</time>
      </trkpt>
      <trkpt lat="45.9788" lon="3.70714">
        <ele>801</ele>
        <time>2020-02-12T13:37:36Z</time>
      </trkpt>
      <trkpt lat="45.97794" lon="3.70699">
        <ele>805</ele>
        <time>2020-02-12T13:37:52Z</time>
      </trkpt>
      <trkpt lat="45.97777" lon="3.70701">
        <ele>805</ele>
        <time>2020-02-12T13:37:55Z</time>
      </trkpt>
      <trkpt lat="45.97614" lon="3.70751">
        <ele>812</ele>
        <time>2020-02-12T13:38:24Z</time>
      </trkpt>
      <trkpt lat="45.97594" lon="3.70764">
        <ele>813</ele>
        <time>2020-02-12T13:38:28Z</time>
      </trkpt>
      <trkpt lat="45.97575" lon="3.70784">
        <ele>814</ele>
        <time>2020-02-12T13:38:32Z</time>
      </trkpt>
      <trkpt lat="45.97404" lon="3.70996">
        <ele>823</ele>
        <time>2020-02-12T13:39:13Z</time>
      </trkpt>
      <trkpt lat="45.97393" lon="3.71014">
        <ele>823</ele>
        <time>2020-02-12T13:39:16Z</time>
      </trkpt>
      <trkpt lat="45.97386" lon="3.71029">
        <ele>823</ele>
        <time>2020-02-12T13:39:18Z</time>
      </trkpt>
      <trkpt lat="45.97374" lon="3.71077">
        <ele>821</ele>
        <time>2020-02-12T13:39:24Z</time>
      </trkpt>
      <trkpt lat="45.97333" lon="3.71321">
        <ele>814</ele>
        <time>2020-02-12T13:39:55Z</time>
      </trkpt>
      <trkpt lat="45.97331" lon="3.71349">
        <ele>814</ele>
        <time>2020-02-12T13:39:59Z</time>
      </trkpt>
      <trkpt lat="45.97332" lon="3.71389">
        <ele>814</ele>
        <time>2020-02-12T13:40:04Z</time>
      </trkpt>
      <trkpt lat="45.97335" lon="3.7142">
        <ele>814</ele>
        <time>2020-02-12T13:40:07Z</time>
      </trkpt>
      <trkpt lat="45.97354" lon="3.71507">
        <ele>817</ele>
        <time>2020-02-12T13:40:19Z</time>
      </trkpt>
      <trkpt lat="45.97354" lon="3.71542">
        <ele>815</ele>
        <time>2020-02-12T13:40:23Z</time>
      </trkpt>
      <trkpt lat="45.9735" lon="3.7156">
        <ele>814</ele>
        <time>2020-02-12T13:40:25Z</time>
      </trkpt>
      <trkpt lat="45.97334" lon="3.71584">
        <ele>808</ele>
        <time>2020-02-12T13:40:29Z</time>
      </trkpt>
      <trkpt lat="45.97314" lon="3.71598">
        <ele>807</ele>
        <time>2020-02-12T13:40:33Z</time>
      </trkpt>
      <trkpt lat="45.97262" lon="3.71624">
        <ele>803</ele>
        <time>2020-02-12T13:40:43Z</time>
      </trkpt>
      <trkpt lat="45.97244" lon="3.71637">
        <ele>802</ele>
        <time>2020-02-12T13:40:47Z</time>
      </trkpt>
      <trkpt lat="45.97224" lon="3.71656">
        <ele>800</ele>
        <time>2020-02-12T13:40:51Z</time>
      </trkpt>
      <trkpt lat="45.972" lon="3.71689">
        <ele>799</ele>
        <time>2020-02-12T13:40:57Z</time>
      </trkpt>
      <trkpt lat="45.9718" lon="3.71727">
        <ele>797</ele>
        <time>2020-02-12T13:41:03Z</time>
      </trkpt>
      <trkpt lat="45.97172" lon="3.71759">
        <ele>797</ele>
        <time>2020-02-12T13:41:07Z</time>
      </trkpt>
      <trkpt lat="45.97173" lon="3.7179">
        <ele>796</ele>
        <time>2020-02-12T13:41:11Z</time>
      </trkpt>
      <trkpt lat="45.97191" lon="3.7186">
        <ele>795</ele>
        <time>2020-02-12T13:41:20Z</time>
      </trkpt>
      <trkpt lat="45.97195" lon="3.71898">
        <ele>794</ele>
        <time>2020-02-12T13:41:25Z</time>
      </trkpt>
      <trkpt lat="45.97194" lon="3.71917">
        <ele>793</ele>
        <time>2020-02-12T13:41:27Z</time>
      </trkpt>
      <trkpt lat="45.97184" lon="3.71957">
        <ele>794</ele>
        <time>2020-02-12T13:41:32Z</time>
      </trkpt>
      <trkpt lat="45.97156" lon="3.72032">
        <ele>789</ele>
        <time>2020-02-12T13:41:43Z</time>
      </trkpt>
      <trkpt lat="45.97151" lon="3.72051">
        <ele>788</ele>
        <time>2020-02-12T13:41:46Z</time>
      </trkpt>
      <trkpt lat="45.97145" lon="3.72097">
        <ele>786</ele>
        <time>2020-02-12T13:41:51Z</time>
      </trkpt>
      <trkpt lat="45.97144" lon="3.72151">
        <ele>785</ele>
        <time>2020-02-12T13:41:58Z</time>
      </trkpt>
      <trkpt lat="45.97139" lon="3.72179">
        <ele>784</ele>
        <time>2020-02-12T13:42:02Z</time>
      </trkpt>
      <trkpt lat="45.97133" lon="3.72194">
        <ele>783</ele>
        <time>2020-02-12T13:42:04Z</time>
      </trkpt>
      <trkpt lat="45.97126" lon="3.72204">
        <ele>783</ele>
        <time>2020-02-12T13:42:05Z</time>
      </trkpt>
      <trkpt lat="45.97114" lon="3.72216">
        <ele>781</ele>
        <time>2020-02-12T13:42:08Z</time>
      </trkpt>
      <trkpt lat="45.97102" lon="3.72223">
        <ele>780</ele>
        <time>2020-02-12T13:42:10Z</time>
      </trkpt>
      <trkpt lat="45.96932" lon="3.72289">
        <ele>773</ele>
        <time>2020-02-12T13:42:42Z</time>
      </trkpt>
      <trkpt lat="45.96893" lon="3.72308">
        <ele>770</ele>
        <time>2020-02-12T13:42:49Z</time>
      </trkpt>
      <trkpt lat="45.96866" lon="3.72335">
        <ele>768</ele>
        <time>2020-02-12T13:42:55Z</time>
      </trkpt>
      <trkpt lat="45.96848" lon="3.72369">
        <ele>766</ele>
        <time>2020-02-12T13:43:00Z</time>
      </trkpt>
      <trkpt lat="45.96839" lon="3.72399">
        <ele>766</ele>
        <time>2020-02-12T13:43:04Z</time>
      </trkpt>
      <trkpt lat="45.96836" lon="3.72419">
        <ele>765</ele>
        <time>2020-02-12T13:43:07Z</time>
      </trkpt>
      <trkpt lat="45.96835" lon="3.7246">
        <ele>763</ele>
        <time>2020-02-12T13:43:12Z</time>
      </trkpt>
      <trkpt lat="45.96841" lon="3.72503">
        <ele>762</ele>
        <time>2020-02-12T13:43:17Z</time>
      </trkpt>
      <trkpt lat="45.96871" lon="3.72623">
        <ele>760</ele>
        <time>2020-02-12T13:43:33Z</time>
      </trkpt>
      <trkpt lat="45.96873" lon="3.72641">
        <ele>760</ele>
        <time>2020-02-12T13:43:35Z</time>
      </trkpt>
      <trkpt lat="45.96872" lon="3.72673">
        <ele>759</ele>
        <time>2020-02-12T13:43:39Z</time>
      </trkpt>
      <trkpt lat="45.96868" lon="3.72689">
        <ele>760</ele>
        <time>2020-02-12T13:43:41Z</time>
      </trkpt>
      <trkpt lat="45.96862" lon="3.72704">
        <ele>760</ele>
        <time>2020-02-12T13:43:43Z</time>
      </trkpt>
      <trkpt lat="45.9685" lon="3.72724">
        <ele>760</ele>
        <time>2020-02-12T13:43:47Z</time>
      </trkpt>
      <trkpt lat="45.96778" lon="3.72792">
        <ele>755</ele>
        <time>2020-02-12T13:44:02Z</time>
      </trkpt>
      <trkpt lat="45.96711" lon="3.72886">
        <ele>746</ele>
        <time>2020-02-12T13:44:19Z</time>
      </trkpt>
      <trkpt lat="45.96699" lon="3.72907">
        <ele>745</ele>
        <time>2020-02-12T13:44:22Z</time>
      </trkpt>
      <trkpt lat="45.9669" lon="3.72929">
        <ele>745</ele>
        <time>2020-02-12T13:44:25Z</time>
      </trkpt>
      <trkpt lat="45.96674" lon="3.72993">
        <ele>748</ele>
        <time>2020-02-12T13:44:34Z</time>
      </trkpt>
      <trkpt lat="45.96672" lon="3.73024">
        <ele>746</ele>
        <time>2020-02-12T13:44:37Z</time>
      </trkpt>
      <trkpt lat="45.96674" lon="3.73044">
        <ele>745</ele>
        <time>2020-02-12T13:44:40Z</time>
      </trkpt>
      <trkpt lat="45.96683" lon="3.73067">
        <ele>745</ele>
        <time>2020-02-12T13:44:43Z</time>
      </trkpt>
      <trkpt lat="45.96695" lon="3.73078">
        <ele>745</ele>
        <time>2020-02-12T13:44:46Z</time>
      </trkpt>
      <trkpt lat="45.96706" lon="3.73083">
        <ele>745</ele>
        <time>2020-02-12T13:44:48Z</time>
      </trkpt>
      <trkpt lat="45.96745" lon="3.73091">
        <ele>746</ele>
        <time>2020-02-12T13:44:55Z</time>
      </trkpt>
      <trkpt lat="45.96762" lon="3.73104">
        <ele>745</ele>
        <time>2020-02-12T13:44:58Z</time>
      </trkpt>
      <trkpt lat="45.9677" lon="3.73119">
        <ele>743</ele>
        <time>2020-02-12T13:45:01Z</time>
      </trkpt>
      <trkpt lat="45.96772" lon="3.73128">
        <ele>742</ele>
        <time>2020-02-12T13:45:02Z</time>
      </trkpt>
      <trkpt lat="45.96773" lon="3.73138">
        <ele>741</ele>
        <time>2020-02-12T13:45:03Z</time>
      </trkpt>
      <trkpt lat="45.9677" lon="3.73155">
        <ele>738</ele>
        <time>2020-02-12T13:45:05Z</time>
      </trkpt>
      <trkpt lat="45.96763" lon="3.7317">
        <ele>735</ele>
        <time>2020-02-12T13:45:07Z</time>
      </trkpt>
      <trkpt lat="45.9675" lon="3.73186">
        <ele>734</ele>
        <time>2020-02-12T13:45:10Z</time>
      </trkpt>
      <trkpt lat="45.96671" lon="3.73246">
        <ele>729</ele>
        <time>2020-02-12T13:45:26Z</time>
      </trkpt>
      <trkpt lat="45.96575" lon="3.73304">
        <ele>725</ele>
        <time>2020-02-12T13:45:45Z</time>
      </trkpt>
      <trkpt lat="45.96546" lon="3.73331">
        <ele>723</ele>
        <time>2020-02-12T13:45:51Z</time>
      </trkpt>
      <trkpt lat="45.96517" lon="3.7337">
        <ele>720</ele>
        <time>2020-02-12T13:45:58Z</time>
      </trkpt>
      <trkpt lat="45.96492" lon="3.73417">
        <ele>718</ele>
        <time>2020-02-12T13:46:05Z</time>
      </trkpt>
      <trkpt lat="45.96467" lon="3.73483">
        <ele>714</ele>
        <time>2020-02-12T13:46:15Z</time>
      </trkpt>
      <trkpt lat="45.96453" lon="3.7354">
        <ele>712</ele>
        <time>2020-02-12T13:46:22Z</time>
      </trkpt>
      <trkpt lat="45.96451" lon="3.73558">
        <ele>712</ele>
        <time>2020-02-12T13:46:24Z</time>
      </trkpt>
      <trkpt lat="45.96452" lon="3.73636">
        <ele>712</ele>
        <time>2020-02-12T13:46:34Z</time>
      </trkpt>
      <trkpt lat="45.96448" lon="3.73669">
        <ele>711</ele>
        <time>2020-02-12T13:46:38Z</time>
      </trkpt>
      <trkpt lat="45.96436" lon="3.73694">
        <ele>709</ele>
        <time>2020-02-12T13:46:42Z</time>
      </trkpt>
      <trkpt lat="45.96416" lon="3.73727">
        <ele>706</ele>
        <time>2020-02-12T13:46:47Z</time>
      </trkpt>
      <trkpt lat="45.96404" lon="3.73764">
        <ele>705</ele>
        <time>2020-02-12T13:46:52Z</time>
      </trkpt>
      <trkpt lat="45.9636" lon="3.7436">
        <ele>687</ele>
        <time>2020-02-12T13:48:07Z</time>
      </trkpt>
      <trkpt lat="45.96356" lon="3.74374">
        <ele>686</ele>
        <time>2020-02-12T13:48:08Z</time>
      </trkpt>
      <trkpt lat="45.96349" lon="3.74386">
        <ele>686</ele>
        <time>2020-02-12T13:48:10Z</time>
      </trkpt>
      <trkpt lat="45.96311" lon="3.74428">
        <ele>685</ele>
        <time>2020-02-12T13:48:19Z</time>
      </trkpt>
      <trkpt lat="45.96301" lon="3.74442">
        <ele>686</ele>
        <time>2020-02-12T13:48:21Z</time>
      </trkpt>
      <trkpt lat="45.96296" lon="3.74453">
        <ele>687</ele>
        <time>2020-02-12T13:48:23Z</time>
      </trkpt>
      <trkpt lat="45.96292" lon="3.74479">
        <ele>688</ele>
        <time>2020-02-12T13:48:26Z</time>
      </trkpt>
      <trkpt lat="45.96297" lon="3.74497">
        <ele>689</ele>
        <time>2020-02-12T13:48:29Z</time>
      </trkpt>
      <trkpt lat="45.96304" lon="3.74506">
        <ele>690</ele>
        <time>2020-02-12T13:48:30Z</time>
      </trkpt>
      <trkpt lat="45.96335" lon="3.74527">
        <ele>693</ele>
        <time>2020-02-12T13:48:36Z</time>
      </trkpt>
      <trkpt lat="45.96354" lon="3.74551">
        <ele>695</ele>
        <time>2020-02-12T13:48:41Z</time>
      </trkpt>
      <trkpt lat="45.96414" lon="3.74693">
        <ele>703</ele>
        <time>2020-02-12T13:49:02Z</time>
      </trkpt>
      <trkpt lat="45.96435" lon="3.74724">
        <ele>705</ele>
        <time>2020-02-12T13:49:07Z</time>
      </trkpt>
      <trkpt lat="45.96494" lon="3.74789">
        <ele>706</ele>
        <time>2020-02-12T13:49:20Z</time>
      </trkpt>
      <trkpt lat="45.96509" lon="3.74813">
        <ele>707</ele>
        <time>2020-02-12T13:49:24Z</time>
      </trkpt>
      <trkpt lat="45.96517" lon="3.74841">
        <ele>710</ele>
        <time>2020-02-12T13:49:28Z</time>
      </trkpt>
      <trkpt lat="45.96524" lon="3.74913">
        <ele>713</ele>
        <time>2020-02-12T13:49:37Z</time>
      </trkpt>
      <trkpt lat="45.96536" lon="3.74983">
        <ele>711</ele>
        <time>2020-02-12T13:49:46Z</time>
      </trkpt>
      <trkpt lat="45.96536" lon="3.75011">
        <ele>711</ele>
        <time>2020-02-12T13:49:49Z</time>
      </trkpt>
      <trkpt lat="45.9653" lon="3.75034">
        <ele>710</ele>
        <time>2020-02-12T13:49:52Z</time>
      </trkpt>
      <trkpt lat="45.96519" lon="3.75049">
        <ele>711</ele>
        <time>2020-02-12T13:49:55Z</time>
      </trkpt>
      <trkpt lat="45.96501" lon="3.75058">
        <ele>712</ele>
        <time>2020-02-12T13:49:58Z</time>
      </trkpt>
      <trkpt lat="45.9649" lon="3.75057">
        <ele>714</ele>
        <time>2020-02-12T13:50:00Z</time>
      </trkpt>
      <trkpt lat="45.96474" lon="3.75048">
        <ele>716</ele>
        <time>2020-02-12T13:50:03Z</time>
      </trkpt>
      <trkpt lat="45.96461" lon="3.75028">
        <ele>718</ele>
        <time>2020-02-12T13:50:07Z</time>
      </trkpt>
      <trkpt lat="45.96451" lon="3.75001">
        <ele>721</ele>
        <time>2020-02-12T13:50:11Z</time>
      </trkpt>
      <trkpt lat="45.96439" lon="3.74912">
        <ele>723</ele>
        <time>2020-02-12T13:50:22Z</time>
      </trkpt>
      <trkpt lat="45.96428" lon="3.74884">
        <ele>724</ele>
        <time>2020-02-12T13:50:26Z</time>
      </trkpt>
      <trkpt lat="45.9641" lon="3.74862">
        <ele>726</ele>
        <time>2020-02-12T13:50:30Z</time>
      </trkpt>
      <trkpt lat="45.96344" lon="3.74805">
        <ele>732</ele>
        <time>2020-02-12T13:50:44Z</time>
      </trkpt>
      <trkpt lat="45.96302" lon="3.74778">
        <ele>735</ele>
        <time>2020-02-12T13:50:52Z</time>
      </trkpt>
      <trkpt lat="45.96227" lon="3.74749">
        <ele>739</ele>
        <time>2020-02-12T13:51:06Z</time>
      </trkpt>
      <trkpt lat="45.96217" lon="3.74748">
        <ele>739</ele>
        <time>2020-02-12T13:51:07Z</time>
      </trkpt>
      <trkpt lat="45.96204" lon="3.74751">
        <ele>740</ele>
        <time>2020-02-12T13:51:10Z</time>
      </trkpt>
      <trkpt lat="45.96171" lon="3.74775">
        <ele>742</ele>
        <time>2020-02-12T13:51:16Z</time>
      </trkpt>
      <trkpt lat="45.9616" lon="3.74796">
        <ele>743</ele>
        <time>2020-02-12T13:51:20Z</time>
      </trkpt>
      <trkpt lat="45.96157" lon="3.74809">
        <ele>743</ele>
        <time>2020-02-12T13:51:21Z</time>
      </trkpt>
      <trkpt lat="45.96156" lon="3.74835">
        <ele>745</ele>
        <time>2020-02-12T13:51:25Z</time>
      </trkpt>
      <trkpt lat="45.96159" lon="3.7486">
        <ele>747</ele>
        <time>2020-02-12T13:51:28Z</time>
      </trkpt>
      <trkpt lat="45.96158" lon="3.74877">
        <ele>747</ele>
        <time>2020-02-12T13:51:30Z</time>
      </trkpt>
      <trkpt lat="45.96154" lon="3.74887">
        <ele>748</ele>
        <time>2020-02-12T13:51:31Z</time>
      </trkpt>
      <trkpt lat="45.961" lon="3.74935">
        <ele>749</ele>
        <time>2020-02-12T13:51:42Z</time>
      </trkpt>
      <trkpt lat="45.96091" lon="3.74947">
        <ele>749</ele>
        <time>2020-02-12T13:51:45Z</time>
      </trkpt>
      <trkpt lat="45.96043" lon="3.75035">
        <ele>749</ele>
        <time>2020-02-12T13:51:58Z</time>
      </trkpt>
      <trkpt lat="45.96016" lon="3.75079">
        <ele>750</ele>
        <time>2020-02-12T13:52:06Z</time>
      </trkpt>
      <trkpt lat="45.95986" lon="3.7512">
        <ele>750</ele>
        <time>2020-02-12T13:52:13Z</time>
      </trkpt>
      <trkpt lat="45.95822" lon="3.75311">
        <ele>758</ele>
        <time>2020-02-12T13:52:51Z</time>
      </trkpt>
      <trkpt lat="45.95585" lon="3.75534">
        <ele>776</ele>
        <time>2020-02-12T13:53:41Z</time>
      </trkpt>
      <trkpt lat="45.95574" lon="3.75546">
        <ele>776</ele>
        <time>2020-02-12T13:53:44Z</time>
      </trkpt>
      <trkpt lat="45.95564" lon="3.75562">
        <ele>776</ele>
        <time>2020-02-12T13:53:46Z</time>
      </trkpt>
      <trkpt lat="45.95556" lon="3.75593">
        <ele>776</ele>
        <time>2020-02-12T13:53:50Z</time>
      </trkpt>
      <trkpt lat="45.95548" lon="3.75674">
        <ele>773</ele>
        <time>2020-02-12T13:54:00Z</time>
      </trkpt>
      <trkpt lat="45.95546" lon="3.75732">
        <ele>772</ele>
        <time>2020-02-12T13:54:08Z</time>
      </trkpt>
      <trkpt lat="45.95551" lon="3.75819">
        <ele>772</ele>
        <time>2020-02-12T13:54:18Z</time>
      </trkpt>
      <trkpt lat="45.95546" lon="3.75852">
        <ele>771</ele>
        <time>2020-02-12T13:54:23Z</time>
      </trkpt>
      <trkpt lat="45.95541" lon="3.75865">
        <ele>771</ele>
        <time>2020-02-12T13:54:24Z</time>
      </trkpt>
      <trkpt lat="45.95529" lon="3.75885">
        <ele>769</ele>
        <time>2020-02-12T13:54:28Z</time>
      </trkpt>
      <trkpt lat="45.95509" lon="3.75903">
        <ele>767</ele>
        <time>2020-02-12T13:54:32Z</time>
      </trkpt>
      <trkpt lat="45.95495" lon="3.7591">
        <ele>766</ele>
        <time>2020-02-12T13:54:34Z</time>
      </trkpt>
      <trkpt lat="45.95455" lon="3.75913">
        <ele>763</ele>
        <time>2020-02-12T13:54:42Z</time>
      </trkpt>
      <trkpt lat="45.95429" lon="3.75923">
        <ele>761</ele>
        <time>2020-02-12T13:54:46Z</time>
      </trkpt>
      <trkpt lat="45.95401" lon="3.75947">
        <ele>759</ele>
        <time>2020-02-12T13:54:52Z</time>
      </trkpt>
      <trkpt lat="45.95375" lon="3.75984">
        <ele>758</ele>
        <time>2020-02-12T13:54:59Z</time>
      </trkpt>
      <trkpt lat="45.95366" lon="3.76007">
        <ele>758</ele>
        <time>2020-02-12T13:55:02Z</time>
      </trkpt>
      <trkpt lat="45.95361" lon="3.76029">
        <ele>757</ele>
        <time>2020-02-12T13:55:05Z</time>
      </trkpt>
      <trkpt lat="45.9536" lon="3.76048">
        <ele>757</ele>
        <time>2020-02-12T13:55:07Z</time>
      </trkpt>
      <trkpt lat="45.95365" lon="3.76104">
        <ele>758</ele>
        <time>2020-02-12T13:55:14Z</time>
      </trkpt>
      <trkpt lat="45.95365" lon="3.76144">
        <ele>757</ele>
        <time>2020-02-12T13:55:19Z</time>
      </trkpt>
      <trkpt lat="45.95353" lon="3.76186">
        <ele>755</ele>
        <time>2020-02-12T13:55:25Z</time>
      </trkpt>
      <trkpt lat="45.95339" lon="3.76208">
        <ele>755</ele>
        <time>2020-02-12T13:55:28Z</time>
      </trkpt>
      <trkpt lat="45.95329" lon="3.76217">
        <ele>754</ele>
        <time>2020-02-12T13:55:31Z</time>
      </trkpt>
      <trkpt lat="45.95317" lon="3.76222">
        <ele>753</ele>
        <time>2020-02-12T13:55:33Z</time>
      </trkpt>
      <trkpt lat="45.95257" lon="3.76232">
        <ele>748</ele>
        <time>2020-02-12T13:55:43Z</time>
      </trkpt>
      <trkpt lat="45.95214" lon="3.76246">
        <ele>745</ele>
        <time>2020-02-12T13:55:51Z</time>
      </trkpt>
      <trkpt lat="45.95178" lon="3.76269">
        <ele>742</ele>
        <time>2020-02-12T13:55:58Z</time>
      </trkpt>
      <trkpt lat="45.95163" lon="3.76284">
        <ele>741</ele>
        <time>2020-02-12T13:56:02Z</time>
      </trkpt>
      <trkpt lat="45.95144" lon="3.7631">
        <ele>740</ele>
        <time>2020-02-12T13:56:06Z</time>
      </trkpt>
      <trkpt lat="45.95074" lon="3.76444">
        <ele>737</ele>
        <time>2020-02-12T13:56:27Z</time>
      </trkpt>
      <trkpt lat="45.94955" lon="3.76695">
        <ele>729</ele>
        <time>2020-02-12T13:57:05Z</time>
      </trkpt>
      <trkpt lat="45.94857" lon="3.76913">
        <ele>722</ele>
        <time>2020-02-12T13:57:37Z</time>
      </trkpt>
      <trkpt lat="45.94847" lon="3.76942">
        <ele>721</ele>
        <time>2020-02-12T13:57:41Z</time>
      </trkpt>
      <trkpt lat="45.94834" lon="3.76998">
        <ele>720</ele>
        <time>2020-02-12T13:57:48Z</time>
      </trkpt>
      <trkpt lat="45.94782" lon="3.77325">
        <ele>709</ele>
        <time>2020-02-12T13:58:30Z</time>
      </trkpt>
      <trkpt lat="45.94779" lon="3.77392">
        <ele>706</ele>
        <time>2020-02-12T13:58:38Z</time>
      </trkpt>
      <trkpt lat="45.94784" lon="3.77487">
        <ele>703</ele>
        <time>2020-02-12T13:58:50Z</time>
      </trkpt>
      <trkpt lat="45.94784" lon="3.77533">
        <ele>703</ele>
        <time>2020-02-12T13:58:55Z</time>
      </trkpt>
      <trkpt lat="45.94779" lon="3.77577">
        <ele>704</ele>
        <time>2020-02-12T13:59:01Z</time>
      </trkpt>
      <trkpt lat="45.94767" lon="3.77609">
        <ele>705</ele>
        <time>2020-02-12T13:59:05Z</time>
      </trkpt>
      <trkpt lat="45.94738" lon="3.77653">
        <ele>707</ele>
        <time>2020-02-12T13:59:13Z</time>
      </trkpt>
      <trkpt lat="45.94706" lon="3.77717">
        <ele>709</ele>
        <time>2020-02-12T13:59:23Z</time>
      </trkpt>
      <trkpt lat="45.94645" lon="3.77893">
        <ele>709</ele>
        <time>2020-02-12T13:59:47Z</time>
      </trkpt>
      <trkpt lat="45.94604" lon="3.77991">
        <ele>703</ele>
        <time>2020-02-12T14:00:01Z</time>
      </trkpt>
      <trkpt lat="45.94598" lon="3.78018">
        <ele>701</ele>
        <time>2020-02-12T14:00:05Z</time>
      </trkpt>
      <trkpt lat="45.94597" lon="3.78053">
        <ele>699</ele>
        <time>2020-02-12T14:00:09Z</time>
      </trkpt>
      <trkpt lat="45.94601" lon="3.78074">
        <ele>699</ele>
        <time>2020-02-12T14:00:12Z</time>
      </trkpt>
      <trkpt lat="45.94614" lon="3.78104">
        <ele>698</ele>
        <time>2020-02-12T14:00:16Z</time>
      </trkpt>
      <trkpt lat="45.94642" lon="3.78143">
        <ele>697</ele>
        <time>2020-02-12T14:00:23Z</time>
      </trkpt>
      <trkpt lat="45.94649" lon="3.78165">
        <ele>695</ele>
        <time>2020-02-12T14:00:26Z</time>
      </trkpt>
      <trkpt lat="45.9465" lon="3.78194">
        <ele>694</ele>
        <time>2020-02-12T14:00:29Z</time>
      </trkpt>
      <trkpt lat="45.94647" lon="3.78233">
        <ele>693</ele>
        <time>2020-02-12T14:00:34Z</time>
      </trkpt>
      <trkpt lat="45.94552" lon="3.79024">
        <ele>687</ele>
        <time>2020-02-12T14:02:14Z</time>
      </trkpt>
      <trkpt lat="45.9455" lon="3.79054">
        <ele>687</ele>
        <time>2020-02-12T14:02:17Z</time>
      </trkpt>
      <trkpt lat="45.94552" lon="3.79104">
        <ele>687</ele>
        <time>2020-02-12T14:02:24Z</time>
      </trkpt>
      <trkpt lat="45.94557" lon="3.79128">
        <ele>686</ele>
        <time>2020-02-12T14:02:27Z</time>
      </trkpt>
      <trkpt lat="45.94585" lon="3.79213">
        <ele>680</ele>
        <time>2020-02-12T14:02:38Z</time>
      </trkpt>
      <trkpt lat="45.94589" lon="3.79231">
        <ele>679</ele>
        <time>2020-02-12T14:02:41Z</time>
      </trkpt>
      <trkpt lat="45.9459" lon="3.79252">
        <ele>678</ele>
        <time>2020-02-12T14:02:43Z</time>
      </trkpt>
      <trkpt lat="45.94588" lon="3.79278">
        <ele>678</ele>
        <time>2020-02-12T14:02:46Z</time>
      </trkpt>
      <trkpt lat="45.94582" lon="3.79305">
        <ele>678</ele>
        <time>2020-02-12T14:02:50Z</time>
      </trkpt>
      <trkpt lat="45.94556" lon="3.79387">
        <ele>679</ele>
        <time>2020-02-12T14:03:01Z</time>
      </trkpt>
      <trkpt lat="45.94534" lon="3.7944">
        <ele>678</ele>
        <time>2020-02-12T14:03:09Z</time>
      </trkpt>
      <trkpt lat="45.94466" lon="3.79579">
        <ele>679</ele>
        <time>2020-02-12T14:03:30Z</time>
      </trkpt>
      <trkpt lat="45.94451" lon="3.79631">
        <ele>677</ele>
        <time>2020-02-12T14:03:37Z</time>
      </trkpt>
      <trkpt lat="45.9445" lon="3.7966">
        <ele>677</ele>
        <time>2020-02-12T14:03:40Z</time>
      </trkpt>
      <trkpt lat="45.94454" lon="3.79704">
        <ele>675</ele>
        <time>2020-02-12T14:03:46Z</time>
      </trkpt>
      <trkpt lat="45.94491" lon="3.79989">
        <ele>671</ele>
        <time>2020-02-12T14:04:22Z</time>
      </trkpt>
      <trkpt lat="45.94494" lon="3.80036">
        <ele>672</ele>
        <time>2020-02-12T14:04:28Z</time>
      </trkpt>
      <trkpt lat="45.94493" lon="3.80055">
        <ele>673</ele>
        <time>2020-02-12T14:04:30Z</time>
      </trkpt>
      <trkpt lat="45.94486" lon="3.80088">
        <ele>673</ele>
        <time>2020-02-12T14:04:34Z</time>
      </trkpt>
      <trkpt lat="45.9447" lon="3.80139">
        <ele>676</ele>
        <time>2020-02-12T14:04:41Z</time>
      </trkpt>
      <trkpt lat="45.94461" lon="3.80157">
        <ele>677</ele>
        <time>2020-02-12T14:04:44Z</time>
      </trkpt>
      <trkpt lat="45.94359" lon="3.8027">
        <ele>676</ele>
        <time>2020-02-12T14:05:07Z</time>
      </trkpt>
      <trkpt lat="45.94342" lon="3.80285">
        <ele>676</ele>
        <time>2020-02-12T14:05:10Z</time>
      </trkpt>
      <trkpt lat="45.94299" lon="3.80314">
        <ele>676</ele>
        <time>2020-02-12T14:05:19Z</time>
      </trkpt>
      <trkpt lat="45.94273" lon="3.80336">
        <ele>676</ele>
        <time>2020-02-12T14:05:24Z</time>
      </trkpt>
      <trkpt lat="45.94255" lon="3.80361">
        <ele>677</ele>
        <time>2020-02-12T14:05:29Z</time>
      </trkpt>
      <trkpt lat="45.94213" lon="3.80429">
        <ele>678</ele>
        <time>2020-02-12T14:05:40Z</time>
      </trkpt>
      <trkpt lat="45.94197" lon="3.8045">
        <ele>679</ele>
        <time>2020-02-12T14:05:44Z</time>
      </trkpt>
      <trkpt lat="45.94178" lon="3.80467">
        <ele>679</ele>
        <time>2020-02-12T14:05:48Z</time>
      </trkpt>
      <trkpt lat="45.94149" lon="3.80481">
        <ele>678</ele>
        <time>2020-02-12T14:05:53Z</time>
      </trkpt>
      <trkpt lat="45.94095" lon="3.80495">
        <ele>677</ele>
        <time>2020-02-12T14:06:03Z</time>
      </trkpt>
      <trkpt lat="45.94081" lon="3.80501">
        <ele>677</ele>
        <time>2020-02-12T14:06:05Z</time>
      </trkpt>
      <trkpt lat="45.94063" lon="3.80511">
        <ele>677</ele>
        <time>2020-02-12T14:06:09Z</time>
      </trkpt>
      <trkpt lat="45.94019" lon="3.80542">
        <ele>678</ele>
        <time>2020-02-12T14:06:18Z</time>
      </trkpt>
      <trkpt lat="45.94004" lon="3.80549">
        <ele>678</ele>
        <time>2020-02-12T14:06:20Z</time>
      </trkpt>
      <trkpt lat="45.93986" lon="3.80554">
        <ele>677</ele>
        <time>2020-02-12T14:06:24Z</time>
      </trkpt>
      <trkpt lat="45.93924" lon="3.8056">
        <ele>673</ele>
        <time>2020-02-12T14:06:35Z</time>
      </trkpt>
      <trkpt lat="45.93891" lon="3.8057">
        <ele>672</ele>
        <time>2020-02-12T14:06:41Z</time>
      </trkpt>
      <trkpt lat="45.93861" lon="3.80584">
        <ele>670</ele>
        <time>2020-02-12T14:06:46Z</time>
      </trkpt>
      <trkpt lat="45.93838" lon="3.80598">
        <ele>669</ele>
        <time>2020-02-12T14:06:51Z</time>
      </trkpt>
      <trkpt lat="45.93803" lon="3.80626">
        <ele>667</ele>
        <time>2020-02-12T14:06:58Z</time>
      </trkpt>
      <trkpt lat="45.93731" lon="3.80701">
        <ele>662</ele>
        <time>2020-02-12T14:07:14Z</time>
      </trkpt>
      <trkpt lat="45.93713" lon="3.80725">
        <ele>661</ele>
        <time>2020-02-12T14:07:18Z</time>
      </trkpt>
      <trkpt lat="45.93703" lon="3.80743">
        <ele>660</ele>
        <time>2020-02-12T14:07:21Z</time>
      </trkpt>
      <trkpt lat="45.93692" lon="3.80768">
        <ele>659</ele>
        <time>2020-02-12T14:07:25Z</time>
      </trkpt>
      <trkpt lat="45.93674" lon="3.80828">
        <ele>657</ele>
        <time>2020-02-12T14:07:33Z</time>
      </trkpt>
      <trkpt lat="45.93655" lon="3.80869">
        <ele>658</ele>
        <time>2020-02-12T14:07:39Z</time>
      </trkpt>
      <trkpt lat="45.93637" lon="3.80895">
        <ele>659</ele>
        <time>2020-02-12T14:07:43Z</time>
      </trkpt>
      <trkpt lat="45.93594" lon="3.80946">
        <ele>662</ele>
        <time>2020-02-12T14:07:53Z</time>
      </trkpt>
      <trkpt lat="45.93576" lon="3.80974">
        <ele>664</ele>
        <time>2020-02-12T14:07:58Z</time>
      </trkpt>
      <trkpt lat="45.9356" lon="3.81008">
        <ele>665</ele>
        <time>2020-02-12T14:08:03Z</time>
      </trkpt>
      <trkpt lat="45.9355" lon="3.81049">
        <ele>665</ele>
        <time>2020-02-12T14:08:08Z</time>
      </trkpt>
      <trkpt lat="45.93546" lon="3.81092">
        <ele>665</ele>
        <time>2020-02-12T14:08:14Z</time>
      </trkpt>
      <trkpt lat="45.9355" lon="3.81252">
        <ele>663</ele>
        <time>2020-02-12T14:08:34Z</time>
      </trkpt>
      <trkpt lat="45.93547" lon="3.81284">
        <ele>663</ele>
        <time>2020-02-12T14:08:38Z</time>
      </trkpt>
      <trkpt lat="45.93541" lon="3.81311">
        <ele>662</ele>
        <time>2020-02-12T14:08:41Z</time>
      </trkpt>
      <trkpt lat="45.93531" lon="3.8134">
        <ele>661</ele>
        <time>2020-02-12T14:08:45Z</time>
      </trkpt>
      <trkpt lat="45.93519" lon="3.81362">
        <ele>661</ele>
        <time>2020-02-12T14:08:49Z</time>
      </trkpt>
      <trkpt lat="45.93484" lon="3.8141">
        <ele>660</ele>
        <time>2020-02-12T14:08:57Z</time>
      </trkpt>
      <trkpt lat="45.93474" lon="3.81429">
        <ele>661</ele>
        <time>2020-02-12T14:09:00Z</time>
      </trkpt>
      <trkpt lat="45.93441" lon="3.81526">
        <ele>662</ele>
        <time>2020-02-12T14:09:14Z</time>
      </trkpt>
      <trkpt lat="45.93422" lon="3.81571">
        <ele>659</ele>
        <time>2020-02-12T14:09:20Z</time>
      </trkpt>
      <trkpt lat="45.93343" lon="3.81718">
        <ele>657</ele>
        <time>2020-02-12T14:09:43Z</time>
      </trkpt>
      <trkpt lat="45.93331" lon="3.81735">
        <ele>656</ele>
        <time>2020-02-12T14:09:46Z</time>
      </trkpt>
      <trkpt lat="45.93314" lon="3.81752">
        <ele>656</ele>
        <time>2020-02-12T14:09:50Z</time>
      </trkpt>
      <trkpt lat="45.93266" lon="3.81794">
        <ele>654</ele>
        <time>2020-02-12T14:10:00Z</time>
      </trkpt>
      <trkpt lat="45.93214" lon="3.81857">
        <ele>656</ele>
        <time>2020-02-12T14:10:12Z</time>
      </trkpt>
      <trkpt lat="45.93158" lon="3.81908">
        <ele>652</ele>
        <time>2020-02-12T14:10:24Z</time>
      </trkpt>
      <trkpt lat="45.93141" lon="3.81942">
        <ele>651</ele>
        <time>2020-02-12T14:10:29Z</time>
      </trkpt>
      <trkpt lat="45.93133" lon="3.81979">
        <ele>651</ele>
        <time>2020-02-12T14:10:34Z</time>
      </trkpt>
      <trkpt lat="45.93121" lon="3.82012">
        <ele>650</ele>
        <time>2020-02-12T14:10:38Z</time>
      </trkpt>
      <trkpt lat="45.93112" lon="3.82027">
        <ele>650</ele>
        <time>2020-02-12T14:10:41Z</time>
      </trkpt>
      <trkpt lat="45.9309" lon="3.82046">
        <ele>650</ele>
        <time>2020-02-12T14:10:45Z</time>
      </trkpt>
      <trkpt lat="45.9305" lon="3.82059">
        <ele>648</ele>
        <time>2020-02-12T14:10:52Z</time>
      </trkpt>
      <trkpt lat="45.92932" lon="3.82086">
        <ele>644</ele>
        <time>2020-02-12T14:11:14Z</time>
      </trkpt>
      <trkpt lat="45.92894" lon="3.82094">
        <ele>643</ele>
        <time>2020-02-12T14:11:21Z</time>
      </trkpt>
      <trkpt lat="45.9283" lon="3.82101">
        <ele>639</ele>
        <time>2020-02-12T14:11:32Z</time>
      </trkpt>
      <trkpt lat="45.92805" lon="3.82108">
        <ele>639</ele>
        <time>2020-02-12T14:11:37Z</time>
      </trkpt>
      <trkpt lat="45.92781" lon="3.8212">
        <ele>639</ele>
        <time>2020-02-12T14:11:41Z</time>
      </trkpt>
      <trkpt lat="45.92666" lon="3.8219">
        <ele>638</ele>
        <time>2020-02-12T14:12:03Z</time>
      </trkpt>
      <trkpt lat="45.92645" lon="3.82207">
        <ele>637</ele>
        <time>2020-02-12T14:12:08Z</time>
      </trkpt>
      <trkpt lat="45.92633" lon="3.8222">
        <ele>637</ele>
        <time>2020-02-12T14:12:10Z</time>
      </trkpt>
      <trkpt lat="45.9261" lon="3.82262">
        <ele>638</ele>
        <time>2020-02-12T14:12:17Z</time>
      </trkpt>
      <trkpt lat="45.92603" lon="3.82282">
        <ele>641</ele>
        <time>2020-02-12T14:12:20Z</time>
      </trkpt>
      <trkpt lat="45.9259" lon="3.82341">
        <ele>648</ele>
        <time>2020-02-12T14:12:27Z</time>
      </trkpt>
      <trkpt lat="45.92583" lon="3.82359">
        <ele>650</ele>
        <time>2020-02-12T14:12:30Z</time>
      </trkpt>
      <trkpt lat="45.92565" lon="3.82379">
        <ele>650</ele>
        <time>2020-02-12T14:12:34Z</time>
      </trkpt>
      <trkpt lat="45.92473" lon="3.82431">
        <ele>646</ele>
        <time>2020-02-12T14:12:51Z</time>
      </trkpt>
      <trkpt lat="45.92453" lon="3.82445">
        <ele>645</ele>
        <time>2020-02-12T14:12:55Z</time>
      </trkpt>
      <trkpt lat="45.92438" lon="3.8246">
        <ele>645</ele>
        <time>2020-02-12T14:12:59Z</time>
      </trkpt>
      <trkpt lat="45.92426" lon="3.82477">
        <ele>645</ele>
        <time>2020-02-12T14:13:02Z</time>
      </trkpt>
      <trkpt lat="45.92361" lon="3.82613">
        <ele>640</ele>
        <time>2020-02-12T14:13:22Z</time>
      </trkpt>
      <trkpt lat="45.92292" lon="3.82729">
        <ele>638</ele>
        <time>2020-02-12T14:13:41Z</time>
      </trkpt>
      <trkpt lat="45.92267" lon="3.82794">
        <ele>635</ele>
        <time>2020-02-12T14:13:50Z</time>
      </trkpt>
      <trkpt lat="45.92256" lon="3.82831">
        <ele>634</ele>
        <time>2020-02-12T14:13:55Z</time>
      </trkpt>
      <trkpt lat="45.9225" lon="3.82864">
        <ele>632</ele>
        <time>2020-02-12T14:13:59Z</time>
      </trkpt>
      <trkpt lat="45.92247" lon="3.82926">
        <ele>631</ele>
        <time>2020-02-12T14:14:07Z</time>
      </trkpt>
      <trkpt lat="45.92243" lon="3.82957">
        <ele>630</ele>
        <time>2020-02-12T14:14:11Z</time>
      </trkpt>
      <trkpt lat="45.92237" lon="3.8298">
        <ele>630</ele>
        <time>2020-02-12T14:14:14Z</time>
      </trkpt>
      <trkpt lat="45.92229" lon="3.83002">
        <ele>630</ele>
        <time>2020-02-12T14:14:17Z</time>
      </trkpt>
      <trkpt lat="45.92205" lon="3.83052">
        <ele>629</ele>
        <time>2020-02-12T14:14:25Z</time>
      </trkpt>
      <trkpt lat="45.92185" lon="3.83085">
        <ele>630</ele>
        <time>2020-02-12T14:14:30Z</time>
      </trkpt>
      <trkpt lat="45.92171" lon="3.83103">
        <ele>630</ele>
        <time>2020-02-12T14:14:33Z</time>
      </trkpt>
      <trkpt lat="45.92153" lon="3.83121">
        <ele>631</ele>
        <time>2020-02-12T14:14:37Z</time>
      </trkpt>
      <trkpt lat="45.92111" lon="3.83152">
        <ele>632</ele>
        <time>2020-02-12T14:14:46Z</time>
      </trkpt>
      <trkpt lat="45.92079" lon="3.83173">
        <ele>632</ele>
        <time>2020-02-12T14:14:52Z</time>
      </trkpt>
      <trkpt lat="45.92042" lon="3.8319">
        <ele>633</ele>
        <time>2020-02-12T14:14:59Z</time>
      </trkpt>
      <trkpt lat="45.92016" lon="3.83194">
        <ele>634</ele>
        <time>2020-02-12T14:15:03Z</time>
      </trkpt>
      <trkpt lat="45.92" lon="3.83194">
        <ele>634</ele>
        <time>2020-02-12T14:15:06Z</time>
      </trkpt>
      <trkpt lat="45.91967" lon="3.83186">
        <ele>634</ele>
        <time>2020-02-12T14:15:12Z</time>
      </trkpt>
      <trkpt lat="45.91925" lon="3.83168">
        <ele>633</ele>
        <time>2020-02-12T14:15:20Z</time>
      </trkpt>
      <trkpt lat="45.91907" lon="3.83164">
        <ele>632</ele>
        <time>2020-02-12T14:15:23Z</time>
      </trkpt>
      <trkpt lat="45.9189" lon="3.83164">
        <ele>632</ele>
        <time>2020-02-12T14:15:26Z</time>
      </trkpt>
      <trkpt lat="45.91875" lon="3.83168">
        <ele>631</ele>
        <time>2020-02-12T14:15:29Z</time>
      </trkpt>
      <trkpt lat="45.91859" lon="3.83176">
        <ele>631</ele>
        <time>2020-02-12T14:15:32Z</time>
      </trkpt>
      <trkpt lat="45.91829" lon="3.83197">
        <ele>632</ele>
        <time>2020-02-12T14:15:38Z</time>
      </trkpt>
      <trkpt lat="45.91792" lon="3.83216">
        <ele>630</ele>
        <time>2020-02-12T14:15:45Z</time>
      </trkpt>
      <trkpt lat="45.91779" lon="3.8322">
        <ele>630</ele>
        <time>2020-02-12T14:15:47Z</time>
      </trkpt>
      <trkpt lat="45.91696" lon="3.8323">
        <ele>626</ele>
        <time>2020-02-12T14:16:02Z</time>
      </trkpt>
      <trkpt lat="45.91678" lon="3.83235">
        <ele>626</ele>
        <time>2020-02-12T14:16:05Z</time>
      </trkpt>
      <trkpt lat="45.91661" lon="3.83243">
        <ele>627</ele>
        <time>2020-02-12T14:16:09Z</time>
      </trkpt>
      <trkpt lat="45.91649" lon="3.83253">
        <ele>627</ele>
        <time>2020-02-12T14:16:11Z</time>
      </trkpt>
      <trkpt lat="45.91635" lon="3.83266">
        <ele>627</ele>
        <time>2020-02-12T14:16:14Z</time>
      </trkpt>
      <trkpt lat="45.91621" lon="3.83284">
        <ele>626</ele>
        <time>2020-02-12T14:16:17Z</time>
      </trkpt>
      <trkpt lat="45.916" lon="3.83324">
        <ele>625</ele>
        <time>2020-02-12T14:16:24Z</time>
      </trkpt>
      <trkpt lat="45.91583" lon="3.83374">
        <ele>624</ele>
        <time>2020-02-12T14:16:31Z</time>
      </trkpt>
      <trkpt lat="45.91566" lon="3.83453">
        <ele>624</ele>
        <time>2020-02-12T14:16:41Z</time>
      </trkpt>
      <trkpt lat="45.91562" lon="3.83482">
        <ele>624</ele>
        <time>2020-02-12T14:16:44Z</time>
      </trkpt>
      <trkpt lat="45.9156" lon="3.83539">
        <ele>624</ele>
        <time>2020-02-12T14:16:51Z</time>
      </trkpt>
      <trkpt lat="45.91564" lon="3.83599">
        <ele>623</ele>
        <time>2020-02-12T14:16:59Z</time>
      </trkpt>
      <trkpt lat="45.91574" lon="3.83676">
        <ele>621</ele>
        <time>2020-02-12T14:17:09Z</time>
      </trkpt>
      <trkpt lat="45.9158" lon="3.83691">
        <ele>621</ele>
        <time>2020-02-12T14:17:11Z</time>
      </trkpt>
      <trkpt lat="45.91588" lon="3.83702">
        <ele>620</ele>
        <time>2020-02-12T14:17:13Z</time>
      </trkpt>
      <trkpt lat="45.91597" lon="3.8371">
        <ele>620</ele>
        <time>2020-02-12T14:17:15Z</time>
      </trkpt>
      <trkpt lat="45.91622" lon="3.83723">
        <ele>620</ele>
        <time>2020-02-12T14:17:19Z</time>
      </trkpt>
      <trkpt lat="45.91636" lon="3.83735">
        <ele>620</ele>
        <time>2020-02-12T14:17:22Z</time>
      </trkpt>
      <trkpt lat="45.91648" lon="3.8375">
        <ele>619</ele>
        <time>2020-02-12T14:17:25Z</time>
      </trkpt>
      <trkpt lat="45.91691" lon="3.83822">
        <ele>618</ele>
        <time>2020-02-12T14:17:37Z</time>
      </trkpt>
      <trkpt lat="45.91709" lon="3.83846">
        <ele>619</ele>
        <time>2020-02-12T14:17:41Z</time>
      </trkpt>
      <trkpt lat="45.91724" lon="3.83862">
        <ele>619</ele>
        <time>2020-02-12T14:17:45Z</time>
      </trkpt>
      <trkpt lat="45.91789" lon="3.8392">
        <ele>616</ele>
        <time>2020-02-12T14:17:58Z</time>
      </trkpt>
      <trkpt lat="45.91803" lon="3.83936">
        <ele>617</ele>
        <time>2020-02-12T14:18:01Z</time>
      </trkpt>
      <trkpt lat="45.91813" lon="3.83951">
        <ele>617</ele>
        <time>2020-02-12T14:18:04Z</time>
      </trkpt>
      <trkpt lat="45.91822" lon="3.83971">
        <ele>618</ele>
        <time>2020-02-12T14:18:07Z</time>
      </trkpt>
      <trkpt lat="45.91827" lon="3.8399">
        <ele>618</ele>
        <time>2020-02-12T14:18:09Z</time>
      </trkpt>
      <trkpt lat="45.91826" lon="3.84018">
        <ele>619</ele>
        <time>2020-02-12T14:18:13Z</time>
      </trkpt>
      <trkpt lat="45.91819" lon="3.84036">
        <ele>620</ele>
        <time>2020-02-12T14:18:15Z</time>
      </trkpt>
      <trkpt lat="45.91811" lon="3.84046">
        <ele>620</ele>
        <time>2020-02-12T14:18:17Z</time>
      </trkpt>
      <trkpt lat="45.91802" lon="3.84053">
        <ele>621</ele>
        <time>2020-02-12T14:18:19Z</time>
      </trkpt>
      <trkpt lat="45.91767" lon="3.84068">
        <ele>625</ele>
        <time>2020-02-12T14:18:26Z</time>
      </trkpt>
      <trkpt lat="45.9173" lon="3.84074">
        <ele>627</ele>
        <time>2020-02-12T14:18:32Z</time>
      </trkpt>
      <trkpt lat="45.91696" lon="3.84074">
        <ele>628</ele>
        <time>2020-02-12T14:18:38Z</time>
      </trkpt>
      <trkpt lat="45.91638" lon="3.84069">
        <ele>626</ele>
        <time>2020-02-12T14:18:49Z</time>
      </trkpt>
      <trkpt lat="45.91617" lon="3.8407">
        <ele>625</ele>
        <time>2020-02-12T14:18:52Z</time>
      </trkpt>
      <trkpt lat="45.91603" lon="3.84074">
        <ele>625</ele>
        <time>2020-02-12T14:18:55Z</time>
      </trkpt>
      <trkpt lat="45.91584" lon="3.84086">
        <ele>627</ele>
        <time>2020-02-12T14:18:59Z</time>
      </trkpt>
      <trkpt lat="45.9157" lon="3.84102">
        <ele>628</ele>
        <time>2020-02-12T14:19:02Z</time>
      </trkpt>
      <trkpt lat="45.91509" lon="3.84185">
        <ele>631</ele>
        <time>2020-02-12T14:19:17Z</time>
      </trkpt>
      <trkpt lat="45.91502" lon="3.84205">
        <ele>632</ele>
        <time>2020-02-12T14:19:19Z</time>
      </trkpt>
      <trkpt lat="45.915" lon="3.84219">
        <ele>632</ele>
        <time>2020-02-12T14:19:21Z</time>
      </trkpt>
      <trkpt lat="45.91501" lon="3.84237">
        <ele>634</ele>
        <time>2020-02-12T14:19:23Z</time>
      </trkpt>
      <trkpt lat="45.91509" lon="3.84259">
        <ele>638</ele>
        <time>2020-02-12T14:19:27Z</time>
      </trkpt>
      <trkpt lat="45.91545" lon="3.8433">
        <ele>646</ele>
        <time>2020-02-12T14:19:37Z</time>
      </trkpt>
      <trkpt lat="45.91549" lon="3.84341">
        <ele>647</ele>
        <time>2020-02-12T14:19:39Z</time>
      </trkpt>
      <trkpt lat="45.9155" lon="3.84355">
        <ele>647</ele>
        <time>2020-02-12T14:19:41Z</time>
      </trkpt>
      <trkpt lat="45.91548" lon="3.84366">
        <ele>648</ele>
        <time>2020-02-12T14:19:42Z</time>
      </trkpt>
      <trkpt lat="45.91535" lon="3.84392">
        <ele>647</ele>
        <time>2020-02-12T14:19:46Z</time>
      </trkpt>
      <trkpt lat="45.91486" lon="3.84462">
        <ele>647</ele>
        <time>2020-02-12T14:19:58Z</time>
      </trkpt>
      <trkpt lat="45.91462" lon="3.84502">
        <ele>649</ele>
        <time>2020-02-12T14:20:05Z</time>
      </trkpt>
      <trkpt lat="45.91452" lon="3.84534">
        <ele>651</ele>
        <time>2020-02-12T14:20:09Z</time>
      </trkpt>
      <trkpt lat="45.91445" lon="3.84606">
        <ele>654</ele>
        <time>2020-02-12T14:20:18Z</time>
      </trkpt>
      <trkpt lat="45.91441" lon="3.84622">
        <ele>654</ele>
        <time>2020-02-12T14:20:20Z</time>
      </trkpt>
      <trkpt lat="45.91388" lon="3.84804">
        <ele>653</ele>
        <time>2020-02-12T14:20:45Z</time>
      </trkpt>
      <trkpt lat="45.91375" lon="3.8484">
        <ele>653</ele>
        <time>2020-02-12T14:20:50Z</time>
      </trkpt>
      <trkpt lat="45.91363" lon="3.84857">
        <ele>655</ele>
        <time>2020-02-12T14:20:53Z</time>
      </trkpt>
      <trkpt lat="45.91348" lon="3.84871">
        <ele>656</ele>
        <time>2020-02-12T14:20:56Z</time>
      </trkpt>
      <trkpt lat="45.91264" lon="3.84921">
        <ele>658</ele>
        <time>2020-02-12T14:21:12Z</time>
      </trkpt>
      <trkpt lat="45.91218" lon="3.84937">
        <ele>658</ele>
        <time>2020-02-12T14:21:21Z</time>
      </trkpt>
      <trkpt lat="45.91154" lon="3.84951">
        <ele>655</ele>
        <time>2020-02-12T14:21:32Z</time>
      </trkpt>
      <trkpt lat="45.91102" lon="3.8497">
        <ele>653</ele>
        <time>2020-02-12T14:21:42Z</time>
      </trkpt>
      <trkpt lat="45.91068" lon="3.84986">
        <ele>655</ele>
        <time>2020-02-12T14:21:48Z</time>
      </trkpt>
      <trkpt lat="45.91045" lon="3.84992">
        <ele>657</ele>
        <time>2020-02-12T14:21:52Z</time>
      </trkpt>
      <trkpt lat="45.91035" lon="3.8499">
        <ele>657</ele>
        <time>2020-02-12T14:21:54Z</time>
      </trkpt>
      <trkpt lat="45.9102" lon="3.84977">
        <ele>657</ele>
        <time>2020-02-12T14:21:57Z</time>
      </trkpt>
      <trkpt lat="45.90989" lon="3.84917">
        <ele>652</ele>
        <time>2020-02-12T14:22:06Z</time>
      </trkpt>
      <trkpt lat="45.9097" lon="3.84896">
        <ele>649</ele>
        <time>2020-02-12T14:22:11Z</time>
      </trkpt>
      <trkpt lat="45.90954" lon="3.84886">
        <ele>649</ele>
        <time>2020-02-12T14:22:14Z</time>
      </trkpt>
      <trkpt lat="45.90929" lon="3.84881">
        <ele>650</ele>
        <time>2020-02-12T14:22:18Z</time>
      </trkpt>
      <trkpt lat="45.90913" lon="3.84884">
        <ele>650</ele>
        <time>2020-02-12T14:22:21Z</time>
      </trkpt>
      <trkpt lat="45.90892" lon="3.84895">
        <ele>650</ele>
        <time>2020-02-12T14:22:25Z</time>
      </trkpt>
      <trkpt lat="45.9087" lon="3.84911">
        <ele>650</ele>
        <time>2020-02-12T14:22:29Z</time>
      </trkpt>
      <trkpt lat="45.90807" lon="3.84972">
        <ele>650</ele>
        <time>2020-02-12T14:22:43Z</time>
      </trkpt>
      <trkpt lat="45.90716" lon="3.85067">
        <ele>645</ele>
        <time>2020-02-12T14:23:03Z</time>
      </trkpt>
      <trkpt lat="45.90684" lon="3.85103">
        <ele>643</ele>
        <time>2020-02-12T14:23:10Z</time>
      </trkpt>
      <trkpt lat="45.90671" lon="3.85127">
        <ele>642</ele>
        <time>2020-02-12T14:23:14Z</time>
      </trkpt>
      <trkpt lat="45.90665" lon="3.85146">
        <ele>641</ele>
        <time>2020-02-12T14:23:17Z</time>
      </trkpt>
      <trkpt lat="45.90662" lon="3.85184">
        <ele>641</ele>
        <time>2020-02-12T14:23:21Z</time>
      </trkpt>
      <trkpt lat="45.90664" lon="3.85205">
        <ele>642</ele>
        <time>2020-02-12T14:23:24Z</time>
      </trkpt>
      <trkpt lat="45.90683" lon="3.85294">
        <ele>647</ele>
        <time>2020-02-12T14:23:35Z</time>
      </trkpt>
      <trkpt lat="45.90691" lon="3.85346">
        <ele>649</ele>
        <time>2020-02-12T14:23:42Z</time>
      </trkpt>
      <trkpt lat="45.90691" lon="3.85405">
        <ele>647</ele>
        <time>2020-02-12T14:23:49Z</time>
      </trkpt>
      <trkpt lat="45.90688" lon="3.85416">
        <ele>646</ele>
        <time>2020-02-12T14:23:51Z</time>
      </trkpt>
      <trkpt lat="45.90679" lon="3.8543">
        <ele>644</ele>
        <time>2020-02-12T14:23:53Z</time>
      </trkpt>
      <trkpt lat="45.90668" lon="3.85437">
        <ele>642</ele>
        <time>2020-02-12T14:23:55Z</time>
      </trkpt>
      <trkpt lat="45.90661" lon="3.85437">
        <ele>642</ele>
        <time>2020-02-12T14:23:57Z</time>
      </trkpt>
      <trkpt lat="45.90649" lon="3.85432">
        <ele>643</ele>
        <time>2020-02-12T14:23:59Z</time>
      </trkpt>
      <trkpt lat="45.9064" lon="3.85423">
        <ele>642</ele>
        <time>2020-02-12T14:24:01Z</time>
      </trkpt>
      <trkpt lat="45.90593" lon="3.85359">
        <ele>641</ele>
        <time>2020-02-12T14:24:12Z</time>
      </trkpt>
      <trkpt lat="45.90564" lon="3.85338">
        <ele>639</ele>
        <time>2020-02-12T14:24:18Z</time>
      </trkpt>
      <trkpt lat="45.90543" lon="3.85329">
        <ele>637</ele>
        <time>2020-02-12T14:24:22Z</time>
      </trkpt>
      <trkpt lat="45.90507" lon="3.8532">
        <ele>635</ele>
        <time>2020-02-12T14:24:28Z</time>
      </trkpt>
      <trkpt lat="45.90467" lon="3.8532">
        <ele>633</ele>
        <time>2020-02-12T14:24:36Z</time>
      </trkpt>
      <trkpt lat="45.90451" lon="3.85324">
        <ele>633</ele>
        <time>2020-02-12T14:24:38Z</time>
      </trkpt>
      <trkpt lat="45.90424" lon="3.85338">
        <ele>634</ele>
        <time>2020-02-12T14:24:44Z</time>
      </trkpt>
      <trkpt lat="45.90377" lon="3.85383">
        <ele>637</ele>
        <time>2020-02-12T14:24:54Z</time>
      </trkpt>
      <trkpt lat="45.90358" lon="3.85398">
        <ele>637</ele>
        <time>2020-02-12T14:24:57Z</time>
      </trkpt>
      <trkpt lat="45.90336" lon="3.85412">
        <ele>637</ele>
        <time>2020-02-12T14:25:02Z</time>
      </trkpt>
      <trkpt lat="45.90255" lon="3.85452">
        <ele>636</ele>
        <time>2020-02-12T14:25:17Z</time>
      </trkpt>
      <trkpt lat="45.90243" lon="3.85462">
        <ele>635</ele>
        <time>2020-02-12T14:25:19Z</time>
      </trkpt>
      <trkpt lat="45.90221" lon="3.85491">
        <ele>633</ele>
        <time>2020-02-12T14:25:25Z</time>
      </trkpt>
      <trkpt lat="45.90169" lon="3.8558">
        <ele>630</ele>
        <time>2020-02-12T14:25:39Z</time>
      </trkpt>
      <trkpt lat="45.9015" lon="3.85608">
        <ele>629</ele>
        <time>2020-02-12T14:25:44Z</time>
      </trkpt>
      <trkpt lat="45.90121" lon="3.85643">
        <ele>628</ele>
        <time>2020-02-12T14:25:51Z</time>
      </trkpt>
      <trkpt lat="45.9006" lon="3.85702">
        <ele>624</ele>
        <time>2020-02-12T14:26:04Z</time>
      </trkpt>
      <trkpt lat="45.90049" lon="3.85716">
        <ele>625</ele>
        <time>2020-02-12T14:26:06Z</time>
      </trkpt>
      <trkpt lat="45.90036" lon="3.85742">
        <ele>625</ele>
        <time>2020-02-12T14:26:10Z</time>
      </trkpt>
      <trkpt lat="45.90023" lon="3.85805">
        <ele>625</ele>
        <time>2020-02-12T14:26:18Z</time>
      </trkpt>
      <trkpt lat="45.9001" lon="3.85846">
        <ele>623</ele>
        <time>2020-02-12T14:26:24Z</time>
      </trkpt>
      <trkpt lat="45.89989" lon="3.85884">
        <ele>620</ele>
        <time>2020-02-12T14:26:30Z</time>
      </trkpt>
      <trkpt lat="45.89964" lon="3.85919">
        <ele>619</ele>
        <time>2020-02-12T14:26:36Z</time>
      </trkpt>
      <trkpt lat="45.89927" lon="3.85962">
        <ele>616</ele>
        <time>2020-02-12T14:26:45Z</time>
      </trkpt>
      <trkpt lat="45.89901" lon="3.85987">
        <ele>615</ele>
        <time>2020-02-12T14:26:50Z</time>
      </trkpt>
      <trkpt lat="45.89669" lon="3.86187">
        <ele>595</ele>
        <time>2020-02-12T14:27:38Z</time>
      </trkpt>
      <trkpt lat="45.89611" lon="3.86239">
        <ele>590</ele>
        <time>2020-02-12T14:27:51Z</time>
      </trkpt>
      <trkpt lat="45.89592" lon="3.8626">
        <ele>589</ele>
        <time>2020-02-12T14:27:55Z</time>
      </trkpt>
      <trkpt lat="45.89574" lon="3.86292">
        <ele>588</ele>
        <time>2020-02-12T14:28:00Z</time>
      </trkpt>
      <trkpt lat="45.89567" lon="3.86327">
        <ele>589</ele>
        <time>2020-02-12T14:28:04Z</time>
      </trkpt>
      <trkpt lat="45.89562" lon="3.864">
        <ele>592</ele>
        <time>2020-02-12T14:28:14Z</time>
      </trkpt>
      <trkpt lat="45.89558" lon="3.86415">
        <ele>592</ele>
        <time>2020-02-12T14:28:16Z</time>
      </trkpt>
      <trkpt lat="45.89544" lon="3.86436">
        <ele>593</ele>
        <time>2020-02-12T14:28:19Z</time>
      </trkpt>
      <trkpt lat="45.89534" lon="3.86443">
        <ele>594</ele>
        <time>2020-02-12T14:28:21Z</time>
      </trkpt>
      <trkpt lat="45.8952" lon="3.86447">
        <ele>593</ele>
        <time>2020-02-12T14:28:24Z</time>
      </trkpt>
      <trkpt lat="45.8948" lon="3.86449">
        <ele>593</ele>
        <time>2020-02-12T14:28:31Z</time>
      </trkpt>
      <trkpt lat="45.89464" lon="3.86453">
        <ele>594</ele>
        <time>2020-02-12T14:28:34Z</time>
      </trkpt>
      <trkpt lat="45.89452" lon="3.86458">
        <ele>595</ele>
        <time>2020-02-12T14:28:36Z</time>
      </trkpt>
      <trkpt lat="45.89427" lon="3.86481">
        <ele>597</ele>
        <time>2020-02-12T14:28:41Z</time>
      </trkpt>
      <trkpt lat="45.89415" lon="3.86499">
        <ele>598</ele>
        <time>2020-02-12T14:28:44Z</time>
      </trkpt>
      <trkpt lat="45.894" lon="3.86539">
        <ele>598</ele>
        <time>2020-02-12T14:28:50Z</time>
      </trkpt>
      <trkpt lat="45.89325" lon="3.86819">
        <ele>600</ele>
        <time>2020-02-12T14:29:27Z</time>
      </trkpt>
      <trkpt lat="45.89319" lon="3.86854">
        <ele>599</ele>
        <time>2020-02-12T14:29:32Z</time>
      </trkpt>
      <trkpt lat="45.8932" lon="3.86879">
        <ele>598</ele>
        <time>2020-02-12T14:29:35Z</time>
      </trkpt>
      <trkpt lat="45.89328" lon="3.86901">
        <ele>599</ele>
        <time>2020-02-12T14:29:38Z</time>
      </trkpt>
      <trkpt lat="45.89381" lon="3.86964">
        <ele>601</ele>
        <time>2020-02-12T14:29:50Z</time>
      </trkpt>
      <trkpt lat="45.89391" lon="3.86982">
        <ele>601</ele>
        <time>2020-02-12T14:29:53Z</time>
      </trkpt>
      <trkpt lat="45.89394" lon="3.86992">
        <ele>601</ele>
        <time>2020-02-12T14:29:54Z</time>
      </trkpt>
      <trkpt lat="45.89395" lon="3.8701">
        <ele>602</ele>
        <time>2020-02-12T14:29:56Z</time>
      </trkpt>
      <trkpt lat="45.89389" lon="3.87029">
        <ele>603</ele>
        <time>2020-02-12T14:29:59Z</time>
      </trkpt>
      <trkpt lat="45.89378" lon="3.87044">
        <ele>603</ele>
        <time>2020-02-12T14:30:02Z</time>
      </trkpt>
      <trkpt lat="45.893" lon="3.87095">
        <ele>602</ele>
        <time>2020-02-12T14:30:17Z</time>
      </trkpt>
      <trkpt lat="45.89267" lon="3.87124">
        <ele>603</ele>
        <time>2020-02-12T14:30:24Z</time>
      </trkpt>
      <trkpt lat="45.8925" lon="3.87147">
        <ele>604</ele>
        <time>2020-02-12T14:30:28Z</time>
      </trkpt>
      <trkpt lat="45.89235" lon="3.8718">
        <ele>603</ele>
        <time>2020-02-12T14:30:33Z</time>
      </trkpt>
      <trkpt lat="45.89228" lon="3.87207">
        <ele>603</ele>
        <time>2020-02-12T14:30:36Z</time>
      </trkpt>
      <trkpt lat="45.89219" lon="3.87271">
        <ele>607</ele>
        <time>2020-02-12T14:30:44Z</time>
      </trkpt>
      <trkpt lat="45.89212" lon="3.87299">
        <ele>609</ele>
        <time>2020-02-12T14:30:48Z</time>
      </trkpt>
      <trkpt lat="45.89193" lon="3.87329">
        <ele>609</ele>
        <time>2020-02-12T14:30:53Z</time>
      </trkpt>
      <trkpt lat="45.89045" lon="3.87461">
        <ele>616</ele>
        <time>2020-02-12T14:31:24Z</time>
      </trkpt>
      <trkpt lat="45.88936" lon="3.8754">
        <ele>621</ele>
        <time>2020-02-12T14:31:46Z</time>
      </trkpt>
      <trkpt lat="45.88921" lon="3.87554">
        <ele>621</ele>
        <time>2020-02-12T14:31:49Z</time>
      </trkpt>
      <trkpt lat="45.88907" lon="3.87572">
        <ele>620</ele>
        <time>2020-02-12T14:31:52Z</time>
      </trkpt>
      <trkpt lat="45.88864" lon="3.87636">
        <ele>617</ele>
        <time>2020-02-12T14:32:03Z</time>
      </trkpt>
      <trkpt lat="45.8881" lon="3.87735">
        <ele>612</ele>
        <time>2020-02-12T14:32:19Z</time>
      </trkpt>
      <trkpt lat="45.88771" lon="3.87838">
        <ele>609</ele>
        <time>2020-02-12T14:32:34Z</time>
      </trkpt>
      <trkpt lat="45.88754" lon="3.87913">
        <ele>610</ele>
        <time>2020-02-12T14:32:43Z</time>
      </trkpt>
      <trkpt lat="45.88752" lon="3.87942">
        <ele>609</ele>
        <time>2020-02-12T14:32:47Z</time>
      </trkpt>
      <trkpt lat="45.88755" lon="3.87995">
        <ele>608</ele>
        <time>2020-02-12T14:32:54Z</time>
      </trkpt>
      <trkpt lat="45.88751" lon="3.88035">
        <ele>607</ele>
        <time>2020-02-12T14:32:59Z</time>
      </trkpt>
      <trkpt lat="45.88741" lon="3.88066">
        <ele>606</ele>
        <time>2020-02-12T14:33:03Z</time>
      </trkpt>
      <trkpt lat="45.88676" lon="3.88195">
        <ele>598</ele>
        <time>2020-02-12T14:33:22Z</time>
      </trkpt>
      <trkpt lat="45.88665" lon="3.88227">
        <ele>597</ele>
        <time>2020-02-12T14:33:27Z</time>
      </trkpt>
      <trkpt lat="45.88661" lon="3.88259">
        <ele>598</ele>
        <time>2020-02-12T14:33:31Z</time>
      </trkpt>
      <trkpt lat="45.88662" lon="3.88322">
        <ele>598</ele>
        <time>2020-02-12T14:33:39Z</time>
      </trkpt>
      <trkpt lat="45.8866" lon="3.88341">
        <ele>598</ele>
        <time>2020-02-12T14:33:41Z</time>
      </trkpt>
      <trkpt lat="45.88654" lon="3.88362">
        <ele>598</ele>
        <time>2020-02-12T14:33:44Z</time>
      </trkpt>
      <trkpt lat="45.88641" lon="3.88386">
        <ele>598</ele>
        <time>2020-02-12T14:33:48Z</time>
      </trkpt>
      <trkpt lat="45.88618" lon="3.88409">
        <ele>597</ele>
        <time>2020-02-12T14:33:53Z</time>
      </trkpt>
      <trkpt lat="45.8859" lon="3.88417">
        <ele>594</ele>
        <time>2020-02-12T14:33:58Z</time>
      </trkpt>
      <trkpt lat="45.88549" lon="3.88422">
        <ele>588</ele>
        <time>2020-02-12T14:34:05Z</time>
      </trkpt>
      <trkpt lat="45.8853" lon="3.88431">
        <ele>586</ele>
        <time>2020-02-12T14:34:09Z</time>
      </trkpt>
      <trkpt lat="45.88458" lon="3.88496">
        <ele>577</ele>
        <time>2020-02-12T14:34:24Z</time>
      </trkpt>
      <trkpt lat="45.88447" lon="3.88517">
        <ele>574</ele>
        <time>2020-02-12T14:34:27Z</time>
      </trkpt>
      <trkpt lat="45.88444" lon="3.88554">
        <ele>572</ele>
        <time>2020-02-12T14:34:32Z</time>
      </trkpt>
      <trkpt lat="45.88446" lon="3.88577">
        <ele>572</ele>
        <time>2020-02-12T14:34:34Z</time>
      </trkpt>
      <trkpt lat="45.88451" lon="3.88597">
        <ele>571</ele>
        <time>2020-02-12T14:34:37Z</time>
      </trkpt>
      <trkpt lat="45.88457" lon="3.88607">
        <ele>572</ele>
        <time>2020-02-12T14:34:39Z</time>
      </trkpt>
      <trkpt lat="45.88494" lon="3.88638">
        <ele>578</ele>
        <time>2020-02-12T14:34:46Z</time>
      </trkpt>
      <trkpt lat="45.88503" lon="3.88655">
        <ele>578</ele>
        <time>2020-02-12T14:34:49Z</time>
      </trkpt>
      <trkpt lat="45.88506" lon="3.88667">
        <ele>578</ele>
        <time>2020-02-12T14:34:51Z</time>
      </trkpt>
      <trkpt lat="45.88507" lon="3.88684">
        <ele>578</ele>
        <time>2020-02-12T14:34:53Z</time>
      </trkpt>
      <trkpt lat="45.88499" lon="3.88742">
        <ele>572</ele>
        <time>2020-02-12T14:35:00Z</time>
      </trkpt>
      <trkpt lat="45.88489" lon="3.88782">
        <ele>568</ele>
        <time>2020-02-12T14:35:05Z</time>
      </trkpt>
      <trkpt lat="45.88458" lon="3.88879">
        <ele>557</ele>
        <time>2020-02-12T14:35:19Z</time>
      </trkpt>
      <trkpt lat="45.8846" lon="3.88902">
        <ele>558</ele>
        <time>2020-02-12T14:35:21Z</time>
      </trkpt>
      <trkpt lat="45.88467" lon="3.88918">
        <ele>559</ele>
        <time>2020-02-12T14:35:24Z</time>
      </trkpt>
      <trkpt lat="45.88479" lon="3.88935">
        <ele>561</ele>
        <time>2020-02-12T14:35:27Z</time>
      </trkpt>
      <trkpt lat="45.88486" lon="3.88955">
        <ele>561</ele>
        <time>2020-02-12T14:35:30Z</time>
      </trkpt>
      <trkpt lat="45.88486" lon="3.88974">
        <ele>561</ele>
        <time>2020-02-12T14:35:32Z</time>
      </trkpt>
      <trkpt lat="45.88478" lon="3.88998">
        <ele>558</ele>
        <time>2020-02-12T14:35:35Z</time>
      </trkpt>
      <trkpt lat="45.88414" lon="3.89121">
        <ele>550</ele>
        <time>2020-02-12T14:35:54Z</time>
      </trkpt>
      <trkpt lat="45.88398" lon="3.89141">
        <ele>549</ele>
        <time>2020-02-12T14:35:58Z</time>
      </trkpt>
      <trkpt lat="45.88365" lon="3.89158">
        <ele>546</ele>
        <time>2020-02-12T14:36:04Z</time>
      </trkpt>
      <trkpt lat="45.8835" lon="3.89172">
        <ele>544</ele>
        <time>2020-02-12T14:36:07Z</time>
      </trkpt>
      <trkpt lat="45.883" lon="3.89258">
        <ele>539</ele>
        <time>2020-02-12T14:36:21Z</time>
      </trkpt>
      <trkpt lat="45.88286" lon="3.8929">
        <ele>538</ele>
        <time>2020-02-12T14:36:26Z</time>
      </trkpt>
      <trkpt lat="45.88275" lon="3.89325">
        <ele>538</ele>
        <time>2020-02-12T14:36:31Z</time>
      </trkpt>
      <trkpt lat="45.88262" lon="3.89342">
        <ele>538</ele>
        <time>2020-02-12T14:36:34Z</time>
      </trkpt>
      <trkpt lat="45.88225" lon="3.89378">
        <ele>539</ele>
        <time>2020-02-12T14:36:42Z</time>
      </trkpt>
      <trkpt lat="45.88183" lon="3.89443">
        <ele>541</ele>
        <time>2020-02-12T14:36:53Z</time>
      </trkpt>
      <trkpt lat="45.88173" lon="3.89453">
        <ele>542</ele>
        <time>2020-02-12T14:36:55Z</time>
      </trkpt>
      <trkpt lat="45.88142" lon="3.89474">
        <ele>542</ele>
        <time>2020-02-12T14:37:01Z</time>
      </trkpt>
      <trkpt lat="45.88047" lon="3.8953">
        <ele>540</ele>
        <time>2020-02-12T14:37:19Z</time>
      </trkpt>
      <trkpt lat="45.87996" lon="3.89569">
        <ele>539</ele>
        <time>2020-02-12T14:37:30Z</time>
      </trkpt>
      <trkpt lat="45.87894" lon="3.89667">
        <ele>536</ele>
        <time>2020-02-12T14:37:51Z</time>
      </trkpt>
      <trkpt lat="45.87872" lon="3.89698">
        <ele>537</ele>
        <time>2020-02-12T14:37:57Z</time>
      </trkpt>
      <trkpt lat="45.87857" lon="3.8973">
        <ele>537</ele>
        <time>2020-02-12T14:38:02Z</time>
      </trkpt>
      <trkpt lat="45.87751" lon="3.89995">
        <ele>535</ele>
        <time>2020-02-12T14:38:40Z</time>
      </trkpt>
      <trkpt lat="45.87734" lon="3.90043">
        <ele>536</ele>
        <time>2020-02-12T14:38:46Z</time>
      </trkpt>
      <trkpt lat="45.87706" lon="3.9015">
        <ele>539</ele>
        <time>2020-02-12T14:39:00Z</time>
      </trkpt>
      <trkpt lat="45.87695" lon="3.90183">
        <ele>539</ele>
        <time>2020-02-12T14:39:05Z</time>
      </trkpt>
      <trkpt lat="45.8764" lon="3.90296">
        <ele>538</ele>
        <time>2020-02-12T14:39:22Z</time>
      </trkpt>
      <trkpt lat="45.87578" lon="3.9039">
        <ele>533</ele>
        <time>2020-02-12T14:39:38Z</time>
      </trkpt>
      <trkpt lat="45.87555" lon="3.90435">
        <ele>532</ele>
        <time>2020-02-12T14:39:45Z</time>
      </trkpt>
      <trkpt lat="45.87536" lon="3.90498">
        <ele>530</ele>
        <time>2020-02-12T14:39:53Z</time>
      </trkpt>
      <trkpt lat="45.87511" lon="3.90673">
        <ele>531</ele>
        <time>2020-02-12T14:40:16Z</time>
      </trkpt>
      <trkpt lat="45.87462" lon="3.90901">
        <ele>530</ele>
        <time>2020-02-12T14:40:45Z</time>
      </trkpt>
      <trkpt lat="45.87453" lon="3.90933">
        <ele>530</ele>
        <time>2020-02-12T14:40:49Z</time>
      </trkpt>
      <trkpt lat="45.87445" lon="3.90951">
        <ele>530</ele>
        <time>2020-02-12T14:40:52Z</time>
      </trkpt>
      <trkpt lat="45.8743" lon="3.90972">
        <ele>530</ele>
        <time>2020-02-12T14:40:56Z</time>
      </trkpt>
      <trkpt lat="45.87388" lon="3.91004">
        <ele>529</ele>
        <time>2020-02-12T14:41:04Z</time>
      </trkpt>
      <trkpt lat="45.87376" lon="3.91016">
        <ele>529</ele>
        <time>2020-02-12T14:41:07Z</time>
      </trkpt>
      <trkpt lat="45.8736" lon="3.91043">
        <ele>529</ele>
        <time>2020-02-12T14:41:11Z</time>
      </trkpt>
      <trkpt lat="45.87351" lon="3.91078">
        <ele>529</ele>
        <time>2020-02-12T14:41:16Z</time>
      </trkpt>
      <trkpt lat="45.8735" lon="3.91099">
        <ele>530</ele>
        <time>2020-02-12T14:41:18Z</time>
      </trkpt>
      <trkpt lat="45.87363" lon="3.9125">
        <ele>536</ele>
        <time>2020-02-12T14:41:37Z</time>
      </trkpt>
      <trkpt lat="45.87367" lon="3.91282">
        <ele>536</ele>
        <time>2020-02-12T14:41:41Z</time>
      </trkpt>
      <trkpt lat="45.87373" lon="3.91303">
        <ele>536</ele>
        <time>2020-02-12T14:41:44Z</time>
      </trkpt>
      <trkpt lat="45.87379" lon="3.91316">
        <ele>536</ele>
        <time>2020-02-12T14:41:46Z</time>
      </trkpt>
      <trkpt lat="45.87394" lon="3.91334">
        <ele>536</ele>
        <time>2020-02-12T14:41:50Z</time>
      </trkpt>
      <trkpt lat="45.87438" lon="3.91363">
        <ele>536</ele>
        <time>2020-02-12T14:41:58Z</time>
      </trkpt>
      <trkpt lat="45.87445" lon="3.91371">
        <ele>536</ele>
        <time>2020-02-12T14:42:00Z</time>
      </trkpt>
      <trkpt lat="45.87453" lon="3.91385">
        <ele>536</ele>
        <time>2020-02-12T14:42:02Z</time>
      </trkpt>
      <trkpt lat="45.8746" lon="3.91411">
        <ele>537</ele>
        <time>2020-02-12T14:42:05Z</time>
      </trkpt>
      <trkpt lat="45.87465" lon="3.91635">
        <ele>549</ele>
        <time>2020-02-12T14:42:33Z</time>
      </trkpt>
      <trkpt lat="45.87464" lon="3.9171">
        <ele>552</ele>
        <time>2020-02-12T14:42:42Z</time>
      </trkpt>
      <trkpt lat="45.87441" lon="3.91892">
        <ele>559</ele>
        <time>2020-02-12T14:43:05Z</time>
      </trkpt>
      <trkpt lat="45.87439" lon="3.9196">
        <ele>562</ele>
        <time>2020-02-12T14:43:14Z</time>
      </trkpt>
      <trkpt lat="45.87445" lon="3.92026">
        <ele>565</ele>
        <time>2020-02-12T14:43:22Z</time>
      </trkpt>
      <trkpt lat="45.87442" lon="3.9207">
        <ele>566</ele>
        <time>2020-02-12T14:43:28Z</time>
      </trkpt>
      <trkpt lat="45.87438" lon="3.92082">
        <ele>566</ele>
        <time>2020-02-12T14:43:29Z</time>
      </trkpt>
      <trkpt lat="45.87429" lon="3.92097">
        <ele>566</ele>
        <time>2020-02-12T14:43:32Z</time>
      </trkpt>
      <trkpt lat="45.87388" lon="3.9215">
        <ele>568</ele>
        <time>2020-02-12T14:43:41Z</time>
      </trkpt>
      <trkpt lat="45.8737" lon="3.92181">
        <ele>569</ele>
        <time>2020-02-12T14:43:46Z</time>
      </trkpt>
      <trkpt lat="45.87312" lon="3.92302">
        <ele>574</ele>
        <time>2020-02-12T14:44:05Z</time>
      </trkpt>
      <trkpt lat="45.87296" lon="3.92345">
        <ele>577</ele>
        <time>2020-02-12T14:44:11Z</time>
      </trkpt>
      <trkpt lat="45.87251" lon="3.92519">
        <ele>587</ele>
        <time>2020-02-12T14:44:34Z</time>
      </trkpt>
      <trkpt lat="45.87241" lon="3.92544">
        <ele>588</ele>
        <time>2020-02-12T14:44:37Z</time>
      </trkpt>
      <trkpt lat="45.87221" lon="3.9258">
        <ele>589</ele>
        <time>2020-02-12T14:44:43Z</time>
      </trkpt>
      <trkpt lat="45.87197" lon="3.9261">
        <ele>590</ele>
        <time>2020-02-12T14:44:49Z</time>
      </trkpt>
      <trkpt lat="45.87178" lon="3.92626">
        <ele>589</ele>
        <time>2020-02-12T14:44:53Z</time>
      </trkpt>
      <trkpt lat="45.87149" lon="3.92643">
        <ele>589</ele>
        <time>2020-02-12T14:44:58Z</time>
      </trkpt>
      <trkpt lat="45.87064" lon="3.92682">
        <ele>590</ele>
        <time>2020-02-12T14:45:14Z</time>
      </trkpt>
      <trkpt lat="45.87022" lon="3.92708">
        <ele>592</ele>
        <time>2020-02-12T14:45:22Z</time>
      </trkpt>
      <trkpt lat="45.87007" lon="3.92721">
        <ele>593</ele>
        <time>2020-02-12T14:45:25Z</time>
      </trkpt>
      <trkpt lat="45.86981" lon="3.92753">
        <ele>595</ele>
        <time>2020-02-12T14:45:31Z</time>
      </trkpt>
      <trkpt lat="45.86957" lon="3.92798">
        <ele>595</ele>
        <time>2020-02-12T14:45:38Z</time>
      </trkpt>
      <trkpt lat="45.86939" lon="3.92856">
        <ele>595</ele>
        <time>2020-02-12T14:45:46Z</time>
      </trkpt>
      <trkpt lat="45.86868" lon="3.93401">
        <ele>579</ele>
        <time>2020-02-12T14:46:55Z</time>
      </trkpt>
      <trkpt lat="45.86851" lon="3.93574">
        <ele>571</ele>
        <time>2020-02-12T14:47:17Z</time>
      </trkpt>
      <trkpt lat="45.86833" lon="3.93893">
        <ele>566</ele>
        <time>2020-02-12T14:47:56Z</time>
      </trkpt>
      <trkpt lat="45.86827" lon="3.93937">
        <ele>565</ele>
        <time>2020-02-12T14:48:02Z</time>
      </trkpt>
      <trkpt lat="45.86815" lon="3.93995">
        <ele>562</ele>
        <time>2020-02-12T14:48:09Z</time>
      </trkpt>
      <trkpt lat="45.86788" lon="3.94078">
        <ele>560</ele>
        <time>2020-02-12T14:48:21Z</time>
      </trkpt>
      <trkpt lat="45.86768" lon="3.94122">
        <ele>558</ele>
        <time>2020-02-12T14:48:27Z</time>
      </trkpt>
      <trkpt lat="45.8675" lon="3.94154">
        <ele>557</ele>
        <time>2020-02-12T14:48:32Z</time>
      </trkpt>
      <trkpt lat="45.86716" lon="3.94206">
        <ele>553</ele>
        <time>2020-02-12T14:48:41Z</time>
      </trkpt>
      <trkpt lat="45.86608" lon="3.94358">
        <ele>551</ele>
        <time>2020-02-12T14:49:08Z</time>
      </trkpt>
      <trkpt lat="45.8659" lon="3.94392">
        <ele>551</ele>
        <time>2020-02-12T14:49:13Z</time>
      </trkpt>
      <trkpt lat="45.86576" lon="3.94428">
        <ele>551</ele>
        <time>2020-02-12T14:49:18Z</time>
      </trkpt>
      <trkpt lat="45.86565" lon="3.94465">
        <ele>551</ele>
        <time>2020-02-12T14:49:23Z</time>
      </trkpt>
      <trkpt lat="45.86535" lon="3.94585">
        <ele>550</ele>
        <time>2020-02-12T14:49:39Z</time>
      </trkpt>
      <trkpt lat="45.8648" lon="3.94744">
        <ele>546</ele>
        <time>2020-02-12T14:50:01Z</time>
      </trkpt>
      <trkpt lat="45.86423" lon="3.94875">
        <ele>546</ele>
        <time>2020-02-12T14:50:20Z</time>
      </trkpt>
      <trkpt lat="45.86375" lon="3.95005">
        <ele>550</ele>
        <time>2020-02-12T14:50:39Z</time>
      </trkpt>
      <trkpt lat="45.86284" lon="3.95167">
        <ele>555</ele>
        <time>2020-02-12T14:51:04Z</time>
      </trkpt>
      <trkpt lat="45.86272" lon="3.95182">
        <ele>555</ele>
        <time>2020-02-12T14:51:07Z</time>
      </trkpt>
      <trkpt lat="45.86253" lon="3.95196">
        <ele>555</ele>
        <time>2020-02-12T14:51:11Z</time>
      </trkpt>
      <trkpt lat="45.86241" lon="3.95203">
        <ele>555</ele>
        <time>2020-02-12T14:51:13Z</time>
      </trkpt>
      <trkpt lat="45.86226" lon="3.95207">
        <ele>555</ele>
        <time>2020-02-12T14:51:16Z</time>
      </trkpt>
      <trkpt lat="45.86213" lon="3.95207">
        <ele>555</ele>
        <time>2020-02-12T14:51:18Z</time>
      </trkpt>
      <trkpt lat="45.86195" lon="3.95201">
        <ele>554</ele>
        <time>2020-02-12T14:51:22Z</time>
      </trkpt>
      <trkpt lat="45.86161" lon="3.95184">
        <ele>553</ele>
        <time>2020-02-12T14:51:28Z</time>
      </trkpt>
      <trkpt lat="45.8614" lon="3.95178">
        <ele>552</ele>
        <time>2020-02-12T14:51:32Z</time>
      </trkpt>
      <trkpt lat="45.86122" lon="3.95179">
        <ele>553</ele>
        <time>2020-02-12T14:51:35Z</time>
      </trkpt>
      <trkpt lat="45.86105" lon="3.95186">
        <ele>553</ele>
        <time>2020-02-12T14:51:38Z</time>
      </trkpt>
      <trkpt lat="45.86084" lon="3.95203">
        <ele>554</ele>
        <time>2020-02-12T14:51:42Z</time>
      </trkpt>
      <trkpt lat="45.86057" lon="3.95235">
        <ele>555</ele>
        <time>2020-02-12T14:51:49Z</time>
      </trkpt>
      <trkpt lat="45.86026" lon="3.95276">
        <ele>555</ele>
        <time>2020-02-12T14:51:56Z</time>
      </trkpt>
      <trkpt lat="45.8601" lon="3.95303">
        <ele>555</ele>
        <time>2020-02-12T14:52:01Z</time>
      </trkpt>
      <trkpt lat="45.85998" lon="3.95334">
        <ele>555</ele>
        <time>2020-02-12T14:52:05Z</time>
      </trkpt>
      <trkpt lat="45.85987" lon="3.95372">
        <ele>554</ele>
        <time>2020-02-12T14:52:10Z</time>
      </trkpt>
      <trkpt lat="45.85972" lon="3.95432">
        <ele>554</ele>
        <time>2020-02-12T14:52:18Z</time>
      </trkpt>
      <trkpt lat="45.85962" lon="3.95488">
        <ele>554</ele>
        <time>2020-02-12T14:52:25Z</time>
      </trkpt>
      <trkpt lat="45.85957" lon="3.95528">
        <ele>554</ele>
        <time>2020-02-12T14:52:30Z</time>
      </trkpt>
      <trkpt lat="45.85946" lon="3.95735">
        <ele>549</ele>
        <time>2020-02-12T14:52:56Z</time>
      </trkpt>
      <trkpt lat="45.85936" lon="3.95802">
        <ele>547</ele>
        <time>2020-02-12T14:53:04Z</time>
      </trkpt>
      <trkpt lat="45.85922" lon="3.95842">
        <ele>546</ele>
        <time>2020-02-12T14:53:10Z</time>
      </trkpt>
      <trkpt lat="45.8589" lon="3.95913">
        <ele>546</ele>
        <time>2020-02-12T14:53:20Z</time>
      </trkpt>
      <trkpt lat="45.85849" lon="3.95974">
        <ele>546</ele>
        <time>2020-02-12T14:53:31Z</time>
      </trkpt>
      <trkpt lat="45.85835" lon="3.96002">
        <ele>546</ele>
        <time>2020-02-12T14:53:35Z</time>
      </trkpt>
      <trkpt lat="45.85798" lon="3.96115">
        <ele>541</ele>
        <time>2020-02-12T14:53:51Z</time>
      </trkpt>
      <trkpt lat="45.85779" lon="3.96164">
        <ele>539</ele>
        <time>2020-02-12T14:53:58Z</time>
      </trkpt>
      <trkpt lat="45.85714" lon="3.96306">
        <ele>536</ele>
        <time>2020-02-12T14:54:19Z</time>
      </trkpt>
      <trkpt lat="45.85682" lon="3.96405">
        <ele>533</ele>
        <time>2020-02-12T14:54:32Z</time>
      </trkpt>
      <trkpt lat="45.85662" lon="3.96457">
        <ele>532</ele>
        <time>2020-02-12T14:54:40Z</time>
      </trkpt>
      <trkpt lat="45.85564" lon="3.96689">
        <ele>529</ele>
        <time>2020-02-12T14:55:13Z</time>
      </trkpt>
      <trkpt lat="45.85517" lon="3.96794">
        <ele>525</ele>
        <time>2020-02-12T14:55:29Z</time>
      </trkpt>
      <trkpt lat="45.85482" lon="3.9686">
        <ele>522</ele>
        <time>2020-02-12T14:55:39Z</time>
      </trkpt>
      <trkpt lat="45.85423" lon="3.96944">
        <ele>519</ele>
        <time>2020-02-12T14:55:54Z</time>
      </trkpt>
      <trkpt lat="45.8539" lon="3.97">
        <ele>518</ele>
        <time>2020-02-12T14:56:03Z</time>
      </trkpt>
      <trkpt lat="45.85339" lon="3.97127">
        <ele>522</ele>
        <time>2020-02-12T14:56:21Z</time>
      </trkpt>
      <trkpt lat="45.85295" lon="3.97249">
        <ele>520</ele>
        <time>2020-02-12T14:56:38Z</time>
      </trkpt>
      <trkpt lat="45.85281" lon="3.97294">
        <ele>521</ele>
        <time>2020-02-12T14:56:44Z</time>
      </trkpt>
      <trkpt lat="45.85256" lon="3.97404">
        <ele>521</ele>
        <time>2020-02-12T14:56:58Z</time>
      </trkpt>
      <trkpt lat="45.85246" lon="3.97471">
        <ele>520</ele>
        <time>2020-02-12T14:57:07Z</time>
      </trkpt>
      <trkpt lat="45.85242" lon="3.97515">
        <ele>520</ele>
        <time>2020-02-12T14:57:12Z</time>
      </trkpt>
      <trkpt lat="45.85236" lon="3.97653">
        <ele>522</ele>
        <time>2020-02-12T14:57:30Z</time>
      </trkpt>
      <trkpt lat="45.85232" lon="3.97711">
        <ele>523</ele>
        <time>2020-02-12T14:57:37Z</time>
      </trkpt>
      <trkpt lat="45.85225" lon="3.97768">
        <ele>524</ele>
        <time>2020-02-12T14:57:44Z</time>
      </trkpt>
      <trkpt lat="45.8521" lon="3.97843">
        <ele>525</ele>
        <time>2020-02-12T14:57:54Z</time>
      </trkpt>
      <trkpt lat="45.8514" lon="3.98135">
        <ele>520</ele>
        <time>2020-02-12T14:58:32Z</time>
      </trkpt>
      <trkpt lat="45.85079" lon="3.98336">
        <ele>513</ele>
        <time>2020-02-12T14:58:59Z</time>
      </trkpt>
      <trkpt lat="45.85015" lon="3.98494">
        <ele>508</ele>
        <time>2020-02-12T14:59:22Z</time>
      </trkpt>
      <trkpt lat="45.84994" lon="3.98552">
        <ele>507</ele>
        <time>2020-02-12T14:59:30Z</time>
      </trkpt>
      <trkpt lat="45.84932" lon="3.98745">
        <ele>502</ele>
        <time>2020-02-12T14:59:56Z</time>
      </trkpt>
      <trkpt lat="45.84913" lon="3.98813">
        <ele>501</ele>
        <time>2020-02-12T15:00:05Z</time>
      </trkpt>
      <trkpt lat="45.84818" lon="3.9919">
        <ele>491</ele>
        <time>2020-02-12T15:00:55Z</time>
      </trkpt>
      <trkpt lat="45.84808" lon="3.99267">
        <ele>489</ele>
        <time>2020-02-12T15:01:05Z</time>
      </trkpt>
      <trkpt lat="45.84797" lon="3.99434">
        <ele>485</ele>
        <time>2020-02-12T15:01:25Z</time>
      </trkpt>
      <trkpt lat="45.84792" lon="3.99475">
        <ele>485</ele>
        <time>2020-02-12T15:01:31Z</time>
      </trkpt>
      <trkpt lat="45.84778" lon="3.99527">
        <ele>486</ele>
        <time>2020-02-12T15:01:37Z</time>
      </trkpt>
      <trkpt lat="45.8476" lon="3.99587">
        <ele>488</ele>
        <time>2020-02-12T15:01:46Z</time>
      </trkpt>
      <trkpt lat="45.84747" lon="3.99616">
        <ele>488</ele>
        <time>2020-02-12T15:01:50Z</time>
      </trkpt>
      <trkpt lat="45.84673" lon="3.99709">
        <ele>488</ele>
        <time>2020-02-12T15:02:07Z</time>
      </trkpt>
      <trkpt lat="45.84647" lon="3.99747">
        <ele>488</ele>
        <time>2020-02-12T15:02:14Z</time>
      </trkpt>
      <trkpt lat="45.84638" lon="3.99773">
        <ele>488</ele>
        <time>2020-02-12T15:02:18Z</time>
      </trkpt>
      <trkpt lat="45.84633" lon="3.99798">
        <ele>488</ele>
        <time>2020-02-12T15:02:21Z</time>
      </trkpt>
      <trkpt lat="45.84627" lon="3.99901">
        <ele>488</ele>
        <time>2020-02-12T15:02:34Z</time>
      </trkpt>
      <trkpt lat="45.84622" lon="3.99929">
        <ele>488</ele>
        <time>2020-02-12T15:02:37Z</time>
      </trkpt>
      <trkpt lat="45.84612" lon="3.99964">
        <ele>488</ele>
        <time>2020-02-12T15:02:42Z</time>
      </trkpt>
      <trkpt lat="45.84586" lon="4.00023">
        <ele>487</ele>
        <time>2020-02-12T15:02:51Z</time>
      </trkpt>
      <trkpt lat="45.84551" lon="4.00086">
        <ele>486</ele>
        <time>2020-02-12T15:03:01Z</time>
      </trkpt>
      <trkpt lat="45.84508" lon="4.00185">
        <ele>484</ele>
        <time>2020-02-12T15:03:15Z</time>
      </trkpt>
      <trkpt lat="45.84492" lon="4.00215">
        <ele>483</ele>
        <time>2020-02-12T15:03:20Z</time>
      </trkpt>
      <trkpt lat="45.84471" lon="4.00245">
        <ele>481</ele>
        <time>2020-02-12T15:03:25Z</time>
      </trkpt>
      <trkpt lat="45.84422" lon="4.00303">
        <ele>476</ele>
        <time>2020-02-12T15:03:36Z</time>
      </trkpt>
      <trkpt lat="45.84372" lon="4.00378">
        <ele>473</ele>
        <time>2020-02-12T15:03:49Z</time>
      </trkpt>
      <trkpt lat="45.84343" lon="4.00417">
        <ele>472</ele>
        <time>2020-02-12T15:03:56Z</time>
      </trkpt>
      <trkpt lat="45.8426" lon="4.00513">
        <ele>467</ele>
        <time>2020-02-12T15:04:15Z</time>
      </trkpt>
      <trkpt lat="45.84227" lon="4.00542">
        <ele>466</ele>
        <time>2020-02-12T15:04:22Z</time>
      </trkpt>
      <trkpt lat="45.8412" lon="4.0062">
        <ele>464</ele>
        <time>2020-02-12T15:04:43Z</time>
      </trkpt>
      <trkpt lat="45.84038" lon="4.00688">
        <ele>461</ele>
        <time>2020-02-12T15:05:00Z</time>
      </trkpt>
      <trkpt lat="45.83979" lon="4.00728">
        <ele>460</ele>
        <time>2020-02-12T15:05:12Z</time>
      </trkpt>
      <trkpt lat="45.83948" lon="4.00745">
        <ele>459</ele>
        <time>2020-02-12T15:05:18Z</time>
      </trkpt>
      <trkpt lat="45.83899" lon="4.00765">
        <ele>458</ele>
        <time>2020-02-12T15:05:27Z</time>
      </trkpt>
      <trkpt lat="45.83719" lon="4.00822">
        <ele>455</ele>
        <time>2020-02-12T15:06:00Z</time>
      </trkpt>
      <trkpt lat="45.83701" lon="4.00826">
        <ele>455</ele>
        <time>2020-02-12T15:06:03Z</time>
      </trkpt>
      <trkpt lat="45.83614" lon="4.00835">
        <ele>453</ele>
        <time>2020-02-12T15:06:18Z</time>
      </trkpt>
      <trkpt lat="45.83595" lon="4.00833">
        <ele>452</ele>
        <time>2020-02-12T15:06:22Z</time>
      </trkpt>
      <trkpt lat="45.8358" lon="4.00827">
        <ele>452</ele>
        <time>2020-02-12T15:06:25Z</time>
      </trkpt>
      <trkpt lat="45.83527" lon="4.00779">
        <ele>448</ele>
        <time>2020-02-12T15:06:36Z</time>
      </trkpt>
      <trkpt lat="45.83502" lon="4.0076">
        <ele>445</ele>
        <time>2020-02-12T15:06:41Z</time>
      </trkpt>
      <trkpt lat="45.83484" lon="4.00753">
        <ele>443</ele>
        <time>2020-02-12T15:06:44Z</time>
      </trkpt>
      <trkpt lat="45.83463" lon="4.00754">
        <ele>441</ele>
        <time>2020-02-12T15:06:48Z</time>
      </trkpt>
      <trkpt lat="45.8344" lon="4.00762">
        <ele>440</ele>
        <time>2020-02-12T15:06:52Z</time>
      </trkpt>
      <trkpt lat="45.83419" lon="4.00777">
        <ele>440</ele>
        <time>2020-02-12T15:06:56Z</time>
      </trkpt>
      <trkpt lat="45.83362" lon="4.00829">
        <ele>439</ele>
        <time>2020-02-12T15:07:08Z</time>
      </trkpt>
      <trkpt lat="45.83326" lon="4.00844">
        <ele>436</ele>
        <time>2020-02-12T15:07:15Z</time>
      </trkpt>
      <trkpt lat="45.83276" lon="4.00859">
        <ele>430</ele>
        <time>2020-02-12T15:07:24Z</time>
      </trkpt>
      <trkpt lat="45.83246" lon="4.00876">
        <ele>428</ele>
        <time>2020-02-12T15:07:30Z</time>
      </trkpt>
      <trkpt lat="45.83231" lon="4.0089">
        <ele>426</ele>
        <time>2020-02-12T15:07:33Z</time>
      </trkpt>
      <trkpt lat="45.83205" lon="4.00947">
        <ele>426</ele>
        <time>2020-02-12T15:07:41Z</time>
      </trkpt>
      <trkpt lat="45.83197" lon="4.00981">
        <ele>427</ele>
        <time>2020-02-12T15:07:46Z</time>
      </trkpt>
      <trkpt lat="45.83184" lon="4.01058">
        <ele>427</ele>
        <time>2020-02-12T15:07:56Z</time>
      </trkpt>
      <trkpt lat="45.83127" lon="4.01283">
        <ele>427</ele>
        <time>2020-02-12T15:08:25Z</time>
      </trkpt>
      <trkpt lat="45.83106" lon="4.01415">
        <ele>424</ele>
        <time>2020-02-12T15:08:42Z</time>
      </trkpt>
      <trkpt lat="45.83101" lon="4.01456">
        <ele>422</ele>
        <time>2020-02-12T15:08:47Z</time>
      </trkpt>
      <trkpt lat="45.83101" lon="4.01485">
        <ele>421</ele>
        <time>2020-02-12T15:08:51Z</time>
      </trkpt>
      <trkpt lat="45.83108" lon="4.01512">
        <ele>419</ele>
        <time>2020-02-12T15:08:54Z</time>
      </trkpt>
      <trkpt lat="45.83145" lon="4.01584">
        <ele>415</ele>
        <time>2020-02-12T15:09:05Z</time>
      </trkpt>
      <trkpt lat="45.83154" lon="4.01606">
        <ele>414</ele>
        <time>2020-02-12T15:09:09Z</time>
      </trkpt>
      <trkpt lat="45.83159" lon="4.01629">
        <ele>413</ele>
        <time>2020-02-12T15:09:12Z</time>
      </trkpt>
      <trkpt lat="45.83161" lon="4.01698">
        <ele>409</ele>
        <time>2020-02-12T15:09:20Z</time>
      </trkpt>
      <trkpt lat="45.83164" lon="4.01725">
        <ele>407</ele>
        <time>2020-02-12T15:09:24Z</time>
      </trkpt>
      <trkpt lat="45.83248" lon="4.02102">
        <ele>387</ele>
        <time>2020-02-12T15:10:13Z</time>
      </trkpt>
      <trkpt lat="45.83269" lon="4.02209">
        <ele>382</ele>
        <time>2020-02-12T15:10:26Z</time>
      </trkpt>
      <trkpt lat="45.8327" lon="4.02235">
        <ele>380</ele>
        <time>2020-02-12T15:10:30Z</time>
      </trkpt>
      <trkpt lat="45.83267" lon="4.02254">
        <ele>379</ele>
        <time>2020-02-12T15:10:32Z</time>
      </trkpt>
      <trkpt lat="45.83259" lon="4.02268">
        <ele>378</ele>
        <time>2020-02-12T15:10:34Z</time>
      </trkpt>
      <trkpt lat="45.83249" lon="4.02278">
        <ele>377</ele>
        <time>2020-02-12T15:10:36Z</time>
      </trkpt>
      <trkpt lat="45.83238" lon="4.02284">
        <ele>377</ele>
        <time>2020-02-12T15:10:39Z</time>
      </trkpt>
      <trkpt lat="45.83225" lon="4.02285">
        <ele>377</ele>
        <time>2020-02-12T15:10:41Z</time>
      </trkpt>
      <trkpt lat="45.83214" lon="4.02283">
        <ele>376</ele>
        <time>2020-02-12T15:10:43Z</time>
      </trkpt>
      <trkpt lat="45.83162" lon="4.02248">
        <ele>376</ele>
        <time>2020-02-12T15:10:53Z</time>
      </trkpt>
      <trkpt lat="45.83042" lon="4.02155">
        <ele>368</ele>
        <time>2020-02-12T15:11:17Z</time>
      </trkpt>
      <trkpt lat="45.83021" lon="4.02141">
        <ele>366</ele>
        <time>2020-02-12T15:11:21Z</time>
      </trkpt>
      <trkpt lat="45.83003" lon="4.02136">
        <ele>364</ele>
        <time>2020-02-12T15:11:25Z</time>
      </trkpt>
      <trkpt lat="45.82986" lon="4.02136">
        <ele>363</ele>
        <time>2020-02-12T15:11:28Z</time>
      </trkpt>
      <trkpt lat="45.82963" lon="4.02142">
        <ele>362</ele>
        <time>2020-02-12T15:11:32Z</time>
      </trkpt>
      <trkpt lat="45.82906" lon="4.02162">
        <ele>361</ele>
        <time>2020-02-12T15:11:42Z</time>
      </trkpt>
      <trkpt lat="45.82896" lon="4.02168">
        <ele>362</ele>
        <time>2020-02-12T15:11:44Z</time>
      </trkpt>
      <trkpt lat="45.82889" lon="4.02176">
        <ele>363</ele>
        <time>2020-02-12T15:11:46Z</time>
      </trkpt>
      <trkpt lat="45.82885" lon="4.02185">
        <ele>364</ele>
        <time>2020-02-12T15:11:47Z</time>
      </trkpt>
      <trkpt lat="45.82887" lon="4.02259">
        <ele>363</ele>
        <time>2020-02-12T15:11:56Z</time>
      </trkpt>
      <trkpt lat="45.82886" lon="4.02277">
        <ele>363</ele>
        <time>2020-02-12T15:11:59Z</time>
      </trkpt>
      <trkpt lat="45.82881" lon="4.02295">
        <ele>363</ele>
        <time>2020-02-12T15:12:01Z</time>
      </trkpt>
      <trkpt lat="45.82809" lon="4.02498">
        <ele>359</ele>
        <time>2020-02-12T15:12:29Z</time>
      </trkpt>
      <trkpt lat="45.82779" lon="4.02574">
        <ele>359</ele>
        <time>2020-02-12T15:12:40Z</time>
      </trkpt>
      <trkpt lat="45.82765" lon="4.026">
        <ele>359</ele>
        <time>2020-02-12T15:12:44Z</time>
      </trkpt>
      <trkpt lat="45.8259" lon="4.02892">
        <ele>357</ele>
        <time>2020-02-12T15:13:32Z</time>
      </trkpt>
      <trkpt lat="45.82356" lon="4.03186">
        <ele>354</ele>
        <time>2020-02-12T15:14:27Z</time>
      </trkpt>
      <trkpt lat="45.82279" lon="4.03278">
        <ele>356</ele>
        <time>2020-02-12T15:14:45Z</time>
      </trkpt>
      <trkpt lat="45.82266" lon="4.03288">
        <ele>356</ele>
        <time>2020-02-12T15:14:48Z</time>
      </trkpt>
      <trkpt lat="45.8223" lon="4.03336">
        <ele>357</ele>
        <time>2020-02-12T15:14:56Z</time>
      </trkpt>
      <trkpt lat="45.82219" lon="4.03347">
        <ele>356</ele>
        <time>2020-02-12T15:14:59Z</time>
      </trkpt>
      <trkpt lat="45.8223" lon="4.03353">
        <ele>356</ele>
        <time>2020-02-12T15:15:01Z</time>
      </trkpt>
      <trkpt lat="45.82234" lon="4.03359">
        <ele>356</ele>
        <time>2020-02-12T15:15:02Z</time>
      </trkpt>
      <trkpt lat="45.82225" lon="4.03349">
        <ele>356</ele>
        <time>2020-02-12T15:15:04Z</time>
      </trkpt>
      <trkpt lat="45.82213" lon="4.03348">
        <ele>356</ele>
        <time>2020-02-12T15:15:06Z</time>
      </trkpt>
      <trkpt lat="45.82207" lon="4.03352">
        <ele>356</ele>
        <time>2020-02-12T15:15:07Z</time>
      </trkpt>
      <trkpt lat="45.82201" lon="4.03362">
        <ele>356</ele>
        <time>2020-02-12T15:15:09Z</time>
      </trkpt>
      <trkpt lat="45.82188" lon="4.03368">
        <ele>356</ele>
        <time>2020-02-12T15:15:11Z</time>
      </trkpt>
      <trkpt lat="45.82156" lon="4.03376">
        <ele>355</ele>
        <time>2020-02-12T15:15:17Z</time>
      </trkpt>
      <trkpt lat="45.82109" lon="4.0338">
        <ele>355</ele>
        <time>2020-02-12T15:15:25Z</time>
      </trkpt>
      <trkpt lat="45.82074" lon="4.0339">
        <ele>355</ele>
        <time>2020-02-12T15:15:32Z</time>
      </trkpt>
      <trkpt lat="45.82046" lon="4.03403">
        <ele>355</ele>
        <time>2020-02-12T15:15:37Z</time>
      </trkpt>
      <trkpt lat="45.82014" lon="4.03425">
        <ele>355</ele>
        <time>2020-02-12T15:15:43Z</time>
      </trkpt>
      <trkpt lat="45.81875" lon="4.0355">
        <ele>352</ele>
        <time>2020-02-12T15:16:13Z</time>
      </trkpt>
      <trkpt lat="45.81818" lon="4.03587">
        <ele>354</ele>
        <time>2020-02-12T15:16:24Z</time>
      </trkpt>
      <trkpt lat="45.81763" lon="4.03615">
        <ele>354</ele>
        <time>2020-02-12T15:16:34Z</time>
      </trkpt>
      <trkpt lat="45.81711" lon="4.03637">
        <ele>354</ele>
        <time>2020-02-12T15:16:44Z</time>
      </trkpt>
      <trkpt lat="45.81652" lon="4.03656">
        <ele>354</ele>
        <time>2020-02-12T15:16:55Z</time>
      </trkpt>
      <trkpt lat="45.81625" lon="4.03668">
        <ele>354</ele>
        <time>2020-02-12T15:17:00Z</time>
      </trkpt>
      <trkpt lat="45.81603" lon="4.03681">
        <ele>355</ele>
        <time>2020-02-12T15:17:04Z</time>
      </trkpt>
      <trkpt lat="45.81541" lon="4.0373">
        <ele>356</ele>
        <time>2020-02-12T15:17:16Z</time>
      </trkpt>
      <trkpt lat="45.81504" lon="4.03751">
        <ele>356</ele>
        <time>2020-02-12T15:17:23Z</time>
      </trkpt>
      <trkpt lat="45.81464" lon="4.03767">
        <ele>355</ele>
        <time>2020-02-12T15:17:31Z</time>
      </trkpt>
      <trkpt lat="45.81314" lon="4.0381">
        <ele>355</ele>
        <time>2020-02-12T15:17:58Z</time>
      </trkpt>
      <trkpt lat="45.81272" lon="4.03827">
        <ele>355</ele>
        <time>2020-02-12T15:18:06Z</time>
      </trkpt>
      <trkpt lat="45.8089" lon="4.04036">
        <ele>364</ele>
        <time>2020-02-12T15:19:19Z</time>
      </trkpt>
      <trkpt lat="45.80835" lon="4.04226">
        <ele>359</ele>
        <time>2020-02-12T15:19:44Z</time>
      </trkpt>
      <trkpt lat="45.80822" lon="4.04264">
        <ele>358</ele>
        <time>2020-02-12T15:19:49Z</time>
      </trkpt>
      <trkpt lat="45.80805" lon="4.04301">
        <ele>357</ele>
        <time>2020-02-12T15:19:55Z</time>
      </trkpt>
      <trkpt lat="45.80775" lon="4.04356">
        <ele>356</ele>
        <time>2020-02-12T15:20:03Z</time>
      </trkpt>
      <trkpt lat="45.80658" lon="4.04538">
        <ele>356</ele>
        <time>2020-02-12T15:20:34Z</time>
      </trkpt>
      <trkpt lat="45.80638" lon="4.04582">
        <ele>355</ele>
        <time>2020-02-12T15:20:41Z</time>
      </trkpt>
      <trkpt lat="45.80616" lon="4.04643">
        <ele>355</ele>
        <time>2020-02-12T15:20:49Z</time>
      </trkpt>
      <trkpt lat="45.80604" lon="4.04684">
        <ele>355</ele>
        <time>2020-02-12T15:20:55Z</time>
      </trkpt>
      <trkpt lat="45.80596" lon="4.04729">
        <ele>355</ele>
        <time>2020-02-12T15:21:00Z</time>
      </trkpt>
      <trkpt lat="45.80591" lon="4.04854">
        <ele>356</ele>
        <time>2020-02-12T15:21:16Z</time>
      </trkpt>
      <trkpt lat="45.80585" lon="4.04906">
        <ele>356</ele>
        <time>2020-02-12T15:21:23Z</time>
      </trkpt>
      <trkpt lat="45.80558" lon="4.05045">
        <ele>353</ele>
        <time>2020-02-12T15:21:40Z</time>
      </trkpt>
      <trkpt lat="45.80552" lon="4.05066">
        <ele>353</ele>
        <time>2020-02-12T15:21:43Z</time>
      </trkpt>
      <trkpt lat="45.80537" lon="4.051">
        <ele>352</ele>
        <time>2020-02-12T15:21:48Z</time>
      </trkpt>
      <trkpt lat="45.80521" lon="4.05125">
        <ele>352</ele>
        <time>2020-02-12T15:21:52Z</time>
      </trkpt>
      <trkpt lat="45.805" lon="4.05149">
        <ele>352</ele>
        <time>2020-02-12T15:21:57Z</time>
      </trkpt>
      <trkpt lat="45.80435" lon="4.05209">
        <ele>351</ele>
        <time>2020-02-12T15:22:11Z</time>
      </trkpt>
      <trkpt lat="45.80382" lon="4.05269">
        <ele>351</ele>
        <time>2020-02-12T15:22:23Z</time>
      </trkpt>
      <trkpt lat="45.80347" lon="4.0532">
        <ele>352</ele>
        <time>2020-02-12T15:22:32Z</time>
      </trkpt>
      <trkpt lat="45.80241" lon="4.055">
        <ele>352</ele>
        <time>2020-02-12T15:23:01Z</time>
      </trkpt>
      <trkpt lat="45.80203" lon="4.05551">
        <ele>351</ele>
        <time>2020-02-12T15:23:10Z</time>
      </trkpt>
      <trkpt lat="45.80105" lon="4.05659">
        <ele>351</ele>
        <time>2020-02-12T15:23:32Z</time>
      </trkpt>
      <trkpt lat="45.8007" lon="4.05705">
        <ele>352</ele>
        <time>2020-02-12T15:23:41Z</time>
      </trkpt>
      <trkpt lat="45.80001" lon="4.05824">
        <ele>351</ele>
        <time>2020-02-12T15:24:00Z</time>
      </trkpt>
      <trkpt lat="45.79973" lon="4.05883">
        <ele>350</ele>
        <time>2020-02-12T15:24:09Z</time>
      </trkpt>
      <trkpt lat="45.7992" lon="4.06007">
        <ele>349</ele>
        <time>2020-02-12T15:24:27Z</time>
      </trkpt>
      <trkpt lat="45.79888" lon="4.06077">
        <ele>348</ele>
        <time>2020-02-12T15:24:37Z</time>
      </trkpt>
      <trkpt lat="45.79876" lon="4.06098">
        <ele>348</ele>
        <time>2020-02-12T15:24:41Z</time>
      </trkpt>
      <trkpt lat="45.79739" lon="4.06272">
        <ele>344</ele>
        <time>2020-02-12T15:25:13Z</time>
      </trkpt>
      <trkpt lat="45.79609" lon="4.06449">
        <ele>343</ele>
        <time>2020-02-12T15:25:45Z</time>
      </trkpt>
      <trkpt lat="45.79588" lon="4.06479">
        <ele>343</ele>
        <time>2020-02-12T15:25:50Z</time>
      </trkpt>
      <trkpt lat="45.79546" lon="4.06548">
        <ele>344</ele>
        <time>2020-02-12T15:26:02Z</time>
      </trkpt>
      <trkpt lat="45.79515" lon="4.06613">
        <ele>344</ele>
        <time>2020-02-12T15:26:12Z</time>
      </trkpt>
      <trkpt lat="45.79438" lon="4.06814">
        <ele>343</ele>
        <time>2020-02-12T15:26:40Z</time>
      </trkpt>
      <trkpt lat="45.79387" lon="4.06936">
        <ele>343</ele>
        <time>2020-02-12T15:26:58Z</time>
      </trkpt>
      <trkpt lat="45.79371" lon="4.06989">
        <ele>343</ele>
        <time>2020-02-12T15:27:05Z</time>
      </trkpt>
      <trkpt lat="45.79337" lon="4.07169">
        <ele>344</ele>
        <time>2020-02-12T15:27:28Z</time>
      </trkpt>
      <trkpt lat="45.79317" lon="4.07242">
        <ele>344</ele>
        <time>2020-02-12T15:27:38Z</time>
      </trkpt>
      <trkpt lat="45.79239" lon="4.07472">
        <ele>344</ele>
        <time>2020-02-12T15:28:09Z</time>
      </trkpt>
      <trkpt lat="45.79156" lon="4.07693">
        <ele>343</ele>
        <time>2020-02-12T15:28:41Z</time>
      </trkpt>
      <trkpt lat="45.79031" lon="4.0813">
        <ele>341</ele>
        <time>2020-02-12T15:29:39Z</time>
      </trkpt>
      <trkpt lat="45.78964" lon="4.08311">
        <ele>342</ele>
        <time>2020-02-12T15:30:05Z</time>
      </trkpt>
      <trkpt lat="45.78922" lon="4.0845">
        <ele>343</ele>
        <time>2020-02-12T15:30:23Z</time>
      </trkpt>
      <trkpt lat="45.78828" lon="4.08679">
        <ele>343</ele>
        <time>2020-02-12T15:30:56Z</time>
      </trkpt>
      <trkpt lat="45.78793" lon="4.0879">
        <ele>342</ele>
        <time>2020-02-12T15:31:11Z</time>
      </trkpt>
      <trkpt lat="45.78697" lon="4.09072">
        <ele>343</ele>
        <time>2020-02-12T15:31:50Z</time>
      </trkpt>
      <trkpt lat="45.78662" lon="4.09167">
        <ele>345</ele>
        <time>2020-02-12T15:32:04Z</time>
      </trkpt>
      <trkpt lat="45.78434" lon="4.09715">
        <ele>345</ele>
        <time>2020-02-12T15:33:23Z</time>
      </trkpt>
      <trkpt lat="45.78105" lon="4.10588">
        <ele>360</ele>
        <time>2020-02-12T15:35:26Z</time>
      </trkpt>
      <trkpt lat="45.78071" lon="4.10675">
        <ele>361</ele>
        <time>2020-02-12T15:35:38Z</time>
      </trkpt>
      <trkpt lat="45.78015" lon="4.10804">
        <ele>360</ele>
        <time>2020-02-12T15:35:57Z</time>
      </trkpt>
      <trkpt lat="45.77995" lon="4.10858">
        <ele>360</ele>
        <time>2020-02-12T15:36:05Z</time>
      </trkpt>
      <trkpt lat="45.77974" lon="4.1093">
        <ele>361</ele>
        <time>2020-02-12T15:36:15Z</time>
      </trkpt>
      <trkpt lat="45.7785" lon="4.11419">
        <ele>363</ele>
        <time>2020-02-12T15:37:19Z</time>
      </trkpt>
      <trkpt lat="45.77836" lon="4.11483">
        <ele>362</ele>
        <time>2020-02-12T15:37:27Z</time>
      </trkpt>
      <trkpt lat="45.77829" lon="4.11535">
        <ele>361</ele>
        <time>2020-02-12T15:37:34Z</time>
      </trkpt>
      <trkpt lat="45.77825" lon="4.11612">
        <ele>357</ele>
        <time>2020-02-12T15:37:44Z</time>
      </trkpt>
      <trkpt lat="45.77831" lon="4.11879">
        <ele>356</ele>
        <time>2020-02-12T15:38:17Z</time>
      </trkpt>
      <trkpt lat="45.77829" lon="4.119">
        <ele>356</ele>
        <time>2020-02-12T15:38:19Z</time>
      </trkpt>
      <trkpt lat="45.77823" lon="4.11926">
        <ele>357</ele>
        <time>2020-02-12T15:38:23Z</time>
      </trkpt>
      <trkpt lat="45.77797" lon="4.11974">
        <ele>358</ele>
        <time>2020-02-12T15:38:30Z</time>
      </trkpt>
      <trkpt lat="45.77751" lon="4.12028">
        <ele>359</ele>
        <time>2020-02-12T15:38:41Z</time>
      </trkpt>
      <trkpt lat="45.77694" lon="4.12111">
        <ele>360</ele>
        <time>2020-02-12T15:38:55Z</time>
      </trkpt>
      <trkpt lat="45.77671" lon="4.12137">
        <ele>361</ele>
        <time>2020-02-12T15:39:01Z</time>
      </trkpt>
      <trkpt lat="45.77377" lon="4.12451">
        <ele>372</ele>
        <time>2020-02-12T15:40:06Z</time>
      </trkpt>
      <trkpt lat="45.77341" lon="4.12486">
        <ele>372</ele>
        <time>2020-02-12T15:40:13Z</time>
      </trkpt>
      <trkpt lat="45.76907" lon="4.12816">
        <ele>389</ele>
        <time>2020-02-12T15:41:41Z</time>
      </trkpt>
      <trkpt lat="45.76866" lon="4.12843">
        <ele>392</ele>
        <time>2020-02-12T15:41:49Z</time>
      </trkpt>
      <trkpt lat="45.7684" lon="4.12886">
        <ele>393</ele>
        <time>2020-02-12T15:41:56Z</time>
      </trkpt>
      <trkpt lat="45.76716" lon="4.1306">
        <ele>390</ele>
        <time>2020-02-12T15:42:27Z</time>
      </trkpt>
      <trkpt lat="45.76667" lon="4.13136">
        <ele>387</ele>
        <time>2020-02-12T15:42:40Z</time>
      </trkpt>
      <trkpt lat="45.76465" lon="4.13538">
        <ele>378</ele>
        <time>2020-02-12T15:43:41Z</time>
      </trkpt>
      <trkpt lat="45.76383" lon="4.13684">
        <ele>375</ele>
        <time>2020-02-12T15:44:04Z</time>
      </trkpt>
      <trkpt lat="45.76369" lon="4.13707">
        <ele>376</ele>
        <time>2020-02-12T15:44:08Z</time>
      </trkpt>
      <trkpt lat="45.76341" lon="4.13744">
        <ele>376</ele>
        <time>2020-02-12T15:44:15Z</time>
      </trkpt>
      <trkpt lat="45.76309" lon="4.13778">
        <ele>376</ele>
        <time>2020-02-12T15:44:22Z</time>
      </trkpt>
      <trkpt lat="45.76244" lon="4.13837">
        <ele>376</ele>
        <time>2020-02-12T15:44:36Z</time>
      </trkpt>
      <trkpt lat="45.75777" lon="4.14227">
        <ele>386</ele>
        <time>2020-02-12T15:46:12Z</time>
      </trkpt>
      <trkpt lat="45.75745" lon="4.14257">
        <ele>386</ele>
        <time>2020-02-12T15:46:19Z</time>
      </trkpt>
      <trkpt lat="45.75226" lon="4.14843">
        <ele>365</ele>
        <time>2020-02-12T15:48:16Z</time>
      </trkpt>
      <trkpt lat="45.75206" lon="4.14872">
        <ele>364</ele>
        <time>2020-02-12T15:48:21Z</time>
      </trkpt>
      <trkpt lat="45.75195" lon="4.14924">
        <ele>363</ele>
        <time>2020-02-12T15:48:28Z</time>
      </trkpt>
      <trkpt lat="45.75183" lon="4.14952">
        <ele>362</ele>
        <time>2020-02-12T15:48:32Z</time>
      </trkpt>
      <trkpt lat="45.75081" lon="4.15076">
        <ele>356</ele>
        <time>2020-02-12T15:48:56Z</time>
      </trkpt>
      <trkpt lat="45.74991" lon="4.15165">
        <ele>356</ele>
        <time>2020-02-12T15:49:15Z</time>
      </trkpt>
      <trkpt lat="45.7473" lon="4.15411">
        <ele>345</ele>
        <time>2020-02-12T15:50:11Z</time>
      </trkpt>
      <trkpt lat="45.74719" lon="4.15418">
        <ele>345</ele>
        <time>2020-02-12T15:50:13Z</time>
      </trkpt>
      <trkpt lat="45.7471" lon="4.15418">
        <ele>345</ele>
        <time>2020-02-12T15:50:15Z</time>
      </trkpt>
      <trkpt lat="45.74695" lon="4.15405">
        <ele>345</ele>
        <time>2020-02-12T15:50:18Z</time>
      </trkpt>
      <trkpt lat="45.74663" lon="4.15359">
        <ele>346</ele>
        <time>2020-02-12T15:50:26Z</time>
      </trkpt>
      <trkpt lat="45.74655" lon="4.15356">
        <ele>346</ele>
        <time>2020-02-12T15:50:27Z</time>
      </trkpt>
      <trkpt lat="45.74643" lon="4.15359">
        <ele>346</ele>
        <time>2020-02-12T15:50:30Z</time>
      </trkpt>
      <trkpt lat="45.74629" lon="4.15367">
        <ele>346</ele>
        <time>2020-02-12T15:50:32Z</time>
      </trkpt>
      <trkpt lat="45.74456" lon="4.15492">
        <ele>345</ele>
        <time>2020-02-12T15:51:07Z</time>
      </trkpt>
      <trkpt lat="45.74289" lon="4.15605">
        <ele>345</ele>
        <time>2020-02-12T15:51:40Z</time>
      </trkpt>
      <trkpt lat="45.74269" lon="4.15616">
        <ele>345</ele>
        <time>2020-02-12T15:51:43Z</time>
      </trkpt>
      <trkpt lat="45.74174" lon="4.15625">
        <ele>340</ele>
        <time>2020-02-12T15:52:00Z</time>
      </trkpt>
      <trkpt lat="45.74122" lon="4.15621">
        <ele>338</ele>
        <time>2020-02-12T15:52:10Z</time>
      </trkpt>
      <trkpt lat="45.7408" lon="4.15622">
        <ele>336</ele>
        <time>2020-02-12T15:52:17Z</time>
      </trkpt>
      <trkpt lat="45.73969" lon="4.15632">
        <ele>334</ele>
        <time>2020-02-12T15:52:37Z</time>
      </trkpt>
      <trkpt lat="45.73776" lon="4.15655">
        <ele>334</ele>
        <time>2020-02-12T15:53:11Z</time>
      </trkpt>
      <trkpt lat="45.73773" lon="4.16551">
        <ele>332</ele>
        <time>2020-02-12T15:55:03Z</time>
      </trkpt>
      <trkpt lat="45.73769" lon="4.1673">
        <ele>332</ele>
        <time>2020-02-12T15:55:25Z</time>
      </trkpt>
      <trkpt lat="45.73766" lon="4.17554">
        <ele>335</ele>
        <time>2020-02-12T15:57:07Z</time>
      </trkpt>
      <trkpt lat="45.73766" lon="4.17618">
        <ele>335</ele>
        <time>2020-02-12T15:57:15Z</time>
      </trkpt>
      <trkpt lat="45.73773" lon="4.17784">
        <ele>334</ele>
        <time>2020-02-12T15:57:36Z</time>
      </trkpt>
      <trkpt lat="45.73781" lon="4.1786">
        <ele>333</ele>
        <time>2020-02-12T15:57:45Z</time>
      </trkpt>
      <trkpt lat="45.73805" lon="4.18031">
        <ele>335</ele>
        <time>2020-02-12T15:58:07Z</time>
      </trkpt>
      <trkpt lat="45.7385" lon="4.18299">
        <ele>336</ele>
        <time>2020-02-12T15:58:41Z</time>
      </trkpt>
      <trkpt lat="45.73895" lon="4.18612">
        <ele>331</ele>
        <time>2020-02-12T15:59:21Z</time>
      </trkpt>
      <trkpt lat="45.739" lon="4.1867">
        <ele>330</ele>
        <time>2020-02-12T15:59:28Z</time>
      </trkpt>
      <trkpt lat="45.73898" lon="4.18688">
        <ele>329</ele>
        <time>2020-02-12T15:59:30Z</time>
      </trkpt>
      <trkpt lat="45.73895" lon="4.18705">
        <ele>329</ele>
        <time>2020-02-12T15:59:33Z</time>
      </trkpt>
      <trkpt lat="45.73885" lon="4.18709">
        <ele>329</ele>
        <time>2020-02-12T15:59:34Z</time>
      </trkpt>
      <trkpt lat="45.73878" lon="4.18719">
        <ele>328</ele>
        <time>2020-02-12T15:59:36Z</time>
      </trkpt>
      <trkpt lat="45.73875" lon="4.18735">
        <ele>328</ele>
        <time>2020-02-12T15:59:38Z</time>
      </trkpt>
      <trkpt lat="45.73877" lon="4.18745">
        <ele>328</ele>
        <time>2020-02-12T15:59:40Z</time>
      </trkpt>
      <trkpt lat="45.73884" lon="4.18756">
        <ele>328</ele>
        <time>2020-02-12T15:59:41Z</time>
      </trkpt>
      <trkpt lat="45.73896" lon="4.18761">
        <ele>328</ele>
        <time>2020-02-12T15:59:44Z</time>
      </trkpt>
      <trkpt lat="45.73905" lon="4.18757">
        <ele>329</ele>
        <time>2020-02-12T15:59:45Z</time>
      </trkpt>
      <trkpt lat="45.73918" lon="4.18786">
        <ele>328</ele>
        <time>2020-02-12T15:59:50Z</time>
      </trkpt>
      <trkpt lat="45.73926" lon="4.18815">
        <ele>327</ele>
        <time>2020-02-12T15:59:53Z</time>
      </trkpt>
      <trkpt lat="45.73967" lon="4.1906">
        <ele>325</ele>
        <time>2020-02-12T16:00:25Z</time>
      </trkpt>
      <trkpt lat="45.74247" lon="4.20404">
        <ele>328</ele>
        <time>2020-02-12T16:03:19Z</time>
      </trkpt>
      <trkpt lat="45.7428" lon="4.20568">
        <ele>327</ele>
        <time>2020-02-12T16:03:40Z</time>
      </trkpt>
      <trkpt lat="45.74287" lon="4.20616">
        <ele>328</ele>
        <time>2020-02-12T16:03:46Z</time>
      </trkpt>
      <trkpt lat="45.74289" lon="4.20669">
        <ele>328</ele>
        <time>2020-02-12T16:03:53Z</time>
      </trkpt>
      <trkpt lat="45.74283" lon="4.20736">
        <ele>329</ele>
        <time>2020-02-12T16:04:01Z</time>
      </trkpt>
      <trkpt lat="45.74272" lon="4.20801">
        <ele>329</ele>
        <time>2020-02-12T16:04:10Z</time>
      </trkpt>
      <trkpt lat="45.74235" lon="4.20955">
        <ele>327</ele>
        <time>2020-02-12T16:04:30Z</time>
      </trkpt>
      <trkpt lat="45.7423" lon="4.20985">
        <ele>327</ele>
        <time>2020-02-12T16:04:34Z</time>
      </trkpt>
      <trkpt lat="45.7423" lon="4.21009">
        <ele>327</ele>
        <time>2020-02-12T16:04:37Z</time>
      </trkpt>
      <trkpt lat="45.74313" lon="4.21863">
        <ele>336</ele>
        <time>2020-02-12T16:06:24Z</time>
      </trkpt>
      <trkpt lat="45.74305" lon="4.21896">
        <ele>336</ele>
        <time>2020-02-12T16:06:28Z</time>
      </trkpt>
      <trkpt lat="45.74298" lon="4.21906">
        <ele>336</ele>
        <time>2020-02-12T16:06:30Z</time>
      </trkpt>
      <trkpt lat="45.74289" lon="4.21912">
        <ele>336</ele>
        <time>2020-02-12T16:06:31Z</time>
      </trkpt>
      <trkpt lat="45.74318" lon="4.21928">
        <ele>336</ele>
        <time>2020-02-12T16:06:37Z</time>
      </trkpt>
      <trkpt lat="45.7434" lon="4.22142">
        <ele>341</ele>
        <time>2020-02-12T16:07:04Z</time>
      </trkpt>
      <trkpt lat="45.74334" lon="4.22147">
        <ele>342</ele>
        <time>2020-02-12T16:07:05Z</time>
      </trkpt>
      <trkpt lat="45.74332" lon="4.22157">
        <ele>342</ele>
        <time>2020-02-12T16:07:06Z</time>
      </trkpt>
      <trkpt lat="45.74336" lon="4.22167">
        <ele>342</ele>
        <time>2020-02-12T16:07:08Z</time>
      </trkpt>
      <trkpt lat="45.74345" lon="4.22168">
        <ele>342</ele>
        <time>2020-02-12T16:07:09Z</time>
      </trkpt>
      <trkpt lat="45.74383" lon="4.22585">
        <ele>344</ele>
        <time>2020-02-12T16:08:02Z</time>
      </trkpt>
      <trkpt lat="45.74375" lon="4.22593">
        <ele>344</ele>
        <time>2020-02-12T16:08:03Z</time>
      </trkpt>
      <trkpt lat="45.74374" lon="4.22603">
        <ele>344</ele>
        <time>2020-02-12T16:08:05Z</time>
      </trkpt>
      <trkpt lat="45.7438" lon="4.22612">
        <ele>344</ele>
        <time>2020-02-12T16:08:06Z</time>
      </trkpt>
      <trkpt lat="45.74387" lon="4.22612">
        <ele>344</ele>
        <time>2020-02-12T16:08:07Z</time>
      </trkpt>
      <trkpt lat="45.74416" lon="4.22935">
        <ele>343</ele>
        <time>2020-02-12T16:08:48Z</time>
      </trkpt>
      <trkpt lat="45.74432" lon="4.23078">
        <ele>345</ele>
        <time>2020-02-12T16:09:06Z</time>
      </trkpt>
      <trkpt lat="45.74435" lon="4.23151">
        <ele>347</ele>
        <time>2020-02-12T16:09:15Z</time>
      </trkpt>
      <trkpt lat="45.74433" lon="4.23185">
        <ele>347</ele>
        <time>2020-02-12T16:09:19Z</time>
      </trkpt>
      <trkpt lat="45.7443" lon="4.23216">
        <ele>347</ele>
        <time>2020-02-12T16:09:23Z</time>
      </trkpt>
      <trkpt lat="45.7442" lon="4.23266">
        <ele>346</ele>
        <time>2020-02-12T16:09:30Z</time>
      </trkpt>
      <trkpt lat="45.74291" lon="4.23252">
        <ele>346</ele>
        <time>2020-02-12T16:09:53Z</time>
      </trkpt>
      <trkpt lat="45.74176" lon="4.23242">
        <ele>346</ele>
        <time>2020-02-12T16:10:13Z</time>
      </trkpt>
      <trkpt lat="45.74144" lon="4.23242">
        <ele>346</ele>
        <time>2020-02-12T16:10:19Z</time>
      </trkpt>
      <trkpt lat="45.73581" lon="4.23479">
        <ele>345</ele>
        <time>2020-02-12T16:12:03Z</time>
      </trkpt>
      <trkpt lat="45.73549" lon="4.23498">
        <ele>345</ele>
        <time>2020-02-12T16:12:09Z</time>
      </trkpt>
      <trkpt lat="45.73455" lon="4.23571">
        <ele>345</ele>
        <time>2020-02-12T16:12:28Z</time>
      </trkpt>
      <trkpt lat="45.73422" lon="4.23594">
        <ele>345</ele>
        <time>2020-02-12T16:12:35Z</time>
      </trkpt>
      <trkpt lat="45.73375" lon="4.2362">
        <ele>346</ele>
        <time>2020-02-12T16:12:44Z</time>
      </trkpt>
      <trkpt lat="45.73309" lon="4.2365">
        <ele>347</ele>
        <time>2020-02-12T16:12:56Z</time>
      </trkpt>
      <trkpt lat="45.73272" lon="4.23674">
        <ele>346</ele>
        <time>2020-02-12T16:13:03Z</time>
      </trkpt>
      <trkpt lat="45.73086" lon="4.23815">
        <ele>347</ele>
        <time>2020-02-12T16:13:41Z</time>
      </trkpt>
      <trkpt lat="45.73069" lon="4.23832">
        <ele>347</ele>
        <time>2020-02-12T16:13:45Z</time>
      </trkpt>
      <trkpt lat="45.73054" lon="4.23852">
        <ele>348</ele>
        <time>2020-02-12T16:13:48Z</time>
      </trkpt>
      <trkpt lat="45.7304" lon="4.23876">
        <ele>348</ele>
        <time>2020-02-12T16:13:52Z</time>
      </trkpt>
      <trkpt lat="45.73029" lon="4.23901">
        <ele>348</ele>
        <time>2020-02-12T16:13:56Z</time>
      </trkpt>
      <trkpt lat="45.73019" lon="4.23902">
        <ele>348</ele>
        <time>2020-02-12T16:13:57Z</time>
      </trkpt>
      <trkpt lat="45.72987" lon="4.23919">
        <ele>348</ele>
        <time>2020-02-12T16:14:04Z</time>
      </trkpt>
      <trkpt lat="45.72904" lon="4.2398">
        <ele>348</ele>
        <time>2020-02-12T16:14:20Z</time>
      </trkpt>
      <trkpt lat="45.72891" lon="4.23986">
        <ele>348</ele>
        <time>2020-02-12T16:14:23Z</time>
      </trkpt>
      <trkpt lat="45.72868" lon="4.23991">
        <ele>349</ele>
        <time>2020-02-12T16:14:27Z</time>
      </trkpt>
      <trkpt lat="45.72823" lon="4.2399">
        <ele>349</ele>
        <time>2020-02-12T16:14:35Z</time>
      </trkpt>
      <trkpt lat="45.7279" lon="4.23995">
        <ele>348</ele>
        <time>2020-02-12T16:14:41Z</time>
      </trkpt>
      <trkpt lat="45.72578" lon="4.24064">
        <ele>348</ele>
        <time>2020-02-12T16:15:19Z</time>
      </trkpt>
      <trkpt lat="45.72423" lon="4.24093">
        <ele>348</ele>
        <time>2020-02-12T16:15:47Z</time>
      </trkpt>
      <trkpt lat="45.72406" lon="4.24103">
        <ele>348</ele>
        <time>2020-02-12T16:15:50Z</time>
      </trkpt>
      <trkpt lat="45.72396" lon="4.24113">
        <ele>348</ele>
        <time>2020-02-12T16:15:53Z</time>
      </trkpt>
      <trkpt lat="45.72336" lon="4.24185">
        <ele>349</ele>
        <time>2020-02-12T16:16:07Z</time>
      </trkpt>
      <trkpt lat="45.72283" lon="4.24235">
        <ele>348</ele>
        <time>2020-02-12T16:16:18Z</time>
      </trkpt>
      <trkpt lat="45.72223" lon="4.24284">
        <ele>348</ele>
        <time>2020-02-12T16:16:30Z</time>
      </trkpt>
      <trkpt lat="45.72157" lon="4.24324">
        <ele>348</ele>
        <time>2020-02-12T16:16:43Z</time>
      </trkpt>
      <trkpt lat="45.72083" lon="4.24359">
        <ele>349</ele>
        <time>2020-02-12T16:16:57Z</time>
      </trkpt>
      <trkpt lat="45.72033" lon="4.2437">
        <ele>351</ele>
        <time>2020-02-12T16:17:06Z</time>
      </trkpt>
      <trkpt lat="45.7202" lon="4.24375">
        <ele>351</ele>
        <time>2020-02-12T16:17:08Z</time>
      </trkpt>
      <trkpt lat="45.71948" lon="4.24416">
        <ele>352</ele>
        <time>2020-02-12T16:17:22Z</time>
      </trkpt>
      <trkpt lat="45.71855" lon="4.24454">
        <ele>351</ele>
        <time>2020-02-12T16:17:39Z</time>
      </trkpt>
      <trkpt lat="45.71788" lon="4.24499">
        <ele>351</ele>
        <time>2020-02-12T16:17:52Z</time>
      </trkpt>
      <trkpt lat="45.71756" lon="4.24509">
        <ele>351</ele>
        <time>2020-02-12T16:17:58Z</time>
      </trkpt>
      <trkpt lat="45.71671" lon="4.24524">
        <ele>350</ele>
        <time>2020-02-12T16:18:13Z</time>
      </trkpt>
      <trkpt lat="45.71646" lon="4.24534">
        <ele>350</ele>
        <time>2020-02-12T16:18:18Z</time>
      </trkpt>
      <trkpt lat="45.71576" lon="4.24571">
        <ele>351</ele>
        <time>2020-02-12T16:18:31Z</time>
      </trkpt>
      <trkpt lat="45.71417" lon="4.24617">
        <ele>352</ele>
        <time>2020-02-12T16:19:00Z</time>
      </trkpt>
      <trkpt lat="45.71399" lon="4.24625">
        <ele>352</ele>
        <time>2020-02-12T16:19:03Z</time>
      </trkpt>
      <trkpt lat="45.71372" lon="4.24645">
        <ele>352</ele>
        <time>2020-02-12T16:19:09Z</time>
      </trkpt>
      <trkpt lat="45.7118" lon="4.24835">
        <ele>351</ele>
        <time>2020-02-12T16:19:50Z</time>
      </trkpt>
      <trkpt lat="45.71172" lon="4.24842">
        <ele>351</ele>
        <time>2020-02-12T16:19:52Z</time>
      </trkpt>
      <trkpt lat="45.71155" lon="4.24851">
        <ele>351</ele>
        <time>2020-02-12T16:19:55Z</time>
      </trkpt>
      <trkpt lat="45.71131" lon="4.24855">
        <ele>351</ele>
        <time>2020-02-12T16:20:00Z</time>
      </trkpt>
      <trkpt lat="45.70999" lon="4.24858">
        <ele>352</ele>
        <time>2020-02-12T16:20:23Z</time>
      </trkpt>
      <trkpt lat="45.70963" lon="4.24854">
        <ele>352</ele>
        <time>2020-02-12T16:20:29Z</time>
      </trkpt>
      <trkpt lat="45.7092" lon="4.24837">
        <ele>351</ele>
        <time>2020-02-12T16:20:37Z</time>
      </trkpt>
      <trkpt lat="45.70358" lon="4.24591">
        <ele>351</ele>
        <time>2020-02-12T16:22:22Z</time>
      </trkpt>
      <trkpt lat="45.7034" lon="4.24584">
        <ele>351</ele>
        <time>2020-02-12T16:22:25Z</time>
      </trkpt>
      <trkpt lat="45.70204" lon="4.24547">
        <ele>350</ele>
        <time>2020-02-12T16:22:50Z</time>
      </trkpt>
      <trkpt lat="45.70125" lon="4.25077">
        <ele>352</ele>
        <time>2020-02-12T16:23:57Z</time>
      </trkpt>
      <trkpt lat="45.70078" lon="4.25374">
        <ele>356</ele>
        <time>2020-02-12T16:24:35Z</time>
      </trkpt>
      <trkpt lat="45.70072" lon="4.25425">
        <ele>354</ele>
        <time>2020-02-12T16:24:42Z</time>
      </trkpt>
      <trkpt lat="45.70059" lon="4.25683">
        <ele>353</ele>
        <time>2020-02-12T16:25:14Z</time>
      </trkpt>
      <trkpt lat="45.70057" lon="4.25701">
        <ele>353</ele>
        <time>2020-02-12T16:25:16Z</time>
      </trkpt>
      <trkpt lat="45.70052" lon="4.25714">
        <ele>353</ele>
        <time>2020-02-12T16:25:18Z</time>
      </trkpt>
      <trkpt lat="45.69538" lon="4.2666">
        <ele>360</ele>
        <time>2020-02-12T16:27:47Z</time>
      </trkpt>
      <trkpt lat="45.694" lon="4.26909">
        <ele>358</ele>
        <time>2020-02-12T16:28:26Z</time>
      </trkpt>
      <trkpt lat="45.68906" lon="4.27824">
        <ele>360</ele>
        <time>2020-02-12T16:30:50Z</time>
      </trkpt>
      <trkpt lat="45.68811" lon="4.27992">
        <ele>361</ele>
        <time>2020-02-12T16:31:17Z</time>
      </trkpt>
      <trkpt lat="45.68003" lon="4.29582">
        <ele>383</ele>
        <time>2020-02-12T16:35:21Z</time>
      </trkpt>
      <trkpt lat="45.67972" lon="4.29649">
        <ele>387</ele>
        <time>2020-02-12T16:35:31Z</time>
      </trkpt>
      <trkpt lat="45.67952" lon="4.29733">
        <ele>394</ele>
        <time>2020-02-12T16:35:42Z</time>
      </trkpt>
      <trkpt lat="45.67894" lon="4.29676">
        <ele>391</ele>
        <time>2020-02-12T16:35:55Z</time>
      </trkpt>
      <trkpt lat="45.67785" lon="4.29546">
        <ele>386</ele>
        <time>2020-02-12T16:36:20Z</time>
      </trkpt>
      <trkpt lat="45.67755" lon="4.29516">
        <ele>385</ele>
        <time>2020-02-12T16:36:27Z</time>
      </trkpt>
      <trkpt lat="45.67715" lon="4.29492">
        <ele>385</ele>
        <time>2020-02-12T16:36:34Z</time>
      </trkpt>
      <trkpt lat="45.67597" lon="4.29448">
        <ele>384</ele>
        <time>2020-02-12T16:36:56Z</time>
      </trkpt>
      <trkpt lat="45.67569" lon="4.29441">
        <ele>382</ele>
        <time>2020-02-12T16:37:01Z</time>
      </trkpt>
      <trkpt lat="45.67542" lon="4.29439">
        <ele>381</ele>
        <time>2020-02-12T16:37:06Z</time>
      </trkpt>
      <trkpt lat="45.67469" lon="4.29443">
        <ele>377</ele>
        <time>2020-02-12T16:37:19Z</time>
      </trkpt>
      <trkpt lat="45.67329" lon="4.29441">
        <ele>372</ele>
        <time>2020-02-12T16:37:44Z</time>
      </trkpt>
      <trkpt lat="45.67302" lon="4.29435">
        <ele>373</ele>
        <time>2020-02-12T16:37:49Z</time>
      </trkpt>
      <trkpt lat="45.67165" lon="4.29388">
        <ele>372</ele>
        <time>2020-02-12T16:38:14Z</time>
      </trkpt>
      <trkpt lat="45.67084" lon="4.29369">
        <ele>372</ele>
        <time>2020-02-12T16:38:28Z</time>
      </trkpt>
      <trkpt lat="45.67043" lon="4.29369">
        <ele>372</ele>
        <time>2020-02-12T16:38:36Z</time>
      </trkpt>
      <trkpt lat="45.66978" lon="4.29379">
        <ele>373</ele>
        <time>2020-02-12T16:38:47Z</time>
      </trkpt>
      <trkpt lat="45.66958" lon="4.2938">
        <ele>374</ele>
        <time>2020-02-12T16:38:51Z</time>
      </trkpt>
      <trkpt lat="45.66927" lon="4.29375">
        <ele>374</ele>
        <time>2020-02-12T16:38:56Z</time>
      </trkpt>
      <trkpt lat="45.66899" lon="4.29363">
        <ele>374</ele>
        <time>2020-02-12T16:39:01Z</time>
      </trkpt>
      <trkpt lat="45.66843" lon="4.29323">
        <ele>373</ele>
        <time>2020-02-12T16:39:13Z</time>
      </trkpt>
      <trkpt lat="45.6681" lon="4.29309">
        <ele>373</ele>
        <time>2020-02-12T16:39:19Z</time>
      </trkpt>
      <trkpt lat="45.66644" lon="4.29277">
        <ele>375</ele>
        <time>2020-02-12T16:39:49Z</time>
      </trkpt>
      <trkpt lat="45.66414" lon="4.29237">
        <ele>376</ele>
        <time>2020-02-12T16:40:30Z</time>
      </trkpt>
      <trkpt lat="45.66" lon="4.29133">
        <ele>375</ele>
        <time>2020-02-12T16:41:45Z</time>
      </trkpt>
      <trkpt lat="45.65972" lon="4.2913">
        <ele>375</ele>
        <time>2020-02-12T16:41:50Z</time>
      </trkpt>
      <trkpt lat="45.65958" lon="4.29131">
        <ele>375</ele>
        <time>2020-02-12T16:41:52Z</time>
      </trkpt>
      <trkpt lat="45.65925" lon="4.29139">
        <ele>375</ele>
        <time>2020-02-12T16:41:58Z</time>
      </trkpt>
      <trkpt lat="45.65892" lon="4.29157">
        <ele>376</ele>
        <time>2020-02-12T16:42:04Z</time>
      </trkpt>
      <trkpt lat="45.65773" lon="4.2926">
        <ele>379</ele>
        <time>2020-02-12T16:42:29Z</time>
      </trkpt>
      <trkpt lat="45.65746" lon="4.29275">
        <ele>379</ele>
        <time>2020-02-12T16:42:34Z</time>
      </trkpt>
      <trkpt lat="45.6572" lon="4.29285">
        <ele>380</ele>
        <time>2020-02-12T16:42:39Z</time>
      </trkpt>
      <trkpt lat="45.65649" lon="4.29305">
        <ele>381</ele>
        <time>2020-02-12T16:42:52Z</time>
      </trkpt>
      <trkpt lat="45.65584" lon="4.2932">
        <ele>381</ele>
        <time>2020-02-12T16:43:04Z</time>
      </trkpt>
      <trkpt lat="45.65465" lon="4.29324">
        <ele>382</ele>
        <time>2020-02-12T16:43:25Z</time>
      </trkpt>
      <trkpt lat="45.65419" lon="4.29331">
        <ele>383</ele>
        <time>2020-02-12T16:43:33Z</time>
      </trkpt>
      <trkpt lat="45.65374" lon="4.29344">
        <ele>383</ele>
        <time>2020-02-12T16:43:41Z</time>
      </trkpt>
      <trkpt lat="45.65215" lon="4.29408">
        <ele>385</ele>
        <time>2020-02-12T16:44:11Z</time>
      </trkpt>
      <trkpt lat="45.65189" lon="4.29416">
        <ele>385</ele>
        <time>2020-02-12T16:44:15Z</time>
      </trkpt>
      <trkpt lat="45.65164" lon="4.29419">
        <ele>385</ele>
        <time>2020-02-12T16:44:20Z</time>
      </trkpt>
      <trkpt lat="45.64889" lon="4.2943">
        <ele>387</ele>
        <time>2020-02-12T16:45:09Z</time>
      </trkpt>
      <trkpt lat="45.64857" lon="4.29435">
        <ele>388</ele>
        <time>2020-02-12T16:45:14Z</time>
      </trkpt>
      <trkpt lat="45.64822" lon="4.29445">
        <ele>389</ele>
        <time>2020-02-12T16:45:21Z</time>
      </trkpt>
      <trkpt lat="45.64789" lon="4.29461">
        <ele>389</ele>
        <time>2020-02-12T16:45:27Z</time>
      </trkpt>
      <trkpt lat="45.64665" lon="4.29536">
        <ele>391</ele>
        <time>2020-02-12T16:45:51Z</time>
      </trkpt>
      <trkpt lat="45.64676" lon="4.29804">
        <ele>401</ele>
        <time>2020-02-12T16:46:24Z</time>
      </trkpt>
      <trkpt lat="45.6467" lon="4.29859">
        <ele>402</ele>
        <time>2020-02-12T16:46:31Z</time>
      </trkpt>
      <trkpt lat="45.64639" lon="4.30029">
        <ele>405</ele>
        <time>2020-02-12T16:46:53Z</time>
      </trkpt>
      <trkpt lat="45.6461" lon="4.30146">
        <ele>411</ele>
        <time>2020-02-12T16:47:09Z</time>
      </trkpt>
      <trkpt lat="45.64595" lon="4.30184">
        <ele>413</ele>
        <time>2020-02-12T16:47:14Z</time>
      </trkpt>
      <trkpt lat="45.64544" lon="4.30268">
        <ele>412</ele>
        <time>2020-02-12T16:47:28Z</time>
      </trkpt>
      <trkpt lat="45.64539" lon="4.30282">
        <ele>411</ele>
        <time>2020-02-12T16:47:30Z</time>
      </trkpt>
      <trkpt lat="45.64537" lon="4.30301">
        <ele>412</ele>
        <time>2020-02-12T16:47:32Z</time>
      </trkpt>
      <trkpt lat="45.64538" lon="4.30321">
        <ele>413</ele>
        <time>2020-02-12T16:47:35Z</time>
      </trkpt>
      <trkpt lat="45.64544" lon="4.30347">
        <ele>415</ele>
        <time>2020-02-12T16:47:38Z</time>
      </trkpt>
      <trkpt lat="45.64572" lon="4.30413">
        <ele>416</ele>
        <time>2020-02-12T16:47:48Z</time>
      </trkpt>
      <trkpt lat="45.64583" lon="4.3043">
        <ele>416</ele>
        <time>2020-02-12T16:47:51Z</time>
      </trkpt>
      <trkpt lat="45.64601" lon="4.30449">
        <ele>417</ele>
        <time>2020-02-12T16:47:55Z</time>
      </trkpt>
      <trkpt lat="45.64632" lon="4.3047">
        <ele>420</ele>
        <time>2020-02-12T16:48:01Z</time>
      </trkpt>
      <trkpt lat="45.6466" lon="4.30496">
        <ele>421</ele>
        <time>2020-02-12T16:48:07Z</time>
      </trkpt>
      <trkpt lat="45.64673" lon="4.30516">
        <ele>422</ele>
        <time>2020-02-12T16:48:10Z</time>
      </trkpt>
      <trkpt lat="45.64687" lon="4.3055">
        <ele>422</ele>
        <time>2020-02-12T16:48:15Z</time>
      </trkpt>
      <trkpt lat="45.64702" lon="4.3062">
        <ele>419</ele>
        <time>2020-02-12T16:48:24Z</time>
      </trkpt>
      <trkpt lat="45.64708" lon="4.30729">
        <ele>417</ele>
        <time>2020-02-12T16:48:38Z</time>
      </trkpt>
      <trkpt lat="45.64712" lon="4.30754">
        <ele>417</ele>
        <time>2020-02-12T16:48:41Z</time>
      </trkpt>
      <trkpt lat="45.64721" lon="4.30779">
        <ele>418</ele>
        <time>2020-02-12T16:48:44Z</time>
      </trkpt>
      <trkpt lat="45.64733" lon="4.308">
        <ele>417</ele>
        <time>2020-02-12T16:48:48Z</time>
      </trkpt>
      <trkpt lat="45.64823" lon="4.30908">
        <ele>420</ele>
        <time>2020-02-12T16:49:09Z</time>
      </trkpt>
      <trkpt lat="45.6487" lon="4.30974">
        <ele>424</ele>
        <time>2020-02-12T16:49:20Z</time>
      </trkpt>
      <trkpt lat="45.65013" lon="4.31212">
        <ele>426</ele>
        <time>2020-02-12T16:49:59Z</time>
      </trkpt>
      <trkpt lat="45.65028" lon="4.31249">
        <ele>427</ele>
        <time>2020-02-12T16:50:05Z</time>
      </trkpt>
      <trkpt lat="45.65034" lon="4.31293">
        <ele>428</ele>
        <time>2020-02-12T16:50:10Z</time>
      </trkpt>
      <trkpt lat="45.65015" lon="4.31414">
        <ele>429</ele>
        <time>2020-02-12T16:50:26Z</time>
      </trkpt>
      <trkpt lat="45.64996" lon="4.31506">
        <ele>426</ele>
        <time>2020-02-12T16:50:38Z</time>
      </trkpt>
      <trkpt lat="45.64984" lon="4.31542">
        <ele>429</ele>
        <time>2020-02-12T16:50:42Z</time>
      </trkpt>
      <trkpt lat="45.64968" lon="4.31578">
        <ele>430</ele>
        <time>2020-02-12T16:50:48Z</time>
      </trkpt>
      <trkpt lat="45.64786" lon="4.31865">
        <ele>439</ele>
        <time>2020-02-12T16:51:36Z</time>
      </trkpt>
      <trkpt lat="45.64658" lon="4.32078">
        <ele>436</ele>
        <time>2020-02-12T16:52:11Z</time>
      </trkpt>
      <trkpt lat="45.64552" lon="4.3224">
        <ele>443</ele>
        <time>2020-02-12T16:52:39Z</time>
      </trkpt>
      <trkpt lat="45.64518" lon="4.32302">
        <ele>445</ele>
        <time>2020-02-12T16:52:48Z</time>
      </trkpt>
      <trkpt lat="45.64498" lon="4.32356">
        <ele>443</ele>
        <time>2020-02-12T16:52:56Z</time>
      </trkpt>
      <trkpt lat="45.64484" lon="4.32423">
        <ele>445</ele>
        <time>2020-02-12T16:53:05Z</time>
      </trkpt>
      <trkpt lat="45.64481" lon="4.32501">
        <ele>449</ele>
        <time>2020-02-12T16:53:14Z</time>
      </trkpt>
      <trkpt lat="45.64497" lon="4.32625">
        <ele>450</ele>
        <time>2020-02-12T16:53:30Z</time>
      </trkpt>
      <trkpt lat="45.64502" lon="4.32683">
        <ele>450</ele>
        <time>2020-02-12T16:53:37Z</time>
      </trkpt>
      <trkpt lat="45.64501" lon="4.32735">
        <ele>452</ele>
        <time>2020-02-12T16:53:44Z</time>
      </trkpt>
      <trkpt lat="45.64488" lon="4.32818">
        <ele>456</ele>
        <time>2020-02-12T16:53:54Z</time>
      </trkpt>
      <trkpt lat="45.64486" lon="4.32849">
        <ele>457</ele>
        <time>2020-02-12T16:53:58Z</time>
      </trkpt>
      <trkpt lat="45.64497" lon="4.33095">
        <ele>451</ele>
        <time>2020-02-12T16:54:29Z</time>
      </trkpt>
      <trkpt lat="45.645" lon="4.33139">
        <ele>451</ele>
        <time>2020-02-12T16:54:34Z</time>
      </trkpt>
      <trkpt lat="45.64514" lon="4.3326">
        <ele>457</ele>
        <time>2020-02-12T16:54:50Z</time>
      </trkpt>
      <trkpt lat="45.64515" lon="4.33281">
        <ele>457</ele>
        <time>2020-02-12T16:54:52Z</time>
      </trkpt>
      <trkpt lat="45.64511" lon="4.33329">
        <ele>454</ele>
        <time>2020-02-12T16:54:58Z</time>
      </trkpt>
      <trkpt lat="45.64505" lon="4.33366">
        <ele>455</ele>
        <time>2020-02-12T16:55:03Z</time>
      </trkpt>
      <trkpt lat="45.64484" lon="4.33448">
        <ele>462</ele>
        <time>2020-02-12T16:55:14Z</time>
      </trkpt>
      <trkpt lat="45.64465" lon="4.33486">
        <ele>463</ele>
        <time>2020-02-12T16:55:20Z</time>
      </trkpt>
      <trkpt lat="45.6441" lon="4.33561">
        <ele>460</ele>
        <time>2020-02-12T16:55:33Z</time>
      </trkpt>
      <trkpt lat="45.64387" lon="4.3361">
        <ele>466</ele>
        <time>2020-02-12T16:55:41Z</time>
      </trkpt>
      <trkpt lat="45.64379" lon="4.33633">
        <ele>467</ele>
        <time>2020-02-12T16:55:44Z</time>
      </trkpt>
      <trkpt lat="45.64374" lon="4.33659">
        <ele>468</ele>
        <time>2020-02-12T16:55:47Z</time>
      </trkpt>
      <trkpt lat="45.64375" lon="4.33703">
        <ele>468</ele>
        <time>2020-02-12T16:55:53Z</time>
      </trkpt>
      <trkpt lat="45.64399" lon="4.33988">
        <ele>463</ele>
        <time>2020-02-12T16:56:28Z</time>
      </trkpt>
      <trkpt lat="45.64407" lon="4.34042">
        <ele>463</ele>
        <time>2020-02-12T16:56:35Z</time>
      </trkpt>
      <trkpt lat="45.64488" lon="4.34246">
        <ele>471</ele>
        <time>2020-02-12T16:57:04Z</time>
      </trkpt>
      <trkpt lat="45.64539" lon="4.34348">
        <ele>471</ele>
        <time>2020-02-12T16:57:20Z</time>
      </trkpt>
      <trkpt lat="45.64551" lon="4.34379">
        <ele>471</ele>
        <time>2020-02-12T16:57:24Z</time>
      </trkpt>
      <trkpt lat="45.64563" lon="4.34421">
        <ele>470</ele>
        <time>2020-02-12T16:57:30Z</time>
      </trkpt>
      <trkpt lat="45.64568" lon="4.34459">
        <ele>470</ele>
        <time>2020-02-12T16:57:35Z</time>
      </trkpt>
      <trkpt lat="45.64591" lon="4.34739">
        <ele>473</ele>
        <time>2020-02-12T16:58:10Z</time>
      </trkpt>
      <trkpt lat="45.6459" lon="4.34883">
        <ele>476</ele>
        <time>2020-02-12T16:58:28Z</time>
      </trkpt>
      <trkpt lat="45.64581" lon="4.35142">
        <ele>476</ele>
        <time>2020-02-12T16:59:00Z</time>
      </trkpt>
      <trkpt lat="45.64583" lon="4.35174">
        <ele>476</ele>
        <time>2020-02-12T16:59:04Z</time>
      </trkpt>
      <trkpt lat="45.64589" lon="4.35212">
        <ele>477</ele>
        <time>2020-02-12T16:59:09Z</time>
      </trkpt>
      <trkpt lat="45.64597" lon="4.35239">
        <ele>478</ele>
        <time>2020-02-12T16:59:13Z</time>
      </trkpt>
      <trkpt lat="45.64646" lon="4.35351">
        <ele>480</ele>
        <time>2020-02-12T16:59:29Z</time>
      </trkpt>
      <trkpt lat="45.64657" lon="4.35393">
        <ele>483</ele>
        <time>2020-02-12T16:59:35Z</time>
      </trkpt>
      <trkpt lat="45.6465" lon="4.35418">
        <ele>484</ele>
        <time>2020-02-12T16:59:38Z</time>
      </trkpt>
      <trkpt lat="45.64649" lon="4.35444">
        <ele>484</ele>
        <time>2020-02-12T16:59:41Z</time>
      </trkpt>
      <trkpt lat="45.64653" lon="4.35485">
        <ele>486</ele>
        <time>2020-02-12T16:59:46Z</time>
      </trkpt>
      <trkpt lat="45.64666" lon="4.35548">
        <ele>488</ele>
        <time>2020-02-12T16:59:54Z</time>
      </trkpt>
      <trkpt lat="45.64663" lon="4.35625">
        <ele>487</ele>
        <time>2020-02-12T17:00:04Z</time>
      </trkpt>
      <trkpt lat="45.64666" lon="4.35725">
        <ele>485</ele>
        <time>2020-02-12T17:00:16Z</time>
      </trkpt>
      <trkpt lat="45.64662" lon="4.35869">
        <ele>494</ele>
        <time>2020-02-12T17:00:34Z</time>
      </trkpt>
      <trkpt lat="45.64663" lon="4.35905">
        <ele>495</ele>
        <time>2020-02-12T17:00:39Z</time>
      </trkpt>
      <trkpt lat="45.64671" lon="4.35958">
        <ele>496</ele>
        <time>2020-02-12T17:00:46Z</time>
      </trkpt>
      <trkpt lat="45.64682" lon="4.3599">
        <ele>498</ele>
        <time>2020-02-12T17:00:50Z</time>
      </trkpt>
      <trkpt lat="45.64707" lon="4.36086">
        <ele>499</ele>
        <time>2020-02-12T17:01:03Z</time>
      </trkpt>
      <trkpt lat="45.64739" lon="4.36256">
        <ele>501</ele>
        <time>2020-02-12T17:01:25Z</time>
      </trkpt>
      <trkpt lat="45.64739" lon="4.36301">
        <ele>501</ele>
        <time>2020-02-12T17:01:30Z</time>
      </trkpt>
      <trkpt lat="45.64726" lon="4.36418">
        <ele>501</ele>
        <time>2020-02-12T17:01:45Z</time>
      </trkpt>
      <trkpt lat="45.64731" lon="4.36517">
        <ele>499</ele>
        <time>2020-02-12T17:01:57Z</time>
      </trkpt>
      <trkpt lat="45.64722" lon="4.36557">
        <ele>499</ele>
        <time>2020-02-12T17:02:03Z</time>
      </trkpt>
      <trkpt lat="45.64709" lon="4.36581">
        <ele>499</ele>
        <time>2020-02-12T17:02:06Z</time>
      </trkpt>
      <trkpt lat="45.64692" lon="4.36596">
        <ele>501</ele>
        <time>2020-02-12T17:02:10Z</time>
      </trkpt>
      <trkpt lat="45.6468" lon="4.36602">
        <ele>501</ele>
        <time>2020-02-12T17:02:12Z</time>
      </trkpt>
      <trkpt lat="45.64665" lon="4.36605">
        <ele>502</ele>
        <time>2020-02-12T17:02:15Z</time>
      </trkpt>
      <trkpt lat="45.64611" lon="4.36608">
        <ele>506</ele>
        <time>2020-02-12T17:02:25Z</time>
      </trkpt>
      <trkpt lat="45.6457" lon="4.36617">
        <ele>509</ele>
        <time>2020-02-12T17:02:32Z</time>
      </trkpt>
      <trkpt lat="45.64529" lon="4.36636">
        <ele>512</ele>
        <time>2020-02-12T17:02:40Z</time>
      </trkpt>
      <trkpt lat="45.64435" lon="4.36693">
        <ele>517</ele>
        <time>2020-02-12T17:02:58Z</time>
      </trkpt>
      <trkpt lat="45.64394" lon="4.36737">
        <ele>521</ele>
        <time>2020-02-12T17:03:07Z</time>
      </trkpt>
      <trkpt lat="45.6431" lon="4.36849">
        <ele>531</ele>
        <time>2020-02-12T17:03:27Z</time>
      </trkpt>
      <trkpt lat="45.64297" lon="4.3686">
        <ele>531</ele>
        <time>2020-02-12T17:03:30Z</time>
      </trkpt>
      <trkpt lat="45.64283" lon="4.36868">
        <ele>531</ele>
        <time>2020-02-12T17:03:33Z</time>
      </trkpt>
      <trkpt lat="45.64224" lon="4.3689">
        <ele>531</ele>
        <time>2020-02-12T17:03:44Z</time>
      </trkpt>
      <trkpt lat="45.64205" lon="4.36901">
        <ele>532</ele>
        <time>2020-02-12T17:03:47Z</time>
      </trkpt>
      <trkpt lat="45.64171" lon="4.36937">
        <ele>535</ele>
        <time>2020-02-12T17:03:55Z</time>
      </trkpt>
      <trkpt lat="45.64145" lon="4.36976">
        <ele>539</ele>
        <time>2020-02-12T17:04:01Z</time>
      </trkpt>
      <trkpt lat="45.64128" lon="4.37017">
        <ele>541</ele>
        <time>2020-02-12T17:04:07Z</time>
      </trkpt>
      <trkpt lat="45.64104" lon="4.37165">
        <ele>547</ele>
        <time>2020-02-12T17:04:26Z</time>
      </trkpt>
      <trkpt lat="45.6409" lon="4.37223">
        <ele>549</ele>
        <time>2020-02-12T17:04:34Z</time>
      </trkpt>
      <trkpt lat="45.64029" lon="4.37374">
        <ele>561</ele>
        <time>2020-02-12T17:04:56Z</time>
      </trkpt>
      <trkpt lat="45.63988" lon="4.37515">
        <ele>564</ele>
        <time>2020-02-12T17:05:15Z</time>
      </trkpt>
      <trkpt lat="45.63962" lon="4.37569">
        <ele>565</ele>
        <time>2020-02-12T17:05:23Z</time>
      </trkpt>
      <trkpt lat="45.63883" lon="4.37699">
        <ele>574</ele>
        <time>2020-02-12T17:05:44Z</time>
      </trkpt>
      <trkpt lat="45.638" lon="4.37893">
        <ele>579</ele>
        <time>2020-02-12T17:06:12Z</time>
      </trkpt>
      <trkpt lat="45.63791" lon="4.3789">
        <ele>579</ele>
        <time>2020-02-12T17:06:14Z</time>
      </trkpt>
      <trkpt lat="45.63784" lon="4.37892">
        <ele>579</ele>
        <time>2020-02-12T17:06:15Z</time>
      </trkpt>
      <trkpt lat="45.6378" lon="4.37895">
        <ele>579</ele>
        <time>2020-02-12T17:06:16Z</time>
      </trkpt>
      <trkpt lat="45.63773" lon="4.37909">
        <ele>579</ele>
        <time>2020-02-12T17:06:18Z</time>
      </trkpt>
      <trkpt lat="45.63773" lon="4.37927">
        <ele>580</ele>
        <time>2020-02-12T17:06:21Z</time>
      </trkpt>
      <trkpt lat="45.63777" lon="4.37937">
        <ele>581</ele>
        <time>2020-02-12T17:06:22Z</time>
      </trkpt>
      <trkpt lat="45.63783" lon="4.37942">
        <ele>581</ele>
        <time>2020-02-12T17:06:23Z</time>
      </trkpt>
      <trkpt lat="45.63762" lon="4.37992">
        <ele>582</ele>
        <time>2020-02-12T17:06:30Z</time>
      </trkpt>
      <trkpt lat="45.63744" lon="4.38045">
        <ele>584</ele>
        <time>2020-02-12T17:06:38Z</time>
      </trkpt>
      <trkpt lat="45.63738" lon="4.38072">
        <ele>586</ele>
        <time>2020-02-12T17:06:41Z</time>
      </trkpt>
      <trkpt lat="45.63735" lon="4.38123">
        <ele>588</ele>
        <time>2020-02-12T17:06:48Z</time>
      </trkpt>
      <trkpt lat="45.63739" lon="4.3816">
        <ele>590</ele>
        <time>2020-02-12T17:06:52Z</time>
      </trkpt>
      <trkpt lat="45.63772" lon="4.38325">
        <ele>598</ele>
        <time>2020-02-12T17:07:14Z</time>
      </trkpt>
      <trkpt lat="45.63776" lon="4.38376">
        <ele>599</ele>
        <time>2020-02-12T17:07:20Z</time>
      </trkpt>
      <trkpt lat="45.63774" lon="4.38429">
        <ele>600</ele>
        <time>2020-02-12T17:07:27Z</time>
      </trkpt>
      <trkpt lat="45.6377" lon="4.38458">
        <ele>601</ele>
        <time>2020-02-12T17:07:30Z</time>
      </trkpt>
      <trkpt lat="45.63758" lon="4.38511">
        <ele>602</ele>
        <time>2020-02-12T17:07:37Z</time>
      </trkpt>
      <trkpt lat="45.63684" lon="4.38789">
        <ele>611</ele>
        <time>2020-02-12T17:08:14Z</time>
      </trkpt>
      <trkpt lat="45.63675" lon="4.38798">
        <ele>611</ele>
        <time>2020-02-12T17:08:16Z</time>
      </trkpt>
      <trkpt lat="45.63671" lon="4.38792">
        <ele>611</ele>
        <time>2020-02-12T17:08:17Z</time>
      </trkpt>
      <trkpt lat="45.63662" lon="4.3879">
        <ele>610</ele>
        <time>2020-02-12T17:08:19Z</time>
      </trkpt>
      <trkpt lat="45.63656" lon="4.38797">
        <ele>611</ele>
        <time>2020-02-12T17:08:20Z</time>
      </trkpt>
      <trkpt lat="45.63655" lon="4.38806">
        <ele>611</ele>
        <time>2020-02-12T17:08:21Z</time>
      </trkpt>
      <trkpt lat="45.63645" lon="4.38804">
        <ele>611</ele>
        <time>2020-02-12T17:08:23Z</time>
      </trkpt>
      <trkpt lat="45.63633" lon="4.38795">
        <ele>610</ele>
        <time>2020-02-12T17:08:26Z</time>
      </trkpt>
      <trkpt lat="45.63547" lon="4.38705">
        <ele>608</ele>
        <time>2020-02-12T17:08:45Z</time>
      </trkpt>
      <trkpt lat="45.63542" lon="4.38851">
        <ele>609</ele>
        <time>2020-02-12T17:09:03Z</time>
      </trkpt>
      <trkpt lat="45.63521" lon="4.38939">
        <ele>612</ele>
        <time>2020-02-12T17:09:14Z</time>
      </trkpt>
      <trkpt lat="45.63513" lon="4.39063">
        <ele>611</ele>
        <time>2020-02-12T17:09:30Z</time>
      </trkpt>
      <trkpt lat="45.63488" lon="4.39285">
        <ele>612</ele>
        <time>2020-02-12T17:09:58Z</time>
      </trkpt>
      <trkpt lat="45.63448" lon="4.39519">
        <ele>613</ele>
        <time>2020-02-12T17:10:28Z</time>
      </trkpt>
      <trkpt lat="45.63446" lon="4.3957">
        <ele>613</ele>
        <time>2020-02-12T17:10:34Z</time>
      </trkpt>
      <trkpt lat="45.63447" lon="4.3965">
        <ele>613</ele>
        <time>2020-02-12T17:10:44Z</time>
      </trkpt>
      <trkpt lat="45.63459" lon="4.39797">
        <ele>606</ele>
        <time>2020-02-12T17:11:02Z</time>
      </trkpt>
      <trkpt lat="45.63455" lon="4.39845">
        <ele>604</ele>
        <time>2020-02-12T17:11:08Z</time>
      </trkpt>
      <trkpt lat="45.63418" lon="4.40018">
        <ele>600</ele>
        <time>2020-02-12T17:11:31Z</time>
      </trkpt>
      <trkpt lat="45.63376" lon="4.40161">
        <ele>594</ele>
        <time>2020-02-12T17:11:50Z</time>
      </trkpt>
      <trkpt lat="45.63368" lon="4.40176">
        <ele>594</ele>
        <time>2020-02-12T17:11:53Z</time>
      </trkpt>
      <trkpt lat="45.63346" lon="4.40205">
        <ele>593</ele>
        <time>2020-02-12T17:11:58Z</time>
      </trkpt>
      <trkpt lat="45.63283" lon="4.4026">
        <ele>587</ele>
        <time>2020-02-12T17:12:11Z</time>
      </trkpt>
      <trkpt lat="45.63262" lon="4.40283">
        <ele>585</ele>
        <time>2020-02-12T17:12:16Z</time>
      </trkpt>
      <trkpt lat="45.63247" lon="4.40305">
        <ele>584</ele>
        <time>2020-02-12T17:12:20Z</time>
      </trkpt>
      <trkpt lat="45.63237" lon="4.40326">
        <ele>584</ele>
        <time>2020-02-12T17:12:23Z</time>
      </trkpt>
      <trkpt lat="45.6323" lon="4.4035">
        <ele>583</ele>
        <time>2020-02-12T17:12:26Z</time>
      </trkpt>
      <trkpt lat="45.63224" lon="4.40411">
        <ele>581</ele>
        <time>2020-02-12T17:12:34Z</time>
      </trkpt>
      <trkpt lat="45.63225" lon="4.40448">
        <ele>578</ele>
        <time>2020-02-12T17:12:38Z</time>
      </trkpt>
      <trkpt lat="45.63244" lon="4.40838">
        <ele>549</ele>
        <time>2020-02-12T17:13:27Z</time>
      </trkpt>
      <trkpt lat="45.6324" lon="4.4092">
        <ele>546</ele>
        <time>2020-02-12T17:13:37Z</time>
      </trkpt>
      <trkpt lat="45.63234" lon="4.40957">
        <ele>544</ele>
        <time>2020-02-12T17:13:42Z</time>
      </trkpt>
      <trkpt lat="45.63222" lon="4.41007">
        <ele>543</ele>
        <time>2020-02-12T17:13:48Z</time>
      </trkpt>
      <trkpt lat="45.63209" lon="4.41044">
        <ele>542</ele>
        <time>2020-02-12T17:13:54Z</time>
      </trkpt>
      <trkpt lat="45.6318" lon="4.41103">
        <ele>545</ele>
        <time>2020-02-12T17:14:03Z</time>
      </trkpt>
      <trkpt lat="45.63157" lon="4.41139">
        <ele>549</ele>
        <time>2020-02-12T17:14:09Z</time>
      </trkpt>
      <trkpt lat="45.63099" lon="4.4122">
        <ele>555</ele>
        <time>2020-02-12T17:14:23Z</time>
      </trkpt>
      <trkpt lat="45.63078" lon="4.41252">
        <ele>557</ele>
        <time>2020-02-12T17:14:29Z</time>
      </trkpt>
      <trkpt lat="45.63069" lon="4.4127">
        <ele>558</ele>
        <time>2020-02-12T17:14:31Z</time>
      </trkpt>
      <trkpt lat="45.63049" lon="4.4133">
        <ele>559</ele>
        <time>2020-02-12T17:14:40Z</time>
      </trkpt>
      <trkpt lat="45.63044" lon="4.41381">
        <ele>559</ele>
        <time>2020-02-12T17:14:46Z</time>
      </trkpt>
      <trkpt lat="45.63044" lon="4.41438">
        <ele>558</ele>
        <time>2020-02-12T17:14:53Z</time>
      </trkpt>
      <trkpt lat="45.6305" lon="4.41488">
        <ele>558</ele>
        <time>2020-02-12T17:14:59Z</time>
      </trkpt>
      <trkpt lat="45.63086" lon="4.4169">
        <ele>547</ele>
        <time>2020-02-12T17:15:25Z</time>
      </trkpt>
      <trkpt lat="45.63097" lon="4.4177">
        <ele>544</ele>
        <time>2020-02-12T17:15:35Z</time>
      </trkpt>
      <trkpt lat="45.63107" lon="4.4188">
        <ele>543</ele>
        <time>2020-02-12T17:15:49Z</time>
      </trkpt>
      <trkpt lat="45.63143" lon="4.42515">
        <ele>538</ele>
        <time>2020-02-12T17:17:09Z</time>
      </trkpt>
      <trkpt lat="45.63147" lon="4.42618">
        <ele>542</ele>
        <time>2020-02-12T17:17:21Z</time>
      </trkpt>
      <trkpt lat="45.63157" lon="4.43203">
        <ele>552</ele>
        <time>2020-02-12T17:18:34Z</time>
      </trkpt>
      <trkpt lat="45.63153" lon="4.43287">
        <ele>554</ele>
        <time>2020-02-12T17:18:45Z</time>
      </trkpt>
      <trkpt lat="45.63146" lon="4.43349">
        <ele>555</ele>
        <time>2020-02-12T17:18:52Z</time>
      </trkpt>
      <trkpt lat="45.63104" lon="4.43573">
        <ele>564</ele>
        <time>2020-02-12T17:19:21Z</time>
      </trkpt>
      <trkpt lat="45.63098" lon="4.43622">
        <ele>566</ele>
        <time>2020-02-12T17:19:27Z</time>
      </trkpt>
      <trkpt lat="45.63094" lon="4.4374">
        <ele>567</ele>
        <time>2020-02-12T17:19:42Z</time>
      </trkpt>
      <trkpt lat="45.63102" lon="4.43917">
        <ele>568</ele>
        <time>2020-02-12T17:20:04Z</time>
      </trkpt>
      <trkpt lat="45.63105" lon="4.44023">
        <ele>568</ele>
        <time>2020-02-12T17:20:17Z</time>
      </trkpt>
      <trkpt lat="45.63104" lon="4.44067">
        <ele>567</ele>
        <time>2020-02-12T17:20:23Z</time>
      </trkpt>
      <trkpt lat="45.631" lon="4.44086">
        <ele>566</ele>
        <time>2020-02-12T17:20:25Z</time>
      </trkpt>
      <trkpt lat="45.63087" lon="4.44121">
        <ele>566</ele>
        <time>2020-02-12T17:20:30Z</time>
      </trkpt>
      <trkpt lat="45.63068" lon="4.44147">
        <ele>565</ele>
        <time>2020-02-12T17:20:35Z</time>
      </trkpt>
      <trkpt lat="45.63044" lon="4.44164">
        <ele>564</ele>
        <time>2020-02-12T17:20:40Z</time>
      </trkpt>
      <trkpt lat="45.63001" lon="4.44184">
        <ele>564</ele>
        <time>2020-02-12T17:20:48Z</time>
      </trkpt>
      <trkpt lat="45.62971" lon="4.44208">
        <ele>565</ele>
        <time>2020-02-12T17:20:54Z</time>
      </trkpt>
      <trkpt lat="45.62948" lon="4.44237">
        <ele>567</ele>
        <time>2020-02-12T17:20:59Z</time>
      </trkpt>
      <trkpt lat="45.62869" lon="4.44393">
        <ele>576</ele>
        <time>2020-02-12T17:21:23Z</time>
      </trkpt>
      <trkpt lat="45.62864" lon="4.44408">
        <ele>577</ele>
        <time>2020-02-12T17:21:25Z</time>
      </trkpt>
      <trkpt lat="45.62858" lon="4.44451">
        <ele>578</ele>
        <time>2020-02-12T17:21:31Z</time>
      </trkpt>
      <trkpt lat="45.62861" lon="4.44532">
        <ele>580</ele>
        <time>2020-02-12T17:21:41Z</time>
      </trkpt>
      <trkpt lat="45.62867" lon="4.44565">
        <ele>582</ele>
        <time>2020-02-12T17:21:45Z</time>
      </trkpt>
      <trkpt lat="45.62876" lon="4.44589">
        <ele>583</ele>
        <time>2020-02-12T17:21:49Z</time>
      </trkpt>
      <trkpt lat="45.6294" lon="4.4468">
        <ele>577</ele>
        <time>2020-02-12T17:22:05Z</time>
      </trkpt>
      <trkpt lat="45.62965" lon="4.44709">
        <ele>575</ele>
        <time>2020-02-12T17:22:10Z</time>
      </trkpt>
      <trkpt lat="45.62983" lon="4.44724">
        <ele>574</ele>
        <time>2020-02-12T17:22:14Z</time>
      </trkpt>
      <trkpt lat="45.63029" lon="4.44755">
        <ele>575</ele>
        <time>2020-02-12T17:22:23Z</time>
      </trkpt>
      <trkpt lat="45.63046" lon="4.4477">
        <ele>575</ele>
        <time>2020-02-12T17:22:27Z</time>
      </trkpt>
      <trkpt lat="45.63084" lon="4.44829">
        <ele>574</ele>
        <time>2020-02-12T17:22:37Z</time>
      </trkpt>
      <trkpt lat="45.63148" lon="4.44942">
        <ele>573</ele>
        <time>2020-02-12T17:22:55Z</time>
      </trkpt>
      <trkpt lat="45.63167" lon="4.44971">
        <ele>572</ele>
        <time>2020-02-12T17:23:00Z</time>
      </trkpt>
      <trkpt lat="45.63195" lon="4.44996">
        <ele>571</ele>
        <time>2020-02-12T17:23:06Z</time>
      </trkpt>
      <trkpt lat="45.63238" lon="4.45026">
        <ele>571</ele>
        <time>2020-02-12T17:23:14Z</time>
      </trkpt>
      <trkpt lat="45.63258" lon="4.45048">
        <ele>571</ele>
        <time>2020-02-12T17:23:19Z</time>
      </trkpt>
      <trkpt lat="45.63266" lon="4.45062">
        <ele>571</ele>
        <time>2020-02-12T17:23:21Z</time>
      </trkpt>
      <trkpt lat="45.63284" lon="4.45108">
        <ele>570</ele>
        <time>2020-02-12T17:23:27Z</time>
      </trkpt>
      <trkpt lat="45.63287" lon="4.45123">
        <ele>569</ele>
        <time>2020-02-12T17:23:29Z</time>
      </trkpt>
      <trkpt lat="45.63288" lon="4.45172">
        <ele>566</ele>
        <time>2020-02-12T17:23:35Z</time>
      </trkpt>
      <trkpt lat="45.63278" lon="4.45206">
        <ele>565</ele>
        <time>2020-02-12T17:23:40Z</time>
      </trkpt>
      <trkpt lat="45.63255" lon="4.45241">
        <ele>565</ele>
        <time>2020-02-12T17:23:46Z</time>
      </trkpt>
      <trkpt lat="45.63246" lon="4.45247">
        <ele>565</ele>
        <time>2020-02-12T17:23:48Z</time>
      </trkpt>
      <trkpt lat="45.6322" lon="4.45257">
        <ele>565</ele>
        <time>2020-02-12T17:23:53Z</time>
      </trkpt>
      <trkpt lat="45.63203" lon="4.45274">
        <ele>567</ele>
        <time>2020-02-12T17:23:56Z</time>
      </trkpt>
      <trkpt lat="45.6318" lon="4.45305">
        <ele>572</ele>
        <time>2020-02-12T17:24:02Z</time>
      </trkpt>
      <trkpt lat="45.63164" lon="4.45322">
        <ele>574</ele>
        <time>2020-02-12T17:24:05Z</time>
      </trkpt>
      <trkpt lat="45.63135" lon="4.45332">
        <ele>573</ele>
        <time>2020-02-12T17:24:11Z</time>
      </trkpt>
      <trkpt lat="45.63108" lon="4.45338">
        <ele>571</ele>
        <time>2020-02-12T17:24:16Z</time>
      </trkpt>
      <trkpt lat="45.63092" lon="4.45349">
        <ele>570</ele>
        <time>2020-02-12T17:24:19Z</time>
      </trkpt>
      <trkpt lat="45.6308" lon="4.45367">
        <ele>571</ele>
        <time>2020-02-12T17:24:22Z</time>
      </trkpt>
      <trkpt lat="45.63074" lon="4.45386">
        <ele>572</ele>
        <time>2020-02-12T17:24:24Z</time>
      </trkpt>
      <trkpt lat="45.63069" lon="4.45421">
        <ele>574</ele>
        <time>2020-02-12T17:24:29Z</time>
      </trkpt>
      <trkpt lat="45.6307" lon="4.45445">
        <ele>574</ele>
        <time>2020-02-12T17:24:32Z</time>
      </trkpt>
      <trkpt lat="45.6308" lon="4.45509">
        <ele>576</ele>
        <time>2020-02-12T17:24:40Z</time>
      </trkpt>
      <trkpt lat="45.63076" lon="4.45521">
        <ele>576</ele>
        <time>2020-02-12T17:24:42Z</time>
      </trkpt>
      <trkpt lat="45.63069" lon="4.45517">
        <ele>575</ele>
        <time>2020-02-12T17:24:43Z</time>
      </trkpt>
      <trkpt lat="45.63065" lon="4.45518">
        <ele>575</ele>
        <time>2020-02-12T17:24:44Z</time>
      </trkpt>
      <trkpt lat="45.63059" lon="4.45525">
        <ele>574</ele>
        <time>2020-02-12T17:24:45Z</time>
      </trkpt>
      <trkpt lat="45.63059" lon="4.45541">
        <ele>575</ele>
        <time>2020-02-12T17:24:47Z</time>
      </trkpt>
      <trkpt lat="45.63067" lon="4.45549">
        <ele>576</ele>
        <time>2020-02-12T17:24:49Z</time>
      </trkpt>
      <trkpt lat="45.63064" lon="4.45554">
        <ele>576</ele>
        <time>2020-02-12T17:24:50Z</time>
      </trkpt>
      <trkpt lat="45.63056" lon="4.45611">
        <ele>576</ele>
        <time>2020-02-12T17:24:57Z</time>
      </trkpt>
      <trkpt lat="45.63043" lon="4.45676">
        <ele>577</ele>
        <time>2020-02-12T17:25:05Z</time>
      </trkpt>
      <trkpt lat="45.62974" lon="4.45938">
        <ele>570</ele>
        <time>2020-02-12T17:25:40Z</time>
      </trkpt>
      <trkpt lat="45.62956" lon="4.46025">
        <ele>571</ele>
        <time>2020-02-12T17:25:51Z</time>
      </trkpt>
      <trkpt lat="45.62954" lon="4.46057">
        <ele>570</ele>
        <time>2020-02-12T17:25:55Z</time>
      </trkpt>
      <trkpt lat="45.62963" lon="4.46096">
        <ele>571</ele>
        <time>2020-02-12T17:26:01Z</time>
      </trkpt>
      <trkpt lat="45.62969" lon="4.46106">
        <ele>571</ele>
        <time>2020-02-12T17:26:02Z</time>
      </trkpt>
      <trkpt lat="45.63006" lon="4.46146">
        <ele>575</ele>
        <time>2020-02-12T17:26:10Z</time>
      </trkpt>
      <trkpt lat="45.63011" lon="4.46155">
        <ele>575</ele>
        <time>2020-02-12T17:26:12Z</time>
      </trkpt>
      <trkpt lat="45.63017" lon="4.46179">
        <ele>574</ele>
        <time>2020-02-12T17:26:15Z</time>
      </trkpt>
      <trkpt lat="45.63019" lon="4.46252">
        <ele>570</ele>
        <time>2020-02-12T17:26:24Z</time>
      </trkpt>
      <trkpt lat="45.63016" lon="4.46301">
        <ele>569</ele>
        <time>2020-02-12T17:26:30Z</time>
      </trkpt>
      <trkpt lat="45.62988" lon="4.46427">
        <ele>565</ele>
        <time>2020-02-12T17:26:47Z</time>
      </trkpt>
      <trkpt lat="45.62978" lon="4.46497">
        <ele>562</ele>
        <time>2020-02-12T17:26:56Z</time>
      </trkpt>
      <trkpt lat="45.62983" lon="4.46552">
        <ele>560</ele>
        <time>2020-02-12T17:27:03Z</time>
      </trkpt>
      <trkpt lat="45.62992" lon="4.46583">
        <ele>559</ele>
        <time>2020-02-12T17:27:07Z</time>
      </trkpt>
      <trkpt lat="45.63009" lon="4.46627">
        <ele>555</ele>
        <time>2020-02-12T17:27:13Z</time>
      </trkpt>
      <trkpt lat="45.63017" lon="4.46658">
        <ele>551</ele>
        <time>2020-02-12T17:27:17Z</time>
      </trkpt>
      <trkpt lat="45.6302" lon="4.46686">
        <ele>548</ele>
        <time>2020-02-12T17:27:21Z</time>
      </trkpt>
      <trkpt lat="45.63018" lon="4.46738">
        <ele>543</ele>
        <time>2020-02-12T17:27:27Z</time>
      </trkpt>
      <trkpt lat="45.63006" lon="4.46778">
        <ele>544</ele>
        <time>2020-02-12T17:27:32Z</time>
      </trkpt>
      <trkpt lat="45.62998" lon="4.46796">
        <ele>546</ele>
        <time>2020-02-12T17:27:35Z</time>
      </trkpt>
      <trkpt lat="45.62984" lon="4.46818">
        <ele>546</ele>
        <time>2020-02-12T17:27:39Z</time>
      </trkpt>
      <trkpt lat="45.62957" lon="4.46845">
        <ele>546</ele>
        <time>2020-02-12T17:27:45Z</time>
      </trkpt>
      <trkpt lat="45.62879" lon="4.46901">
        <ele>544</ele>
        <time>2020-02-12T17:28:00Z</time>
      </trkpt>
      <trkpt lat="45.62852" lon="4.46923">
        <ele>544</ele>
        <time>2020-02-12T17:28:06Z</time>
      </trkpt>
      <trkpt lat="45.6283" lon="4.46944">
        <ele>543</ele>
        <time>2020-02-12T17:28:10Z</time>
      </trkpt>
      <trkpt lat="45.62757" lon="4.47032">
        <ele>538</ele>
        <time>2020-02-12T17:28:27Z</time>
      </trkpt>
      <trkpt lat="45.62726" lon="4.47075">
        <ele>536</ele>
        <time>2020-02-12T17:28:35Z</time>
      </trkpt>
      <trkpt lat="45.62682" lon="4.47165">
        <ele>534</ele>
        <time>2020-02-12T17:28:49Z</time>
      </trkpt>
      <trkpt lat="45.62653" lon="4.47205">
        <ele>533</ele>
        <time>2020-02-12T17:28:56Z</time>
      </trkpt>
      <trkpt lat="45.62634" lon="4.47225">
        <ele>532</ele>
        <time>2020-02-12T17:29:00Z</time>
      </trkpt>
      <trkpt lat="45.62613" lon="4.47252">
        <ele>532</ele>
        <time>2020-02-12T17:29:05Z</time>
      </trkpt>
      <trkpt lat="45.6259" lon="4.473">
        <ele>534</ele>
        <time>2020-02-12T17:29:12Z</time>
      </trkpt>
      <trkpt lat="45.62558" lon="4.474">
        <ele>536</ele>
        <time>2020-02-12T17:29:26Z</time>
      </trkpt>
      <trkpt lat="45.62537" lon="4.4748">
        <ele>535</ele>
        <time>2020-02-12T17:29:37Z</time>
      </trkpt>
      <trkpt lat="45.62399" lon="4.48212">
        <ele>537</ele>
        <time>2020-02-12T17:31:11Z</time>
      </trkpt>
      <trkpt lat="45.62395" lon="4.4826">
        <ele>539</ele>
        <time>2020-02-12T17:31:17Z</time>
      </trkpt>
      <trkpt lat="45.624" lon="4.48305">
        <ele>539</ele>
        <time>2020-02-12T17:31:23Z</time>
      </trkpt>
      <trkpt lat="45.62413" lon="4.48342">
        <ele>540</ele>
        <time>2020-02-12T17:31:28Z</time>
      </trkpt>
      <trkpt lat="45.62431" lon="4.48377">
        <ele>542</ele>
        <time>2020-02-12T17:31:33Z</time>
      </trkpt>
      <trkpt lat="45.62438" lon="4.48397">
        <ele>544</ele>
        <time>2020-02-12T17:31:36Z</time>
      </trkpt>
      <trkpt lat="45.62442" lon="4.4842">
        <ele>545</ele>
        <time>2020-02-12T17:31:39Z</time>
      </trkpt>
      <trkpt lat="45.62445" lon="4.48463">
        <ele>547</ele>
        <time>2020-02-12T17:31:44Z</time>
      </trkpt>
      <trkpt lat="45.62435" lon="4.48503">
        <ele>547</ele>
        <time>2020-02-12T17:31:50Z</time>
      </trkpt>
      <trkpt lat="45.62426" lon="4.48522">
        <ele>548</ele>
        <time>2020-02-12T17:31:53Z</time>
      </trkpt>
      <trkpt lat="45.62392" lon="4.48578">
        <ele>549</ele>
        <time>2020-02-12T17:32:02Z</time>
      </trkpt>
      <trkpt lat="45.62365" lon="4.48615">
        <ele>549</ele>
        <time>2020-02-12T17:32:08Z</time>
      </trkpt>
      <trkpt lat="45.62311" lon="4.48721">
        <ele>550</ele>
        <time>2020-02-12T17:32:25Z</time>
      </trkpt>
      <trkpt lat="45.62289" lon="4.48797">
        <ele>550</ele>
        <time>2020-02-12T17:32:35Z</time>
      </trkpt>
      <trkpt lat="45.62283" lon="4.48847">
        <ele>551</ele>
        <time>2020-02-12T17:32:41Z</time>
      </trkpt>
      <trkpt lat="45.62287" lon="4.48897">
        <ele>551</ele>
        <time>2020-02-12T17:32:48Z</time>
      </trkpt>
      <trkpt lat="45.62297" lon="4.48928">
        <ele>552</ele>
        <time>2020-02-12T17:32:52Z</time>
      </trkpt>
      <trkpt lat="45.62311" lon="4.48959">
        <ele>552</ele>
        <time>2020-02-12T17:32:56Z</time>
      </trkpt>
      <trkpt lat="45.62344" lon="4.49018">
        <ele>554</ele>
        <time>2020-02-12T17:33:06Z</time>
      </trkpt>
      <trkpt lat="45.62353" lon="4.4904">
        <ele>554</ele>
        <time>2020-02-12T17:33:09Z</time>
      </trkpt>
      <trkpt lat="45.62358" lon="4.49063">
        <ele>554</ele>
        <time>2020-02-12T17:33:12Z</time>
      </trkpt>
      <trkpt lat="45.62361" lon="4.49084">
        <ele>553</ele>
        <time>2020-02-12T17:33:15Z</time>
      </trkpt>
      <trkpt lat="45.62366" lon="4.4938">
        <ele>551</ele>
        <time>2020-02-12T17:33:52Z</time>
      </trkpt>
      <trkpt lat="45.6237" lon="4.49459">
        <ele>550</ele>
        <time>2020-02-12T17:34:01Z</time>
      </trkpt>
      <trkpt lat="45.62379" lon="4.49508">
        <ele>549</ele>
        <time>2020-02-12T17:34:08Z</time>
      </trkpt>
      <trkpt lat="45.62419" lon="4.49624">
        <ele>547</ele>
        <time>2020-02-12T17:34:24Z</time>
      </trkpt>
      <trkpt lat="45.62425" lon="4.49669">
        <ele>547</ele>
        <time>2020-02-12T17:34:29Z</time>
      </trkpt>
      <trkpt lat="45.62421" lon="4.49711">
        <ele>549</ele>
        <time>2020-02-12T17:34:35Z</time>
      </trkpt>
      <trkpt lat="45.62415" lon="4.49731">
        <ele>549</ele>
        <time>2020-02-12T17:34:37Z</time>
      </trkpt>
      <trkpt lat="45.62407" lon="4.4975">
        <ele>549</ele>
        <time>2020-02-12T17:34:40Z</time>
      </trkpt>
      <trkpt lat="45.62353" lon="4.4985">
        <ele>550</ele>
        <time>2020-02-12T17:34:56Z</time>
      </trkpt>
      <trkpt lat="45.62335" lon="4.49896">
        <ele>549</ele>
        <time>2020-02-12T17:35:02Z</time>
      </trkpt>
      <trkpt lat="45.62325" lon="4.49942">
        <ele>550</ele>
        <time>2020-02-12T17:35:08Z</time>
      </trkpt>
      <trkpt lat="45.62328" lon="4.49989">
        <ele>552</ele>
        <time>2020-02-12T17:35:14Z</time>
      </trkpt>
      <trkpt lat="45.62334" lon="4.50012">
        <ele>552</ele>
        <time>2020-02-12T17:35:17Z</time>
      </trkpt>
      <trkpt lat="45.6235" lon="4.50057">
        <ele>554</ele>
        <time>2020-02-12T17:35:24Z</time>
      </trkpt>
      <trkpt lat="45.62361" lon="4.50076">
        <ele>555</ele>
        <time>2020-02-12T17:35:27Z</time>
      </trkpt>
      <trkpt lat="45.62374" lon="4.50091">
        <ele>556</ele>
        <time>2020-02-12T17:35:30Z</time>
      </trkpt>
      <trkpt lat="45.62387" lon="4.50101">
        <ele>557</ele>
        <time>2020-02-12T17:35:32Z</time>
      </trkpt>
      <trkpt lat="45.62419" lon="4.50112">
        <ele>559</ele>
        <time>2020-02-12T17:35:38Z</time>
      </trkpt>
      <trkpt lat="45.62526" lon="4.50139">
        <ele>565</ele>
        <time>2020-02-12T17:35:58Z</time>
      </trkpt>
      <trkpt lat="45.62598" lon="4.50165">
        <ele>568</ele>
        <time>2020-02-12T17:36:11Z</time>
      </trkpt>
      <trkpt lat="45.62629" lon="4.50181">
        <ele>570</ele>
        <time>2020-02-12T17:36:17Z</time>
      </trkpt>
      <trkpt lat="45.62643" lon="4.50192">
        <ele>570</ele>
        <time>2020-02-12T17:36:19Z</time>
      </trkpt>
      <trkpt lat="45.62655" lon="4.50206">
        <ele>569</ele>
        <time>2020-02-12T17:36:22Z</time>
      </trkpt>
      <trkpt lat="45.62678" lon="4.50239">
        <ele>566</ele>
        <time>2020-02-12T17:36:28Z</time>
      </trkpt>
      <trkpt lat="45.62696" lon="4.50277">
        <ele>566</ele>
        <time>2020-02-12T17:36:34Z</time>
      </trkpt>
      <trkpt lat="45.62701" lon="4.50297">
        <ele>566</ele>
        <time>2020-02-12T17:36:36Z</time>
      </trkpt>
      <trkpt lat="45.62701" lon="4.50338">
        <ele>565</ele>
        <time>2020-02-12T17:36:41Z</time>
      </trkpt>
      <trkpt lat="45.62678" lon="4.50502">
        <ele>564</ele>
        <time>2020-02-12T17:37:02Z</time>
      </trkpt>
      <trkpt lat="45.6265" lon="4.50643">
        <ele>570</ele>
        <time>2020-02-12T17:37:21Z</time>
      </trkpt>
      <trkpt lat="45.62628" lon="4.50724">
        <ele>568</ele>
        <time>2020-02-12T17:37:31Z</time>
      </trkpt>
      <trkpt lat="45.62619" lon="4.50745">
        <ele>567</ele>
        <time>2020-02-12T17:37:34Z</time>
      </trkpt>
      <trkpt lat="45.62586" lon="4.50802">
        <ele>562</ele>
        <time>2020-02-12T17:37:44Z</time>
      </trkpt>
      <trkpt lat="45.62571" lon="4.50842">
        <ele>562</ele>
        <time>2020-02-12T17:37:49Z</time>
      </trkpt>
      <trkpt lat="45.62567" lon="4.50864">
        <ele>561</ele>
        <time>2020-02-12T17:37:52Z</time>
      </trkpt>
      <trkpt lat="45.62572" lon="4.50994">
        <ele>563</ele>
        <time>2020-02-12T17:38:08Z</time>
      </trkpt>
      <trkpt lat="45.62585" lon="4.51156">
        <ele>572</ele>
        <time>2020-02-12T17:38:29Z</time>
      </trkpt>
      <trkpt lat="45.62588" lon="4.51234">
        <ele>576</ele>
        <time>2020-02-12T17:38:38Z</time>
      </trkpt>
      <trkpt lat="45.62584" lon="4.51308">
        <ele>578</ele>
        <time>2020-02-12T17:38:48Z</time>
      </trkpt>
      <trkpt lat="45.62573" lon="4.51352">
        <ele>578</ele>
        <time>2020-02-12T17:38:53Z</time>
      </trkpt>
      <trkpt lat="45.62554" lon="4.51385">
        <ele>579</ele>
        <time>2020-02-12T17:38:59Z</time>
      </trkpt>
      <trkpt lat="45.62541" lon="4.514">
        <ele>579</ele>
        <time>2020-02-12T17:39:02Z</time>
      </trkpt>
      <trkpt lat="45.62502" lon="4.51433">
        <ele>579</ele>
        <time>2020-02-12T17:39:10Z</time>
      </trkpt>
      <trkpt lat="45.62479" lon="4.51456">
        <ele>580</ele>
        <time>2020-02-12T17:39:15Z</time>
      </trkpt>
      <trkpt lat="45.62458" lon="4.51488">
        <ele>580</ele>
        <time>2020-02-12T17:39:20Z</time>
      </trkpt>
      <trkpt lat="45.62428" lon="4.51569">
        <ele>582</ele>
        <time>2020-02-12T17:39:32Z</time>
      </trkpt>
      <trkpt lat="45.62417" lon="4.51622">
        <ele>582</ele>
        <time>2020-02-12T17:39:38Z</time>
      </trkpt>
      <trkpt lat="45.62415" lon="4.51648">
        <ele>583</ele>
        <time>2020-02-12T17:39:42Z</time>
      </trkpt>
      <trkpt lat="45.62419" lon="4.51678">
        <ele>584</ele>
        <time>2020-02-12T17:39:45Z</time>
      </trkpt>
      <trkpt lat="45.62424" lon="4.51691">
        <ele>584</ele>
        <time>2020-02-12T17:39:47Z</time>
      </trkpt>
      <trkpt lat="45.62469" lon="4.51781">
        <ele>588</ele>
        <time>2020-02-12T17:40:01Z</time>
      </trkpt>
      <trkpt lat="45.62476" lon="4.518">
        <ele>588</ele>
        <time>2020-02-12T17:40:04Z</time>
      </trkpt>
      <trkpt lat="45.62483" lon="4.51823">
        <ele>588</ele>
        <time>2020-02-12T17:40:07Z</time>
      </trkpt>
      <trkpt lat="45.62492" lon="4.51875">
        <ele>586</ele>
        <time>2020-02-12T17:40:14Z</time>
      </trkpt>
      <trkpt lat="45.62499" lon="4.51902">
        <ele>585</ele>
        <time>2020-02-12T17:40:17Z</time>
      </trkpt>
      <trkpt lat="45.62512" lon="4.51936">
        <ele>585</ele>
        <time>2020-02-12T17:40:22Z</time>
      </trkpt>
      <trkpt lat="45.6252" lon="4.5195">
        <ele>585</ele>
        <time>2020-02-12T17:40:24Z</time>
      </trkpt>
      <trkpt lat="45.62531" lon="4.51963">
        <ele>585</ele>
        <time>2020-02-12T17:40:27Z</time>
      </trkpt>
      <trkpt lat="45.62576" lon="4.5199">
        <ele>589</ele>
        <time>2020-02-12T17:40:35Z</time>
      </trkpt>
      <trkpt lat="45.62609" lon="4.52018">
        <ele>593</ele>
        <time>2020-02-12T17:40:42Z</time>
      </trkpt>
      <trkpt lat="45.62645" lon="4.52074">
        <ele>594</ele>
        <time>2020-02-12T17:40:52Z</time>
      </trkpt>
      <trkpt lat="45.62667" lon="4.52114">
        <ele>594</ele>
        <time>2020-02-12T17:40:58Z</time>
      </trkpt>
      <trkpt lat="45.62693" lon="4.5218">
        <ele>592</ele>
        <time>2020-02-12T17:41:07Z</time>
      </trkpt>
      <trkpt lat="45.62711" lon="4.52249">
        <ele>590</ele>
        <time>2020-02-12T17:41:17Z</time>
      </trkpt>
      <trkpt lat="45.62732" lon="4.52308">
        <ele>588</ele>
        <time>2020-02-12T17:41:25Z</time>
      </trkpt>
      <trkpt lat="45.62745" lon="4.52328">
        <ele>588</ele>
        <time>2020-02-12T17:41:28Z</time>
      </trkpt>
      <trkpt lat="45.62792" lon="4.52379">
        <ele>590</ele>
        <time>2020-02-12T17:41:39Z</time>
      </trkpt>
      <trkpt lat="45.62809" lon="4.52406">
        <ele>588</ele>
        <time>2020-02-12T17:41:43Z</time>
      </trkpt>
      <trkpt lat="45.62819" lon="4.52436">
        <ele>587</ele>
        <time>2020-02-12T17:41:47Z</time>
      </trkpt>
      <trkpt lat="45.62826" lon="4.52479">
        <ele>584</ele>
        <time>2020-02-12T17:41:53Z</time>
      </trkpt>
      <trkpt lat="45.62827" lon="4.525">
        <ele>582</ele>
        <time>2020-02-12T17:41:56Z</time>
      </trkpt>
      <trkpt lat="45.62823" lon="4.52542">
        <ele>584</ele>
        <time>2020-02-12T17:42:01Z</time>
      </trkpt>
      <trkpt lat="45.62786" lon="4.52692">
        <ele>591</ele>
        <time>2020-02-12T17:42:21Z</time>
      </trkpt>
      <trkpt lat="45.6275" lon="4.52807">
        <ele>588</ele>
        <time>2020-02-12T17:42:36Z</time>
      </trkpt>
      <trkpt lat="45.62726" lon="4.52905">
        <ele>590</ele>
        <time>2020-02-12T17:42:49Z</time>
      </trkpt>
      <trkpt lat="45.62723" lon="4.5296">
        <ele>589</ele>
        <time>2020-02-12T17:42:56Z</time>
      </trkpt>
      <trkpt lat="45.62737" lon="4.53024">
        <ele>589</ele>
        <time>2020-02-12T17:43:04Z</time>
      </trkpt>
      <trkpt lat="45.62749" lon="4.53046">
        <ele>589</ele>
        <time>2020-02-12T17:43:08Z</time>
      </trkpt>
      <trkpt lat="45.62769" lon="4.53066">
        <ele>591</ele>
        <time>2020-02-12T17:43:12Z</time>
      </trkpt>
      <trkpt lat="45.62804" lon="4.5309">
        <ele>594</ele>
        <time>2020-02-12T17:43:19Z</time>
      </trkpt>
      <trkpt lat="45.62823" lon="4.53116">
        <ele>595</ele>
        <time>2020-02-12T17:43:24Z</time>
      </trkpt>
      <trkpt lat="45.62833" lon="4.53152">
        <ele>593</ele>
        <time>2020-02-12T17:43:29Z</time>
      </trkpt>
      <trkpt lat="45.62833" lon="4.53189">
        <ele>592</ele>
        <time>2020-02-12T17:43:33Z</time>
      </trkpt>
      <trkpt lat="45.6282" lon="4.53251">
        <ele>592</ele>
        <time>2020-02-12T17:43:41Z</time>
      </trkpt>
      <trkpt lat="45.62701" lon="4.5371">
        <ele>600</ele>
        <time>2020-02-12T17:44:42Z</time>
      </trkpt>
      <trkpt lat="45.62675" lon="4.5377">
        <ele>603</ele>
        <time>2020-02-12T17:44:51Z</time>
      </trkpt>
      <trkpt lat="45.6263" lon="4.53837">
        <ele>605</ele>
        <time>2020-02-12T17:45:03Z</time>
      </trkpt>
      <trkpt lat="45.6262" lon="4.53856">
        <ele>605</ele>
        <time>2020-02-12T17:45:06Z</time>
      </trkpt>
      <trkpt lat="45.62607" lon="4.53895">
        <ele>607</ele>
        <time>2020-02-12T17:45:11Z</time>
      </trkpt>
      <trkpt lat="45.62601" lon="4.53921">
        <ele>608</ele>
        <time>2020-02-12T17:45:14Z</time>
      </trkpt>
      <trkpt lat="45.626" lon="4.53947">
        <ele>609</ele>
        <time>2020-02-12T17:45:18Z</time>
      </trkpt>
      <trkpt lat="45.62604" lon="4.53995">
        <ele>610</ele>
        <time>2020-02-12T17:45:24Z</time>
      </trkpt>
      <trkpt lat="45.62633" lon="4.54086">
        <ele>616</ele>
        <time>2020-02-12T17:45:36Z</time>
      </trkpt>
      <trkpt lat="45.62647" lon="4.54138">
        <ele>617</ele>
        <time>2020-02-12T17:45:43Z</time>
      </trkpt>
      <trkpt lat="45.62673" lon="4.54334">
        <ele>619</ele>
        <time>2020-02-12T17:46:08Z</time>
      </trkpt>
      <trkpt lat="45.6268" lon="4.5436">
        <ele>620</ele>
        <time>2020-02-12T17:46:11Z</time>
      </trkpt>
      <trkpt lat="45.62698" lon="4.54406">
        <ele>620</ele>
        <time>2020-02-12T17:46:18Z</time>
      </trkpt>
      <trkpt lat="45.62721" lon="4.5445">
        <ele>619</ele>
        <time>2020-02-12T17:46:25Z</time>
      </trkpt>
      <trkpt lat="45.6274" lon="4.54497">
        <ele>616</ele>
        <time>2020-02-12T17:46:31Z</time>
      </trkpt>
      <trkpt lat="45.62767" lon="4.54656">
        <ele>615</ele>
        <time>2020-02-12T17:46:52Z</time>
      </trkpt>
      <trkpt lat="45.6277" lon="4.54683">
        <ele>616</ele>
        <time>2020-02-12T17:46:55Z</time>
      </trkpt>
      <trkpt lat="45.62766" lon="4.5473">
        <ele>618</ele>
        <time>2020-02-12T17:47:01Z</time>
      </trkpt>
      <trkpt lat="45.62755" lon="4.54762">
        <ele>618</ele>
        <time>2020-02-12T17:47:05Z</time>
      </trkpt>
      <trkpt lat="45.62656" lon="4.54956">
        <ele>622</ele>
        <time>2020-02-12T17:47:35Z</time>
      </trkpt>
      <trkpt lat="45.62601" lon="4.55086">
        <ele>624</ele>
        <time>2020-02-12T17:47:54Z</time>
      </trkpt>
      <trkpt lat="45.62527" lon="4.55323">
        <ele>622</ele>
        <time>2020-02-12T17:48:27Z</time>
      </trkpt>
      <trkpt lat="45.6251" lon="4.55348">
        <ele>622</ele>
        <time>2020-02-12T17:48:31Z</time>
      </trkpt>
      <trkpt lat="45.62499" lon="4.55355">
        <ele>623</ele>
        <time>2020-02-12T17:48:33Z</time>
      </trkpt>
      <trkpt lat="45.62483" lon="4.55359">
        <ele>624</ele>
        <time>2020-02-12T17:48:36Z</time>
      </trkpt>
      <trkpt lat="45.62446" lon="4.55363">
        <ele>626</ele>
        <time>2020-02-12T17:48:43Z</time>
      </trkpt>
      <trkpt lat="45.62417" lon="4.55373">
        <ele>629</ele>
        <time>2020-02-12T17:48:48Z</time>
      </trkpt>
      <trkpt lat="45.62186" lon="4.55478">
        <ele>630</ele>
        <time>2020-02-12T17:49:31Z</time>
      </trkpt>
      <trkpt lat="45.6212" lon="4.55505">
        <ele>632</ele>
        <time>2020-02-12T17:49:43Z</time>
      </trkpt>
      <trkpt lat="45.62096" lon="4.55512">
        <ele>634</ele>
        <time>2020-02-12T17:49:48Z</time>
      </trkpt>
      <trkpt lat="45.62065" lon="4.55513">
        <ele>639</ele>
        <time>2020-02-12T17:49:53Z</time>
      </trkpt>
      <trkpt lat="45.62047" lon="4.55509">
        <ele>642</ele>
        <time>2020-02-12T17:49:56Z</time>
      </trkpt>
      <trkpt lat="45.62032" lon="4.55502">
        <ele>645</ele>
        <time>2020-02-12T17:49:59Z</time>
      </trkpt>
      <trkpt lat="45.61994" lon="4.55461">
        <ele>647</ele>
        <time>2020-02-12T17:50:08Z</time>
      </trkpt>
      <trkpt lat="45.61969" lon="4.55426">
        <ele>649</ele>
        <time>2020-02-12T17:50:14Z</time>
      </trkpt>
      <trkpt lat="45.61941" lon="4.55362">
        <ele>648</ele>
        <time>2020-02-12T17:50:23Z</time>
      </trkpt>
      <trkpt lat="45.61924" lon="4.55336">
        <ele>647</ele>
        <time>2020-02-12T17:50:28Z</time>
      </trkpt>
      <trkpt lat="45.61901" lon="4.55316">
        <ele>647</ele>
        <time>2020-02-12T17:50:32Z</time>
      </trkpt>
      <trkpt lat="45.61888" lon="4.55309">
        <ele>647</ele>
        <time>2020-02-12T17:50:35Z</time>
      </trkpt>
      <trkpt lat="45.61875" lon="4.55306">
        <ele>648</ele>
        <time>2020-02-12T17:50:37Z</time>
      </trkpt>
      <trkpt lat="45.61858" lon="4.5531">
        <ele>649</ele>
        <time>2020-02-12T17:50:40Z</time>
      </trkpt>
      <trkpt lat="45.61843" lon="4.55317">
        <ele>650</ele>
        <time>2020-02-12T17:50:43Z</time>
      </trkpt>
      <trkpt lat="45.61829" lon="4.55326">
        <ele>651</ele>
        <time>2020-02-12T17:50:46Z</time>
      </trkpt>
      <trkpt lat="45.61801" lon="4.55351">
        <ele>654</ele>
        <time>2020-02-12T17:50:52Z</time>
      </trkpt>
      <trkpt lat="45.61771" lon="4.55372">
        <ele>657</ele>
        <time>2020-02-12T17:50:58Z</time>
      </trkpt>
      <trkpt lat="45.61746" lon="4.55379">
        <ele>658</ele>
        <time>2020-02-12T17:51:02Z</time>
      </trkpt>
      <trkpt lat="45.61697" lon="4.55384">
        <ele>656</ele>
        <time>2020-02-12T17:51:11Z</time>
      </trkpt>
      <trkpt lat="45.61654" lon="4.55394">
        <ele>655</ele>
        <time>2020-02-12T17:51:19Z</time>
      </trkpt>
      <trkpt lat="45.6162" lon="4.55405">
        <ele>655</ele>
        <time>2020-02-12T17:51:25Z</time>
      </trkpt>
      <trkpt lat="45.61593" lon="4.5543">
        <ele>656</ele>
        <time>2020-02-12T17:51:31Z</time>
      </trkpt>
      <trkpt lat="45.61574" lon="4.55458">
        <ele>658</ele>
        <time>2020-02-12T17:51:35Z</time>
      </trkpt>
      <trkpt lat="45.61563" lon="4.55483">
        <ele>660</ele>
        <time>2020-02-12T17:51:39Z</time>
      </trkpt>
      <trkpt lat="45.61532" lon="4.55578">
        <ele>662</ele>
        <time>2020-02-12T17:51:52Z</time>
      </trkpt>
      <trkpt lat="45.61514" lon="4.55619">
        <ele>661</ele>
        <time>2020-02-12T17:51:58Z</time>
      </trkpt>
      <trkpt lat="45.61493" lon="4.55657">
        <ele>660</ele>
        <time>2020-02-12T17:52:04Z</time>
      </trkpt>
      <trkpt lat="45.61465" lon="4.55693">
        <ele>660</ele>
        <time>2020-02-12T17:52:11Z</time>
      </trkpt>
      <trkpt lat="45.61434" lon="4.55723">
        <ele>659</ele>
        <time>2020-02-12T17:52:18Z</time>
      </trkpt>
      <trkpt lat="45.61373" lon="4.55755">
        <ele>655</ele>
        <time>2020-02-12T17:52:29Z</time>
      </trkpt>
      <trkpt lat="45.6136" lon="4.55766">
        <ele>655</ele>
        <time>2020-02-12T17:52:32Z</time>
      </trkpt>
      <trkpt lat="45.61325" lon="4.55812">
        <ele>654</ele>
        <time>2020-02-12T17:52:40Z</time>
      </trkpt>
      <trkpt lat="45.61298" lon="4.55839">
        <ele>654</ele>
        <time>2020-02-12T17:52:46Z</time>
      </trkpt>
      <trkpt lat="45.61271" lon="4.55854">
        <ele>654</ele>
        <time>2020-02-12T17:52:51Z</time>
      </trkpt>
      <trkpt lat="45.61257" lon="4.55859">
        <ele>654</ele>
        <time>2020-02-12T17:52:54Z</time>
      </trkpt>
      <trkpt lat="45.61227" lon="4.55862">
        <ele>655</ele>
        <time>2020-02-12T17:52:59Z</time>
      </trkpt>
      <trkpt lat="45.61199" lon="4.55854">
        <ele>656</ele>
        <time>2020-02-12T17:53:04Z</time>
      </trkpt>
      <trkpt lat="45.61169" lon="4.5584">
        <ele>656</ele>
        <time>2020-02-12T17:53:10Z</time>
      </trkpt>
      <trkpt lat="45.61089" lon="4.55783">
        <ele>658</ele>
        <time>2020-02-12T17:53:26Z</time>
      </trkpt>
      <trkpt lat="45.61073" lon="4.55777">
        <ele>658</ele>
        <time>2020-02-12T17:53:29Z</time>
      </trkpt>
      <trkpt lat="45.61038" lon="4.55775">
        <ele>658</ele>
        <time>2020-02-12T17:53:35Z</time>
      </trkpt>
      <trkpt lat="45.60986" lon="4.55785">
        <ele>659</ele>
        <time>2020-02-12T17:53:44Z</time>
      </trkpt>
      <trkpt lat="45.60704" lon="4.55864">
        <ele>665</ele>
        <time>2020-02-12T17:54:35Z</time>
      </trkpt>
      <trkpt lat="45.60669" lon="4.55867">
        <ele>665</ele>
        <time>2020-02-12T17:54:42Z</time>
      </trkpt>
      <trkpt lat="45.60634" lon="4.55866">
        <ele>665</ele>
        <time>2020-02-12T17:54:48Z</time>
      </trkpt>
      <trkpt lat="45.60609" lon="4.55872">
        <ele>665</ele>
        <time>2020-02-12T17:54:52Z</time>
      </trkpt>
      <trkpt lat="45.6057" lon="4.55899">
        <ele>666</ele>
        <time>2020-02-12T17:55:00Z</time>
      </trkpt>
      <trkpt lat="45.60468" lon="4.5599">
        <ele>674</ele>
        <time>2020-02-12T17:55:22Z</time>
      </trkpt>
      <trkpt lat="45.60392" lon="4.56093">
        <ele>673</ele>
        <time>2020-02-12T17:55:40Z</time>
      </trkpt>
      <trkpt lat="45.60381" lon="4.56105">
        <ele>673</ele>
        <time>2020-02-12T17:55:43Z</time>
      </trkpt>
      <trkpt lat="45.60347" lon="4.56135">
        <ele>673</ele>
        <time>2020-02-12T17:55:50Z</time>
      </trkpt>
      <trkpt lat="45.60261" lon="4.56198">
        <ele>674</ele>
        <time>2020-02-12T17:56:07Z</time>
      </trkpt>
      <trkpt lat="45.6024" lon="4.56216">
        <ele>674</ele>
        <time>2020-02-12T17:56:11Z</time>
      </trkpt>
      <trkpt lat="45.6021" lon="4.56255">
        <ele>676</ele>
        <time>2020-02-12T17:56:19Z</time>
      </trkpt>
      <trkpt lat="45.60197" lon="4.56276">
        <ele>677</ele>
        <time>2020-02-12T17:56:22Z</time>
      </trkpt>
      <trkpt lat="45.60176" lon="4.56322">
        <ele>678</ele>
        <time>2020-02-12T17:56:29Z</time>
      </trkpt>
      <trkpt lat="45.60145" lon="4.56409">
        <ele>680</ele>
        <time>2020-02-12T17:56:41Z</time>
      </trkpt>
      <trkpt lat="45.60097" lon="4.5652">
        <ele>683</ele>
        <time>2020-02-12T17:56:57Z</time>
      </trkpt>
      <trkpt lat="45.60072" lon="4.56572">
        <ele>685</ele>
        <time>2020-02-12T17:57:05Z</time>
      </trkpt>
      <trkpt lat="45.60051" lon="4.56624">
        <ele>687</ele>
        <time>2020-02-12T17:57:13Z</time>
      </trkpt>
      <trkpt lat="45.60036" lon="4.56669">
        <ele>689</ele>
        <time>2020-02-12T17:57:19Z</time>
      </trkpt>
      <trkpt lat="45.60013" lon="4.56756">
        <ele>691</ele>
        <time>2020-02-12T17:57:30Z</time>
      </trkpt>
      <trkpt lat="45.59962" lon="4.56923">
        <ele>699</ele>
        <time>2020-02-12T17:57:53Z</time>
      </trkpt>
      <trkpt lat="45.59954" lon="4.56963">
        <ele>700</ele>
        <time>2020-02-12T17:57:58Z</time>
      </trkpt>
      <trkpt lat="45.5995" lon="4.57003">
        <ele>702</ele>
        <time>2020-02-12T17:58:03Z</time>
      </trkpt>
      <trkpt lat="45.59953" lon="4.5703">
        <ele>701</ele>
        <time>2020-02-12T17:58:07Z</time>
      </trkpt>
      <trkpt lat="45.59968" lon="4.57065">
        <ele>702</ele>
        <time>2020-02-12T17:58:12Z</time>
      </trkpt>
      <trkpt lat="45.59977" lon="4.57109">
        <ele>701</ele>
        <time>2020-02-12T17:58:17Z</time>
      </trkpt>
      <trkpt lat="45.59989" lon="4.57225">
        <ele>699</ele>
        <time>2020-02-12T17:58:32Z</time>
      </trkpt>
      <trkpt lat="45.6002" lon="4.5747">
        <ele>698</ele>
        <time>2020-02-12T17:59:03Z</time>
      </trkpt>
      <trkpt lat="45.60032" lon="4.57533">
        <ele>696</ele>
        <time>2020-02-12T17:59:11Z</time>
      </trkpt>
      <trkpt lat="45.60037" lon="4.57554">
        <ele>695</ele>
        <time>2020-02-12T17:59:14Z</time>
      </trkpt>
      <trkpt lat="45.60056" lon="4.57605">
        <ele>695</ele>
        <time>2020-02-12T17:59:21Z</time>
      </trkpt>
      <trkpt lat="45.60099" lon="4.57663">
        <ele>702</ele>
        <time>2020-02-12T17:59:32Z</time>
      </trkpt>
      <trkpt lat="45.60109" lon="4.57683">
        <ele>703</ele>
        <time>2020-02-12T17:59:35Z</time>
      </trkpt>
      <trkpt lat="45.60122" lon="4.57731">
        <ele>701</ele>
        <time>2020-02-12T17:59:41Z</time>
      </trkpt>
      <trkpt lat="45.60128" lon="4.57771">
        <ele>702</ele>
        <time>2020-02-12T17:59:46Z</time>
      </trkpt>
      <trkpt lat="45.60125" lon="4.5781">
        <ele>703</ele>
        <time>2020-02-12T17:59:51Z</time>
      </trkpt>
      <trkpt lat="45.6012" lon="4.57827">
        <ele>701</ele>
        <time>2020-02-12T17:59:53Z</time>
      </trkpt>
      <trkpt lat="45.60085" lon="4.57888">
        <ele>696</ele>
        <time>2020-02-12T18:00:03Z</time>
      </trkpt>
      <trkpt lat="45.60079" lon="4.57905">
        <ele>696</ele>
        <time>2020-02-12T18:00:06Z</time>
      </trkpt>
      <trkpt lat="45.60076" lon="4.57925">
        <ele>697</ele>
        <time>2020-02-12T18:00:08Z</time>
      </trkpt>
      <trkpt lat="45.60075" lon="4.57944">
        <ele>698</ele>
        <time>2020-02-12T18:00:11Z</time>
      </trkpt>
      <trkpt lat="45.60081" lon="4.58079">
        <ele>701</ele>
        <time>2020-02-12T18:00:27Z</time>
      </trkpt>
      <trkpt lat="45.60077" lon="4.58121">
        <ele>700</ele>
        <time>2020-02-12T18:00:33Z</time>
      </trkpt>
      <trkpt lat="45.60076" lon="4.58201">
        <ele>700</ele>
        <time>2020-02-12T18:00:43Z</time>
      </trkpt>
      <trkpt lat="45.60079" lon="4.58281">
        <ele>699</ele>
        <time>2020-02-12T18:00:53Z</time>
      </trkpt>
      <trkpt lat="45.60092" lon="4.58383">
        <ele>698</ele>
        <time>2020-02-12T18:01:05Z</time>
      </trkpt>
      <trkpt lat="45.60122" lon="4.58532">
        <ele>695</ele>
        <time>2020-02-12T18:01:25Z</time>
      </trkpt>
      <trkpt lat="45.60135" lon="4.58565">
        <ele>695</ele>
        <time>2020-02-12T18:01:29Z</time>
      </trkpt>
      <trkpt lat="45.60152" lon="4.58591">
        <ele>697</ele>
        <time>2020-02-12T18:01:34Z</time>
      </trkpt>
      <trkpt lat="45.60163" lon="4.58621">
        <ele>699</ele>
        <time>2020-02-12T18:01:38Z</time>
      </trkpt>
      <trkpt lat="45.60165" lon="4.58648">
        <ele>699</ele>
        <time>2020-02-12T18:01:42Z</time>
      </trkpt>
      <trkpt lat="45.60161" lon="4.58663">
        <ele>698</ele>
        <time>2020-02-12T18:01:44Z</time>
      </trkpt>
      <trkpt lat="45.60154" lon="4.58676">
        <ele>698</ele>
        <time>2020-02-12T18:01:46Z</time>
      </trkpt>
      <trkpt lat="45.60145" lon="4.58686">
        <ele>698</ele>
        <time>2020-02-12T18:01:48Z</time>
      </trkpt>
      <trkpt lat="45.60136" lon="4.58693">
        <ele>698</ele>
        <time>2020-02-12T18:01:49Z</time>
      </trkpt>
      <trkpt lat="45.60125" lon="4.58696">
        <ele>697</ele>
        <time>2020-02-12T18:01:51Z</time>
      </trkpt>
      <trkpt lat="45.60113" lon="4.58694">
        <ele>696</ele>
        <time>2020-02-12T18:01:54Z</time>
      </trkpt>
      <trkpt lat="45.60035" lon="4.58665">
        <ele>688</ele>
        <time>2020-02-12T18:02:08Z</time>
      </trkpt>
      <trkpt lat="45.59978" lon="4.58638">
        <ele>688</ele>
        <time>2020-02-12T18:02:19Z</time>
      </trkpt>
      <trkpt lat="45.59956" lon="4.58616">
        <ele>688</ele>
        <time>2020-02-12T18:02:23Z</time>
      </trkpt>
      <trkpt lat="45.59945" lon="4.58599">
        <ele>687</ele>
        <time>2020-02-12T18:02:26Z</time>
      </trkpt>
      <trkpt lat="45.59872" lon="4.58448">
        <ele>662</ele>
        <time>2020-02-12T18:02:49Z</time>
      </trkpt>
      <trkpt lat="45.59862" lon="4.58435">
        <ele>661</ele>
        <time>2020-02-12T18:02:51Z</time>
      </trkpt>
      <trkpt lat="45.59842" lon="4.58418">
        <ele>661</ele>
        <time>2020-02-12T18:02:56Z</time>
      </trkpt>
      <trkpt lat="45.59823" lon="4.58416">
        <ele>659</ele>
        <time>2020-02-12T18:02:59Z</time>
      </trkpt>
      <trkpt lat="45.59808" lon="4.5843">
        <ele>657</ele>
        <time>2020-02-12T18:03:02Z</time>
      </trkpt>
      <trkpt lat="45.59801" lon="4.58445">
        <ele>657</ele>
        <time>2020-02-12T18:03:04Z</time>
      </trkpt>
      <trkpt lat="45.5978" lon="4.58518">
        <ele>662</ele>
        <time>2020-02-12T18:03:14Z</time>
      </trkpt>
      <trkpt lat="45.59722" lon="4.58639">
        <ele>659</ele>
        <time>2020-02-12T18:03:33Z</time>
      </trkpt>
      <trkpt lat="45.5971" lon="4.58659">
        <ele>658</ele>
        <time>2020-02-12T18:03:36Z</time>
      </trkpt>
      <trkpt lat="45.59694" lon="4.58682">
        <ele>656</ele>
        <time>2020-02-12T18:03:40Z</time>
      </trkpt>
      <trkpt lat="45.59611" lon="4.58777">
        <ele>647</ele>
        <time>2020-02-12T18:03:59Z</time>
      </trkpt>
      <trkpt lat="45.59485" lon="4.58915">
        <ele>637</ele>
        <time>2020-02-12T18:04:27Z</time>
      </trkpt>
      <trkpt lat="45.59473" lon="4.58945">
        <ele>634</ele>
        <time>2020-02-12T18:04:31Z</time>
      </trkpt>
      <trkpt lat="45.59472" lon="4.58958">
        <ele>633</ele>
        <time>2020-02-12T18:04:33Z</time>
      </trkpt>
      <trkpt lat="45.59472" lon="4.58978">
        <ele>633</ele>
        <time>2020-02-12T18:04:35Z</time>
      </trkpt>
      <trkpt lat="45.59475" lon="4.58996">
        <ele>633</ele>
        <time>2020-02-12T18:04:38Z</time>
      </trkpt>
      <trkpt lat="45.59491" lon="4.59063">
        <ele>631</ele>
        <time>2020-02-12T18:04:47Z</time>
      </trkpt>
      <trkpt lat="45.59501" lon="4.5909">
        <ele>631</ele>
        <time>2020-02-12T18:04:50Z</time>
      </trkpt>
      <trkpt lat="45.5951" lon="4.59125">
        <ele>631</ele>
        <time>2020-02-12T18:04:55Z</time>
      </trkpt>
      <trkpt lat="45.59508" lon="4.59159">
        <ele>628</ele>
        <time>2020-02-12T18:04:59Z</time>
      </trkpt>
      <trkpt lat="45.595" lon="4.59199">
        <ele>622</ele>
        <time>2020-02-12T18:05:04Z</time>
      </trkpt>
      <trkpt lat="45.59501" lon="4.59217">
        <ele>621</ele>
        <time>2020-02-12T18:05:07Z</time>
      </trkpt>
      <trkpt lat="45.59511" lon="4.59254">
        <ele>620</ele>
        <time>2020-02-12T18:05:12Z</time>
      </trkpt>
      <trkpt lat="45.59544" lon="4.59321">
        <ele>619</ele>
        <time>2020-02-12T18:05:22Z</time>
      </trkpt>
      <trkpt lat="45.59565" lon="4.5937">
        <ele>616</ele>
        <time>2020-02-12T18:05:29Z</time>
      </trkpt>
      <trkpt lat="45.59578" lon="4.5941">
        <ele>614</ele>
        <time>2020-02-12T18:05:34Z</time>
      </trkpt>
      <trkpt lat="45.59602" lon="4.59537">
        <ele>608</ele>
        <time>2020-02-12T18:05:51Z</time>
      </trkpt>
      <trkpt lat="45.59624" lon="4.59697">
        <ele>601</ele>
        <time>2020-02-12T18:06:11Z</time>
      </trkpt>
      <trkpt lat="45.59629" lon="4.59801">
        <ele>595</ele>
        <time>2020-02-12T18:06:24Z</time>
      </trkpt>
      <trkpt lat="45.59632" lon="4.59821">
        <ele>594</ele>
        <time>2020-02-12T18:06:27Z</time>
      </trkpt>
      <trkpt lat="45.59638" lon="4.5984">
        <ele>593</ele>
        <time>2020-02-12T18:06:29Z</time>
      </trkpt>
      <trkpt lat="45.59645" lon="4.59853">
        <ele>593</ele>
        <time>2020-02-12T18:06:31Z</time>
      </trkpt>
      <trkpt lat="45.59653" lon="4.59865">
        <ele>592</ele>
        <time>2020-02-12T18:06:33Z</time>
      </trkpt>
      <trkpt lat="45.59678" lon="4.59888">
        <ele>591</ele>
        <time>2020-02-12T18:06:39Z</time>
      </trkpt>
      <trkpt lat="45.5969" lon="4.59897">
        <ele>590</ele>
        <time>2020-02-12T18:06:41Z</time>
      </trkpt>
      <trkpt lat="45.59703" lon="4.59903">
        <ele>588</ele>
        <time>2020-02-12T18:06:44Z</time>
      </trkpt>
      <trkpt lat="45.59728" lon="4.59909">
        <ele>586</ele>
        <time>2020-02-12T18:06:48Z</time>
      </trkpt>
      <trkpt lat="45.59735" lon="4.59908">
        <ele>586</ele>
        <time>2020-02-12T18:06:49Z</time>
      </trkpt>
      <trkpt lat="45.59752" lon="4.599">
        <ele>585</ele>
        <time>2020-02-12T18:06:52Z</time>
      </trkpt>
      <trkpt lat="45.59772" lon="4.59877">
        <ele>583</ele>
        <time>2020-02-12T18:06:57Z</time>
      </trkpt>
      <trkpt lat="45.59804" lon="4.59802">
        <ele>580</ele>
        <time>2020-02-12T18:07:08Z</time>
      </trkpt>
      <trkpt lat="45.59818" lon="4.59761">
        <ele>579</ele>
        <time>2020-02-12T18:07:14Z</time>
      </trkpt>
      <trkpt lat="45.59824" lon="4.59722">
        <ele>581</ele>
        <time>2020-02-12T18:07:19Z</time>
      </trkpt>
      <trkpt lat="45.59836" lon="4.59687">
        <ele>581</ele>
        <time>2020-02-12T18:07:23Z</time>
      </trkpt>
      <trkpt lat="45.59844" lon="4.59671">
        <ele>582</ele>
        <time>2020-02-12T18:07:26Z</time>
      </trkpt>
      <trkpt lat="45.59853" lon="4.5966">
        <ele>582</ele>
        <time>2020-02-12T18:07:28Z</time>
      </trkpt>
      <trkpt lat="45.59864" lon="4.59652">
        <ele>583</ele>
        <time>2020-02-12T18:07:30Z</time>
      </trkpt>
      <trkpt lat="45.59876" lon="4.59649">
        <ele>582</ele>
        <time>2020-02-12T18:07:32Z</time>
      </trkpt>
      <trkpt lat="45.59889" lon="4.5965">
        <ele>581</ele>
        <time>2020-02-12T18:07:35Z</time>
      </trkpt>
      <trkpt lat="45.59902" lon="4.59657">
        <ele>579</ele>
        <time>2020-02-12T18:07:37Z</time>
      </trkpt>
      <trkpt lat="45.59913" lon="4.59667">
        <ele>576</ele>
        <time>2020-02-12T18:07:39Z</time>
      </trkpt>
      <trkpt lat="45.59935" lon="4.59694">
        <ele>577</ele>
        <time>2020-02-12T18:07:45Z</time>
      </trkpt>
      <trkpt lat="45.59947" lon="4.59714">
        <ele>577</ele>
        <time>2020-02-12T18:07:48Z</time>
      </trkpt>
      <trkpt lat="45.59955" lon="4.59729">
        <ele>577</ele>
        <time>2020-02-12T18:07:50Z</time>
      </trkpt>
      <trkpt lat="45.59968" lon="4.59768">
        <ele>574</ele>
        <time>2020-02-12T18:07:56Z</time>
      </trkpt>
      <trkpt lat="45.59989" lon="4.59852">
        <ele>568</ele>
        <time>2020-02-12T18:08:07Z</time>
      </trkpt>
      <trkpt lat="45.59994" lon="4.59912">
        <ele>562</ele>
        <time>2020-02-12T18:08:14Z</time>
      </trkpt>
      <trkpt lat="45.5995" lon="4.60238">
        <ele>544</ele>
        <time>2020-02-12T18:08:56Z</time>
      </trkpt>
      <trkpt lat="45.59938" lon="4.60312">
        <ele>540</ele>
        <time>2020-02-12T18:09:05Z</time>
      </trkpt>
      <trkpt lat="45.59917" lon="4.6038">
        <ele>537</ele>
        <time>2020-02-12T18:09:14Z</time>
      </trkpt>
      <trkpt lat="45.599" lon="4.60417">
        <ele>535</ele>
        <time>2020-02-12T18:09:20Z</time>
      </trkpt>
      <trkpt lat="45.59866" lon="4.60466">
        <ele>533</ele>
        <time>2020-02-12T18:09:28Z</time>
      </trkpt>
      <trkpt lat="45.59838" lon="4.60492">
        <ele>532</ele>
        <time>2020-02-12T18:09:34Z</time>
      </trkpt>
      <trkpt lat="45.59591" lon="4.60698">
        <ele>509</ele>
        <time>2020-02-12T18:10:25Z</time>
      </trkpt>
      <trkpt lat="45.59551" lon="4.60741">
        <ele>507</ele>
        <time>2020-02-12T18:10:34Z</time>
      </trkpt>
      <trkpt lat="45.59528" lon="4.60774">
        <ele>505</ele>
        <time>2020-02-12T18:10:40Z</time>
      </trkpt>
      <trkpt lat="45.59511" lon="4.60812">
        <ele>506</ele>
        <time>2020-02-12T18:10:46Z</time>
      </trkpt>
      <trkpt lat="45.59489" lon="4.60873">
        <ele>506</ele>
        <time>2020-02-12T18:10:54Z</time>
      </trkpt>
      <trkpt lat="45.59472" lon="4.60902">
        <ele>504</ele>
        <time>2020-02-12T18:10:59Z</time>
      </trkpt>
      <trkpt lat="45.59468" lon="4.60898">
        <ele>503</ele>
        <time>2020-02-12T18:11:00Z</time>
      </trkpt>
      <trkpt lat="45.59458" lon="4.60898">
        <ele>500</ele>
        <time>2020-02-12T18:11:01Z</time>
      </trkpt>
      <trkpt lat="45.59452" lon="4.60903">
        <ele>499</ele>
        <time>2020-02-12T18:11:03Z</time>
      </trkpt>
      <trkpt lat="45.59449" lon="4.6091">
        <ele>499</ele>
        <time>2020-02-12T18:11:04Z</time>
      </trkpt>
      <trkpt lat="45.59447" lon="4.60921">
        <ele>499</ele>
        <time>2020-02-12T18:11:05Z</time>
      </trkpt>
      <trkpt lat="45.59452" lon="4.60938">
        <ele>501</ele>
        <time>2020-02-12T18:11:07Z</time>
      </trkpt>
      <trkpt lat="45.59446" lon="4.60968">
        <ele>500</ele>
        <time>2020-02-12T18:11:11Z</time>
      </trkpt>
      <trkpt lat="45.59445" lon="4.6101">
        <ele>500</ele>
        <time>2020-02-12T18:11:17Z</time>
      </trkpt>
      <trkpt lat="45.59442" lon="4.61026">
        <ele>499</ele>
        <time>2020-02-12T18:11:19Z</time>
      </trkpt>
      <trkpt lat="45.59423" lon="4.61077">
        <ele>498</ele>
        <time>2020-02-12T18:11:26Z</time>
      </trkpt>
      <trkpt lat="45.59402" lon="4.6111">
        <ele>496</ele>
        <time>2020-02-12T18:11:31Z</time>
      </trkpt>
      <trkpt lat="45.59372" lon="4.6114">
        <ele>495</ele>
        <time>2020-02-12T18:11:38Z</time>
      </trkpt>
      <trkpt lat="45.59122" lon="4.61341">
        <ele>499</ele>
        <time>2020-02-12T18:12:29Z</time>
      </trkpt>
      <trkpt lat="45.59099" lon="4.61361">
        <ele>500</ele>
        <time>2020-02-12T18:12:34Z</time>
      </trkpt>
      <trkpt lat="45.59078" lon="4.61389">
        <ele>503</ele>
        <time>2020-02-12T18:12:39Z</time>
      </trkpt>
      <trkpt lat="45.59072" lon="4.61389">
        <ele>503</ele>
        <time>2020-02-12T18:12:40Z</time>
      </trkpt>
      <trkpt lat="45.5907" lon="4.61392">
        <ele>503</ele>
        <time>2020-02-12T18:12:40Z</time>
      </trkpt>
      <trkpt lat="45.5907" lon="4.61402">
        <ele>504</ele>
        <time>2020-02-12T18:12:42Z</time>
      </trkpt>
      <trkpt lat="45.59075" lon="4.61406">
        <ele>504</ele>
        <time>2020-02-12T18:12:43Z</time>
      </trkpt>
      <trkpt lat="45.59079" lon="4.61429">
        <ele>504</ele>
        <time>2020-02-12T18:12:46Z</time>
      </trkpt>
      <trkpt lat="45.5908" lon="4.61489">
        <ele>505</ele>
        <time>2020-02-12T18:12:53Z</time>
      </trkpt>
      <trkpt lat="45.59076" lon="4.61536">
        <ele>506</ele>
        <time>2020-02-12T18:12:59Z</time>
      </trkpt>
      <trkpt lat="45.59068" lon="4.61566">
        <ele>507</ele>
        <time>2020-02-12T18:13:03Z</time>
      </trkpt>
      <trkpt lat="45.59054" lon="4.61603">
        <ele>509</ele>
        <time>2020-02-12T18:13:08Z</time>
      </trkpt>
      <trkpt lat="45.59006" lon="4.61714">
        <ele>513</ele>
        <time>2020-02-12T18:13:24Z</time>
      </trkpt>
      <trkpt lat="45.58994" lon="4.61756">
        <ele>512</ele>
        <time>2020-02-12T18:13:30Z</time>
      </trkpt>
      <trkpt lat="45.58969" lon="4.6187">
        <ele>513</ele>
        <time>2020-02-12T18:13:45Z</time>
      </trkpt>
      <trkpt lat="45.58956" lon="4.61913">
        <ele>514</ele>
        <time>2020-02-12T18:13:51Z</time>
      </trkpt>
      <trkpt lat="45.58947" lon="4.61931">
        <ele>514</ele>
        <time>2020-02-12T18:13:54Z</time>
      </trkpt>
      <trkpt lat="45.58877" lon="4.62052">
        <ele>514</ele>
        <time>2020-02-12T18:14:13Z</time>
      </trkpt>
      <trkpt lat="45.58842" lon="4.62103">
        <ele>516</ele>
        <time>2020-02-12T18:14:22Z</time>
      </trkpt>
      <trkpt lat="45.58829" lon="4.62117">
        <ele>516</ele>
        <time>2020-02-12T18:14:25Z</time>
      </trkpt>
      <trkpt lat="45.58789" lon="4.62148">
        <ele>517</ele>
        <time>2020-02-12T18:14:33Z</time>
      </trkpt>
      <trkpt lat="45.58781" lon="4.6216">
        <ele>517</ele>
        <time>2020-02-12T18:14:35Z</time>
      </trkpt>
      <trkpt lat="45.58769" lon="4.62184">
        <ele>516</ele>
        <time>2020-02-12T18:14:39Z</time>
      </trkpt>
      <trkpt lat="45.58736" lon="4.62265">
        <ele>515</ele>
        <time>2020-02-12T18:14:50Z</time>
      </trkpt>
      <trkpt lat="45.58718" lon="4.62304">
        <ele>515</ele>
        <time>2020-02-12T18:14:56Z</time>
      </trkpt>
      <trkpt lat="45.58708" lon="4.6232">
        <ele>514</ele>
        <time>2020-02-12T18:14:59Z</time>
      </trkpt>
      <trkpt lat="45.58685" lon="4.62346">
        <ele>513</ele>
        <time>2020-02-12T18:15:04Z</time>
      </trkpt>
      <trkpt lat="45.58669" lon="4.62356">
        <ele>513</ele>
        <time>2020-02-12T18:15:07Z</time>
      </trkpt>
      <trkpt lat="45.58607" lon="4.62383">
        <ele>509</ele>
        <time>2020-02-12T18:15:19Z</time>
      </trkpt>
      <trkpt lat="45.58576" lon="4.62404">
        <ele>506</ele>
        <time>2020-02-12T18:15:25Z</time>
      </trkpt>
      <trkpt lat="45.5855" lon="4.6243">
        <ele>504</ele>
        <time>2020-02-12T18:15:31Z</time>
      </trkpt>
      <trkpt lat="45.58524" lon="4.62482">
        <ele>501</ele>
        <time>2020-02-12T18:15:38Z</time>
      </trkpt>
      <trkpt lat="45.58392" lon="4.62816">
        <ele>485</ele>
        <time>2020-02-12T18:16:26Z</time>
      </trkpt>
      <trkpt lat="45.58383" lon="4.62834">
        <ele>483</ele>
        <time>2020-02-12T18:16:29Z</time>
      </trkpt>
      <trkpt lat="45.58343" lon="4.62886">
        <ele>482</ele>
        <time>2020-02-12T18:16:39Z</time>
      </trkpt>
      <trkpt lat="45.58304" lon="4.62942">
        <ele>480</ele>
        <time>2020-02-12T18:16:48Z</time>
      </trkpt>
      <trkpt lat="45.58239" lon="4.63025">
        <ele>478</ele>
        <time>2020-02-12T18:17:04Z</time>
      </trkpt>
      <trkpt lat="45.58233" lon="4.63035">
        <ele>478</ele>
        <time>2020-02-12T18:17:06Z</time>
      </trkpt>
      <trkpt lat="45.58214" lon="4.63095">
        <ele>473</ele>
        <time>2020-02-12T18:17:14Z</time>
      </trkpt>
      <trkpt lat="45.582" lon="4.63131">
        <ele>470</ele>
        <time>2020-02-12T18:17:19Z</time>
      </trkpt>
      <trkpt lat="45.5816" lon="4.63118">
        <ele>468</ele>
        <time>2020-02-12T18:17:26Z</time>
      </trkpt>
      <trkpt lat="45.58073" lon="4.63068">
        <ele>462</ele>
        <time>2020-02-12T18:17:43Z</time>
      </trkpt>
      <trkpt lat="45.58031" lon="4.63049">
        <ele>460</ele>
        <time>2020-02-12T18:17:51Z</time>
      </trkpt>
      <trkpt lat="45.5802" lon="4.63047">
        <ele>460</ele>
        <time>2020-02-12T18:17:53Z</time>
      </trkpt>
      <trkpt lat="45.57985" lon="4.63049">
        <ele>457</ele>
        <time>2020-02-12T18:17:59Z</time>
      </trkpt>
      <trkpt lat="45.57922" lon="4.63059">
        <ele>453</ele>
        <time>2020-02-12T18:18:10Z</time>
      </trkpt>
      <trkpt lat="45.57889" lon="4.63061">
        <ele>449</ele>
        <time>2020-02-12T18:18:16Z</time>
      </trkpt>
      <trkpt lat="45.57875" lon="4.63057">
        <ele>448</ele>
        <time>2020-02-12T18:18:19Z</time>
      </trkpt>
      <trkpt lat="45.57809" lon="4.63022">
        <ele>444</ele>
        <time>2020-02-12T18:18:31Z</time>
      </trkpt>
      <trkpt lat="45.57797" lon="4.63018">
        <ele>443</ele>
        <time>2020-02-12T18:18:33Z</time>
      </trkpt>
      <trkpt lat="45.57776" lon="4.63018">
        <ele>441</ele>
        <time>2020-02-12T18:18:37Z</time>
      </trkpt>
      <trkpt lat="45.57766" lon="4.63024">
        <ele>440</ele>
        <time>2020-02-12T18:18:39Z</time>
      </trkpt>
      <trkpt lat="45.57759" lon="4.63033">
        <ele>439</ele>
        <time>2020-02-12T18:18:41Z</time>
      </trkpt>
      <trkpt lat="45.57751" lon="4.63058">
        <ele>437</ele>
        <time>2020-02-12T18:18:44Z</time>
      </trkpt>
      <trkpt lat="45.57721" lon="4.63285">
        <ele>427</ele>
        <time>2020-02-12T18:19:13Z</time>
      </trkpt>
      <trkpt lat="45.57716" lon="4.633">
        <ele>426</ele>
        <time>2020-02-12T18:19:15Z</time>
      </trkpt>
      <trkpt lat="45.57708" lon="4.63312">
        <ele>426</ele>
        <time>2020-02-12T18:19:17Z</time>
      </trkpt>
      <trkpt lat="45.57699" lon="4.63319">
        <ele>425</ele>
        <time>2020-02-12T18:19:19Z</time>
      </trkpt>
      <trkpt lat="45.5768" lon="4.63324">
        <ele>424</ele>
        <time>2020-02-12T18:19:22Z</time>
      </trkpt>
      <trkpt lat="45.57669" lon="4.63324">
        <ele>423</ele>
        <time>2020-02-12T18:19:24Z</time>
      </trkpt>
      <trkpt lat="45.57647" lon="4.63319">
        <ele>422</ele>
        <time>2020-02-12T18:19:28Z</time>
      </trkpt>
      <trkpt lat="45.57623" lon="4.6331">
        <ele>420</ele>
        <time>2020-02-12T18:19:33Z</time>
      </trkpt>
      <trkpt lat="45.57584" lon="4.63291">
        <ele>417</ele>
        <time>2020-02-12T18:19:40Z</time>
      </trkpt>
      <trkpt lat="45.57555" lon="4.63281">
        <ele>415</ele>
        <time>2020-02-12T18:19:45Z</time>
      </trkpt>
      <trkpt lat="45.57455" lon="4.63238">
        <ele>409</ele>
        <time>2020-02-12T18:20:04Z</time>
      </trkpt>
      <trkpt lat="45.57254" lon="4.63146">
        <ele>394</ele>
        <time>2020-02-12T18:20:41Z</time>
      </trkpt>
      <trkpt lat="45.57233" lon="4.63142">
        <ele>393</ele>
        <time>2020-02-12T18:20:45Z</time>
      </trkpt>
      <trkpt lat="45.57221" lon="4.63146">
        <ele>392</ele>
        <time>2020-02-12T18:20:47Z</time>
      </trkpt>
      <trkpt lat="45.57052" lon="4.63241">
        <ele>385</ele>
        <time>2020-02-12T18:21:20Z</time>
      </trkpt>
      <trkpt lat="45.56794" lon="4.63379">
        <ele>375</ele>
        <time>2020-02-12T18:22:09Z</time>
      </trkpt>
      <trkpt lat="45.5646" lon="4.6358">
        <ele>369</ele>
        <time>2020-02-12T18:23:13Z</time>
      </trkpt>
      <trkpt lat="45.56356" lon="4.63625">
        <ele>365</ele>
        <time>2020-02-12T18:23:33Z</time>
      </trkpt>
      <trkpt lat="45.56338" lon="4.63635">
        <ele>365</ele>
        <time>2020-02-12T18:23:36Z</time>
      </trkpt>
      <trkpt lat="45.56307" lon="4.63658">
        <ele>364</ele>
        <time>2020-02-12T18:23:42Z</time>
      </trkpt>
      <trkpt lat="45.56276" lon="4.63689">
        <ele>362</ele>
        <time>2020-02-12T18:23:49Z</time>
      </trkpt>
      <trkpt lat="45.56072" lon="4.63933">
        <ele>360</ele>
        <time>2020-02-12T18:24:36Z</time>
      </trkpt>
      <trkpt lat="45.56047" lon="4.63948">
        <ele>360</ele>
        <time>2020-02-12T18:24:41Z</time>
      </trkpt>
      <trkpt lat="45.55956" lon="4.63959">
        <ele>357</ele>
        <time>2020-02-12T18:24:57Z</time>
      </trkpt>
      <trkpt lat="45.55918" lon="4.63966">
        <ele>356</ele>
        <time>2020-02-12T18:25:04Z</time>
      </trkpt>
      <trkpt lat="45.55883" lon="4.63991">
        <ele>355</ele>
        <time>2020-02-12T18:25:11Z</time>
      </trkpt>
      <trkpt lat="45.55856" lon="4.64016">
        <ele>354</ele>
        <time>2020-02-12T18:25:17Z</time>
      </trkpt>
      <trkpt lat="45.55822" lon="4.64043">
        <ele>354</ele>
        <time>2020-02-12T18:25:24Z</time>
      </trkpt>
      <trkpt lat="45.55806" lon="4.6406">
        <ele>353</ele>
        <time>2020-02-12T18:25:27Z</time>
      </trkpt>
      <trkpt lat="45.558" lon="4.64076">
        <ele>354</ele>
        <time>2020-02-12T18:25:30Z</time>
      </trkpt>
      <trkpt lat="45.55796" lon="4.64098">
        <ele>354</ele>
        <time>2020-02-12T18:25:32Z</time>
      </trkpt>
      <trkpt lat="45.55807" lon="4.64102">
        <ele>355</ele>
        <time>2020-02-12T18:25:34Z</time>
      </trkpt>
      <trkpt lat="45.55803" lon="4.64119">
        <ele>355</ele>
        <time>2020-02-12T18:25:37Z</time>
      </trkpt>
      <trkpt lat="45.55807" lon="4.64173">
        <ele>356</ele>
        <time>2020-02-12T18:25:43Z</time>
      </trkpt>
      <trkpt lat="45.55792" lon="4.64281">
        <ele>356</ele>
        <time>2020-02-12T18:25:57Z</time>
      </trkpt>
      <trkpt lat="45.55792" lon="4.64333">
        <ele>356</ele>
        <time>2020-02-12T18:26:04Z</time>
      </trkpt>
      <trkpt lat="45.55798" lon="4.6446">
        <ele>354</ele>
        <time>2020-02-12T18:26:19Z</time>
      </trkpt>
      <trkpt lat="45.55796" lon="4.64568">
        <ele>352</ele>
        <time>2020-02-12T18:26:33Z</time>
      </trkpt>
      <trkpt lat="45.55791" lon="4.64609">
        <ele>351</ele>
        <time>2020-02-12T18:26:38Z</time>
      </trkpt>
      <trkpt lat="45.55774" lon="4.64695">
        <ele>348</ele>
        <time>2020-02-12T18:26:49Z</time>
      </trkpt>
      <trkpt lat="45.55766" lon="4.6477">
        <ele>347</ele>
        <time>2020-02-12T18:26:59Z</time>
      </trkpt>
      <trkpt lat="45.55765" lon="4.64809">
        <ele>346</ele>
        <time>2020-02-12T18:27:04Z</time>
      </trkpt>
      <trkpt lat="45.55776" lon="4.6492">
        <ele>343</ele>
        <time>2020-02-12T18:27:18Z</time>
      </trkpt>
      <trkpt lat="45.55783" lon="4.65022">
        <ele>342</ele>
        <time>2020-02-12T18:27:30Z</time>
      </trkpt>
      <trkpt lat="45.55783" lon="4.65097">
        <ele>340</ele>
        <time>2020-02-12T18:27:40Z</time>
      </trkpt>
      <trkpt lat="45.55776" lon="4.65211">
        <ele>336</ele>
        <time>2020-02-12T18:27:54Z</time>
      </trkpt>
      <trkpt lat="45.55783" lon="4.65348">
        <ele>336</ele>
        <time>2020-02-12T18:28:11Z</time>
      </trkpt>
      <trkpt lat="45.55798" lon="4.65464">
        <ele>334</ele>
        <time>2020-02-12T18:28:26Z</time>
      </trkpt>
      <trkpt lat="45.5583" lon="4.6562">
        <ele>330</ele>
        <time>2020-02-12T18:28:46Z</time>
      </trkpt>
      <trkpt lat="45.5583" lon="4.65639">
        <ele>330</ele>
        <time>2020-02-12T18:28:48Z</time>
      </trkpt>
      <trkpt lat="45.55827" lon="4.65648">
        <ele>329</ele>
        <time>2020-02-12T18:28:50Z</time>
      </trkpt>
      <trkpt lat="45.55823" lon="4.65652">
        <ele>329</ele>
        <time>2020-02-12T18:28:50Z</time>
      </trkpt>
      <trkpt lat="45.55793" lon="4.65672">
        <ele>329</ele>
        <time>2020-02-12T18:28:56Z</time>
      </trkpt>
      <trkpt lat="45.55787" lon="4.65679">
        <ele>329</ele>
        <time>2020-02-12T18:28:58Z</time>
      </trkpt>
      <trkpt lat="45.55755" lon="4.65745">
        <ele>328</ele>
        <time>2020-02-12T18:29:08Z</time>
      </trkpt>
      <trkpt lat="45.55726" lon="4.6578">
        <ele>327</ele>
        <time>2020-02-12T18:29:14Z</time>
      </trkpt>
      <trkpt lat="45.55683" lon="4.65809">
        <ele>326</ele>
        <time>2020-02-12T18:29:23Z</time>
      </trkpt>
      <trkpt lat="45.55632" lon="4.65835">
        <ele>325</ele>
        <time>2020-02-12T18:29:33Z</time>
      </trkpt>
      <trkpt lat="45.55617" lon="4.65852">
        <ele>324</ele>
        <time>2020-02-12T18:29:36Z</time>
      </trkpt>
      <trkpt lat="45.55578" lon="4.65944">
        <ele>322</ele>
        <time>2020-02-12T18:29:49Z</time>
      </trkpt>
      <trkpt lat="45.55558" lon="4.66005">
        <ele>321</ele>
        <time>2020-02-12T18:29:58Z</time>
      </trkpt>
      <trkpt lat="45.55525" lon="4.66116">
        <ele>320</ele>
        <time>2020-02-12T18:30:13Z</time>
      </trkpt>
      <trkpt lat="45.55497" lon="4.66241">
        <ele>314</ele>
        <time>2020-02-12T18:30:29Z</time>
      </trkpt>
      <trkpt lat="45.55489" lon="4.66259">
        <ele>313</ele>
        <time>2020-02-12T18:30:32Z</time>
      </trkpt>
      <trkpt lat="45.55484" lon="4.66267">
        <ele>312</ele>
        <time>2020-02-12T18:30:33Z</time>
      </trkpt>
      <trkpt lat="45.55469" lon="4.66278">
        <ele>311</ele>
        <time>2020-02-12T18:30:36Z</time>
      </trkpt>
      <trkpt lat="45.55375" lon="4.66331">
        <ele>304</ele>
        <time>2020-02-12T18:30:54Z</time>
      </trkpt>
      <trkpt lat="45.5536" lon="4.66349">
        <ele>303</ele>
        <time>2020-02-12T18:30:58Z</time>
      </trkpt>
      <trkpt lat="45.55348" lon="4.66389">
        <ele>301</ele>
        <time>2020-02-12T18:31:03Z</time>
      </trkpt>
      <trkpt lat="45.5534" lon="4.66438">
        <ele>299</ele>
        <time>2020-02-12T18:31:09Z</time>
      </trkpt>
      <trkpt lat="45.55339" lon="4.66457">
        <ele>299</ele>
        <time>2020-02-12T18:31:12Z</time>
      </trkpt>
      <trkpt lat="45.55357" lon="4.66596">
        <ele>298</ele>
        <time>2020-02-12T18:31:29Z</time>
      </trkpt>
      <trkpt lat="45.55334" lon="4.66631">
        <ele>300</ele>
        <time>2020-02-12T18:31:35Z</time>
      </trkpt>
      <trkpt lat="45.55314" lon="4.66629">
        <ele>299</ele>
        <time>2020-02-12T18:31:39Z</time>
      </trkpt>
      <trkpt lat="45.55266" lon="4.66637">
        <ele>297</ele>
        <time>2020-02-12T18:31:47Z</time>
      </trkpt>
      <trkpt lat="45.55257" lon="4.66636">
        <ele>297</ele>
        <time>2020-02-12T18:31:49Z</time>
      </trkpt>
      <trkpt lat="45.55226" lon="4.66624">
        <ele>295</ele>
        <time>2020-02-12T18:31:55Z</time>
      </trkpt>
      <trkpt lat="45.55204" lon="4.66619">
        <ele>294</ele>
        <time>2020-02-12T18:31:59Z</time>
      </trkpt>
      <trkpt lat="45.55195" lon="4.66619">
        <ele>294</ele>
        <time>2020-02-12T18:32:00Z</time>
      </trkpt>
      <trkpt lat="45.55175" lon="4.66624">
        <ele>292</ele>
        <time>2020-02-12T18:32:04Z</time>
      </trkpt>
      <trkpt lat="45.5516" lon="4.66632">
        <ele>292</ele>
        <time>2020-02-12T18:32:07Z</time>
      </trkpt>
      <trkpt lat="45.55131" lon="4.66656">
        <ele>291</ele>
        <time>2020-02-12T18:32:13Z</time>
      </trkpt>
      <trkpt lat="45.55019" lon="4.66781">
        <ele>283</ele>
        <time>2020-02-12T18:32:38Z</time>
      </trkpt>
      <trkpt lat="45.54983" lon="4.66815">
        <ele>279</ele>
        <time>2020-02-12T18:32:46Z</time>
      </trkpt>
      <trkpt lat="45.54942" lon="4.66847">
        <ele>278</ele>
        <time>2020-02-12T18:32:54Z</time>
      </trkpt>
      <trkpt lat="45.54903" lon="4.66873">
        <ele>275</ele>
        <time>2020-02-12T18:33:02Z</time>
      </trkpt>
      <trkpt lat="45.54891" lon="4.6688">
        <ele>274</ele>
        <time>2020-02-12T18:33:04Z</time>
      </trkpt>
      <trkpt lat="45.5487" lon="4.66886">
        <ele>274</ele>
        <time>2020-02-12T18:33:08Z</time>
      </trkpt>
      <trkpt lat="45.54816" lon="4.66887">
        <ele>271</ele>
        <time>2020-02-12T18:33:17Z</time>
      </trkpt>
      <trkpt lat="45.5479" lon="4.66883">
        <ele>266</ele>
        <time>2020-02-12T18:33:22Z</time>
      </trkpt>
      <trkpt lat="45.54766" lon="4.6687">
        <ele>262</ele>
        <time>2020-02-12T18:33:27Z</time>
      </trkpt>
      <trkpt lat="45.54758" lon="4.66862">
        <ele>261</ele>
        <time>2020-02-12T18:33:28Z</time>
      </trkpt>
      <trkpt lat="45.54748" lon="4.66846">
        <ele>260</ele>
        <time>2020-02-12T18:33:31Z</time>
      </trkpt>
      <trkpt lat="45.54739" lon="4.66817">
        <ele>258</ele>
        <time>2020-02-12T18:33:35Z</time>
      </trkpt>
      <trkpt lat="45.54737" lon="4.66803">
        <ele>258</ele>
        <time>2020-02-12T18:33:37Z</time>
      </trkpt>
      <trkpt lat="45.54738" lon="4.66773">
        <ele>259</ele>
        <time>2020-02-12T18:33:41Z</time>
      </trkpt>
      <trkpt lat="45.54751" lon="4.6671">
        <ele>268</ele>
        <time>2020-02-12T18:33:49Z</time>
      </trkpt>
      <trkpt lat="45.54753" lon="4.66682">
        <ele>270</ele>
        <time>2020-02-12T18:33:52Z</time>
      </trkpt>
      <trkpt lat="45.54748" lon="4.66664">
        <ele>269</ele>
        <time>2020-02-12T18:33:55Z</time>
      </trkpt>
      <trkpt lat="45.54718" lon="4.66603">
        <ele>261</ele>
        <time>2020-02-12T18:34:04Z</time>
      </trkpt>
      <trkpt lat="45.54711" lon="4.66558">
        <ele>263</ele>
        <time>2020-02-12T18:34:10Z</time>
      </trkpt>
      <trkpt lat="45.54705" lon="4.66543">
        <ele>263</ele>
        <time>2020-02-12T18:34:12Z</time>
      </trkpt>
      <trkpt lat="45.54699" lon="4.66536">
        <ele>263</ele>
        <time>2020-02-12T18:34:13Z</time>
      </trkpt>
      <trkpt lat="45.54693" lon="4.66533">
        <ele>262</ele>
        <time>2020-02-12T18:34:14Z</time>
      </trkpt>
      <trkpt lat="45.54686" lon="4.66533">
        <ele>260</ele>
        <time>2020-02-12T18:34:16Z</time>
      </trkpt>
      <trkpt lat="45.54657" lon="4.66552">
        <ele>252</ele>
        <time>2020-02-12T18:34:21Z</time>
      </trkpt>
      <trkpt lat="45.5465" lon="4.66554">
        <ele>250</ele>
        <time>2020-02-12T18:34:23Z</time>
      </trkpt>
      <trkpt lat="45.54636" lon="4.66552">
        <ele>248</ele>
        <time>2020-02-12T18:34:25Z</time>
      </trkpt>
      <trkpt lat="45.5459" lon="4.66513">
        <ele>248</ele>
        <time>2020-02-12T18:34:35Z</time>
      </trkpt>
      <trkpt lat="45.54576" lon="4.66504">
        <ele>247</ele>
        <time>2020-02-12T18:34:37Z</time>
      </trkpt>
      <trkpt lat="45.54552" lon="4.66499">
        <ele>245</ele>
        <time>2020-02-12T18:34:42Z</time>
      </trkpt>
      <trkpt lat="45.54494" lon="4.66503">
        <ele>238</ele>
        <time>2020-02-12T18:34:52Z</time>
      </trkpt>
      <trkpt lat="45.54475" lon="4.66498">
        <ele>236</ele>
        <time>2020-02-12T18:34:55Z</time>
      </trkpt>
      <trkpt lat="45.54461" lon="4.66488">
        <ele>234</ele>
        <time>2020-02-12T18:34:58Z</time>
      </trkpt>
      <trkpt lat="45.54453" lon="4.66479">
        <ele>233</ele>
        <time>2020-02-12T18:35:00Z</time>
      </trkpt>
      <trkpt lat="45.54442" lon="4.6646">
        <ele>232</ele>
        <time>2020-02-12T18:35:03Z</time>
      </trkpt>
      <trkpt lat="45.54433" lon="4.66422">
        <ele>232</ele>
        <time>2020-02-12T18:35:08Z</time>
      </trkpt>
      <trkpt lat="45.54438" lon="4.66353">
        <ele>235</ele>
        <time>2020-02-12T18:35:17Z</time>
      </trkpt>
      <trkpt lat="45.54436" lon="4.66321">
        <ele>236</ele>
        <time>2020-02-12T18:35:21Z</time>
      </trkpt>
      <trkpt lat="45.54419" lon="4.66251">
        <ele>232</ele>
        <time>2020-02-12T18:35:30Z</time>
      </trkpt>
      <trkpt lat="45.54414" lon="4.66241">
        <ele>230</ele>
        <time>2020-02-12T18:35:31Z</time>
      </trkpt>
      <trkpt lat="45.54402" lon="4.66229">
        <ele>227</ele>
        <time>2020-02-12T18:35:34Z</time>
      </trkpt>
      <trkpt lat="45.54405" lon="4.66189">
        <ele>228</ele>
        <time>2020-02-12T18:35:39Z</time>
      </trkpt>
      <trkpt lat="45.54416" lon="4.66147">
        <ele>228</ele>
        <time>2020-02-12T18:35:45Z</time>
      </trkpt>
      <trkpt lat="45.54429" lon="4.66113">
        <ele>230</ele>
        <time>2020-02-12T18:35:49Z</time>
      </trkpt>
      <trkpt lat="45.54437" lon="4.66064">
        <ele>231</ele>
        <time>2020-02-12T18:35:56Z</time>
      </trkpt>
      <trkpt lat="45.54426" lon="4.65907">
        <ele>229</ele>
        <time>2020-02-12T18:36:15Z</time>
      </trkpt>
      <trkpt lat="45.54398" lon="4.65741">
        <ele>230</ele>
        <time>2020-02-12T18:36:37Z</time>
      </trkpt>
      <trkpt lat="45.54386" lon="4.65693">
        <ele>232</ele>
        <time>2020-02-12T18:36:43Z</time>
      </trkpt>
      <trkpt lat="45.54376" lon="4.65666">
        <ele>232</ele>
        <time>2020-02-12T18:36:47Z</time>
      </trkpt>
      <trkpt lat="45.5434" lon="4.65592">
        <ele>232</ele>
        <time>2020-02-12T18:36:58Z</time>
      </trkpt>
      <trkpt lat="45.54317" lon="4.65621">
        <ele>226</ele>
        <time>2020-02-12T18:37:04Z</time>
      </trkpt>
      <trkpt lat="45.54261" lon="4.65657">
        <ele>219</ele>
        <time>2020-02-12T18:37:14Z</time>
      </trkpt>
      <trkpt lat="45.54252" lon="4.65674">
        <ele>218</ele>
        <time>2020-02-12T18:37:17Z</time>
      </trkpt>
      <trkpt lat="45.54249" lon="4.65685">
        <ele>218</ele>
        <time>2020-02-12T18:37:19Z</time>
      </trkpt>
      <trkpt lat="45.54252" lon="4.65711">
        <ele>218</ele>
        <time>2020-02-12T18:37:22Z</time>
      </trkpt>
      <trkpt lat="45.54259" lon="4.65728">
        <ele>218</ele>
        <time>2020-02-12T18:37:24Z</time>
      </trkpt>
      <trkpt lat="45.54289" lon="4.65774">
        <ele>220</ele>
        <time>2020-02-12T18:37:32Z</time>
      </trkpt>
      <trkpt lat="45.54316" lon="4.65834">
        <ele>220</ele>
        <time>2020-02-12T18:37:41Z</time>
      </trkpt>
      <trkpt lat="45.54323" lon="4.65861">
        <ele>220</ele>
        <time>2020-02-12T18:37:45Z</time>
      </trkpt>
      <trkpt lat="45.54323" lon="4.6587">
        <ele>220</ele>
        <time>2020-02-12T18:37:46Z</time>
      </trkpt>
      <trkpt lat="45.54316" lon="4.65892">
        <ele>221</ele>
        <time>2020-02-12T18:37:49Z</time>
      </trkpt>
      <trkpt lat="45.54294" lon="4.65929">
        <ele>226</ele>
        <time>2020-02-12T18:37:55Z</time>
      </trkpt>
      <trkpt lat="45.54291" lon="4.65953">
        <ele>227</ele>
        <time>2020-02-12T18:37:58Z</time>
      </trkpt>
      <trkpt lat="45.54293" lon="4.65965">
        <ele>227</ele>
        <time>2020-02-12T18:37:59Z</time>
      </trkpt>
      <trkpt lat="45.54309" lon="4.66002">
        <ele>224</ele>
        <time>2020-02-12T18:38:05Z</time>
      </trkpt>
      <trkpt lat="45.54315" lon="4.6604">
        <ele>222</ele>
        <time>2020-02-12T18:38:10Z</time>
      </trkpt>
      <trkpt lat="45.54315" lon="4.66054">
        <ele>221</ele>
        <time>2020-02-12T18:38:11Z</time>
      </trkpt>
      <trkpt lat="45.54305" lon="4.66122">
        <ele>220</ele>
        <time>2020-02-12T18:38:20Z</time>
      </trkpt>
      <trkpt lat="45.54292" lon="4.66159">
        <ele>219</ele>
        <time>2020-02-12T18:38:25Z</time>
      </trkpt>
      <trkpt lat="45.5428" lon="4.66178">
        <ele>219</ele>
        <time>2020-02-12T18:38:28Z</time>
      </trkpt>
      <trkpt lat="45.54267" lon="4.66186">
        <ele>220</ele>
        <time>2020-02-12T18:38:31Z</time>
      </trkpt>
      <trkpt lat="45.54233" lon="4.66199">
        <ele>228</ele>
        <time>2020-02-12T18:38:37Z</time>
      </trkpt>
      <trkpt lat="45.54221" lon="4.66207">
        <ele>232</ele>
        <time>2020-02-12T18:38:40Z</time>
      </trkpt>
      <trkpt lat="45.54212" lon="4.6622">
        <ele>233</ele>
        <time>2020-02-12T18:38:42Z</time>
      </trkpt>
      <trkpt lat="45.54187" lon="4.66285">
        <ele>237</ele>
        <time>2020-02-12T18:38:51Z</time>
      </trkpt>
      <trkpt lat="45.54185" lon="4.66319">
        <ele>237</ele>
        <time>2020-02-12T18:38:55Z</time>
      </trkpt>
      <trkpt lat="45.54187" lon="4.66339">
        <ele>236</ele>
        <time>2020-02-12T18:38:58Z</time>
      </trkpt>
      <trkpt lat="45.542" lon="4.66374">
        <ele>233</ele>
        <time>2020-02-12T18:39:03Z</time>
      </trkpt>
      <trkpt lat="45.54228" lon="4.66414">
        <ele>224</ele>
        <time>2020-02-12T18:39:10Z</time>
      </trkpt>
      <trkpt lat="45.54242" lon="4.66441">
        <ele>220</ele>
        <time>2020-02-12T18:39:14Z</time>
      </trkpt>
      <trkpt lat="45.54247" lon="4.66468">
        <ele>221</ele>
        <time>2020-02-12T18:39:17Z</time>
      </trkpt>
      <trkpt lat="45.54253" lon="4.66528">
        <ele>223</ele>
        <time>2020-02-12T18:39:25Z</time>
      </trkpt>
      <trkpt lat="45.54252" lon="4.66574">
        <ele>224</ele>
        <time>2020-02-12T18:39:31Z</time>
      </trkpt>
      <trkpt lat="45.54255" lon="4.66607">
        <ele>222</ele>
        <time>2020-02-12T18:39:35Z</time>
      </trkpt>
      <trkpt lat="45.54264" lon="4.66638">
        <ele>219</ele>
        <time>2020-02-12T18:39:39Z</time>
      </trkpt>
      <trkpt lat="45.54282" lon="4.66686">
        <ele>216</ele>
        <time>2020-02-12T18:39:46Z</time>
      </trkpt>
      <trkpt lat="45.54319" lon="4.66748">
        <ele>217</ele>
        <time>2020-02-12T18:39:56Z</time>
      </trkpt>
      <trkpt lat="45.54324" lon="4.66765">
        <ele>222</ele>
        <time>2020-02-12T18:39:58Z</time>
      </trkpt>
      <trkpt lat="45.54324" lon="4.66773">
        <ele>224</ele>
        <time>2020-02-12T18:39:59Z</time>
      </trkpt>
      <trkpt lat="45.54323" lon="4.6678">
        <ele>226</ele>
        <time>2020-02-12T18:40:00Z</time>
      </trkpt>
      <trkpt lat="45.54316" lon="4.66786">
        <ele>228</ele>
        <time>2020-02-12T18:40:02Z</time>
      </trkpt>
      <trkpt lat="45.54311" lon="4.66786">
        <ele>227</ele>
        <time>2020-02-12T18:40:03Z</time>
      </trkpt>
      <trkpt lat="45.54293" lon="4.66775">
        <ele>224</ele>
        <time>2020-02-12T18:40:06Z</time>
      </trkpt>
      <trkpt lat="45.54284" lon="4.66774">
        <ele>224</ele>
        <time>2020-02-12T18:40:08Z</time>
      </trkpt>
      <trkpt lat="45.54275" lon="4.66778">
        <ele>224</ele>
        <time>2020-02-12T18:40:09Z</time>
      </trkpt>
      <trkpt lat="45.54269" lon="4.66784">
        <ele>225</ele>
        <time>2020-02-12T18:40:11Z</time>
      </trkpt>
      <trkpt lat="45.54252" lon="4.66822">
        <ele>231</ele>
        <time>2020-02-12T18:40:16Z</time>
      </trkpt>
      <trkpt lat="45.54229" lon="4.66902">
        <ele>244</ele>
        <time>2020-02-12T18:40:27Z</time>
      </trkpt>
      <trkpt lat="45.54223" lon="4.66913">
        <ele>246</ele>
        <time>2020-02-12T18:40:29Z</time>
      </trkpt>
      <trkpt lat="45.54205" lon="4.66927">
        <ele>246</ele>
        <time>2020-02-12T18:40:32Z</time>
      </trkpt>
      <trkpt lat="45.54186" lon="4.66946">
        <ele>248</ele>
        <time>2020-02-12T18:40:37Z</time>
      </trkpt>
      <trkpt lat="45.54176" lon="4.66964">
        <ele>250</ele>
        <time>2020-02-12T18:40:39Z</time>
      </trkpt>
      <trkpt lat="45.54177" lon="4.66974">
        <ele>252</ele>
        <time>2020-02-12T18:40:41Z</time>
      </trkpt>
      <trkpt lat="45.54181" lon="4.66981">
        <ele>254</ele>
        <time>2020-02-12T18:40:42Z</time>
      </trkpt>
      <trkpt lat="45.54187" lon="4.66984">
        <ele>255</ele>
        <time>2020-02-12T18:40:43Z</time>
      </trkpt>
      <trkpt lat="45.54193" lon="4.66982">
        <ele>255</ele>
        <time>2020-02-12T18:40:44Z</time>
      </trkpt>
      <trkpt lat="45.54217" lon="4.6695">
        <ele>251</ele>
        <time>2020-02-12T18:40:50Z</time>
      </trkpt>
      <trkpt lat="45.54237" lon="4.66931">
        <ele>250</ele>
        <time>2020-02-12T18:40:54Z</time>
      </trkpt>
      <trkpt lat="45.5426" lon="4.66892">
        <ele>246</ele>
        <time>2020-02-12T18:41:00Z</time>
      </trkpt>
      <trkpt lat="45.54265" lon="4.66878">
        <ele>244</ele>
        <time>2020-02-12T18:41:02Z</time>
      </trkpt>
      <trkpt lat="45.54284" lon="4.66854">
        <ele>242</ele>
        <time>2020-02-12T18:41:07Z</time>
      </trkpt>
      <trkpt lat="45.54294" lon="4.66846">
        <ele>241</ele>
        <time>2020-02-12T18:41:09Z</time>
      </trkpt>
      <trkpt lat="45.54304" lon="4.66842">
        <ele>242</ele>
        <time>2020-02-12T18:41:11Z</time>
      </trkpt>
      <trkpt lat="45.54326" lon="4.66845">
        <ele>246</ele>
        <time>2020-02-12T18:41:15Z</time>
      </trkpt>
      <trkpt lat="45.54389" lon="4.66877">
        <ele>248</ele>
        <time>2020-02-12T18:41:27Z</time>
      </trkpt>
      <trkpt lat="45.54401" lon="4.6689">
        <ele>248</ele>
        <time>2020-02-12T18:41:29Z</time>
      </trkpt>
      <trkpt lat="45.544" lon="4.66906">
        <ele>252</ele>
        <time>2020-02-12T18:41:31Z</time>
      </trkpt>
      <trkpt lat="45.54376" lon="4.6694">
        <ele>258</ele>
        <time>2020-02-12T18:41:37Z</time>
      </trkpt>
      <trkpt lat="45.54365" lon="4.6696">
        <ele>260</ele>
        <time>2020-02-12T18:41:41Z</time>
      </trkpt>
      <trkpt lat="45.5435" lon="4.66998">
        <ele>264</ele>
        <time>2020-02-12T18:41:46Z</time>
      </trkpt>
      <trkpt lat="45.54325" lon="4.67077">
        <ele>266</ele>
        <time>2020-02-12T18:41:57Z</time>
      </trkpt>
      <trkpt lat="45.54317" lon="4.67092">
        <ele>266</ele>
        <time>2020-02-12T18:41:59Z</time>
      </trkpt>
      <trkpt lat="45.54301" lon="4.67113">
        <ele>267</ele>
        <time>2020-02-12T18:42:03Z</time>
      </trkpt>
      <trkpt lat="45.54283" lon="4.67125">
        <ele>270</ele>
        <time>2020-02-12T18:42:07Z</time>
      </trkpt>
      <trkpt lat="45.54272" lon="4.67128">
        <ele>272</ele>
        <time>2020-02-12T18:42:09Z</time>
      </trkpt>
      <trkpt lat="45.54229" lon="4.67124">
        <ele>277</ele>
        <time>2020-02-12T18:42:16Z</time>
      </trkpt>
      <trkpt lat="45.54216" lon="4.67126">
        <ele>277</ele>
        <time>2020-02-12T18:42:19Z</time>
      </trkpt>
      <trkpt lat="45.54191" lon="4.67136">
        <ele>278</ele>
        <time>2020-02-12T18:42:23Z</time>
      </trkpt>
      <trkpt lat="45.54179" lon="4.67144">
        <ele>280</ele>
        <time>2020-02-12T18:42:25Z</time>
      </trkpt>
      <trkpt lat="45.5412" lon="4.67214">
        <ele>291</ele>
        <time>2020-02-12T18:42:39Z</time>
      </trkpt>
      <trkpt lat="45.54101" lon="4.67228">
        <ele>292</ele>
        <time>2020-02-12T18:42:43Z</time>
      </trkpt>
      <trkpt lat="45.54081" lon="4.67233">
        <ele>293</ele>
        <time>2020-02-12T18:42:47Z</time>
      </trkpt>
      <trkpt lat="45.54046" lon="4.67232">
        <ele>296</ele>
        <time>2020-02-12T18:42:53Z</time>
      </trkpt>
      <trkpt lat="45.54023" lon="4.67239">
        <ele>299</ele>
        <time>2020-02-12T18:42:57Z</time>
      </trkpt>
      <trkpt lat="45.53998" lon="4.67252">
        <ele>301</ele>
        <time>2020-02-12T18:43:02Z</time>
      </trkpt>
      <trkpt lat="45.53974" lon="4.6727">
        <ele>306</ele>
        <time>2020-02-12T18:43:07Z</time>
      </trkpt>
      <trkpt lat="45.53931" lon="4.67297">
        <ele>310</ele>
        <time>2020-02-12T18:43:15Z</time>
      </trkpt>
      <trkpt lat="45.53925" lon="4.67313">
        <ele>310</ele>
        <time>2020-02-12T18:43:17Z</time>
      </trkpt>
      <trkpt lat="45.53928" lon="4.67321">
        <ele>310</ele>
        <time>2020-02-12T18:43:18Z</time>
      </trkpt>
      <trkpt lat="45.53933" lon="4.67323">
        <ele>310</ele>
        <time>2020-02-12T18:43:19Z</time>
      </trkpt>
      <trkpt lat="45.53938" lon="4.67322">
        <ele>310</ele>
        <time>2020-02-12T18:43:20Z</time>
      </trkpt>
      <trkpt lat="45.53957" lon="4.67305">
        <ele>309</ele>
        <time>2020-02-12T18:43:24Z</time>
      </trkpt>
      <trkpt lat="45.53971" lon="4.67296">
        <ele>308</ele>
        <time>2020-02-12T18:43:27Z</time>
      </trkpt>
      <trkpt lat="45.53988" lon="4.67289">
        <ele>307</ele>
        <time>2020-02-12T18:43:30Z</time>
      </trkpt>
      <trkpt lat="45.54027" lon="4.67282">
        <ele>304</ele>
        <time>2020-02-12T18:43:37Z</time>
      </trkpt>
      <trkpt lat="45.54053" lon="4.67286">
        <ele>304</ele>
        <time>2020-02-12T18:43:42Z</time>
      </trkpt>
      <trkpt lat="45.5412" lon="4.67324">
        <ele>310</ele>
        <time>2020-02-12T18:43:54Z</time>
      </trkpt>
      <trkpt lat="45.54135" lon="4.67337">
        <ele>312</ele>
        <time>2020-02-12T18:43:58Z</time>
      </trkpt>
      <trkpt lat="45.5414" lon="4.67346">
        <ele>312</ele>
        <time>2020-02-12T18:43:59Z</time>
      </trkpt>
      <trkpt lat="45.54142" lon="4.67367">
        <ele>313</ele>
        <time>2020-02-12T18:44:02Z</time>
      </trkpt>
      <trkpt lat="45.5414" lon="4.67377">
        <ele>314</ele>
        <time>2020-02-12T18:44:03Z</time>
      </trkpt>
      <trkpt lat="45.5413" lon="4.67392">
        <ele>315</ele>
        <time>2020-02-12T18:44:06Z</time>
      </trkpt>
      <trkpt lat="45.54114" lon="4.67402">
        <ele>317</ele>
        <time>2020-02-12T18:44:09Z</time>
      </trkpt>
      <trkpt lat="45.54063" lon="4.67419">
        <ele>321</ele>
        <time>2020-02-12T18:44:18Z</time>
      </trkpt>
      <trkpt lat="45.54045" lon="4.67433">
        <ele>323</ele>
        <time>2020-02-12T18:44:22Z</time>
      </trkpt>
      <trkpt lat="45.54037" lon="4.67445">
        <ele>324</ele>
        <time>2020-02-12T18:44:24Z</time>
      </trkpt>
      <trkpt lat="45.54025" lon="4.6747">
        <ele>326</ele>
        <time>2020-02-12T18:44:27Z</time>
      </trkpt>
      <trkpt lat="45.54012" lon="4.67521">
        <ele>329</ele>
        <time>2020-02-12T18:44:34Z</time>
      </trkpt>
      <trkpt lat="45.54003" lon="4.67546">
        <ele>330</ele>
        <time>2020-02-12T18:44:38Z</time>
      </trkpt>
      <trkpt lat="45.5397" lon="4.67596">
        <ele>332</ele>
        <time>2020-02-12T18:44:46Z</time>
      </trkpt>
      <trkpt lat="45.53943" lon="4.67659">
        <ele>334</ele>
        <time>2020-02-12T18:44:55Z</time>
      </trkpt>
      <trkpt lat="45.53918" lon="4.67705">
        <ele>336</ele>
        <time>2020-02-12T18:45:03Z</time>
      </trkpt>
      <trkpt lat="45.53903" lon="4.67738">
        <ele>337</ele>
        <time>2020-02-12T18:45:08Z</time>
      </trkpt>
      <trkpt lat="45.5386" lon="4.67806">
        <ele>341</ele>
        <time>2020-02-12T18:45:19Z</time>
      </trkpt>
      <trkpt lat="45.5375" lon="4.67962">
        <ele>352</ele>
        <time>2020-02-12T18:45:47Z</time>
      </trkpt>
      <trkpt lat="45.53698" lon="4.68042">
        <ele>359</ele>
        <time>2020-02-12T18:46:00Z</time>
      </trkpt>
      <trkpt lat="45.53679" lon="4.68086">
        <ele>361</ele>
        <time>2020-02-12T18:46:07Z</time>
      </trkpt>
      <trkpt lat="45.53656" lon="4.6816">
        <ele>362</ele>
        <time>2020-02-12T18:46:17Z</time>
      </trkpt>
      <trkpt lat="45.53642" lon="4.68194">
        <ele>363</ele>
        <time>2020-02-12T18:46:22Z</time>
      </trkpt>
      <trkpt lat="45.53613" lon="4.6824">
        <ele>365</ele>
        <time>2020-02-12T18:46:29Z</time>
      </trkpt>
      <trkpt lat="45.53578" lon="4.68287">
        <ele>367</ele>
        <time>2020-02-12T18:46:38Z</time>
      </trkpt>
      <trkpt lat="45.53422" lon="4.68488">
        <ele>377</ele>
        <time>2020-02-12T18:47:15Z</time>
      </trkpt>
      <trkpt lat="45.53386" lon="4.6853">
        <ele>379</ele>
        <time>2020-02-12T18:47:24Z</time>
      </trkpt>
      <trkpt lat="45.53358" lon="4.68552">
        <ele>381</ele>
        <time>2020-02-12T18:47:29Z</time>
      </trkpt>
      <trkpt lat="45.53331" lon="4.68569">
        <ele>382</ele>
        <time>2020-02-12T18:47:35Z</time>
      </trkpt>
      <trkpt lat="45.53254" lon="4.68608">
        <ele>382</ele>
        <time>2020-02-12T18:47:49Z</time>
      </trkpt>
      <trkpt lat="45.53229" lon="4.68624">
        <ele>383</ele>
        <time>2020-02-12T18:47:54Z</time>
      </trkpt>
      <trkpt lat="45.53202" lon="4.6865">
        <ele>384</ele>
        <time>2020-02-12T18:48:00Z</time>
      </trkpt>
      <trkpt lat="45.52992" lon="4.68897">
        <ele>386</ele>
        <time>2020-02-12T18:48:48Z</time>
      </trkpt>
      <trkpt lat="45.52906" lon="4.69002">
        <ele>386</ele>
        <time>2020-02-12T18:49:08Z</time>
      </trkpt>
      <trkpt lat="45.52853" lon="4.69092">
        <ele>388</ele>
        <time>2020-02-12T18:49:23Z</time>
      </trkpt>
      <trkpt lat="45.52804" lon="4.69186">
        <ele>390</ele>
        <time>2020-02-12T18:49:38Z</time>
      </trkpt>
      <trkpt lat="45.52771" lon="4.69234">
        <ele>392</ele>
        <time>2020-02-12T18:49:46Z</time>
      </trkpt>
      <trkpt lat="45.52748" lon="4.69262">
        <ele>392</ele>
        <time>2020-02-12T18:49:51Z</time>
      </trkpt>
      <trkpt lat="45.52671" lon="4.69337">
        <ele>393</ele>
        <time>2020-02-12T18:50:08Z</time>
      </trkpt>
      <trkpt lat="45.5246" lon="4.69508">
        <ele>392</ele>
        <time>2020-02-12T18:50:51Z</time>
      </trkpt>
      <trkpt lat="45.52403" lon="4.69559">
        <ele>393</ele>
        <time>2020-02-12T18:51:03Z</time>
      </trkpt>
      <trkpt lat="45.52341" lon="4.69636">
        <ele>393</ele>
        <time>2020-02-12T18:51:18Z</time>
      </trkpt>
      <trkpt lat="45.52295" lon="4.69703">
        <ele>393</ele>
        <time>2020-02-12T18:51:29Z</time>
      </trkpt>
      <trkpt lat="45.52201" lon="4.6983">
        <ele>391</ele>
        <time>2020-02-12T18:51:52Z</time>
      </trkpt>
      <trkpt lat="45.52167" lon="4.6987">
        <ele>391</ele>
        <time>2020-02-12T18:52:00Z</time>
      </trkpt>
      <trkpt lat="45.52033" lon="4.70016">
        <ele>394</ele>
        <time>2020-02-12T18:52:30Z</time>
      </trkpt>
      <trkpt lat="45.5199" lon="4.70056">
        <ele>396</ele>
        <time>2020-02-12T18:52:39Z</time>
      </trkpt>
      <trkpt lat="45.51774" lon="4.70216">
        <ele>402</ele>
        <time>2020-02-12T18:53:23Z</time>
      </trkpt>
      <trkpt lat="45.51697" lon="4.7027">
        <ele>402</ele>
        <time>2020-02-12T18:53:38Z</time>
      </trkpt>
      <trkpt lat="45.51685" lon="4.70281">
        <ele>402</ele>
        <time>2020-02-12T18:53:40Z</time>
      </trkpt>
      <trkpt lat="45.51675" lon="4.70295">
        <ele>403</ele>
        <time>2020-02-12T18:53:43Z</time>
      </trkpt>
      <trkpt lat="45.5166" lon="4.70328">
        <ele>402</ele>
        <time>2020-02-12T18:53:48Z</time>
      </trkpt>
      <trkpt lat="45.5162" lon="4.70475">
        <ele>407</ele>
        <time>2020-02-12T18:54:08Z</time>
      </trkpt>
      <trkpt lat="45.51622" lon="4.7051">
        <ele>408</ele>
        <time>2020-02-12T18:54:12Z</time>
      </trkpt>
      <trkpt lat="45.51645" lon="4.7057">
        <ele>409</ele>
        <time>2020-02-12T18:54:20Z</time>
      </trkpt>
      <trkpt lat="45.51651" lon="4.70601">
        <ele>409</ele>
        <time>2020-02-12T18:54:24Z</time>
      </trkpt>
      <trkpt lat="45.51649" lon="4.70645">
        <ele>410</ele>
        <time>2020-02-12T18:54:30Z</time>
      </trkpt>
      <trkpt lat="45.51629" lon="4.7076">
        <ele>414</ele>
        <time>2020-02-12T18:54:45Z</time>
      </trkpt>
      <trkpt lat="45.51627" lon="4.70795">
        <ele>415</ele>
        <time>2020-02-12T18:54:49Z</time>
      </trkpt>
      <trkpt lat="45.51634" lon="4.70838">
        <ele>416</ele>
        <time>2020-02-12T18:54:55Z</time>
      </trkpt>
      <trkpt lat="45.51663" lon="4.70931">
        <ele>415</ele>
        <time>2020-02-12T18:55:07Z</time>
      </trkpt>
      <trkpt lat="45.51666" lon="4.7095">
        <ele>414</ele>
        <time>2020-02-12T18:55:10Z</time>
      </trkpt>
      <trkpt lat="45.51665" lon="4.70966">
        <ele>413</ele>
        <time>2020-02-12T18:55:12Z</time>
      </trkpt>
      <trkpt lat="45.51661" lon="4.7098">
        <ele>413</ele>
        <time>2020-02-12T18:55:14Z</time>
      </trkpt>
      <trkpt lat="45.51647" lon="4.71">
        <ele>413</ele>
        <time>2020-02-12T18:55:17Z</time>
      </trkpt>
      <trkpt lat="45.51601" lon="4.71021">
        <ele>413</ele>
        <time>2020-02-12T18:55:26Z</time>
      </trkpt>
      <trkpt lat="45.51585" lon="4.71033">
        <ele>413</ele>
        <time>2020-02-12T18:55:29Z</time>
      </trkpt>
      <trkpt lat="45.51579" lon="4.71043">
        <ele>413</ele>
        <time>2020-02-12T18:55:31Z</time>
      </trkpt>
      <trkpt lat="45.51576" lon="4.71058">
        <ele>412</ele>
        <time>2020-02-12T18:55:33Z</time>
      </trkpt>
      <trkpt lat="45.51576" lon="4.71076">
        <ele>411</ele>
        <time>2020-02-12T18:55:35Z</time>
      </trkpt>
      <trkpt lat="45.51579" lon="4.7109">
        <ele>411</ele>
        <time>2020-02-12T18:55:37Z</time>
      </trkpt>
      <trkpt lat="45.51592" lon="4.71145">
        <ele>410</ele>
        <time>2020-02-12T18:55:44Z</time>
      </trkpt>
      <trkpt lat="45.51608" lon="4.71196">
        <ele>409</ele>
        <time>2020-02-12T18:55:51Z</time>
      </trkpt>
      <trkpt lat="45.51624" lon="4.71219">
        <ele>409</ele>
        <time>2020-02-12T18:55:55Z</time>
      </trkpt>
      <trkpt lat="45.51661" lon="4.7126">
        <ele>407</ele>
        <time>2020-02-12T18:56:03Z</time>
      </trkpt>
      <trkpt lat="45.51676" lon="4.71281">
        <ele>407</ele>
        <time>2020-02-12T18:56:07Z</time>
      </trkpt>
      <trkpt lat="45.51684" lon="4.71297">
        <ele>407</ele>
        <time>2020-02-12T18:56:09Z</time>
      </trkpt>
      <trkpt lat="45.51691" lon="4.71329">
        <ele>409</ele>
        <time>2020-02-12T18:56:14Z</time>
      </trkpt>
      <trkpt lat="45.51691" lon="4.71363">
        <ele>410</ele>
        <time>2020-02-12T18:56:18Z</time>
      </trkpt>
      <trkpt lat="45.51687" lon="4.714">
        <ele>412</ele>
        <time>2020-02-12T18:56:22Z</time>
      </trkpt>
      <trkpt lat="45.51678" lon="4.71449">
        <ele>413</ele>
        <time>2020-02-12T18:56:29Z</time>
      </trkpt>
      <trkpt lat="45.51665" lon="4.71504">
        <ele>414</ele>
        <time>2020-02-12T18:56:36Z</time>
      </trkpt>
      <trkpt lat="45.51643" lon="4.71561">
        <ele>414</ele>
        <time>2020-02-12T18:56:44Z</time>
      </trkpt>
      <trkpt lat="45.51638" lon="4.71582">
        <ele>414</ele>
        <time>2020-02-12T18:56:47Z</time>
      </trkpt>
      <trkpt lat="45.51633" lon="4.71623">
        <ele>414</ele>
        <time>2020-02-12T18:56:52Z</time>
      </trkpt>
      <trkpt lat="45.51636" lon="4.71662">
        <ele>412</ele>
        <time>2020-02-12T18:56:57Z</time>
      </trkpt>
      <trkpt lat="45.51669" lon="4.71771">
        <ele>412</ele>
        <time>2020-02-12T18:57:12Z</time>
      </trkpt>
      <trkpt lat="45.51672" lon="4.71812">
        <ele>412</ele>
        <time>2020-02-12T18:57:17Z</time>
      </trkpt>
      <trkpt lat="45.5167" lon="4.71854">
        <ele>412</ele>
        <time>2020-02-12T18:57:22Z</time>
      </trkpt>
      <trkpt lat="45.51664" lon="4.71886">
        <ele>411</ele>
        <time>2020-02-12T18:57:26Z</time>
      </trkpt>
      <trkpt lat="45.51651" lon="4.71932">
        <ele>410</ele>
        <time>2020-02-12T18:57:32Z</time>
      </trkpt>
      <trkpt lat="45.51637" lon="4.71969">
        <ele>410</ele>
        <time>2020-02-12T18:57:38Z</time>
      </trkpt>
      <trkpt lat="45.51622" lon="4.72005">
        <ele>409</ele>
        <time>2020-02-12T18:57:43Z</time>
      </trkpt>
      <trkpt lat="45.51599" lon="4.7205">
        <ele>409</ele>
        <time>2020-02-12T18:57:50Z</time>
      </trkpt>
      <trkpt lat="45.51538" lon="4.72166">
        <ele>410</ele>
        <time>2020-02-12T18:58:08Z</time>
      </trkpt>
      <trkpt lat="45.51514" lon="4.72204">
        <ele>409</ele>
        <time>2020-02-12T18:58:14Z</time>
      </trkpt>
      <trkpt lat="45.51412" lon="4.7235">
        <ele>402</ele>
        <time>2020-02-12T18:58:40Z</time>
      </trkpt>
      <trkpt lat="45.51362" lon="4.72417">
        <ele>400</ele>
        <time>2020-02-12T18:58:52Z</time>
      </trkpt>
      <trkpt lat="45.51334" lon="4.72451">
        <ele>398</ele>
        <time>2020-02-12T18:58:59Z</time>
      </trkpt>
      <trkpt lat="45.51289" lon="4.72499">
        <ele>395</ele>
        <time>2020-02-12T18:59:09Z</time>
      </trkpt>
      <trkpt lat="45.51247" lon="4.72555">
        <ele>393</ele>
        <time>2020-02-12T18:59:19Z</time>
      </trkpt>
      <trkpt lat="45.51214" lon="4.72615">
        <ele>391</ele>
        <time>2020-02-12T18:59:29Z</time>
      </trkpt>
      <trkpt lat="45.51156" lon="4.72733">
        <ele>393</ele>
        <time>2020-02-12T18:59:46Z</time>
      </trkpt>
      <trkpt lat="45.5109" lon="4.72857">
        <ele>390</ele>
        <time>2020-02-12T19:00:06Z</time>
      </trkpt>
      <trkpt lat="45.51051" lon="4.72902">
        <ele>388</ele>
        <time>2020-02-12T19:00:15Z</time>
      </trkpt>
      <trkpt lat="45.50974" lon="4.72975">
        <ele>385</ele>
        <time>2020-02-12T19:00:31Z</time>
      </trkpt>
      <trkpt lat="45.50871" lon="4.73093">
        <ele>379</ele>
        <time>2020-02-12T19:00:55Z</time>
      </trkpt>
      <trkpt lat="45.50844" lon="4.73138">
        <ele>376</ele>
        <time>2020-02-12T19:01:02Z</time>
      </trkpt>
      <trkpt lat="45.50827" lon="4.73188">
        <ele>374</ele>
        <time>2020-02-12T19:01:09Z</time>
      </trkpt>
      <trkpt lat="45.50818" lon="4.73202">
        <ele>375</ele>
        <time>2020-02-12T19:01:11Z</time>
      </trkpt>
      <trkpt lat="45.50808" lon="4.73212">
        <ele>375</ele>
        <time>2020-02-12T19:01:14Z</time>
      </trkpt>
      <trkpt lat="45.50795" lon="4.7322">
        <ele>374</ele>
        <time>2020-02-12T19:01:16Z</time>
      </trkpt>
      <trkpt lat="45.50756" lon="4.73235">
        <ele>370</ele>
        <time>2020-02-12T19:01:23Z</time>
      </trkpt>
      <trkpt lat="45.5073" lon="4.73253">
        <ele>370</ele>
        <time>2020-02-12T19:01:28Z</time>
      </trkpt>
      <trkpt lat="45.50567" lon="4.73431">
        <ele>363</ele>
        <time>2020-02-12T19:02:05Z</time>
      </trkpt>
      <trkpt lat="45.50541" lon="4.73466">
        <ele>363</ele>
        <time>2020-02-12T19:02:11Z</time>
      </trkpt>
      <trkpt lat="45.50517" lon="4.73504">
        <ele>361</ele>
        <time>2020-02-12T19:02:18Z</time>
      </trkpt>
      <trkpt lat="45.50474" lon="4.73583">
        <ele>361</ele>
        <time>2020-02-12T19:02:30Z</time>
      </trkpt>
      <trkpt lat="45.50451" lon="4.73616">
        <ele>362</ele>
        <time>2020-02-12T19:02:36Z</time>
      </trkpt>
      <trkpt lat="45.50421" lon="4.73643">
        <ele>359</ele>
        <time>2020-02-12T19:02:42Z</time>
      </trkpt>
      <trkpt lat="45.50392" lon="4.73662">
        <ele>358</ele>
        <time>2020-02-12T19:02:48Z</time>
      </trkpt>
      <trkpt lat="45.50348" lon="4.73699">
        <ele>356</ele>
        <time>2020-02-12T19:02:57Z</time>
      </trkpt>
      <trkpt lat="45.50306" lon="4.73739">
        <ele>352</ele>
        <time>2020-02-12T19:03:06Z</time>
      </trkpt>
      <trkpt lat="45.5027" lon="4.73788">
        <ele>348</ele>
        <time>2020-02-12T19:03:15Z</time>
      </trkpt>
      <trkpt lat="45.50252" lon="4.73824">
        <ele>345</ele>
        <time>2020-02-12T19:03:20Z</time>
      </trkpt>
      <trkpt lat="45.50234" lon="4.7387">
        <ele>345</ele>
        <time>2020-02-12T19:03:27Z</time>
      </trkpt>
      <trkpt lat="45.50194" lon="4.73926">
        <ele>344</ele>
        <time>2020-02-12T19:03:37Z</time>
      </trkpt>
      <trkpt lat="45.50142" lon="4.74006">
        <ele>345</ele>
        <time>2020-02-12T19:03:51Z</time>
      </trkpt>
      <trkpt lat="45.50133" lon="4.74024">
        <ele>345</ele>
        <time>2020-02-12T19:03:53Z</time>
      </trkpt>
      <trkpt lat="45.50119" lon="4.74067">
        <ele>345</ele>
        <time>2020-02-12T19:03:59Z</time>
      </trkpt>
      <trkpt lat="45.50102" lon="4.7416">
        <ele>343</ele>
        <time>2020-02-12T19:04:11Z</time>
      </trkpt>
      <trkpt lat="45.50092" lon="4.7424">
        <ele>340</ele>
        <time>2020-02-12T19:04:21Z</time>
      </trkpt>
      <trkpt lat="45.50091" lon="4.74304">
        <ele>337</ele>
        <time>2020-02-12T19:04:29Z</time>
      </trkpt>
      <trkpt lat="45.50099" lon="4.74371">
        <ele>337</ele>
        <time>2020-02-12T19:04:38Z</time>
      </trkpt>
      <trkpt lat="45.501" lon="4.7446">
        <ele>337</ele>
        <time>2020-02-12T19:04:49Z</time>
      </trkpt>
      <trkpt lat="45.50108" lon="4.74547">
        <ele>341</ele>
        <time>2020-02-12T19:05:00Z</time>
      </trkpt>
      <trkpt lat="45.50104" lon="4.74589">
        <ele>341</ele>
        <time>2020-02-12T19:05:05Z</time>
      </trkpt>
      <trkpt lat="45.50098" lon="4.74608">
        <ele>340</ele>
        <time>2020-02-12T19:05:08Z</time>
      </trkpt>
      <trkpt lat="45.50071" lon="4.74664">
        <ele>337</ele>
        <time>2020-02-12T19:05:16Z</time>
      </trkpt>
      <trkpt lat="45.50026" lon="4.7474">
        <ele>332</ele>
        <time>2020-02-12T19:05:29Z</time>
      </trkpt>
      <trkpt lat="45.49934" lon="4.74856">
        <ele>326</ele>
        <time>2020-02-12T19:05:50Z</time>
      </trkpt>
      <trkpt lat="45.49904" lon="4.74899">
        <ele>327</ele>
        <time>2020-02-12T19:05:58Z</time>
      </trkpt>
      <trkpt lat="45.49888" lon="4.74941">
        <ele>329</ele>
        <time>2020-02-12T19:06:04Z</time>
      </trkpt>
      <trkpt lat="45.49877" lon="4.74984">
        <ele>330</ele>
        <time>2020-02-12T19:06:10Z</time>
      </trkpt>
      <trkpt lat="45.49854" lon="4.75044">
        <ele>329</ele>
        <time>2020-02-12T19:06:18Z</time>
      </trkpt>
      <trkpt lat="45.49807" lon="4.75142">
        <ele>323</ele>
        <time>2020-02-12T19:06:33Z</time>
      </trkpt>
      <trkpt lat="45.49764" lon="4.75219">
        <ele>320</ele>
        <time>2020-02-12T19:06:45Z</time>
      </trkpt>
      <trkpt lat="45.49726" lon="4.7526">
        <ele>318</ele>
        <time>2020-02-12T19:06:54Z</time>
      </trkpt>
      <trkpt lat="45.49662" lon="4.75308">
        <ele>317</ele>
        <time>2020-02-12T19:07:07Z</time>
      </trkpt>
      <trkpt lat="45.49587" lon="4.7535">
        <ele>314</ele>
        <time>2020-02-12T19:07:21Z</time>
      </trkpt>
      <trkpt lat="45.49538" lon="4.75372">
        <ele>315</ele>
        <time>2020-02-12T19:07:30Z</time>
      </trkpt>
      <trkpt lat="45.49491" lon="4.75389">
        <ele>315</ele>
        <time>2020-02-12T19:07:39Z</time>
      </trkpt>
      <trkpt lat="45.49461" lon="4.75396">
        <ele>316</ele>
        <time>2020-02-12T19:07:44Z</time>
      </trkpt>
      <trkpt lat="45.49386" lon="4.75406">
        <ele>320</ele>
        <time>2020-02-12T19:07:58Z</time>
      </trkpt>
      <trkpt lat="45.49371" lon="4.75412">
        <ele>321</ele>
        <time>2020-02-12T19:08:00Z</time>
      </trkpt>
      <trkpt lat="45.49355" lon="4.75422">
        <ele>321</ele>
        <time>2020-02-12T19:08:03Z</time>
      </trkpt>
      <trkpt lat="45.49312" lon="4.75453">
        <ele>318</ele>
        <time>2020-02-12T19:08:12Z</time>
      </trkpt>
      <trkpt lat="45.49254" lon="4.75482">
        <ele>316</ele>
        <time>2020-02-12T19:08:23Z</time>
      </trkpt>
      <trkpt lat="45.49241" lon="4.75491">
        <ele>317</ele>
        <time>2020-02-12T19:08:26Z</time>
      </trkpt>
      <trkpt lat="45.49228" lon="4.75504">
        <ele>317</ele>
        <time>2020-02-12T19:08:28Z</time>
      </trkpt>
      <trkpt lat="45.4919" lon="4.75561">
        <ele>317</ele>
        <time>2020-02-12T19:08:38Z</time>
      </trkpt>
      <trkpt lat="45.4918" lon="4.7557">
        <ele>316</ele>
        <time>2020-02-12T19:08:40Z</time>
      </trkpt>
      <trkpt lat="45.49129" lon="4.75584">
        <ele>320</ele>
        <time>2020-02-12T19:08:50Z</time>
      </trkpt>
      <trkpt lat="45.49116" lon="4.75592">
        <ele>321</ele>
        <time>2020-02-12T19:08:52Z</time>
      </trkpt>
      <trkpt lat="45.49105" lon="4.75603">
        <ele>321</ele>
        <time>2020-02-12T19:08:54Z</time>
      </trkpt>
      <trkpt lat="45.49079" lon="4.7565">
        <ele>320</ele>
        <time>2020-02-12T19:09:02Z</time>
      </trkpt>
      <trkpt lat="45.49057" lon="4.75676">
        <ele>321</ele>
        <time>2020-02-12T19:09:07Z</time>
      </trkpt>
      <trkpt lat="45.49031" lon="4.75693">
        <ele>322</ele>
        <time>2020-02-12T19:09:12Z</time>
      </trkpt>
      <trkpt lat="45.49014" lon="4.757">
        <ele>323</ele>
        <time>2020-02-12T19:09:15Z</time>
      </trkpt>
      <trkpt lat="45.48914" lon="4.75754">
        <ele>331</ele>
        <time>2020-02-12T19:09:34Z</time>
      </trkpt>
      <trkpt lat="45.48902" lon="4.75758">
        <ele>330</ele>
        <time>2020-02-12T19:09:36Z</time>
      </trkpt>
      <trkpt lat="45.48876" lon="4.75755">
        <ele>328</ele>
        <time>2020-02-12T19:09:41Z</time>
      </trkpt>
      <trkpt lat="45.48854" lon="4.75742">
        <ele>328</ele>
        <time>2020-02-12T19:09:45Z</time>
      </trkpt>
      <trkpt lat="45.48844" lon="4.75732">
        <ele>328</ele>
        <time>2020-02-12T19:09:48Z</time>
      </trkpt>
      <trkpt lat="45.48829" lon="4.75705">
        <ele>329</ele>
        <time>2020-02-12T19:09:52Z</time>
      </trkpt>
      <trkpt lat="45.48804" lon="4.75623">
        <ele>333</ele>
        <time>2020-02-12T19:10:03Z</time>
      </trkpt>
      <trkpt lat="45.48797" lon="4.7561">
        <ele>334</ele>
        <time>2020-02-12T19:10:05Z</time>
      </trkpt>
      <trkpt lat="45.4879" lon="4.75599">
        <ele>334</ele>
        <time>2020-02-12T19:10:07Z</time>
      </trkpt>
      <trkpt lat="45.48779" lon="4.75593">
        <ele>333</ele>
        <time>2020-02-12T19:10:09Z</time>
      </trkpt>
      <trkpt lat="45.48768" lon="4.75593">
        <ele>333</ele>
        <time>2020-02-12T19:10:11Z</time>
      </trkpt>
      <trkpt lat="45.48759" lon="4.75598">
        <ele>332</ele>
        <time>2020-02-12T19:10:13Z</time>
      </trkpt>
      <trkpt lat="45.48746" lon="4.75619">
        <ele>332</ele>
        <time>2020-02-12T19:10:16Z</time>
      </trkpt>
      <trkpt lat="45.4874" lon="4.75668">
        <ele>332</ele>
        <time>2020-02-12T19:10:22Z</time>
      </trkpt>
      <trkpt lat="45.48737" lon="4.75732">
        <ele>331</ele>
        <time>2020-02-12T19:10:30Z</time>
      </trkpt>
      <trkpt lat="45.48728" lon="4.75774">
        <ele>330</ele>
        <time>2020-02-12T19:10:36Z</time>
      </trkpt>
      <trkpt lat="45.48721" lon="4.75792">
        <ele>330</ele>
        <time>2020-02-12T19:10:38Z</time>
      </trkpt>
      <trkpt lat="45.4871" lon="4.75808">
        <ele>331</ele>
        <time>2020-02-12T19:10:41Z</time>
      </trkpt>
      <trkpt lat="45.48686" lon="4.75829">
        <ele>332</ele>
        <time>2020-02-12T19:10:46Z</time>
      </trkpt>
      <trkpt lat="45.4866" lon="4.75832">
        <ele>333</ele>
        <time>2020-02-12T19:10:51Z</time>
      </trkpt>
      <trkpt lat="45.48648" lon="4.75827">
        <ele>333</ele>
        <time>2020-02-12T19:10:53Z</time>
      </trkpt>
      <trkpt lat="45.48613" lon="4.75792">
        <ele>336</ele>
        <time>2020-02-12T19:11:01Z</time>
      </trkpt>
      <trkpt lat="45.48584" lon="4.75771">
        <ele>339</ele>
        <time>2020-02-12T19:11:06Z</time>
      </trkpt>
      <trkpt lat="45.4857" lon="4.75765">
        <ele>340</ele>
        <time>2020-02-12T19:11:09Z</time>
      </trkpt>
      <trkpt lat="45.48554" lon="4.75762">
        <ele>340</ele>
        <time>2020-02-12T19:11:12Z</time>
      </trkpt>
      <trkpt lat="45.48539" lon="4.75763">
        <ele>340</ele>
        <time>2020-02-12T19:11:15Z</time>
      </trkpt>
      <trkpt lat="45.48524" lon="4.75768">
        <ele>340</ele>
        <time>2020-02-12T19:11:17Z</time>
      </trkpt>
      <trkpt lat="45.48428" lon="4.75827">
        <ele>334</ele>
        <time>2020-02-12T19:11:36Z</time>
      </trkpt>
      <trkpt lat="45.48301" lon="4.75897">
        <ele>334</ele>
        <time>2020-02-12T19:12:00Z</time>
      </trkpt>
      <trkpt lat="45.48271" lon="4.75916">
        <ele>334</ele>
        <time>2020-02-12T19:12:06Z</time>
      </trkpt>
      <trkpt lat="45.48213" lon="4.75944">
        <ele>335</ele>
        <time>2020-02-12T19:12:17Z</time>
      </trkpt>
      <trkpt lat="45.48199" lon="4.75947">
        <ele>336</ele>
        <time>2020-02-12T19:12:19Z</time>
      </trkpt>
      <trkpt lat="45.48183" lon="4.75946">
        <ele>337</ele>
        <time>2020-02-12T19:12:22Z</time>
      </trkpt>
      <trkpt lat="45.48158" lon="4.75938">
        <ele>337</ele>
        <time>2020-02-12T19:12:27Z</time>
      </trkpt>
      <trkpt lat="45.48115" lon="4.75918">
        <ele>337</ele>
        <time>2020-02-12T19:12:35Z</time>
      </trkpt>
      <trkpt lat="45.481" lon="4.75913">
        <ele>337</ele>
        <time>2020-02-12T19:12:38Z</time>
      </trkpt>
      <trkpt lat="45.48084" lon="4.75912">
        <ele>337</ele>
        <time>2020-02-12T19:12:40Z</time>
      </trkpt>
      <trkpt lat="45.48068" lon="4.75914">
        <ele>337</ele>
        <time>2020-02-12T19:12:43Z</time>
      </trkpt>
      <trkpt lat="45.48052" lon="4.7592">
        <ele>336</ele>
        <time>2020-02-12T19:12:46Z</time>
      </trkpt>
      <trkpt lat="45.47936" lon="4.75973">
        <ele>335</ele>
        <time>2020-02-12T19:13:08Z</time>
      </trkpt>
      <trkpt lat="45.47894" lon="4.75987">
        <ele>336</ele>
        <time>2020-02-12T19:13:16Z</time>
      </trkpt>
      <trkpt lat="45.47762" lon="4.76006">
        <ele>333</ele>
        <time>2020-02-12T19:13:39Z</time>
      </trkpt>
      <trkpt lat="45.47755" lon="4.76004">
        <ele>333</ele>
        <time>2020-02-12T19:13:40Z</time>
      </trkpt>
      <trkpt lat="45.4775" lon="4.75992">
        <ele>333</ele>
        <time>2020-02-12T19:13:42Z</time>
      </trkpt>
      <trkpt lat="45.47746" lon="4.75989">
        <ele>333</ele>
        <time>2020-02-12T19:13:43Z</time>
      </trkpt>
      <trkpt lat="45.47736" lon="4.75991">
        <ele>332</ele>
        <time>2020-02-12T19:13:45Z</time>
      </trkpt>
      <trkpt lat="45.47731" lon="4.76002">
        <ele>332</ele>
        <time>2020-02-12T19:13:46Z</time>
      </trkpt>
      <trkpt lat="45.47733" lon="4.76017">
        <ele>332</ele>
        <time>2020-02-12T19:13:48Z</time>
      </trkpt>
      <trkpt lat="45.47705" lon="4.76058">
        <ele>331</ele>
        <time>2020-02-12T19:13:55Z</time>
      </trkpt>
      <trkpt lat="45.47667" lon="4.76124">
        <ele>330</ele>
        <time>2020-02-12T19:14:06Z</time>
      </trkpt>
      <trkpt lat="45.47622" lon="4.76181">
        <ele>329</ele>
        <time>2020-02-12T19:14:17Z</time>
      </trkpt>
      <trkpt lat="45.4759" lon="4.76213">
        <ele>329</ele>
        <time>2020-02-12T19:14:24Z</time>
      </trkpt>
      <trkpt lat="45.47565" lon="4.76233">
        <ele>329</ele>
        <time>2020-02-12T19:14:29Z</time>
      </trkpt>
      <trkpt lat="45.47413" lon="4.76331">
        <ele>326</ele>
        <time>2020-02-12T19:14:59Z</time>
      </trkpt>
      <trkpt lat="45.47369" lon="4.76348">
        <ele>323</ele>
        <time>2020-02-12T19:15:07Z</time>
      </trkpt>
      <trkpt lat="45.47293" lon="4.76371">
        <ele>317</ele>
        <time>2020-02-12T19:15:21Z</time>
      </trkpt>
      <trkpt lat="45.47265" lon="4.76386">
        <ele>317</ele>
        <time>2020-02-12T19:15:26Z</time>
      </trkpt>
      <trkpt lat="45.47184" lon="4.76444">
        <ele>313</ele>
        <time>2020-02-12T19:15:42Z</time>
      </trkpt>
      <trkpt lat="45.47126" lon="4.7649">
        <ele>310</ele>
        <time>2020-02-12T19:15:54Z</time>
      </trkpt>
      <trkpt lat="45.47118" lon="4.76497">
        <ele>309</ele>
        <time>2020-02-12T19:15:55Z</time>
      </trkpt>
      <trkpt lat="45.47105" lon="4.76516">
        <ele>308</ele>
        <time>2020-02-12T19:15:59Z</time>
      </trkpt>
      <trkpt lat="45.47097" lon="4.76543">
        <ele>307</ele>
        <time>2020-02-12T19:16:02Z</time>
      </trkpt>
      <trkpt lat="45.47088" lon="4.76607">
        <ele>305</ele>
        <time>2020-02-12T19:16:11Z</time>
      </trkpt>
      <trkpt lat="45.47075" lon="4.76667">
        <ele>301</ele>
        <time>2020-02-12T19:16:18Z</time>
      </trkpt>
      <trkpt lat="45.47055" lon="4.76702">
        <ele>298</ele>
        <time>2020-02-12T19:16:24Z</time>
      </trkpt>
      <trkpt lat="45.47026" lon="4.76736">
        <ele>293</ele>
        <time>2020-02-12T19:16:31Z</time>
      </trkpt>
      <trkpt lat="45.47013" lon="4.76755">
        <ele>291</ele>
        <time>2020-02-12T19:16:34Z</time>
      </trkpt>
      <trkpt lat="45.4701" lon="4.76765">
        <ele>290</ele>
        <time>2020-02-12T19:16:35Z</time>
      </trkpt>
      <trkpt lat="45.47013" lon="4.76789">
        <ele>289</ele>
        <time>2020-02-12T19:16:38Z</time>
      </trkpt>
      <trkpt lat="45.47026" lon="4.76809">
        <ele>289</ele>
        <time>2020-02-12T19:16:42Z</time>
      </trkpt>
      <trkpt lat="45.47086" lon="4.76854">
        <ele>287</ele>
        <time>2020-02-12T19:16:54Z</time>
      </trkpt>
      <trkpt lat="45.47112" lon="4.76883">
        <ele>282</ele>
        <time>2020-02-12T19:17:00Z</time>
      </trkpt>
      <trkpt lat="45.47121" lon="4.76888">
        <ele>282</ele>
        <time>2020-02-12T19:17:01Z</time>
      </trkpt>
      <trkpt lat="45.47153" lon="4.76894">
        <ele>283</ele>
        <time>2020-02-12T19:17:07Z</time>
      </trkpt>
      <trkpt lat="45.47164" lon="4.76899">
        <ele>282</ele>
        <time>2020-02-12T19:17:09Z</time>
      </trkpt>
      <trkpt lat="45.47191" lon="4.76924">
        <ele>277</ele>
        <time>2020-02-12T19:17:15Z</time>
      </trkpt>
      <trkpt lat="45.47223" lon="4.7694">
        <ele>275</ele>
        <time>2020-02-12T19:17:21Z</time>
      </trkpt>
      <trkpt lat="45.47265" lon="4.76967">
        <ele>272</ele>
        <time>2020-02-12T19:17:29Z</time>
      </trkpt>
      <trkpt lat="45.47287" lon="4.76971">
        <ele>271</ele>
        <time>2020-02-12T19:17:33Z</time>
      </trkpt>
      <trkpt lat="45.47298" lon="4.76969">
        <ele>271</ele>
        <time>2020-02-12T19:17:35Z</time>
      </trkpt>
      <trkpt lat="45.47316" lon="4.76957">
        <ele>272</ele>
        <time>2020-02-12T19:17:39Z</time>
      </trkpt>
      <trkpt lat="45.47328" lon="4.76942">
        <ele>274</ele>
        <time>2020-02-12T19:17:42Z</time>
      </trkpt>
      <trkpt lat="45.47335" lon="4.76938">
        <ele>274</ele>
        <time>2020-02-12T19:17:43Z</time>
      </trkpt>
      <trkpt lat="45.47342" lon="4.76941">
        <ele>273</ele>
        <time>2020-02-12T19:17:44Z</time>
      </trkpt>
      <trkpt lat="45.47348" lon="4.76956">
        <ele>271</ele>
        <time>2020-02-12T19:17:46Z</time>
      </trkpt>
      <trkpt lat="45.47349" lon="4.76979">
        <ele>267</ele>
        <time>2020-02-12T19:17:49Z</time>
      </trkpt>
      <trkpt lat="45.47339" lon="4.77055">
        <ele>257</ele>
        <time>2020-02-12T19:17:59Z</time>
      </trkpt>
      <trkpt lat="45.4734" lon="4.77085">
        <ele>253</ele>
        <time>2020-02-12T19:18:03Z</time>
      </trkpt>
      <trkpt lat="45.47344" lon="4.77096">
        <ele>250</ele>
        <time>2020-02-12T19:18:04Z</time>
      </trkpt>
      <trkpt lat="45.47352" lon="4.77105">
        <ele>247</ele>
        <time>2020-02-12T19:18:06Z</time>
      </trkpt>
      <trkpt lat="45.47359" lon="4.77109">
        <ele>246</ele>
        <time>2020-02-12T19:18:07Z</time>
      </trkpt>
      <trkpt lat="45.47368" lon="4.7711">
        <ele>245</ele>
        <time>2020-02-12T19:18:09Z</time>
      </trkpt>
      <trkpt lat="45.4739" lon="4.77107">
        <ele>244</ele>
        <time>2020-02-12T19:18:13Z</time>
      </trkpt>
      <trkpt lat="45.47397" lon="4.77111">
        <ele>242</ele>
        <time>2020-02-12T19:18:14Z</time>
      </trkpt>
      <trkpt lat="45.474" lon="4.77119">
        <ele>240</ele>
        <time>2020-02-12T19:18:15Z</time>
      </trkpt>
      <trkpt lat="45.47399" lon="4.77126">
        <ele>238</ele>
        <time>2020-02-12T19:18:16Z</time>
      </trkpt>
      <trkpt lat="45.47394" lon="4.77132">
        <ele>237</ele>
        <time>2020-02-12T19:18:17Z</time>
      </trkpt>
      <trkpt lat="45.47386" lon="4.77133">
        <ele>238</ele>
        <time>2020-02-12T19:18:19Z</time>
      </trkpt>
      <trkpt lat="45.47349" lon="4.77129">
        <ele>242</ele>
        <time>2020-02-12T19:18:25Z</time>
      </trkpt>
      <trkpt lat="45.47332" lon="4.77124">
        <ele>244</ele>
        <time>2020-02-12T19:18:28Z</time>
      </trkpt>
      <trkpt lat="45.47319" lon="4.77107">
        <ele>249</ele>
        <time>2020-02-12T19:18:32Z</time>
      </trkpt>
      <trkpt lat="45.4731" lon="4.77066">
        <ele>258</ele>
        <time>2020-02-12T19:18:37Z</time>
      </trkpt>
      <trkpt lat="45.47304" lon="4.7706">
        <ele>259</ele>
        <time>2020-02-12T19:18:38Z</time>
      </trkpt>
      <trkpt lat="45.47299" lon="4.7706">
        <ele>259</ele>
        <time>2020-02-12T19:18:39Z</time>
      </trkpt>
      <trkpt lat="45.47292" lon="4.77065">
        <ele>259</ele>
        <time>2020-02-12T19:18:41Z</time>
      </trkpt>
      <trkpt lat="45.47288" lon="4.77073">
        <ele>258</ele>
        <time>2020-02-12T19:18:42Z</time>
      </trkpt>
      <trkpt lat="45.4727" lon="4.77152">
        <ele>243</ele>
        <time>2020-02-12T19:18:52Z</time>
      </trkpt>
      <trkpt lat="45.47261" lon="4.77174">
        <ele>237</ele>
        <time>2020-02-12T19:18:55Z</time>
      </trkpt>
      <trkpt lat="45.47245" lon="4.77189">
        <ele>232</ele>
        <time>2020-02-12T19:18:59Z</time>
      </trkpt>
      <trkpt lat="45.47234" lon="4.77193">
        <ele>230</ele>
        <time>2020-02-12T19:19:01Z</time>
      </trkpt>
      <trkpt lat="45.47211" lon="4.77197">
        <ele>226</ele>
        <time>2020-02-12T19:19:05Z</time>
      </trkpt>
      <trkpt lat="45.472" lon="4.77195">
        <ele>225</ele>
        <time>2020-02-12T19:19:07Z</time>
      </trkpt>
      <trkpt lat="45.47135" lon="4.77168">
        <ele>222</ele>
        <time>2020-02-12T19:19:19Z</time>
      </trkpt>
      <trkpt lat="45.47123" lon="4.77157">
        <ele>221</ele>
        <time>2020-02-12T19:19:21Z</time>
      </trkpt>
      <trkpt lat="45.47117" lon="4.77147">
        <ele>221</ele>
        <time>2020-02-12T19:19:23Z</time>
      </trkpt>
      <trkpt lat="45.47113" lon="4.77137">
        <ele>222</ele>
        <time>2020-02-12T19:19:25Z</time>
      </trkpt>
      <trkpt lat="45.47107" lon="4.77101">
        <ele>227</ele>
        <time>2020-02-12T19:19:29Z</time>
      </trkpt>
      <trkpt lat="45.47102" lon="4.77093">
        <ele>227</ele>
        <time>2020-02-12T19:19:30Z</time>
      </trkpt>
      <trkpt lat="45.47093" lon="4.77089">
        <ele>226</ele>
        <time>2020-02-12T19:19:32Z</time>
      </trkpt>
      <trkpt lat="45.47085" lon="4.7709">
        <ele>224</ele>
        <time>2020-02-12T19:19:34Z</time>
      </trkpt>
      <trkpt lat="45.47068" lon="4.77101">
        <ele>219</ele>
        <time>2020-02-12T19:19:37Z</time>
      </trkpt>
      <trkpt lat="45.4704" lon="4.77133">
        <ele>209</ele>
        <time>2020-02-12T19:19:43Z</time>
      </trkpt>
      <trkpt lat="45.47025" lon="4.77139">
        <ele>205</ele>
        <time>2020-02-12T19:19:46Z</time>
      </trkpt>
      <trkpt lat="45.47009" lon="4.77132">
        <ele>205</ele>
        <time>2020-02-12T19:19:49Z</time>
      </trkpt>
      <trkpt lat="45.46995" lon="4.77115">
        <ele>206</ele>
        <time>2020-02-12T19:19:52Z</time>
      </trkpt>
      <trkpt lat="45.46985" lon="4.77084">
        <ele>212</ele>
        <time>2020-02-12T19:19:57Z</time>
      </trkpt>
      <trkpt lat="45.46981" lon="4.77076">
        <ele>214</ele>
        <time>2020-02-12T19:19:58Z</time>
      </trkpt>
      <trkpt lat="45.46974" lon="4.7707">
        <ele>215</ele>
        <time>2020-02-12T19:19:59Z</time>
      </trkpt>
      <trkpt lat="45.46967" lon="4.77069">
        <ele>214</ele>
        <time>2020-02-12T19:20:01Z</time>
      </trkpt>
      <trkpt lat="45.46948" lon="4.77075">
        <ele>211</ele>
        <time>2020-02-12T19:20:04Z</time>
      </trkpt>
      <trkpt lat="45.46917" lon="4.77092">
        <ele>203</ele>
        <time>2020-02-12T19:20:10Z</time>
      </trkpt>
      <trkpt lat="45.46906" lon="4.77092">
        <ele>201</ele>
        <time>2020-02-12T19:20:12Z</time>
      </trkpt>
      <trkpt lat="45.46896" lon="4.77088">
        <ele>201</ele>
        <time>2020-02-12T19:20:14Z</time>
      </trkpt>
      <trkpt lat="45.46878" lon="4.77075">
        <ele>202</ele>
        <time>2020-02-12T19:20:17Z</time>
      </trkpt>
      <trkpt lat="45.4686" lon="4.77067">
        <ele>201</ele>
        <time>2020-02-12T19:20:21Z</time>
      </trkpt>
      <trkpt lat="45.46842" lon="4.77068">
        <ele>198</ele>
        <time>2020-02-12T19:20:24Z</time>
      </trkpt>
      <trkpt lat="45.4681" lon="4.77079">
        <ele>190</ele>
        <time>2020-02-12T19:20:30Z</time>
      </trkpt>
      <trkpt lat="45.46798" lon="4.7708">
        <ele>188</ele>
        <time>2020-02-12T19:20:32Z</time>
      </trkpt>
      <trkpt lat="45.46776" lon="4.77073">
        <ele>186</ele>
        <time>2020-02-12T19:20:36Z</time>
      </trkpt>
      <trkpt lat="45.46744" lon="4.77053">
        <ele>184</ele>
        <time>2020-02-12T19:20:42Z</time>
      </trkpt>
      <trkpt lat="45.46703" lon="4.7702">
        <ele>179</ele>
        <time>2020-02-12T19:20:50Z</time>
      </trkpt>
      <trkpt lat="45.46663" lon="4.76979">
        <ele>175</ele>
        <time>2020-02-12T19:20:59Z</time>
      </trkpt>
      <trkpt lat="45.46637" lon="4.76947">
        <ele>173</ele>
        <time>2020-02-12T19:21:05Z</time>
      </trkpt>
      <trkpt lat="45.46625" lon="4.76923">
        <ele>172</ele>
        <time>2020-02-12T19:21:09Z</time>
      </trkpt>
      <trkpt lat="45.46618" lon="4.76903">
        <ele>171</ele>
        <time>2020-02-12T19:21:12Z</time>
      </trkpt>
      <trkpt lat="45.46614" lon="4.76865">
        <ele>172</ele>
        <time>2020-02-12T19:21:17Z</time>
      </trkpt>
      <trkpt lat="45.46615" lon="4.76836">
        <ele>174</ele>
        <time>2020-02-12T19:21:20Z</time>
      </trkpt>
      <trkpt lat="45.46613" lon="4.76824">
        <ele>175</ele>
        <time>2020-02-12T19:21:22Z</time>
      </trkpt>
      <trkpt lat="45.46604" lon="4.76808">
        <ele>176</ele>
        <time>2020-02-12T19:21:24Z</time>
      </trkpt>
      <trkpt lat="45.46585" lon="4.76796">
        <ele>174</ele>
        <time>2020-02-12T19:21:28Z</time>
      </trkpt>
      <trkpt lat="45.46515" lon="4.76786">
        <ele>168</ele>
        <time>2020-02-12T19:21:41Z</time>
      </trkpt>
      <trkpt lat="45.46504" lon="4.76781">
        <ele>168</ele>
        <time>2020-02-12T19:21:43Z</time>
      </trkpt>
      <trkpt lat="45.46453" lon="4.76735">
        <ele>166</ele>
        <time>2020-02-12T19:21:53Z</time>
      </trkpt>
      <trkpt lat="45.46434" lon="4.76725">
        <ele>164</ele>
        <time>2020-02-12T19:21:57Z</time>
      </trkpt>
      <trkpt lat="45.46404" lon="4.76725">
        <ele>160</ele>
        <time>2020-02-12T19:22:02Z</time>
      </trkpt>
      <trkpt lat="45.464" lon="4.76727">
        <ele>160</ele>
        <time>2020-02-12T19:22:03Z</time>
      </trkpt>
      <trkpt lat="45.46388" lon="4.76742">
        <ele>158</ele>
        <time>2020-02-12T19:22:06Z</time>
      </trkpt>
      <trkpt lat="45.46351" lon="4.76822">
        <ele>153</ele>
        <time>2020-02-12T19:22:18Z</time>
      </trkpt>
      <trkpt lat="45.46351" lon="4.76854">
        <ele>152</ele>
        <time>2020-02-12T19:22:22Z</time>
      </trkpt>
      <trkpt lat="45.46346" lon="4.76875">
        <ele>152</ele>
        <time>2020-02-12T19:22:25Z</time>
      </trkpt>
      <trkpt lat="45.46308" lon="4.76951">
        <ele>150</ele>
        <time>2020-02-12T19:22:36Z</time>
      </trkpt>
      <trkpt lat="45.46233" lon="4.76873">
        <ele>151</ele>
        <time>2020-02-12T19:22:53Z</time>
      </trkpt>
      <trkpt lat="45.46173" lon="4.76803">
        <ele>152</ele>
        <time>2020-02-12T19:23:07Z</time>
      </trkpt>
      <trkpt lat="45.46134" lon="4.76861">
        <ele>150</ele>
        <time>2020-02-12T19:23:17Z</time>
      </trkpt>
      <trkpt lat="45.46116" lon="4.7688">
        <ele>150</ele>
        <time>2020-02-12T19:23:21Z</time>
      </trkpt>
      <trkpt lat="45.46098" lon="4.76893">
        <ele>150</ele>
        <time>2020-02-12T19:23:24Z</time>
      </trkpt>
      <trkpt lat="45.46069" lon="4.76909">
        <ele>150</ele>
        <time>2020-02-12T19:23:30Z</time>
      </trkpt>
      <trkpt lat="45.46045" lon="4.76918">
        <ele>149</ele>
        <time>2020-02-12T19:23:34Z</time>
      </trkpt>
      <trkpt lat="45.46027" lon="4.76919">
        <ele>149</ele>
        <time>2020-02-12T19:23:37Z</time>
      </trkpt>
      <trkpt lat="45.46011" lon="4.76915">
        <ele>148</ele>
        <time>2020-02-12T19:23:40Z</time>
      </trkpt>
      <trkpt lat="45.4596" lon="4.76856">
        <ele>147</ele>
        <time>2020-02-12T19:23:52Z</time>
      </trkpt>
      <trkpt lat="45.45931" lon="4.76839">
        <ele>146</ele>
        <time>2020-02-12T19:23:57Z</time>
      </trkpt>
      <trkpt lat="45.45912" lon="4.76839">
        <ele>146</ele>
        <time>2020-02-12T19:24:01Z</time>
      </trkpt>
      <trkpt lat="45.45894" lon="4.76844">
        <ele>147</ele>
        <time>2020-02-12T19:24:04Z</time>
      </trkpt>
      <trkpt lat="45.45853" lon="4.76865">
        <ele>148</ele>
        <time>2020-02-12T19:24:12Z</time>
      </trkpt>
      <trkpt lat="45.45836" lon="4.76872">
        <ele>148</ele>
        <time>2020-02-12T19:24:15Z</time>
      </trkpt>
      <trkpt lat="45.45821" lon="4.76875">
        <ele>147</ele>
        <time>2020-02-12T19:24:18Z</time>
      </trkpt>
      <trkpt lat="45.45613" lon="4.76862">
        <ele>146</ele>
        <time>2020-02-12T19:24:55Z</time>
      </trkpt>
      <trkpt lat="45.45589" lon="4.76865">
        <ele>148</ele>
        <time>2020-02-12T19:24:59Z</time>
      </trkpt>
      <trkpt lat="45.45463" lon="4.76826">
        <ele>153</ele>
        <time>2020-02-12T19:25:22Z</time>
      </trkpt>
      <trkpt lat="45.45247" lon="4.76773">
        <ele>151</ele>
        <time>2020-02-12T19:26:01Z</time>
      </trkpt>
      <trkpt lat="45.45243" lon="4.76781">
        <ele>151</ele>
        <time>2020-02-12T19:26:02Z</time>
      </trkpt>
      <trkpt lat="45.45205" lon="4.76806">
        <ele>153</ele>
        <time>2020-02-12T19:26:10Z</time>
      </trkpt>
      <trkpt lat="45.45148" lon="4.76859">
        <ele>155</ele>
        <time>2020-02-12T19:26:22Z</time>
      </trkpt>
      <trkpt lat="45.45135" lon="4.76868">
        <ele>155</ele>
        <time>2020-02-12T19:26:24Z</time>
      </trkpt>
      <trkpt lat="45.45127" lon="4.76881">
        <ele>156</ele>
        <time>2020-02-12T19:26:26Z</time>
      </trkpt>
      <trkpt lat="45.45104" lon="4.76897">
        <ele>157</ele>
        <time>2020-02-12T19:26:31Z</time>
      </trkpt>
      <trkpt lat="45.45085" lon="4.76915">
        <ele>158</ele>
        <time>2020-02-12T19:26:35Z</time>
      </trkpt>
      <trkpt lat="45.45094" lon="4.77002">
        <ele>160</ele>
        <time>2020-02-12T19:26:46Z</time>
      </trkpt>
      <trkpt lat="45.4511" lon="4.77059">
        <ele>162</ele>
        <time>2020-02-12T19:26:54Z</time>
      </trkpt>
      <trkpt lat="45.45068" lon="4.77119">
        <ele>174</ele>
        <time>2020-02-12T19:27:04Z</time>
      </trkpt>
      <trkpt lat="45.45038" lon="4.77149">
        <ele>180</ele>
        <time>2020-02-12T19:27:11Z</time>
      </trkpt>
      <trkpt lat="45.45032" lon="4.77159">
        <ele>181</ele>
        <time>2020-02-12T19:27:12Z</time>
      </trkpt>
      <trkpt lat="45.45011" lon="4.77227">
        <ele>187</ele>
        <time>2020-02-12T19:27:22Z</time>
      </trkpt>
      <trkpt lat="45.44988" lon="4.77273">
        <ele>192</ele>
        <time>2020-02-12T19:27:29Z</time>
      </trkpt>
      <trkpt lat="45.44977" lon="4.77285">
        <ele>195</ele>
        <time>2020-02-12T19:27:31Z</time>
      </trkpt>
      <trkpt lat="45.44955" lon="4.77334">
        <ele>201</ele>
        <time>2020-02-12T19:27:38Z</time>
      </trkpt>
      <trkpt lat="45.44945" lon="4.77374">
        <ele>203</ele>
        <time>2020-02-12T19:27:44Z</time>
      </trkpt>
      <trkpt lat="45.44926" lon="4.77423">
        <ele>205</ele>
        <time>2020-02-12T19:27:51Z</time>
      </trkpt>
      <trkpt lat="45.4491" lon="4.77483">
        <ele>207</ele>
        <time>2020-02-12T19:27:59Z</time>
      </trkpt>
      <trkpt lat="45.44898" lon="4.77542">
        <ele>212</ele>
        <time>2020-02-12T19:28:06Z</time>
      </trkpt>
      <trkpt lat="45.44876" lon="4.7761">
        <ele>219</ele>
        <time>2020-02-12T19:28:16Z</time>
      </trkpt>
      <trkpt lat="45.44852" lon="4.77608">
        <ele>221</ele>
        <time>2020-02-12T19:28:20Z</time>
      </trkpt>
      <trkpt lat="45.44828" lon="4.77594">
        <ele>222</ele>
        <time>2020-02-12T19:28:25Z</time>
      </trkpt>
      <trkpt lat="45.44818" lon="4.77591">
        <ele>222</ele>
        <time>2020-02-12T19:28:27Z</time>
      </trkpt>
      <trkpt lat="45.44801" lon="4.77589">
        <ele>222</ele>
        <time>2020-02-12T19:28:30Z</time>
      </trkpt>
      <trkpt lat="45.44789" lon="4.77591">
        <ele>222</ele>
        <time>2020-02-12T19:28:32Z</time>
      </trkpt>
      <trkpt lat="45.4476" lon="4.77607">
        <ele>225</ele>
        <time>2020-02-12T19:28:37Z</time>
      </trkpt>
      <trkpt lat="45.44687" lon="4.77639">
        <ele>232</ele>
        <time>2020-02-12T19:28:51Z</time>
      </trkpt>
      <trkpt lat="45.44659" lon="4.77654">
        <ele>235</ele>
        <time>2020-02-12T19:28:56Z</time>
      </trkpt>
      <trkpt lat="45.44635" lon="4.77678">
        <ele>241</ele>
        <time>2020-02-12T19:29:01Z</time>
      </trkpt>
      <trkpt lat="45.44619" lon="4.77685">
        <ele>244</ele>
        <time>2020-02-12T19:29:04Z</time>
      </trkpt>
      <trkpt lat="45.44618" lon="4.77704">
        <ele>247</ele>
        <time>2020-02-12T19:29:07Z</time>
      </trkpt>
      <trkpt lat="45.4461" lon="4.77719">
        <ele>250</ele>
        <time>2020-02-12T19:29:09Z</time>
      </trkpt>
      <trkpt lat="45.44603" lon="4.77748">
        <ele>255</ele>
        <time>2020-02-12T19:29:13Z</time>
      </trkpt>
      <trkpt lat="45.44599" lon="4.7779">
        <ele>259</ele>
        <time>2020-02-12T19:29:18Z</time>
      </trkpt>
      <trkpt lat="45.44592" lon="4.77816">
        <ele>260</ele>
        <time>2020-02-12T19:29:22Z</time>
      </trkpt>
      <trkpt lat="45.4456" lon="4.77876">
        <ele>259</ele>
        <time>2020-02-12T19:29:31Z</time>
      </trkpt>
      <trkpt lat="45.44558" lon="4.77898">
        <ele>260</ele>
        <time>2020-02-12T19:29:34Z</time>
      </trkpt>
      <trkpt lat="45.44559" lon="4.77927">
        <ele>261</ele>
        <time>2020-02-12T19:29:37Z</time>
      </trkpt>
      <trkpt lat="45.44551" lon="4.77962">
        <ele>262</ele>
        <time>2020-02-12T19:29:42Z</time>
      </trkpt>
      <trkpt lat="45.44542" lon="4.77982">
        <ele>262</ele>
        <time>2020-02-12T19:29:45Z</time>
      </trkpt>
      <trkpt lat="45.44534" lon="4.78015">
        <ele>262</ele>
        <time>2020-02-12T19:29:49Z</time>
      </trkpt>
      <trkpt lat="45.44522" lon="4.78098">
        <ele>263</ele>
        <time>2020-02-12T19:30:00Z</time>
      </trkpt>
      <trkpt lat="45.44503" lon="4.78158">
        <ele>263</ele>
        <time>2020-02-12T19:30:08Z</time>
      </trkpt>
      <trkpt lat="45.44494" lon="4.78232">
        <ele>269</ele>
        <time>2020-02-12T19:30:18Z</time>
      </trkpt>
      <trkpt lat="45.44498" lon="4.78336">
        <ele>273</ele>
        <time>2020-02-12T19:30:31Z</time>
      </trkpt>
      <trkpt lat="45.44505" lon="4.78401">
        <ele>273</ele>
        <time>2020-02-12T19:30:39Z</time>
      </trkpt>
      <trkpt lat="45.4452" lon="4.78434">
        <ele>273</ele>
        <time>2020-02-12T19:30:44Z</time>
      </trkpt>
      <trkpt lat="45.44549" lon="4.78479">
        <ele>272</ele>
        <time>2020-02-12T19:30:51Z</time>
      </trkpt>
      <trkpt lat="45.4458" lon="4.78582">
        <ele>268</ele>
        <time>2020-02-12T19:31:05Z</time>
      </trkpt>
      <trkpt lat="45.44597" lon="4.78623">
        <ele>265</ele>
        <time>2020-02-12T19:31:11Z</time>
      </trkpt>
      <trkpt lat="45.44604" lon="4.78627">
        <ele>264</ele>
        <time>2020-02-12T19:31:13Z</time>
      </trkpt>
      <trkpt lat="45.4461" lon="4.78625">
        <ele>264</ele>
        <time>2020-02-12T19:31:14Z</time>
      </trkpt>
      <trkpt lat="45.44661" lon="4.78571">
        <ele>264</ele>
        <time>2020-02-12T19:31:25Z</time>
      </trkpt>
      <trkpt lat="45.44675" lon="4.78564">
        <ele>264</ele>
        <time>2020-02-12T19:31:28Z</time>
      </trkpt>
      <trkpt lat="45.44661" lon="4.78589">
        <ele>262</ele>
        <time>2020-02-12T19:31:32Z</time>
      </trkpt>
      <trkpt lat="45.44641" lon="4.78611">
        <ele>262</ele>
        <time>2020-02-12T19:31:36Z</time>
      </trkpt>
      <trkpt lat="45.44629" lon="4.78632">
        <ele>262</ele>
        <time>2020-02-12T19:31:40Z</time>
      </trkpt>
      <trkpt lat="45.446" lon="4.78728">
        <ele>257</ele>
        <time>2020-02-12T19:31:53Z</time>
      </trkpt>
      <trkpt lat="45.44542" lon="4.78846">
        <ele>248</ele>
        <time>2020-02-12T19:32:11Z</time>
      </trkpt>
      <trkpt lat="45.44525" lon="4.78912">
        <ele>245</ele>
        <time>2020-02-12T19:32:19Z</time>
      </trkpt>
      <trkpt lat="45.44522" lon="4.78976">
        <ele>240</ele>
        <time>2020-02-12T19:32:27Z</time>
      </trkpt>
      <trkpt lat="45.44518" lon="4.78998">
        <ele>238</ele>
        <time>2020-02-12T19:32:30Z</time>
      </trkpt>
      <trkpt lat="45.44493" lon="4.7904">
        <ele>234</ele>
        <time>2020-02-12T19:32:37Z</time>
      </trkpt>
      <trkpt lat="45.44477" lon="4.79074">
        <ele>231</ele>
        <time>2020-02-12T19:32:42Z</time>
      </trkpt>
      <trkpt lat="45.4448" lon="4.79078">
        <ele>231</ele>
        <time>2020-02-12T19:32:43Z</time>
      </trkpt>
      <trkpt lat="45.4448" lon="4.7909">
        <ele>231</ele>
        <time>2020-02-12T19:32:44Z</time>
      </trkpt>
      <trkpt lat="45.44474" lon="4.79095">
        <ele>230</ele>
        <time>2020-02-12T19:32:46Z</time>
      </trkpt>
      <trkpt lat="45.44469" lon="4.79094">
        <ele>230</ele>
        <time>2020-02-12T19:32:47Z</time>
      </trkpt>
      <trkpt lat="45.44466" lon="4.7909">
        <ele>229</ele>
        <time>2020-02-12T19:32:47Z</time>
      </trkpt>
      <trkpt lat="45.44469" lon="4.79094">
        <ele>230</ele>
        <time>2020-02-12T19:32:48Z</time>
      </trkpt>
      <trkpt lat="45.44477" lon="4.79094">
        <ele>230</ele>
        <time>2020-02-12T19:32:49Z</time>
      </trkpt>
      <trkpt lat="45.4448" lon="4.79132">
        <ele>232</ele>
        <time>2020-02-12T19:32:54Z</time>
      </trkpt>
      <trkpt lat="45.44475" lon="4.79186">
        <ele>233</ele>
        <time>2020-02-12T19:33:01Z</time>
      </trkpt>
      <trkpt lat="45.44462" lon="4.79243">
        <ele>233</ele>
        <time>2020-02-12T19:33:08Z</time>
      </trkpt>
      <trkpt lat="45.44444" lon="4.79278">
        <ele>233</ele>
        <time>2020-02-12T19:33:14Z</time>
      </trkpt>
      <trkpt lat="45.44411" lon="4.79327">
        <ele>232</ele>
        <time>2020-02-12T19:33:22Z</time>
      </trkpt>
      <trkpt lat="45.44408" lon="4.79342">
        <ele>231</ele>
        <time>2020-02-12T19:33:24Z</time>
      </trkpt>
      <trkpt lat="45.44406" lon="4.79399">
        <ele>230</ele>
        <time>2020-02-12T19:33:31Z</time>
      </trkpt>
      <trkpt lat="45.44397" lon="4.79447">
        <ele>228</ele>
        <time>2020-02-12T19:33:38Z</time>
      </trkpt>
      <trkpt lat="45.44393" lon="4.79459">
        <ele>227</ele>
        <time>2020-02-12T19:33:39Z</time>
      </trkpt>
      <trkpt lat="45.44369" lon="4.79505">
        <ele>225</ele>
        <time>2020-02-12T19:33:46Z</time>
      </trkpt>
      <trkpt lat="45.44319" lon="4.7965">
        <ele>217</ele>
        <time>2020-02-12T19:34:07Z</time>
      </trkpt>
      <trkpt lat="45.44308" lon="4.79671">
        <ele>216</ele>
        <time>2020-02-12T19:34:10Z</time>
      </trkpt>
      <trkpt lat="45.4429" lon="4.79694">
        <ele>216</ele>
        <time>2020-02-12T19:34:14Z</time>
      </trkpt>
      <trkpt lat="45.44239" lon="4.79746">
        <ele>214</ele>
        <time>2020-02-12T19:34:25Z</time>
      </trkpt>
      <trkpt lat="45.44221" lon="4.79757">
        <ele>213</ele>
        <time>2020-02-12T19:34:29Z</time>
      </trkpt>
      <trkpt lat="45.44211" lon="4.7976">
        <ele>213</ele>
        <time>2020-02-12T19:34:31Z</time>
      </trkpt>
      <trkpt lat="45.44202" lon="4.79761">
        <ele>213</ele>
        <time>2020-02-12T19:34:32Z</time>
      </trkpt>
      <trkpt lat="45.44181" lon="4.79757">
        <ele>212</ele>
        <time>2020-02-12T19:34:36Z</time>
      </trkpt>
      <trkpt lat="45.44156" lon="4.79743">
        <ele>212</ele>
        <time>2020-02-12T19:34:41Z</time>
      </trkpt>
      <trkpt lat="45.441" lon="4.79704">
        <ele>209</ele>
        <time>2020-02-12T19:34:52Z</time>
      </trkpt>
      <trkpt lat="45.44085" lon="4.79699">
        <ele>208</ele>
        <time>2020-02-12T19:34:55Z</time>
      </trkpt>
      <trkpt lat="45.44063" lon="4.79697">
        <ele>207</ele>
        <time>2020-02-12T19:34:59Z</time>
      </trkpt>
      <trkpt lat="45.44041" lon="4.79703">
        <ele>205</ele>
        <time>2020-02-12T19:35:03Z</time>
      </trkpt>
      <trkpt lat="45.4403" lon="4.7971">
        <ele>204</ele>
        <time>2020-02-12T19:35:05Z</time>
      </trkpt>
      <trkpt lat="45.43993" lon="4.7975">
        <ele>202</ele>
        <time>2020-02-12T19:35:13Z</time>
      </trkpt>
      <trkpt lat="45.43973" lon="4.79761">
        <ele>201</ele>
        <time>2020-02-12T19:35:17Z</time>
      </trkpt>
      <trkpt lat="45.43961" lon="4.79763">
        <ele>200</ele>
        <time>2020-02-12T19:35:19Z</time>
      </trkpt>
      <trkpt lat="45.43936" lon="4.79758">
        <ele>199</ele>
        <time>2020-02-12T19:35:23Z</time>
      </trkpt>
      <trkpt lat="45.43863" lon="4.79726">
        <ele>196</ele>
        <time>2020-02-12T19:35:37Z</time>
      </trkpt>
      <trkpt lat="45.43792" lon="4.79713">
        <ele>199</ele>
        <time>2020-02-12T19:35:50Z</time>
      </trkpt>
      <trkpt lat="45.43767" lon="4.79699">
        <ele>201</ele>
        <time>2020-02-12T19:35:54Z</time>
      </trkpt>
      <trkpt lat="45.43714" lon="4.79655">
        <ele>203</ele>
        <time>2020-02-12T19:36:05Z</time>
      </trkpt>
      <trkpt lat="45.43687" lon="4.79641">
        <ele>206</ele>
        <time>2020-02-12T19:36:11Z</time>
      </trkpt>
      <trkpt lat="45.43672" lon="4.79636">
        <ele>207</ele>
        <time>2020-02-12T19:36:13Z</time>
      </trkpt>
      <trkpt lat="45.43638" lon="4.79634">
        <ele>207</ele>
        <time>2020-02-12T19:36:19Z</time>
      </trkpt>
      <trkpt lat="45.43501" lon="4.79643">
        <ele>209</ele>
        <time>2020-02-12T19:36:44Z</time>
      </trkpt>
      <trkpt lat="45.43454" lon="4.79649">
        <ele>208</ele>
        <time>2020-02-12T19:36:52Z</time>
      </trkpt>
      <trkpt lat="45.43471" lon="4.79725">
        <ele>210</ele>
        <time>2020-02-12T19:37:02Z</time>
      </trkpt>
      <trkpt lat="45.4358" lon="4.80273">
        <ele>211</ele>
        <time>2020-02-12T19:38:13Z</time>
      </trkpt>
      <trkpt lat="45.43584" lon="4.80304">
        <ele>211</ele>
        <time>2020-02-12T19:38:17Z</time>
      </trkpt>
      <trkpt lat="45.43589" lon="4.80406">
        <ele>211</ele>
        <time>2020-02-12T19:38:30Z</time>
      </trkpt>
      <trkpt lat="45.43586" lon="4.80467">
        <ele>212</ele>
        <time>2020-02-12T19:38:38Z</time>
      </trkpt>
      <trkpt lat="45.43541" lon="4.80777">
        <ele>211</ele>
        <time>2020-02-12T19:39:17Z</time>
      </trkpt>
      <trkpt lat="45.43515" lon="4.80859">
        <ele>211</ele>
        <time>2020-02-12T19:39:28Z</time>
      </trkpt>
      <trkpt lat="45.43503" lon="4.80907">
        <ele>210</ele>
        <time>2020-02-12T19:39:35Z</time>
      </trkpt>
      <trkpt lat="45.43495" lon="4.81048">
        <ele>212</ele>
        <time>2020-02-12T19:39:52Z</time>
      </trkpt>
      <trkpt lat="45.4349" lon="4.8107">
        <ele>211</ele>
        <time>2020-02-12T19:39:55Z</time>
      </trkpt>
      <trkpt lat="45.43439" lon="4.81229">
        <ele>207</ele>
        <time>2020-02-12T19:40:17Z</time>
      </trkpt>
      <trkpt lat="45.43433" lon="4.81256">
        <ele>206</ele>
        <time>2020-02-12T19:40:21Z</time>
      </trkpt>
      <trkpt lat="45.43427" lon="4.81338">
        <ele>205</ele>
        <time>2020-02-12T19:40:31Z</time>
      </trkpt>
      <trkpt lat="45.43419" lon="4.81388">
        <ele>205</ele>
        <time>2020-02-12T19:40:37Z</time>
      </trkpt>
      <trkpt lat="45.43408" lon="4.81431">
        <ele>203</ele>
        <time>2020-02-12T19:40:43Z</time>
      </trkpt>
      <trkpt lat="45.43403" lon="4.81516">
        <ele>202</ele>
        <time>2020-02-12T19:40:54Z</time>
      </trkpt>
      <trkpt lat="45.43393" lon="4.81555">
        <ele>202</ele>
        <time>2020-02-12T19:40:59Z</time>
      </trkpt>
      <trkpt lat="45.43378" lon="4.81585">
        <ele>200</ele>
        <time>2020-02-12T19:41:03Z</time>
      </trkpt>
      <trkpt lat="45.43344" lon="4.8163">
        <ele>197</ele>
        <time>2020-02-12T19:41:12Z</time>
      </trkpt>
      <trkpt lat="45.43302" lon="4.81711">
        <ele>195</ele>
        <time>2020-02-12T19:41:24Z</time>
      </trkpt>
      <trkpt lat="45.43277" lon="4.81769">
        <ele>194</ele>
        <time>2020-02-12T19:41:33Z</time>
      </trkpt>
      <trkpt lat="45.43263" lon="4.81812">
        <ele>196</ele>
        <time>2020-02-12T19:41:39Z</time>
      </trkpt>
      <trkpt lat="45.43151" lon="4.81785">
        <ele>192</ele>
        <time>2020-02-12T19:41:59Z</time>
      </trkpt>
      <trkpt lat="45.43059" lon="4.82239">
        <ele>193</ele>
        <time>2020-02-12T19:42:58Z</time>
      </trkpt>
      <trkpt lat="45.43051" lon="4.82319">
        <ele>195</ele>
        <time>2020-02-12T19:43:08Z</time>
      </trkpt>
      <trkpt lat="45.43023" lon="4.82886">
        <ele>210</ele>
        <time>2020-02-12T19:44:19Z</time>
      </trkpt>
      <trkpt lat="45.42962" lon="4.83355">
        <ele>220</ele>
        <time>2020-02-12T19:45:18Z</time>
      </trkpt>
      <trkpt lat="45.42951" lon="4.83477">
        <ele>224</ele>
        <time>2020-02-12T19:45:34Z</time>
      </trkpt>
      <trkpt lat="45.42951" lon="4.83604">
        <ele>226</ele>
        <time>2020-02-12T19:45:50Z</time>
      </trkpt>
      <trkpt lat="45.42947" lon="4.8378">
        <ele>226</ele>
        <time>2020-02-12T19:46:12Z</time>
      </trkpt>
      <trkpt lat="45.42937" lon="4.8385">
        <ele>226</ele>
        <time>2020-02-12T19:46:21Z</time>
      </trkpt>
      <trkpt lat="45.42934" lon="4.83849">
        <ele>226</ele>
        <time>2020-02-12T19:46:21Z</time>
      </trkpt>
      <trkpt lat="45.42929" lon="4.83855">
        <ele>226</ele>
        <time>2020-02-12T19:46:22Z</time>
      </trkpt>
      <trkpt lat="45.4293" lon="4.83863">
        <ele>226</ele>
        <time>2020-02-12T19:46:23Z</time>
      </trkpt>
      <trkpt lat="45.42934" lon="4.83866">
        <ele>226</ele>
        <time>2020-02-12T19:46:24Z</time>
      </trkpt>
      <trkpt lat="45.42921" lon="4.8397">
        <ele>229</ele>
        <time>2020-02-12T19:46:37Z</time>
      </trkpt>
      <trkpt lat="45.42834" lon="4.84616">
        <ele>239</ele>
        <time>2020-02-12T19:47:59Z</time>
      </trkpt>
      <trkpt lat="45.42826" lon="4.847">
        <ele>240</ele>
        <time>2020-02-12T19:48:10Z</time>
      </trkpt>
      <trkpt lat="45.42806" lon="4.84824">
        <ele>241</ele>
        <time>2020-02-12T19:48:26Z</time>
      </trkpt>
      <trkpt lat="45.42753" lon="4.85221">
        <ele>243</ele>
        <time>2020-02-12T19:49:16Z</time>
      </trkpt>
      <trkpt lat="45.4275" lon="4.85272">
        <ele>243</ele>
        <time>2020-02-12T19:49:23Z</time>
      </trkpt>
      <trkpt lat="45.42751" lon="4.8536">
        <ele>243</ele>
        <time>2020-02-12T19:49:34Z</time>
      </trkpt>
      <trkpt lat="45.42802" lon="4.87713">
        <ele>255</ele>
        <time>2020-02-12T19:54:28Z</time>
      </trkpt>
      <trkpt lat="45.42799" lon="4.87772">
        <ele>256</ele>
        <time>2020-02-12T19:54:35Z</time>
      </trkpt>
      <trkpt lat="45.4279" lon="4.87815">
        <ele>257</ele>
        <time>2020-02-12T19:54:41Z</time>
      </trkpt>
      <trkpt lat="45.42766" lon="4.87884">
        <ele>259</ele>
        <time>2020-02-12T19:54:50Z</time>
      </trkpt>
      <trkpt lat="45.42687" lon="4.88035">
        <ele>264</ele>
        <time>2020-02-12T19:55:14Z</time>
      </trkpt>
      <trkpt lat="45.42648" lon="4.88104">
        <ele>266</ele>
        <time>2020-02-12T19:55:25Z</time>
      </trkpt>
      <trkpt lat="45.42581" lon="4.88211">
        <ele>265</ele>
        <time>2020-02-12T19:55:43Z</time>
      </trkpt>
      <trkpt lat="45.42509" lon="4.88315">
        <ele>264</ele>
        <time>2020-02-12T19:56:01Z</time>
      </trkpt>
      <trkpt lat="45.42492" lon="4.88332">
        <ele>263</ele>
        <time>2020-02-12T19:56:05Z</time>
      </trkpt>
      <trkpt lat="45.42448" lon="4.88368">
        <ele>259</ele>
        <time>2020-02-12T19:56:14Z</time>
      </trkpt>
      <trkpt lat="45.42425" lon="4.88404">
        <ele>257</ele>
        <time>2020-02-12T19:56:20Z</time>
      </trkpt>
      <trkpt lat="45.42412" lon="4.88449">
        <ele>256</ele>
        <time>2020-02-12T19:56:26Z</time>
      </trkpt>
      <trkpt lat="45.4241" lon="4.88533">
        <ele>258</ele>
        <time>2020-02-12T19:56:36Z</time>
      </trkpt>
      <trkpt lat="45.42401" lon="4.8857">
        <ele>257</ele>
        <time>2020-02-12T19:56:41Z</time>
      </trkpt>
      <trkpt lat="45.42385" lon="4.88605">
        <ele>256</ele>
        <time>2020-02-12T19:56:47Z</time>
      </trkpt>
      <trkpt lat="45.42306" lon="4.88757">
        <ele>253</ele>
        <time>2020-02-12T19:57:10Z</time>
      </trkpt>
      <trkpt lat="45.42279" lon="4.88824">
        <ele>256</ele>
        <time>2020-02-12T19:57:20Z</time>
      </trkpt>
      <trkpt lat="45.42216" lon="4.88995">
        <ele>249</ele>
        <time>2020-02-12T19:57:44Z</time>
      </trkpt>
      <trkpt lat="45.42202" lon="4.89049">
        <ele>249</ele>
        <time>2020-02-12T19:57:51Z</time>
      </trkpt>
      <trkpt lat="45.42148" lon="4.89405">
        <ele>252</ele>
        <time>2020-02-12T19:58:37Z</time>
      </trkpt>
      <trkpt lat="45.42122" lon="4.89593">
        <ele>253</ele>
        <time>2020-02-12T19:59:01Z</time>
      </trkpt>
      <trkpt lat="45.42106" lon="4.89651">
        <ele>252</ele>
        <time>2020-02-12T19:59:08Z</time>
      </trkpt>
      <trkpt lat="45.42101" lon="4.89649">
        <ele>251</ele>
        <time>2020-02-12T19:59:09Z</time>
      </trkpt>
      <trkpt lat="45.42095" lon="4.89652">
        <ele>250</ele>
        <time>2020-02-12T19:59:10Z</time>
      </trkpt>
      <trkpt lat="45.42091" lon="4.89661">
        <ele>250</ele>
        <time>2020-02-12T19:59:12Z</time>
      </trkpt>
      <trkpt lat="45.42094" lon="4.89675">
        <ele>250</ele>
        <time>2020-02-12T19:59:14Z</time>
      </trkpt>
      <trkpt lat="45.42101" lon="4.89679">
        <ele>251</ele>
        <time>2020-02-12T19:59:15Z</time>
      </trkpt>
      <trkpt lat="45.421" lon="4.89716">
        <ele>251</ele>
        <time>2020-02-12T19:59:20Z</time>
      </trkpt>
      <trkpt lat="45.42067" lon="4.89947">
        <ele>253</ele>
        <time>2020-02-12T19:59:49Z</time>
      </trkpt>
      <trkpt lat="45.42062" lon="4.9005">
        <ele>256</ele>
        <time>2020-02-12T20:00:02Z</time>
      </trkpt>
      <trkpt lat="45.42068" lon="4.90125">
        <ele>256</ele>
        <time>2020-02-12T20:00:11Z</time>
      </trkpt>
      <trkpt lat="45.42098" lon="4.90265">
        <ele>259</ele>
        <time>2020-02-12T20:00:30Z</time>
      </trkpt>
      <trkpt lat="45.42165" lon="4.90543">
        <ele>260</ele>
        <time>2020-02-12T20:01:06Z</time>
      </trkpt>
      <trkpt lat="45.42185" lon="4.9064">
        <ele>261</ele>
        <time>2020-02-12T20:01:19Z</time>
      </trkpt>
      <trkpt lat="45.42201" lon="4.90695">
        <ele>264</ele>
        <time>2020-02-12T20:01:26Z</time>
      </trkpt>
      <trkpt lat="45.42372" lon="4.91419">
        <ele>270</ele>
        <time>2020-02-12T20:03:02Z</time>
      </trkpt>
      <trkpt lat="45.42381" lon="4.91463">
        <ele>270</ele>
        <time>2020-02-12T20:03:07Z</time>
      </trkpt>
      <trkpt lat="45.4239" lon="4.91553">
        <ele>270</ele>
        <time>2020-02-12T20:03:19Z</time>
      </trkpt>
      <trkpt lat="45.42399" lon="4.91611">
        <ele>269</ele>
        <time>2020-02-12T20:03:26Z</time>
      </trkpt>
      <trkpt lat="45.42467" lon="4.91925">
        <ele>271</ele>
        <time>2020-02-12T20:04:07Z</time>
      </trkpt>
      <trkpt lat="45.42487" lon="4.92001">
        <ele>272</ele>
        <time>2020-02-12T20:04:17Z</time>
      </trkpt>
      <trkpt lat="45.42581" lon="4.92249">
        <ele>271</ele>
        <time>2020-02-12T20:04:53Z</time>
      </trkpt>
      <trkpt lat="45.42605" lon="4.92307">
        <ele>272</ele>
        <time>2020-02-12T20:05:01Z</time>
      </trkpt>
      <trkpt lat="45.42847" lon="4.92851">
        <ele>277</ele>
        <time>2020-02-12T20:06:21Z</time>
      </trkpt>
      <trkpt lat="45.43068" lon="4.93355">
        <ele>277</ele>
        <time>2020-02-12T20:07:36Z</time>
      </trkpt>
      <trkpt lat="45.43139" lon="4.93514">
        <ele>280</ele>
        <time>2020-02-12T20:07:59Z</time>
      </trkpt>
      <trkpt lat="45.43157" lon="4.93547">
        <ele>280</ele>
        <time>2020-02-12T20:08:04Z</time>
      </trkpt>
      <trkpt lat="45.43183" lon="4.93614">
        <ele>281</ele>
        <time>2020-02-12T20:08:14Z</time>
      </trkpt>
      <trkpt lat="45.43238" lon="4.93735">
        <ele>284</ele>
        <time>2020-02-12T20:08:32Z</time>
      </trkpt>
      <trkpt lat="45.43329" lon="4.93952">
        <ele>285</ele>
        <time>2020-02-12T20:09:04Z</time>
      </trkpt>
      <trkpt lat="45.43359" lon="4.94057">
        <ele>285</ele>
        <time>2020-02-12T20:09:18Z</time>
      </trkpt>
      <trkpt lat="45.43789" lon="4.95757">
        <ele>296</ele>
        <time>2020-02-12T20:13:03Z</time>
      </trkpt>
      <trkpt lat="45.43802" lon="4.95824">
        <ele>296</ele>
        <time>2020-02-12T20:13:12Z</time>
      </trkpt>
      <trkpt lat="45.4382" lon="4.95949">
        <ele>297</ele>
        <time>2020-02-12T20:13:28Z</time>
      </trkpt>
      <trkpt lat="45.44071" lon="4.97799">
        <ele>322</ele>
        <time>2020-02-12T20:17:23Z</time>
      </trkpt>
      <trkpt lat="45.44101" lon="4.98041">
        <ele>325</ele>
        <time>2020-02-12T20:17:54Z</time>
      </trkpt>
      <trkpt lat="45.4414" lon="4.98294">
        <ele>328</ele>
        <time>2020-02-12T20:18:26Z</time>
      </trkpt>
      <trkpt lat="45.44157" lon="4.98445">
        <ele>328</ele>
        <time>2020-02-12T20:18:45Z</time>
      </trkpt>
      <trkpt lat="45.44178" lon="4.98584">
        <ele>326</ele>
        <time>2020-02-12T20:19:03Z</time>
      </trkpt>
      <trkpt lat="45.4421" lon="4.9883">
        <ele>327</ele>
        <time>2020-02-12T20:19:34Z</time>
      </trkpt>
      <trkpt lat="45.4429" lon="4.99404">
        <ele>332</ele>
        <time>2020-02-12T20:20:47Z</time>
      </trkpt>
      <trkpt lat="45.44315" lon="4.996">
        <ele>332</ele>
        <time>2020-02-12T20:21:12Z</time>
      </trkpt>
      <trkpt lat="45.44313" lon="4.99608">
        <ele>332</ele>
        <time>2020-02-12T20:21:13Z</time>
      </trkpt>
      <trkpt lat="45.44314" lon="4.99633">
        <ele>332</ele>
        <time>2020-02-12T20:21:16Z</time>
      </trkpt>
      <trkpt lat="45.44319" lon="4.99654">
        <ele>332</ele>
        <time>2020-02-12T20:21:19Z</time>
      </trkpt>
      <trkpt lat="45.44324" lon="4.99663">
        <ele>333</ele>
        <time>2020-02-12T20:21:21Z</time>
      </trkpt>
      <trkpt lat="45.44365" lon="4.99966">
        <ele>338</ele>
        <time>2020-02-12T20:21:59Z</time>
      </trkpt>
      <trkpt lat="45.44369" lon="4.99982">
        <ele>338</ele>
        <time>2020-02-12T20:22:01Z</time>
      </trkpt>
      <trkpt lat="45.4438" lon="5.00005">
        <ele>338</ele>
        <time>2020-02-12T20:22:05Z</time>
      </trkpt>
      <trkpt lat="45.44378" lon="5.00011">
        <ele>338</ele>
        <time>2020-02-12T20:22:06Z</time>
      </trkpt>
      <trkpt lat="45.44379" lon="5.0002">
        <ele>338</ele>
        <time>2020-02-12T20:22:07Z</time>
      </trkpt>
      <trkpt lat="45.44384" lon="5.00025">
        <ele>338</ele>
        <time>2020-02-12T20:22:08Z</time>
      </trkpt>
      <trkpt lat="45.4438" lon="5.00043">
        <ele>338</ele>
        <time>2020-02-12T20:22:10Z</time>
      </trkpt>
      <trkpt lat="45.44372" lon="5.00062">
        <ele>337</ele>
        <time>2020-02-12T20:22:13Z</time>
      </trkpt>
      <trkpt lat="45.44363" lon="5.00076">
        <ele>337</ele>
        <time>2020-02-12T20:22:15Z</time>
      </trkpt>
      <trkpt lat="45.44126" lon="5.00405">
        <ele>341</ele>
        <time>2020-02-12T20:23:14Z</time>
      </trkpt>
      <trkpt lat="45.44107" lon="5.00426">
        <ele>342</ele>
        <time>2020-02-12T20:23:18Z</time>
      </trkpt>
      <trkpt lat="45.44068" lon="5.00448">
        <ele>344</ele>
        <time>2020-02-12T20:23:26Z</time>
      </trkpt>
      <trkpt lat="45.44072" lon="5.00467">
        <ele>344</ele>
        <time>2020-02-12T20:23:28Z</time>
      </trkpt>
      <trkpt lat="45.44087" lon="5.00603">
        <ele>343</ele>
        <time>2020-02-12T20:23:45Z</time>
      </trkpt>
      <trkpt lat="45.44189" lon="5.01332">
        <ele>346</ele>
        <time>2020-02-12T20:25:18Z</time>
      </trkpt>
      <trkpt lat="45.44223" lon="5.01551">
        <ele>349</ele>
        <time>2020-02-12T20:25:46Z</time>
      </trkpt>
      <trkpt lat="45.44277" lon="5.0194">
        <ele>356</ele>
        <time>2020-02-12T20:26:36Z</time>
      </trkpt>
      <trkpt lat="45.44279" lon="5.01962">
        <ele>356</ele>
        <time>2020-02-12T20:26:39Z</time>
      </trkpt>
      <trkpt lat="45.44278" lon="5.01997">
        <ele>357</ele>
        <time>2020-02-12T20:26:43Z</time>
      </trkpt>
      <trkpt lat="45.44268" lon="5.02078">
        <ele>359</ele>
        <time>2020-02-12T20:26:53Z</time>
      </trkpt>
      <trkpt lat="45.44265" lon="5.02141">
        <ele>359</ele>
        <time>2020-02-12T20:27:01Z</time>
      </trkpt>
      <trkpt lat="45.4427" lon="5.02193">
        <ele>359</ele>
        <time>2020-02-12T20:27:08Z</time>
      </trkpt>
      <trkpt lat="45.44288" lon="5.02315">
        <ele>362</ele>
        <time>2020-02-12T20:27:23Z</time>
      </trkpt>
      <trkpt lat="45.44287" lon="5.02401">
        <ele>365</ele>
        <time>2020-02-12T20:27:34Z</time>
      </trkpt>
      <trkpt lat="45.4429" lon="5.02444">
        <ele>365</ele>
        <time>2020-02-12T20:27:39Z</time>
      </trkpt>
      <trkpt lat="45.44294" lon="5.02465">
        <ele>365</ele>
        <time>2020-02-12T20:27:42Z</time>
      </trkpt>
      <trkpt lat="45.44314" lon="5.02534">
        <ele>361</ele>
        <time>2020-02-12T20:27:51Z</time>
      </trkpt>
      <trkpt lat="45.44317" lon="5.0257">
        <ele>360</ele>
        <time>2020-02-12T20:27:56Z</time>
      </trkpt>
      <trkpt lat="45.44269" lon="5.03127">
        <ele>366</ele>
        <time>2020-02-12T20:29:06Z</time>
      </trkpt>
      <trkpt lat="45.44185" lon="5.04034">
        <ele>372</ele>
        <time>2020-02-12T20:31:00Z</time>
      </trkpt>
      <trkpt lat="45.44056" lon="5.0547">
        <ele>395</ele>
        <time>2020-02-12T20:34:01Z</time>
      </trkpt>
      <trkpt lat="45.44044" lon="5.05553">
        <ele>397</ele>
        <time>2020-02-12T20:34:11Z</time>
      </trkpt>
      <trkpt lat="45.44025" lon="5.05606">
        <ele>398</ele>
        <time>2020-02-12T20:34:19Z</time>
      </trkpt>
      <trkpt lat="45.44003" lon="5.05642">
        <ele>397</ele>
        <time>2020-02-12T20:34:25Z</time>
      </trkpt>
      <trkpt lat="45.43987" lon="5.05661">
        <ele>398</ele>
        <time>2020-02-12T20:34:29Z</time>
      </trkpt>
      <trkpt lat="45.43901" lon="5.05748">
        <ele>405</ele>
        <time>2020-02-12T20:34:47Z</time>
      </trkpt>
      <trkpt lat="45.43863" lon="5.05775">
        <ele>408</ele>
        <time>2020-02-12T20:34:55Z</time>
      </trkpt>
      <trkpt lat="45.43836" lon="5.05786">
        <ele>410</ele>
        <time>2020-02-12T20:35:00Z</time>
      </trkpt>
      <trkpt lat="45.4378" lon="5.05803">
        <ele>411</ele>
        <time>2020-02-12T20:35:10Z</time>
      </trkpt>
      <trkpt lat="45.43752" lon="5.05816">
        <ele>411</ele>
        <time>2020-02-12T20:35:15Z</time>
      </trkpt>
      <trkpt lat="45.43722" lon="5.05834">
        <ele>409</ele>
        <time>2020-02-12T20:35:21Z</time>
      </trkpt>
      <trkpt lat="45.43355" lon="5.0609">
        <ele>410</ele>
        <time>2020-02-12T20:36:34Z</time>
      </trkpt>
      <trkpt lat="45.4332" lon="5.06118">
        <ele>411</ele>
        <time>2020-02-12T20:36:41Z</time>
      </trkpt>
      <trkpt lat="45.43307" lon="5.06133">
        <ele>411</ele>
        <time>2020-02-12T20:36:44Z</time>
      </trkpt>
      <trkpt lat="45.43286" lon="5.06168">
        <ele>410</ele>
        <time>2020-02-12T20:36:50Z</time>
      </trkpt>
      <trkpt lat="45.43232" lon="5.06288">
        <ele>416</ele>
        <time>2020-02-12T20:37:07Z</time>
      </trkpt>
      <trkpt lat="45.43196" lon="5.06394">
        <ele>419</ele>
        <time>2020-02-12T20:37:22Z</time>
      </trkpt>
      <trkpt lat="45.4318" lon="5.0643">
        <ele>419</ele>
        <time>2020-02-12T20:37:28Z</time>
      </trkpt>
      <trkpt lat="45.43168" lon="5.06451">
        <ele>419</ele>
        <time>2020-02-12T20:37:31Z</time>
      </trkpt>
      <trkpt lat="45.4305" lon="5.06623">
        <ele>428</ele>
        <time>2020-02-12T20:38:01Z</time>
      </trkpt>
      <trkpt lat="45.43029" lon="5.0666">
        <ele>428</ele>
        <time>2020-02-12T20:38:07Z</time>
      </trkpt>
      <trkpt lat="45.43013" lon="5.06694">
        <ele>429</ele>
        <time>2020-02-12T20:38:12Z</time>
      </trkpt>
      <trkpt lat="45.42981" lon="5.06783">
        <ele>435</ele>
        <time>2020-02-12T20:38:24Z</time>
      </trkpt>
      <trkpt lat="45.42967" lon="5.06847">
        <ele>439</ele>
        <time>2020-02-12T20:38:33Z</time>
      </trkpt>
      <trkpt lat="45.42964" lon="5.06901">
        <ele>443</ele>
        <time>2020-02-12T20:38:40Z</time>
      </trkpt>
      <trkpt lat="45.42968" lon="5.07108">
        <ele>454</ele>
        <time>2020-02-12T20:39:05Z</time>
      </trkpt>
      <trkpt lat="45.42964" lon="5.07152">
        <ele>454</ele>
        <time>2020-02-12T20:39:11Z</time>
      </trkpt>
      <trkpt lat="45.42954" lon="5.07196">
        <ele>455</ele>
        <time>2020-02-12T20:39:17Z</time>
      </trkpt>
      <trkpt lat="45.4294" lon="5.07232">
        <ele>454</ele>
        <time>2020-02-12T20:39:22Z</time>
      </trkpt>
      <trkpt lat="45.42913" lon="5.07282">
        <ele>454</ele>
        <time>2020-02-12T20:39:30Z</time>
      </trkpt>
      <trkpt lat="45.42898" lon="5.07303">
        <ele>454</ele>
        <time>2020-02-12T20:39:34Z</time>
      </trkpt>
      <trkpt lat="45.42866" lon="5.07337">
        <ele>452</ele>
        <time>2020-02-12T20:39:41Z</time>
      </trkpt>
      <trkpt lat="45.4285" lon="5.07364">
        <ele>452</ele>
        <time>2020-02-12T20:39:45Z</time>
      </trkpt>
      <trkpt lat="45.42845" lon="5.07381">
        <ele>452</ele>
        <time>2020-02-12T20:39:47Z</time>
      </trkpt>
      <trkpt lat="45.42841" lon="5.07429">
        <ele>455</ele>
        <time>2020-02-12T20:39:53Z</time>
      </trkpt>
      <trkpt lat="45.42834" lon="5.07474">
        <ele>455</ele>
        <time>2020-02-12T20:39:59Z</time>
      </trkpt>
      <trkpt lat="45.42803" lon="5.07602">
        <ele>463</ele>
        <time>2020-02-12T20:40:16Z</time>
      </trkpt>
      <trkpt lat="45.4279" lon="5.07631">
        <ele>465</ele>
        <time>2020-02-12T20:40:20Z</time>
      </trkpt>
      <trkpt lat="45.42768" lon="5.07659">
        <ele>467</ele>
        <time>2020-02-12T20:40:26Z</time>
      </trkpt>
      <trkpt lat="45.42754" lon="5.07682">
        <ele>467</ele>
        <time>2020-02-12T20:40:29Z</time>
      </trkpt>
      <trkpt lat="45.42745" lon="5.07709">
        <ele>468</ele>
        <time>2020-02-12T20:40:33Z</time>
      </trkpt>
      <trkpt lat="45.42729" lon="5.07783">
        <ele>470</ele>
        <time>2020-02-12T20:40:43Z</time>
      </trkpt>
      <trkpt lat="45.42718" lon="5.07808">
        <ele>469</ele>
        <time>2020-02-12T20:40:46Z</time>
      </trkpt>
      <trkpt lat="45.42694" lon="5.0784">
        <ele>469</ele>
        <time>2020-02-12T20:40:52Z</time>
      </trkpt>
      <trkpt lat="45.42676" lon="5.07859">
        <ele>469</ele>
        <time>2020-02-12T20:40:56Z</time>
      </trkpt>
      <trkpt lat="45.4266" lon="5.07885">
        <ele>469</ele>
        <time>2020-02-12T20:41:01Z</time>
      </trkpt>
      <trkpt lat="45.42624" lon="5.0798">
        <ele>471</ele>
        <time>2020-02-12T20:41:14Z</time>
      </trkpt>
      <trkpt lat="45.42613" lon="5.0802">
        <ele>472</ele>
        <time>2020-02-12T20:41:19Z</time>
      </trkpt>
      <trkpt lat="45.42609" lon="5.08058">
        <ele>474</ele>
        <time>2020-02-12T20:41:24Z</time>
      </trkpt>
      <trkpt lat="45.42603" lon="5.08207">
        <ele>477</ele>
        <time>2020-02-12T20:41:43Z</time>
      </trkpt>
      <trkpt lat="45.42585" lon="5.08876">
        <ele>487</ele>
        <time>2020-02-12T20:43:07Z</time>
      </trkpt>
      <trkpt lat="45.42581" lon="5.08941">
        <ele>489</ele>
        <time>2020-02-12T20:43:15Z</time>
      </trkpt>
      <trkpt lat="45.42574" lon="5.08982">
        <ele>489</ele>
        <time>2020-02-12T20:43:20Z</time>
      </trkpt>
      <trkpt lat="45.42261" lon="5.10003">
        <ele>497</ele>
        <time>2020-02-12T20:45:39Z</time>
      </trkpt>
      <trkpt lat="45.42169" lon="5.10311">
        <ele>498</ele>
        <time>2020-02-12T20:46:21Z</time>
      </trkpt>
      <trkpt lat="45.4213" lon="5.10435">
        <ele>500</ele>
        <time>2020-02-12T20:46:38Z</time>
      </trkpt>
      <trkpt lat="45.42107" lon="5.10491">
        <ele>500</ele>
        <time>2020-02-12T20:46:46Z</time>
      </trkpt>
      <trkpt lat="45.42082" lon="5.10534">
        <ele>499</ele>
        <time>2020-02-12T20:46:53Z</time>
      </trkpt>
      <trkpt lat="45.42046" lon="5.1058">
        <ele>499</ele>
        <time>2020-02-12T20:47:02Z</time>
      </trkpt>
      <trkpt lat="45.41905" lon="5.10736">
        <ele>497</ele>
        <time>2020-02-12T20:47:33Z</time>
      </trkpt>
      <trkpt lat="45.41871" lon="5.1078">
        <ele>496</ele>
        <time>2020-02-12T20:47:41Z</time>
      </trkpt>
      <trkpt lat="45.41849" lon="5.10823">
        <ele>495</ele>
        <time>2020-02-12T20:47:48Z</time>
      </trkpt>
      <trkpt lat="45.41785" lon="5.10967">
        <ele>489</ele>
        <time>2020-02-12T20:48:09Z</time>
      </trkpt>
      <trkpt lat="45.41735" lon="5.11073">
        <ele>488</ele>
        <time>2020-02-12T20:48:25Z</time>
      </trkpt>
      <trkpt lat="45.41707" lon="5.11116">
        <ele>486</ele>
        <time>2020-02-12T20:48:33Z</time>
      </trkpt>
      <trkpt lat="45.41658" lon="5.11172">
        <ele>481</ele>
        <time>2020-02-12T20:48:44Z</time>
      </trkpt>
      <trkpt lat="45.41639" lon="5.1121">
        <ele>479</ele>
        <time>2020-02-12T20:48:50Z</time>
      </trkpt>
      <trkpt lat="45.41619" lon="5.11268">
        <ele>478</ele>
        <time>2020-02-12T20:48:58Z</time>
      </trkpt>
      <trkpt lat="45.41612" lon="5.1128">
        <ele>479</ele>
        <time>2020-02-12T20:49:00Z</time>
      </trkpt>
      <trkpt lat="45.41602" lon="5.11289">
        <ele>478</ele>
        <time>2020-02-12T20:49:02Z</time>
      </trkpt>
      <trkpt lat="45.41585" lon="5.11292">
        <ele>478</ele>
        <time>2020-02-12T20:49:05Z</time>
      </trkpt>
      <trkpt lat="45.4157" lon="5.11287">
        <ele>477</ele>
        <time>2020-02-12T20:49:08Z</time>
      </trkpt>
      <trkpt lat="45.41514" lon="5.11238">
        <ele>474</ele>
        <time>2020-02-12T20:49:19Z</time>
      </trkpt>
      <trkpt lat="45.41486" lon="5.11221">
        <ele>471</ele>
        <time>2020-02-12T20:49:25Z</time>
      </trkpt>
      <trkpt lat="45.41453" lon="5.11206">
        <ele>468</ele>
        <time>2020-02-12T20:49:31Z</time>
      </trkpt>
      <trkpt lat="45.41402" lon="5.11192">
        <ele>463</ele>
        <time>2020-02-12T20:49:40Z</time>
      </trkpt>
      <trkpt lat="45.41354" lon="5.11186">
        <ele>458</ele>
        <time>2020-02-12T20:49:49Z</time>
      </trkpt>
      <trkpt lat="45.41136" lon="5.11168">
        <ele>448</ele>
        <time>2020-02-12T20:50:28Z</time>
      </trkpt>
      <trkpt lat="45.41115" lon="5.11168">
        <ele>447</ele>
        <time>2020-02-12T20:50:31Z</time>
      </trkpt>
      <trkpt lat="45.4109" lon="5.1117">
        <ele>446</ele>
        <time>2020-02-12T20:50:36Z</time>
      </trkpt>
      <trkpt lat="45.41072" lon="5.11175">
        <ele>444</ele>
        <time>2020-02-12T20:50:39Z</time>
      </trkpt>
      <trkpt lat="45.41059" lon="5.11182">
        <ele>443</ele>
        <time>2020-02-12T20:50:41Z</time>
      </trkpt>
      <trkpt lat="45.41044" lon="5.11197">
        <ele>442</ele>
        <time>2020-02-12T20:50:45Z</time>
      </trkpt>
      <trkpt lat="45.41034" lon="5.11212">
        <ele>442</ele>
        <time>2020-02-12T20:50:47Z</time>
      </trkpt>
      <trkpt lat="45.41026" lon="5.11234">
        <ele>441</ele>
        <time>2020-02-12T20:50:50Z</time>
      </trkpt>
      <trkpt lat="45.41002" lon="5.11382">
        <ele>440</ele>
        <time>2020-02-12T20:51:09Z</time>
      </trkpt>
      <trkpt lat="45.40996" lon="5.11407">
        <ele>439</ele>
        <time>2020-02-12T20:51:13Z</time>
      </trkpt>
      <trkpt lat="45.40982" lon="5.11441">
        <ele>438</ele>
        <time>2020-02-12T20:51:18Z</time>
      </trkpt>
      <trkpt lat="45.40945" lon="5.11494">
        <ele>435</ele>
        <time>2020-02-12T20:51:27Z</time>
      </trkpt>
      <trkpt lat="45.40706" lon="5.11802">
        <ele>417</ele>
        <time>2020-02-12T20:52:24Z</time>
      </trkpt>
      <trkpt lat="45.40692" lon="5.11815">
        <ele>417</ele>
        <time>2020-02-12T20:52:27Z</time>
      </trkpt>
      <trkpt lat="45.40679" lon="5.1188">
        <ele>414</ele>
        <time>2020-02-12T20:52:36Z</time>
      </trkpt>
      <trkpt lat="45.40665" lon="5.11924">
        <ele>413</ele>
        <time>2020-02-12T20:52:42Z</time>
      </trkpt>
      <trkpt lat="45.40577" lon="5.121">
        <ele>404</ele>
        <time>2020-02-12T20:53:09Z</time>
      </trkpt>
      <trkpt lat="45.40551" lon="5.12158">
        <ele>402</ele>
        <time>2020-02-12T20:53:17Z</time>
      </trkpt>
      <trkpt lat="45.40541" lon="5.12189">
        <ele>401</ele>
        <time>2020-02-12T20:53:22Z</time>
      </trkpt>
      <trkpt lat="45.40483" lon="5.12417">
        <ele>396</ele>
        <time>2020-02-12T20:53:52Z</time>
      </trkpt>
      <trkpt lat="45.40467" lon="5.1252">
        <ele>394</ele>
        <time>2020-02-12T20:54:05Z</time>
      </trkpt>
      <trkpt lat="45.40452" lon="5.12577">
        <ele>393</ele>
        <time>2020-02-12T20:54:13Z</time>
      </trkpt>
      <trkpt lat="45.40443" lon="5.126">
        <ele>392</ele>
        <time>2020-02-12T20:54:16Z</time>
      </trkpt>
      <trkpt lat="45.40425" lon="5.12635">
        <ele>390</ele>
        <time>2020-02-12T20:54:21Z</time>
      </trkpt>
      <trkpt lat="45.40322" lon="5.12803">
        <ele>383</ele>
        <time>2020-02-12T20:54:49Z</time>
      </trkpt>
      <trkpt lat="45.40303" lon="5.12848">
        <ele>382</ele>
        <time>2020-02-12T20:54:56Z</time>
      </trkpt>
      <trkpt lat="45.40298" lon="5.1287">
        <ele>381</ele>
        <time>2020-02-12T20:54:59Z</time>
      </trkpt>
      <trkpt lat="45.40295" lon="5.12899">
        <ele>380</ele>
        <time>2020-02-12T20:55:02Z</time>
      </trkpt>
      <trkpt lat="45.40297" lon="5.12931">
        <ele>379</ele>
        <time>2020-02-12T20:55:06Z</time>
      </trkpt>
      <trkpt lat="45.40296" lon="5.1297">
        <ele>377</ele>
        <time>2020-02-12T20:55:11Z</time>
      </trkpt>
      <trkpt lat="45.40288" lon="5.13004">
        <ele>375</ele>
        <time>2020-02-12T20:55:16Z</time>
      </trkpt>
      <trkpt lat="45.4028" lon="5.13018">
        <ele>374</ele>
        <time>2020-02-12T20:55:18Z</time>
      </trkpt>
      <trkpt lat="45.40261" lon="5.13041">
        <ele>372</ele>
        <time>2020-02-12T20:55:22Z</time>
      </trkpt>
      <trkpt lat="45.40038" lon="5.13261">
        <ele>363</ele>
        <time>2020-02-12T20:56:11Z</time>
      </trkpt>
      <trkpt lat="45.40008" lon="5.13293">
        <ele>362</ele>
        <time>2020-02-12T20:56:17Z</time>
      </trkpt>
      <trkpt lat="45.39978" lon="5.13339">
        <ele>359</ele>
        <time>2020-02-12T20:56:25Z</time>
      </trkpt>
      <trkpt lat="45.39908" lon="5.1348">
        <ele>361</ele>
        <time>2020-02-12T20:56:47Z</time>
      </trkpt>
      <trkpt lat="45.39887" lon="5.13525">
        <ele>363</ele>
        <time>2020-02-12T20:56:54Z</time>
      </trkpt>
      <trkpt lat="45.39875" lon="5.13562">
        <ele>363</ele>
        <time>2020-02-12T20:56:59Z</time>
      </trkpt>
      <trkpt lat="45.39863" lon="5.13618">
        <ele>362</ele>
        <time>2020-02-12T20:57:06Z</time>
      </trkpt>
      <trkpt lat="45.39508" lon="5.1609">
        <ele>374</ele>
        <time>2020-02-12T21:02:21Z</time>
      </trkpt>
      <trkpt lat="45.39502" lon="5.16121">
        <ele>374</ele>
        <time>2020-02-12T21:02:25Z</time>
      </trkpt>
      <trkpt lat="45.39484" lon="5.16182">
        <ele>374</ele>
        <time>2020-02-12T21:02:33Z</time>
      </trkpt>
      <trkpt lat="45.39344" lon="5.16607">
        <ele>376</ele>
        <time>2020-02-12T21:03:32Z</time>
      </trkpt>
      <trkpt lat="45.3933" lon="5.16659">
        <ele>375</ele>
        <time>2020-02-12T21:03:39Z</time>
      </trkpt>
      <trkpt lat="45.3932" lon="5.16715">
        <ele>375</ele>
        <time>2020-02-12T21:03:46Z</time>
      </trkpt>
      <trkpt lat="45.39319" lon="5.1675">
        <ele>374</ele>
        <time>2020-02-12T21:03:51Z</time>
      </trkpt>
      <trkpt lat="45.39329" lon="5.16775">
        <ele>372</ele>
        <time>2020-02-12T21:03:54Z</time>
      </trkpt>
      <trkpt lat="45.39335" lon="5.16798">
        <ele>371</ele>
        <time>2020-02-12T21:03:57Z</time>
      </trkpt>
      <trkpt lat="45.39352" lon="5.16924">
        <ele>363</ele>
        <time>2020-02-12T21:04:13Z</time>
      </trkpt>
      <trkpt lat="45.39363" lon="5.16966">
        <ele>361</ele>
        <time>2020-02-12T21:04:19Z</time>
      </trkpt>
      <trkpt lat="45.39365" lon="5.16985">
        <ele>359</ele>
        <time>2020-02-12T21:04:21Z</time>
      </trkpt>
      <trkpt lat="45.39362" lon="5.16994">
        <ele>359</ele>
        <time>2020-02-12T21:04:23Z</time>
      </trkpt>
      <trkpt lat="45.39365" lon="5.17009">
        <ele>358</ele>
        <time>2020-02-12T21:04:25Z</time>
      </trkpt>
      <trkpt lat="45.3936" lon="5.17033">
        <ele>358</ele>
        <time>2020-02-12T21:04:28Z</time>
      </trkpt>
      <trkpt lat="45.39358" lon="5.17068">
        <ele>359</ele>
        <time>2020-02-12T21:04:32Z</time>
      </trkpt>
      <trkpt lat="45.39341" lon="5.17515">
        <ele>358</ele>
        <time>2020-02-12T21:05:28Z</time>
      </trkpt>
      <trkpt lat="45.39335" lon="5.176">
        <ele>359</ele>
        <time>2020-02-12T21:05:39Z</time>
      </trkpt>
      <trkpt lat="45.3933" lon="5.17623">
        <ele>359</ele>
        <time>2020-02-12T21:05:42Z</time>
      </trkpt>
      <trkpt lat="45.39312" lon="5.17679">
        <ele>359</ele>
        <time>2020-02-12T21:05:49Z</time>
      </trkpt>
      <trkpt lat="45.39232" lon="5.1788">
        <ele>360</ele>
        <time>2020-02-12T21:06:18Z</time>
      </trkpt>
      <trkpt lat="45.39182" lon="5.18">
        <ele>362</ele>
        <time>2020-02-12T21:06:36Z</time>
      </trkpt>
      <trkpt lat="45.39049" lon="5.18282">
        <ele>364</ele>
        <time>2020-02-12T21:07:18Z</time>
      </trkpt>
      <trkpt lat="45.39036" lon="5.18315">
        <ele>364</ele>
        <time>2020-02-12T21:07:23Z</time>
      </trkpt>
      <trkpt lat="45.39026" lon="5.18355">
        <ele>365</ele>
        <time>2020-02-12T21:07:28Z</time>
      </trkpt>
      <trkpt lat="45.39028" lon="5.18784">
        <ele>371</ele>
        <time>2020-02-12T21:08:22Z</time>
      </trkpt>
      <trkpt lat="45.39026" lon="5.19139">
        <ele>377</ele>
        <time>2020-02-12T21:09:06Z</time>
      </trkpt>
      <trkpt lat="45.39025" lon="5.19191">
        <ele>377</ele>
        <time>2020-02-12T21:09:13Z</time>
      </trkpt>
      <trkpt lat="45.39012" lon="5.19311">
        <ele>375</ele>
        <time>2020-02-12T21:09:28Z</time>
      </trkpt>
      <trkpt lat="45.39012" lon="5.19338">
        <ele>375</ele>
        <time>2020-02-12T21:09:31Z</time>
      </trkpt>
      <trkpt lat="45.39024" lon="5.19476">
        <ele>378</ele>
        <time>2020-02-12T21:09:49Z</time>
      </trkpt>
      <trkpt lat="45.39126" lon="5.20906">
        <ele>363</ele>
        <time>2020-02-12T21:12:48Z</time>
      </trkpt>
      <trkpt lat="45.39137" lon="5.21103">
        <ele>360</ele>
        <time>2020-02-12T21:13:13Z</time>
      </trkpt>
      <trkpt lat="45.39209" lon="5.22675">
        <ele>368</ele>
        <time>2020-02-12T21:16:30Z</time>
      </trkpt>
      <trkpt lat="45.39256" lon="5.23757">
        <ele>365</ele>
        <time>2020-02-12T21:18:45Z</time>
      </trkpt>
      <trkpt lat="45.39257" lon="5.23821">
        <ele>364</ele>
        <time>2020-02-12T21:18:53Z</time>
      </trkpt>
      <trkpt lat="45.39268" lon="5.2389">
        <ele>361</ele>
        <time>2020-02-12T21:19:02Z</time>
      </trkpt>
      <trkpt lat="45.38976" lon="5.24234">
        <ele>358</ele>
        <time>2020-02-12T21:20:09Z</time>
      </trkpt>
      <trkpt lat="45.38829" lon="5.24414">
        <ele>355</ele>
        <time>2020-02-12T21:20:44Z</time>
      </trkpt>
      <trkpt lat="45.38802" lon="5.24441">
        <ele>355</ele>
        <time>2020-02-12T21:20:50Z</time>
      </trkpt>
      <trkpt lat="45.38739" lon="5.24528">
        <ele>356</ele>
        <time>2020-02-12T21:21:05Z</time>
      </trkpt>
      <trkpt lat="45.38721" lon="5.24546">
        <ele>356</ele>
        <time>2020-02-12T21:21:09Z</time>
      </trkpt>
      <trkpt lat="45.38712" lon="5.24543">
        <ele>356</ele>
        <time>2020-02-12T21:21:11Z</time>
      </trkpt>
      <trkpt lat="45.38702" lon="5.24543">
        <ele>356</ele>
        <time>2020-02-12T21:21:13Z</time>
      </trkpt>
      <trkpt lat="45.38694" lon="5.24549">
        <ele>356</ele>
        <time>2020-02-12T21:21:14Z</time>
      </trkpt>
      <trkpt lat="45.38687" lon="5.24569">
        <ele>357</ele>
        <time>2020-02-12T21:21:17Z</time>
      </trkpt>
      <trkpt lat="45.38687" lon="5.2459">
        <ele>357</ele>
        <time>2020-02-12T21:21:20Z</time>
      </trkpt>
      <trkpt lat="45.38664" lon="5.24633">
        <ele>358</ele>
        <time>2020-02-12T21:21:26Z</time>
      </trkpt>
      <trkpt lat="45.38594" lon="5.24748">
        <ele>355</ele>
        <time>2020-02-12T21:21:46Z</time>
      </trkpt>
      <trkpt lat="45.38575" lon="5.24785">
        <ele>354</ele>
        <time>2020-02-12T21:21:51Z</time>
      </trkpt>
      <trkpt lat="45.38504" lon="5.24906">
        <ele>346</ele>
        <time>2020-02-12T21:22:11Z</time>
      </trkpt>
      <trkpt lat="45.38456" lon="5.24999">
        <ele>344</ele>
        <time>2020-02-12T21:22:25Z</time>
      </trkpt>
      <trkpt lat="45.38395" lon="5.25128">
        <ele>344</ele>
        <time>2020-02-12T21:22:45Z</time>
      </trkpt>
      <trkpt lat="45.38354" lon="5.25222">
        <ele>345</ele>
        <time>2020-02-12T21:22:59Z</time>
      </trkpt>
      <trkpt lat="45.38301" lon="5.25357">
        <ele>346</ele>
        <time>2020-02-12T21:23:18Z</time>
      </trkpt>
      <trkpt lat="45.38248" lon="5.25509">
        <ele>347</ele>
        <time>2020-02-12T21:23:39Z</time>
      </trkpt>
      <trkpt lat="45.382" lon="5.25668">
        <ele>348</ele>
        <time>2020-02-12T21:24:01Z</time>
      </trkpt>
      <trkpt lat="45.3807" lon="5.26149">
        <ele>348</ele>
        <time>2020-02-12T21:25:05Z</time>
      </trkpt>
      <trkpt lat="45.38057" lon="5.26181">
        <ele>348</ele>
        <time>2020-02-12T21:25:10Z</time>
      </trkpt>
      <trkpt lat="45.38041" lon="5.26208">
        <ele>348</ele>
        <time>2020-02-12T21:25:14Z</time>
      </trkpt>
      <trkpt lat="45.38037" lon="5.26235">
        <ele>348</ele>
        <time>2020-02-12T21:25:18Z</time>
      </trkpt>
      <trkpt lat="45.38037" lon="5.26255">
        <ele>348</ele>
        <time>2020-02-12T21:25:20Z</time>
      </trkpt>
      <trkpt lat="45.3804" lon="5.26272">
        <ele>348</ele>
        <time>2020-02-12T21:25:22Z</time>
      </trkpt>
      <trkpt lat="45.3805" lon="5.26294">
        <ele>349</ele>
        <time>2020-02-12T21:25:26Z</time>
      </trkpt>
      <trkpt lat="45.38072" lon="5.26296">
        <ele>349</ele>
        <time>2020-02-12T21:25:30Z</time>
      </trkpt>
      <trkpt lat="45.3829" lon="5.26281">
        <ele>354</ele>
        <time>2020-02-12T21:26:08Z</time>
      </trkpt>
      <trkpt lat="45.38336" lon="5.26276">
        <ele>354</ele>
        <time>2020-02-12T21:26:17Z</time>
      </trkpt>
      <trkpt lat="45.38631" lon="5.26257">
        <ele>357</ele>
        <time>2020-02-12T21:27:09Z</time>
      </trkpt>
      <trkpt lat="45.38693" lon="5.26249">
        <ele>356</ele>
        <time>2020-02-12T21:27:20Z</time>
      </trkpt>
    </trkseg>
  </trk>
</gpx>